# Wetter Temperatur Luftdruck Luftfeuchtigkeit Sichtweite Windgeschwindigkeit Windrichtung Zeit
1 Clouds 22 1020 68 10000 9.3 20 11:40 08.04.2020
2 Clouds 21 1020 68 10000 9.3 20 11:22 08.04.2020
3 Clouds 21 1020 73 10000 9.3 20 10:57 08.04.2020
4 Clouds 20 1020 77 10000 8.7 10 10:39 08.04.2020
5 Clouds 20 1020 77 10000 8.7 10 10:20 08.04.2020
6 Clouds 20 1020 77 10000 7.2 20 09:56 08.04.2020
7 Clouds 19 1019 88 10000 7.7 20 09:38 08.04.2020
8 Clouds 19 1019 88 10000 7.7 20 09:18 08.04.2020
9 Clouds 18 1019 88 10000 7.7 20 08:42 08.04.2020
10 Clouds 18 1019 88 10000 7.7 20 08:42 08.04.2020
11 Clouds 18 1019 88 10000 7.7 20 08:23 08.04.2020
12 Clouds 18 1019 88 10000 7.7 20 08:23 08.04.2020
13 Clouds 19 1019 77 10000 7.2 20 07:47 08.04.2020
14 Clouds 19 1019 77 10000 7.2 20 07:28 08.04.2020
15 Clouds 19 1019 77 10000 5.7 20 06:59 08.04.2020
16 Clouds 19 1020 77 10000 8.2 10 06:19 08.04.2020
17 Clouds 20 1020 72 10000 8.2 360 04:19 08.04.2020
18 Clouds 20 1021 72 10000 7.7 10 02:49 08.04.2020
19 Clouds 20 1021 72 10000 7.2 360 02:20 08.04.2020
20 Clouds 20 1021 77 10000 7.2 10 01:45 08.04.2020
21 Clouds 20 1021 77 10000 7.2 10 01:23 08.04.2020
22 Clouds 20 1021 77 10000 9.3 20 00:41 08.04.2020
23 Clouds 20 1021 77 10000 9.3 20 00:21 08.04.2020
24 Clouds 20 1020 77 10000 8.2 10 23:39 07.04.2020
25 Clouds 20 1020 77 10000 8.2 10 23:21 07.04.2020
26 Clouds 20 1020 77 10000 8.2 10 22:57 07.04.2020
27 Clouds 20 1019 73 10000 8.7 10 22:39 07.04.2020
28 Clouds 20 1019 73 10000 8.7 10 22:19 07.04.2020
29 Clouds 20 1019 73 10000 8.7 10 21:56 07.04.2020
30 Clouds 21 1019 77 10000 10.8 30 21:38 07.04.2020
31 Clouds 21 1019 77 10000 10.8 30 21:19 07.04.2020
32 Clouds 21 1019 77 10000 9.3 20 20:56 07.04.2020
33 Clouds 21 1019 73 10000 8.7 30 20:37 07.04.2020
34 Clouds 21 1019 73 10000 8.7 30 20:19 07.04.2020
35 Clouds 22 1019 73 10000 8.2 30 19:56 07.04.2020
36 Clouds 22 1019 73 10000 8.2 30 19:56 07.04.2020
37 Clouds 22 1019 73 10000 8.2 30 19:36 07.04.2020
38 Clouds 21 1019 73 10000 6.7 30 19:18 07.04.2020
39 Clouds 22 1019 73 10000 6.7 30 18:54 07.04.2020
40 Clouds 22 1019 73 10000 6.2 30 18:36 07.04.2020
41 Clouds 22 1019 69 10000 6.7 40 18:18 07.04.2020
42 Clouds 23 1020 69 10000 7.2 30 17:41 07.04.2020
43 Clouds 23 1020 69 10000 7.7 40 17:20 07.04.2020
44 Clouds 23 1020 69 10000 7.7 30 16:45 07.04.2020
45 Clouds 23 1021 69 10000 7.7 30 16:27 07.04.2020
46 Clouds 23 1021 69 10000 7.7 30 15:55 07.04.2020
47 Clouds 23 1021 69 10000 7.7 30 15:36 07.04.2020
48 Clouds 23 1022 69 10000 6.7 40 15:18 07.04.2020
49 Clouds 23 1022 69 10000 7.2 30 14:39 07.04.2020
50 Clouds 23 1022 69 10000 7.2 30 14:21 07.04.2020
51 Clouds 23 1022 69 10000 7.7 30 13:54 07.04.2020
52 Clouds 23 1022 69 10000 7.7 30 13:36 07.04.2020
53 Clouds 22 1022 73 10000 7.7 40 13:18 07.04.2020
54 Clouds 22 1022 73 10000 7.7 30 12:40 07.04.2020
55 Clouds 22 1022 73 10000 7.7 30 12:22 07.04.2020
56 Clouds 21 1021 73 10000 7.2 40 11:59 07.04.2020
57 Clouds 21 1021 73 10000 6.7 20 11:41 07.04.2020
58 Clouds 21 1021 73 10000 6.7 20 11:21 07.04.2020
59 Clouds 21 1021 73 10000 6.2 20 10:56 07.04.2020
60 Clouds 20 1021 77 10000 5.1 360 10:37 07.04.2020
61 Clouds 19 1021 77 10000 4.6 360 10:18 07.04.2020
62 Clouds 19 1020 77 10000 6.2 360 09:44 07.04.2020
63 Clouds 19 1020 77 10000 6.7 10 09:18 07.04.2020
64 Clouds 19 1020 77 10000 7.2 360 08:42 07.04.2020
65 Clouds 19 1020 77 10000 7.2 360 08:24 07.04.2020
66 Clouds 19 1020 72 10000 7.7 360 07:58 07.04.2020
67 Clouds 19 1020 77 10000 6.7 360 07:40 07.04.2020
68 Clouds 18 1020 77 10000 6.7 360 07:21 07.04.2020
69 Clouds 18 1020 82 10000 6.2 360 06:48 07.04.2020
70 Clouds 18 1020 82 10000 6.2 360 06:20 07.04.2020
71 Clouds 18 1021 82 10000 7.7 360 05:32 07.04.2020
72 Clouds 19 1021 82 10000 6.2 360 04:35 07.04.2020
73 Clouds 19 1022 77 10000 7.7 360 03:24 07.04.2020
74 Clouds 19 1022 77 10000 7.2 10 02:48 07.04.2020
75 Clouds 19 1022 77 10000 6.2 10 01:48 07.04.2020
76 Clouds 19 1022 77 10000 6.2 10 01:24 07.04.2020
77 Clouds 20 1022 77 10000 7.2 10 00:28 07.04.2020
78 Clouds 20 1021 73 10000 7.2 10 23:44 06.04.2020
79 Clouds 20 1021 73 10000 7.2 10 23:24 06.04.2020
80 Clouds 20 1021 73 10000 6.7 360 22:58 06.04.2020
81 Clouds 20 1021 73 10000 7.2 10 22:38 06.04.2020
82 Clouds 21 1021 73 10000 7.2 10 22:20 06.04.2020
83 Clouds 21 1021 77 10000 8.2 20 21:57 06.04.2020
84 Clouds 21 1020 77 10000 8.7 40 21:38 06.04.2020
85 Clouds 21 1020 77 10000 8.7 40 21:18 06.04.2020
86 Clouds 21 1020 73 10000 9.8 30 20:54 06.04.2020
87 Clouds 21 1020 73 10000 10.3 30 20:36 06.04.2020
88 Clouds 22 1020 69 10000 8.2 40 20:18 06.04.2020
89 Clouds 22 1020 69 10000 8.2 40 20:18 06.04.2020
90 Clouds 22 1020 69 10000 7.7 30 19:40 06.04.2020
91 Clouds 22 1020 69 10000 7.7 30 19:22 06.04.2020
92 Clouds 22 1020 64 10000 7.2 30 18:57 06.04.2020
93 Clouds 23 1020 64 10000 7.7 30 18:39 06.04.2020
94 Clouds 23 1020 64 10000 7.7 30 18:20 06.04.2020
95 Clouds 23 1021 57 10000 7.2 30 17:42 06.04.2020
96 Clouds 24 1021 57 10000 7.2 30 17:20 06.04.2020
97 Clouds 24 1021 60 10000 7.7 40 16:50 06.04.2020
98 Clouds 24 1021 60 10000 7.7 40 16:31 06.04.2020
99 Clouds 23 1021 69 10000 7.2 40 15:41 06.04.2020
100 Clouds 24 1022 64 10000 9.8 30 13:46 06.04.2020
101 Clouds 23 1022 60 10000 9.3 40 13:24 06.04.2020
102 Clouds 23 1022 60 10000 9.3 40 13:02 06.04.2020
103 Clouds 23 1022 60 10000 9.3 40 13:02 06.04.2020
104 Clouds 23 1022 60 10000 9.3 40 13:02 06.04.2020
105 Clouds 22 1022 64 10000 7.7 40 12:22 06.04.2020
106 Clouds 22 1022 64 10000 7.7 40 12:22 06.04.2020
107 Clouds 22 1022 69 10000 7.2 30 11:54 06.04.2020
108 Clouds 22 1022 69 10000 7.2 30 11:54 06.04.2020
109 Clouds 21 1022 77 10000 5.7 30 11:33 06.04.2020
110 Clouds 21 1022 77 10000 5.7 30 11:33 06.04.2020
111 Clouds 21 1022 77 10000 5.7 30 11:33 06.04.2020
112 Clouds 21 1022 77 10000 5.7 30 11:33 06.04.2020
113 Clouds 21 1022 77 10000 5.7 30 11:33 06.04.2020
114 Clouds 21 1022 73 10000 2.6 0 10:51 06.04.2020
115 Clouds 21 1022 73 10000 2.6 0 10:51 06.04.2020
116 Clouds 21 1022 73 10000 2.6 0 10:51 06.04.2020
117 Clouds 21 1022 73 10000 2.6 0 10:51 06.04.2020
118 Clouds 21 1022 73 10000 2.6 0 10:51 06.04.2020
119 Clouds 19 1021 72 10000 2.1 310 10:21 06.04.2020
120 Clouds 19 1021 72 10000 2.6 320 09:47 06.04.2020
121 Clouds 19 1021 72 10000 2.6 320 09:47 06.04.2020
122 Clouds 19 1021 72 10000 2.6 320 09:47 06.04.2020
123 Clouds 19 1021 72 10000 2.6 330 09:21 06.04.2020
124 Clouds 18 1020 77 10000 3.1 320 08:54 06.04.2020
125 Clouds 18 1020 77 10000 3.1 310 08:30 06.04.2020
126 Clouds 18 1019 77 10000 1.5 280 07:37 06.04.2020
127 Clouds 18 1019 77 10000 1.5 280 07:37 06.04.2020
128 Clouds 19 1019 77 10000 2.1 300 06:42 06.04.2020
129 Clouds 19 1019 77 10000 2.6 320 06:23 06.04.2020
130 Clouds 19 1020 77 10000 3.6 340 04:20 06.04.2020
131 Clouds 20 1021 88 10000 5.1 10 02:58 06.04.2020
132 Clouds 20 1021 88 10000 4.1 20 02:36 06.04.2020
133 Clouds 20 1021 73 10000 4.6 20 01:26 06.04.2020
134 Clouds 20 1021 73 10000 4.1 20 00:44 06.04.2020
135 Clouds 20 1021 73 10000 3.6 20 00:23 06.04.2020
136 Clouds 21 1021 77 10000 2.1 30 23:44 05.04.2020
137 Clouds 21 1020 77 10000 2.1 70 23:25 05.04.2020
138 Clouds 21 1020 77 10000 2.1 70 23:25 05.04.2020
139 Clouds 21 1020 68 10000 2.1 50 22:55 05.04.2020
140 Clouds 21 1020 68 10000 3.6 40 22:37 05.04.2020
141 Clouds 21 1020 68 10000 3.6 40 22:18 05.04.2020
142 Clouds 21 1019 68 10000 1.5 80 21:46 05.04.2020
143 Clouds 21 1019 73 10000 1.5 140 21:25 05.04.2020
144 Clouds 22 1019 73 10000 2.1 150 20:46 05.04.2020
145 Clouds 22 1018 68 10000 2.1 140 20:18 05.04.2020
146 Clouds 22 1018 68 10000 2.1 140 20:18 05.04.2020
147 Clouds 22 1018 68 10000 2.1 140 20:18 05.04.2020
148 Clouds 22 1018 68 10000 2.1 140 20:18 05.04.2020
149 Clouds 22 1018 73 10000 3.1 150 19:37 05.04.2020
150 Clouds 22 1018 73 10000 3.1 150 19:19 05.04.2020
151 Clouds 23 1018 69 10000 3.1 150 18:44 05.04.2020
152 Clouds 23 1018 69 10000 3.1 150 18:44 05.04.2020
153 Clouds 23 1018 69 10000 3.1 150 18:44 05.04.2020
154 Clouds 23 1018 69 10000 3.1 150 18:44 05.04.2020
155 Clouds 23 1018 69 10000 3.1 150 18:44 05.04.2020
156 Clouds 22 1018 73 10000 3.1 140 17:52 05.04.2020
157 Clouds 22 1018 73 10000 3.1 140 17:52 05.04.2020
158 Clouds 22 1018 73 10000 3.1 140 17:52 05.04.2020
159 Clouds 22 1018 73 10000 3.1 140 17:52 05.04.2020
160 Clouds 22 1018 73 10000 3.1 130 17:24 05.04.2020
161 Clouds 22 1018 73 10000 3.1 130 17:24 05.04.2020
162 Clouds 22 1018 73 10000 3.1 140 16:49 05.04.2020
163 Clouds 22 1018 73 10000 3.1 140 16:49 05.04.2020
164 Clouds 22 1018 73 10000 3.1 140 16:49 05.04.2020
165 Clouds 22 1019 78 10000 2.6 110 16:20 05.04.2020
166 Clouds 22 1019 73 10000 2.6 110 15:51 05.04.2020
167 Clouds 22 1019 78 10000 2.6 130 15:32 05.04.2020
168 Clouds 22 1019 78 10000 2.6 130 15:32 05.04.2020
169 Clouds 22 1019 73 10000 2.6 140 14:50 05.04.2020
170 Clouds 22 1019 73 10000 2.6 140 14:50 05.04.2020
171 Clouds 22 1019 73 10000 2.6 140 14:25 05.04.2020
172 Clouds 22 1019 73 10000 2.6 140 14:25 05.04.2020
173 Clouds 22 1019 73 10000 2.6 130 13:43 05.04.2020
174 Clouds 21 1019 73 10000 2.6 110 12:49 05.04.2020
175 Clouds 21 1019 73 10000 2.6 110 12:49 05.04.2020
176 Clouds 21 1019 73 10000 1.5 100 11:41 05.04.2020
177 Clouds 21 1018 68 10000 1.5 90 11:21 05.04.2020
178 Clouds 21 1018 68 10000 0.74 71 10:49 05.04.2020
179 Clouds 19 1018 72 10000 0.5 0 10:24 05.04.2020
180 Clouds 18 1017 72 10000 1.5 300 09:58 05.04.2020
181 Clouds 18 1017 72 10000 1.5 300 09:58 05.04.2020
182 Clouds 17 1017 72 10000 0.5 0 09:31 05.04.2020
183 Clouds 17 1017 77 10000 1 250 09:02 05.04.2020
184 Clouds 17 1017 77 10000 1 250 09:02 05.04.2020
185 Clouds 17 1017 77 10000 1 250 09:02 05.04.2020
186 Clouds 18 1016 72 10000 0.07 322 07:31 05.04.2020
187 Clouds 18 1016 82 10000 1 230 04:36 05.04.2020
188 Clouds 18 1016 82 10000 2.1 240 03:31 05.04.2020
189 Clouds 19 1016 82 10000 1.5 250 02:49 05.04.2020
190 Clouds 19 1016 77 10000 1 0 01:47 05.04.2020
191 Clouds 19 1016 77 10000 1.5 330 01:28 05.04.2020
192 Clouds 20 1016 82 10000 2.6 10 00:44 05.04.2020
193 Clouds 20 1016 82 10000 2.1 20 00:21 05.04.2020
194 Clouds 20 1015 82 10000 1.5 20 23:43 04.04.2020
195 Clouds 20 1015 77 10000 2.1 50 23:23 04.04.2020
196 Clouds 20 1014 77 10000 2.1 60 22:59 04.04.2020
197 Clouds 21 1014 77 10000 2.1 60 22:40 04.04.2020
198 Clouds 21 1014 83 10000 1 0 22:21 04.04.2020
199 Clouds 21 1013 77 10000 2.1 80 21:58 04.04.2020
200 Clouds 21 1013 77 10000 2.1 80 21:39 04.04.2020
201 Clouds 21 1013 83 10000 1.5 80 21:19 04.04.2020
202 Clouds 21 1013 83 10000 1.5 90 20:58 04.04.2020
203 Clouds 21 1013 83 10000 1.5 90 20:39 04.04.2020
204 Clouds 21 1013 77 10000 2.6 140 20:20 04.04.2020
205 Clouds 22 1012 78 10000 3.1 130 19:57 04.04.2020
206 Clouds 22 1012 78 10000 3.1 110 19:37 04.04.2020
207 Clouds 23 1012 78 10000 3.1 110 19:19 04.04.2020
208 Clouds 23 1012 73 10000 3.1 130 18:55 04.04.2020
209 Clouds 23 1012 78 10000 3.1 130 18:37 04.04.2020
210 Clouds 23 1012 78 10000 3.1 130 18:18 04.04.2020
211 Clouds 22 1012 77 10000 3.1 130 17:41 04.04.2020
212 Clouds 23 1013 73 10000 3.6 140 17:20 04.04.2020
213 Clouds 23 1013 73 10000 4.1 130 16:55 04.04.2020
214 Clouds 23 1013 68 10000 3.6 130 16:37 04.04.2020
215 Clouds 23 1013 68 10000 3.6 130 16:19 04.04.2020
216 Clouds 23 1013 69 10000 3.6 130 15:41 04.04.2020
217 Clouds 23 1013 69 10000 3.6 140 15:22 04.04.2020
218 Clouds 22 1013 73 10000 3.6 130 14:57 04.04.2020
219 Clouds 22 1013 73 10000 3.6 130 14:39 04.04.2020
220 Clouds 23 1013 73 10000 3.6 130 14:21 04.04.2020
221 Clouds 22 1013 73 10000 3.6 120 13:55 04.04.2020
222 Clouds 22 1013 73 10000 3.6 110 13:37 04.04.2020
223 Clouds 22 1013 73 10000 3.6 110 13:18 04.04.2020
224 Clouds 22 1012 60 10000 3.6 70 12:44 04.04.2020
225 Clouds 22 1012 60 10000 3.6 70 12:44 04.04.2020
226 Clouds 22 1012 64 10000 4.6 50 12:23 04.04.2020
227 Clouds 21 1012 73 10000 3.6 70 11:58 04.04.2020
228 Clouds 21 1011 68 10000 3.1 50 11:38 04.04.2020
229 Clouds 21 1011 68 10000 3.1 50 11:19 04.04.2020
230 Clouds 20 1011 72 10000 2.1 50 10:55 04.04.2020
231 Clouds 19 1010 77 10000 0.5 0 10:37 04.04.2020
232 Clouds 19 1010 77 10000 0.5 0 10:18 04.04.2020
233 Clouds 18 1010 77 10000 0.5 0 09:54 04.04.2020
234 Clouds 18 1010 77 10000 0.99 353 09:36 04.04.2020
235 Clouds 17 1010 77 10000 1.01 215 09:18 04.04.2020
236 Clouds 18 1010 77 10000 1 0 08:38 04.04.2020
237 Clouds 18 1010 77 10000 1 0 08:20 04.04.2020
238 Clouds 18 1009 72 10000 1.01 215 07:41 04.04.2020
239 Clouds 18 1010 72 10000 1.5 330 07:23 04.04.2020
240 Clouds 18 1010 77 10000 1 0 06:47 04.04.2020
241 Clouds 18 1009 77 10000 1 0 06:18 04.04.2020
242 Clouds 18 1010 77 10000 0.5 0 05:41 04.04.2020
243 Clouds 18 1010 72 10000 1 0 05:23 04.04.2020
244 Clouds 18 1010 77 10000 1.5 310 04:27 04.04.2020
245 Clouds 18 1011 77 10000 1.5 290 03:49 04.04.2020
246 Clouds 19 1011 72 10000 1.5 280 02:50 04.04.2020
247 Clouds 19 1011 72 10000 0.5 0 02:32 04.04.2020
248 Clouds 19 1011 72 10000 1.5 310 01:53 04.04.2020
249 Clouds 19 1011 72 10000 1.5 280 01:25 04.04.2020
250 Clouds 19 1011 72 10000 1 0 00:48 04.04.2020
251 Clouds 19 1011 72 10000 2.1 20 00:29 04.04.2020
252 Clouds 19 1011 68 10000 2.1 350 23:39 03.04.2020
253 Clouds 19 1011 68 10000 2.1 350 23:21 03.04.2020
254 Clouds 19 1010 68 10000 3.1 10 22:58 03.04.2020
255 Clouds 19 1010 68 10000 3.1 10 22:39 03.04.2020
256 Clouds 20 1010 68 10000 2.6 30 22:18 03.04.2020
257 Clouds 20 1010 64 10000 3.1 30 21:44 03.04.2020
258 Clouds 20 1010 64 10000 4.6 20 21:24 03.04.2020
259 Clouds 20 1010 64 10000 5.7 20 20:57 03.04.2020
260 Clouds 21 1009 60 10000 5.7 20 20:37 03.04.2020
261 Clouds 21 1009 60 10000 5.7 20 20:19 03.04.2020
262 Clouds 22 1009 57 10000 4.1 180 19:57 03.04.2020
263 Clouds 22 1009 53 10000 6.2 190 19:38 03.04.2020
264 Clouds 22 1009 53 10000 6.2 190 19:20 03.04.2020
265 Clouds 22 1009 53 10000 7.2 180 18:59 03.04.2020
266 Clouds 22 1009 53 10000 7.2 180 18:41 03.04.2020
267 Clouds 22 1009 60 10000 8.2 190 18:22 03.04.2020
268 Clouds 22 1010 56 10000 9.8 200 17:55 03.04.2020
269 Clouds 22 1010 53 10000 9.3 190 17:36 03.04.2020
270 Clouds 22 1010 53 10000 9.3 190 17:18 03.04.2020
271 Clouds 21 1010 56 10000 9.3 160 16:43 03.04.2020
272 Clouds 21 1011 53 10000 8.7 170 16:21 03.04.2020
273 Clouds 21 1011 56 10000 8.2 170 15:58 03.04.2020
274 Clouds 21 1012 60 10000 8.7 160 15:39 03.04.2020
275 Clouds 21 1012 60 10000 8.7 160 15:20 03.04.2020
276 Clouds 20 1012 68 10000 8.2 160 14:55 03.04.2020
277 Clouds 20 1012 66 0 5.36 233 14:37 03.04.2020
278 Clouds 20 1013 72 10000 5.7 160 14:19 03.04.2020
279 Clouds 19 1013 72 10000 5.7 160 13:42 03.04.2020
280 Clouds 19 1013 72 10000 5.7 160 13:24 03.04.2020
281 Clouds 19 1013 64 10000 4.6 150 12:45 03.04.2020
282 Clouds 19 1013 68 10000 3.1 140 12:21 03.04.2020
283 Clouds 19 1013 68 10000 1 0 11:59 03.04.2020
284 Clouds 19 1013 68 10000 1 0 11:40 03.04.2020
285 Clouds 18 1013 68 10000 0.5 0 11:21 03.04.2020
286 Clouds 18 1013 68 10000 1.5 250 10:59 03.04.2020
287 Clouds 18 1013 68 10000 1.5 250 10:39 03.04.2020
288 Clouds 17 1013 72 10000 1.5 260 10:20 03.04.2020
289 Clouds 16 1013 77 10000 1.5 290 09:59 03.04.2020
290 Clouds 16 1013 77 10000 1.5 290 09:40 03.04.2020
291 Clouds 16 1013 77 10000 2.6 270 09:22 03.04.2020
292 Clouds 16 1013 77 10000 2.1 300 08:57 03.04.2020
293 Clouds 17 1013 72 10000 2.1 300 08:38 03.04.2020
294 Clouds 17 1013 72 10000 2.1 300 08:20 03.04.2020
295 Clouds 17 1013 72 10000 1.5 290 07:48 03.04.2020
296 Clouds 17 1013 72 10000 2.1 300 07:29 03.04.2020
297 Clouds 17 1013 72 10000 1.5 290 06:42 03.04.2020
298 Clouds 16 1013 77 10000 2.1 280 06:23 03.04.2020
299 Clouds 17 1013 77 10000 2.1 290 05:39 03.04.2020
300 Clouds 17 1015 72 10000 1.5 290 03:42 03.04.2020
301 Clouds 18 1015 68 10000 1.5 340 02:56 03.04.2020
302 Clouds 18 1016 68 10000 2.6 20 02:18 03.04.2020
303 Clouds 18 1017 68 10000 3.1 20 01:22 03.04.2020
304 Clouds 18 1017 68 10000 4.1 30 00:36 03.04.2020
305 Clouds 18 1017 68 10000 4.1 30 00:18 03.04.2020
306 Clouds 18 1016 72 10000 4.6 30 23:40 02.04.2020
307 Clouds 18 1016 72 10000 5.1 30 23:21 02.04.2020
308 Clouds 18 1016 72 10000 5.7 30 22:57 02.04.2020
309 Clouds 18 1016 72 10000 5.7 20 22:37 02.04.2020
310 Clouds 18 1016 72 10000 5.7 20 22:18 02.04.2020
311 Clouds 18 1015 72 10000 6.7 20 21:39 02.04.2020
312 Clouds 19 1015 68 10000 6.2 30 21:20 02.04.2020
313 Clouds 19 1015 68 10000 6.7 30 20:58 02.04.2020
314 Clouds 20 1015 68 10000 6.7 30 20:40 02.04.2020
315 Clouds 20 1015 64 10000 6.7 40 20:21 02.04.2020
316 Clouds 20 1015 60 10000 7.2 40 19:44 02.04.2020
317 Clouds 21 1016 60 10000 6.2 40 19:21 02.04.2020
318 Clouds 20 1016 60 10000 6.2 40 18:58 02.04.2020
319 Clouds 21 1016 64 10000 6.7 40 18:39 02.04.2020
320 Clouds 21 1016 64 10000 6.7 40 18:20 02.04.2020
321 Clouds 21 1016 60 10000 6.7 50 17:56 02.04.2020
322 Clouds 21 1016 56 10000 6.7 40 17:38 02.04.2020
323 Clouds 21 1016 56 10000 6.7 40 17:18 02.04.2020
324 Clouds 22 1016 56 10000 6.2 40 16:55 02.04.2020
325 Clouds 21 1017 64 10000 6.7 40 16:37 02.04.2020
326 Clouds 21 1017 64 10000 6.7 40 16:18 02.04.2020
327 Clouds 21 1017 64 10000 6.7 50 15:44 02.04.2020
328 Clouds 22 1017 60 10000 6.2 60 15:21 02.04.2020
329 Clouds 22 1018 60 10000 6.7 60 14:59 02.04.2020
330 Clouds 22 1018 60 10000 6.2 50 14:40 02.04.2020
331 Clouds 22 1018 60 10000 6.2 50 14:19 02.04.2020
332 Clouds 21 1018 68 10000 5.7 40 13:56 02.04.2020
333 Clouds 21 1018 64 10000 5.1 30 13:38 02.04.2020
334 Clouds 20 1018 64 10000 5.1 30 13:20 02.04.2020
335 Clouds 21 1018 56 10000 4.6 40 12:55 02.04.2020
336 Clouds 21 1018 60 10000 4.6 40 12:36 02.04.2020
337 Clouds 21 1018 60 10000 4.6 40 12:18 02.04.2020
338 Clouds 20 1018 64 10000 5.7 20 11:55 02.04.2020
339 Clouds 20 1018 64 10000 5.7 20 11:55 02.04.2020
340 Clouds 20 1017 64 10000 5.7 30 11:36 02.04.2020
341 Clouds 20 1017 64 10000 5.7 30 11:18 02.04.2020
342 Clouds 19 1017 68 10000 4.6 350 10:54 02.04.2020
343 Clouds 19 1017 68 10000 4.1 350 10:36 02.04.2020
344 Clouds 18 1017 68 10000 4.1 350 10:18 02.04.2020
345 Clouds 18 1017 68 10000 3.6 350 09:42 02.04.2020
346 Clouds 17 1016 72 10000 4.1 350 09:24 02.04.2020
347 Clouds 16 1016 68 10000 4.6 350 08:58 02.04.2020
348 Clouds 16 1016 68 10000 4.6 350 08:39 02.04.2020
349 Clouds 17 1016 72 10000 5.1 350 08:19 02.04.2020
350 Clouds 16 1015 72 10000 4.1 360 07:42 02.04.2020
351 Clouds 16 1015 72 10000 5.1 350 07:19 02.04.2020
352 Clouds 16 1016 72 10000 4.6 350 06:46 02.04.2020
353 Clouds 17 1016 68 10000 5.1 350 06:20 02.04.2020
354 Clouds 17 1016 72 10000 5.1 340 05:42 02.04.2020
355 Clouds 17 1018 72 10000 4.1 350 02:59 02.04.2020
356 Clouds 18 1018 72 10000 4.6 360 01:30 02.04.2020
357 Clouds 18 1018 72 10000 6.2 10 00:42 02.04.2020
358 Clouds 18 1018 68 10000 4.6 360 00:24 02.04.2020
359 Clouds 19 1018 68 10000 4.6 360 23:41 01.04.2020
360 Clouds 19 1018 68 10000 5.7 10 23:20 01.04.2020
361 Clouds 19 1017 68 10000 6.2 20 22:58 01.04.2020
362 Clouds 19 1017 68 10000 6.2 20 22:58 01.04.2020
363 Clouds 19 1017 68 10000 6.2 20 22:39 01.04.2020
364 Clouds 19 1017 68 10000 7.2 20 22:21 01.04.2020
365 Clouds 19 1017 68 10000 7.2 20 22:21 01.04.2020
366 Clouds 19 1016 68 10000 6.7 20 21:42 01.04.2020
367 Clouds 19 1016 68 10000 6.7 20 21:42 01.04.2020
368 Clouds 19 1016 68 10000 7.2 30 21:22 01.04.2020
369 Clouds 19 1016 68 10000 7.2 30 21:22 01.04.2020
370 Clouds 19 1016 68 10000 7.2 30 21:22 01.04.2020
371 Clouds 19 1016 64 10000 6.7 30 20:57 01.04.2020
372 Clouds 19 1016 64 10000 6.7 30 20:39 01.04.2020
373 Clouds 19 1016 64 10000 6.7 30 20:21 01.04.2020
374 Clouds 20 1016 60 10000 6.2 30 19:59 01.04.2020
375 Clouds 20 1016 60 10000 6.2 30 19:41 01.04.2020
376 Clouds 20 1016 64 10000 6.2 30 19:20 01.04.2020
377 Clouds 21 1016 64 10000 5.7 40 18:44 01.04.2020
378 Clouds 20 1016 64 10000 5.1 50 18:26 01.04.2020
379 Clouds 21 1016 60 10000 4.6 60 17:58 01.04.2020
380 Clouds 21 1016 60 10000 4.6 50 17:38 01.04.2020
381 Clouds 21 1016 60 10000 4.6 50 17:20 01.04.2020
382 Clouds 21 1016 64 10000 5.1 40 16:59 01.04.2020
383 Clouds 21 1016 64 10000 5.1 40 16:39 01.04.2020
384 Clouds 21 1017 64 10000 4.6 60 16:21 01.04.2020
385 Clouds 21 1017 60 10000 4.6 60 15:57 01.04.2020
386 Clouds 21 1017 64 10000 5.1 50 15:38 01.04.2020
387 Clouds 21 1017 64 10000 5.1 50 15:19 01.04.2020
388 Clouds 21 1017 60 10000 5.1 60 14:55 01.04.2020
389 Clouds 21 1017 60 10000 5.1 60 14:55 01.04.2020
390 Clouds 21 1017 64 10000 5.1 70 14:37 01.04.2020
391 Clouds 21 1017 64 10000 5.1 70 14:19 01.04.2020
392 Clouds 21 1018 64 10000 4.1 70 13:56 01.04.2020
393 Clouds 21 1018 60 10000 4.6 60 13:37 01.04.2020
394 Clouds 21 1018 60 10000 4.6 60 13:18 01.04.2020
395 Clouds 20 1018 64 10000 4.6 60 12:42 01.04.2020
396 Clouds 20 1018 68 10000 3.1 60 12:24 01.04.2020
397 Clouds 20 1018 64 10000 2.6 60 11:59 01.04.2020
398 Clouds 20 1017 68 10000 2.6 40 11:39 01.04.2020
399 Clouds 19 1017 68 10000 2.6 40 11:20 01.04.2020
400 Clouds 19 1017 72 10000 2.6 30 10:56 01.04.2020
401 Clouds 19 1017 68 10000 2.6 330 10:37 01.04.2020
402 Clouds 19 1017 68 10000 2.6 330 10:37 01.04.2020
403 Clouds 18 1017 68 10000 2.6 330 10:18 01.04.2020
404 Clouds 18 1016 77 10000 2.6 340 09:40 01.04.2020
405 Clouds 18 1016 77 10000 2.6 340 09:40 01.04.2020
406 Clouds 17 1016 77 10000 2.6 350 09:21 01.04.2020
407 Clouds 17 1016 72 10000 4.1 340 08:59 01.04.2020
408 Clouds 17 1016 72 10000 4.1 340 08:40 01.04.2020
409 Clouds 17 1016 72 10000 3.6 350 08:18 01.04.2020
410 Clouds 17 1016 77 10000 3.1 350 07:42 01.04.2020
411 Clouds 17 1016 82 10000 3.1 350 07:19 01.04.2020
412 Clouds 17 1016 82 10000 3.1 340 06:47 01.04.2020
413 Clouds 18 1015 77 10000 3.1 360 06:21 01.04.2020
414 Clouds 17 1016 77 10000 4.1 360 05:53 01.04.2020
415 Clouds 18 1016 77 10000 3.6 350 04:29 01.04.2020
416 Clouds 19 1016 77 10000 2.6 340 03:27 01.04.2020
417 Clouds 19 1017 77 10000 2.6 10 02:46 01.04.2020
418 Clouds 19 1017 77 10000 2.6 10 01:53 01.04.2020
419 Clouds 19 1017 77 10000 1 340 01:29 01.04.2020
420 Clouds 19 1017 77 10000 1 330 00:48 01.04.2020
421 Clouds 19 1017 77 10000 3.76 347 00:25 01.04.2020
422 Clouds 19 1016 77 10000 3.54 341 23:59 31.03.2020
423 Clouds 19 1016 77 10000 3.54 341 23:41 31.03.2020
424 Clouds 19 1016 77 10000 1 0 23:22 31.03.2020
425 Clouds 19 1016 77 10000 1 0 23:22 31.03.2020
426 Clouds 19 1015 77 10000 1.5 320 22:42 31.03.2020
427 Clouds 19 1015 77 10000 1.5 320 22:22 31.03.2020
428 Clouds 19 1015 77 10000 1.5 340 21:59 31.03.2020
429 Clouds 19 1015 77 10000 3.1 10 21:40 31.03.2020
430 Clouds 19 1015 77 10000 3.1 10 21:40 31.03.2020
431 Clouds 19 1015 77 10000 3.1 10 21:21 31.03.2020
432 Rain 19 1015 77 10000 1.5 90 20:58 31.03.2020
433 Clouds 19 1015 72 10000 2.1 110 20:38 31.03.2020
434 Clouds 19 1015 77 10000 2.6 130 20:19 31.03.2020
435 Clouds 20 1015 77 10000 2.6 130 19:57 31.03.2020
436 Clouds 20 1014 77 10000 3.1 140 19:39 31.03.2020
437 Clouds 20 1014 77 10000 3.1 140 19:21 31.03.2020
438 Clouds 20 1014 72 10000 3.1 140 18:46 31.03.2020
439 Clouds 21 1014 77 10000 3.1 130 18:21 31.03.2020
440 Clouds 20 1014 72 10000 3.1 150 17:58 31.03.2020
441 Clouds 21 1015 72 10000 3.6 160 17:40 31.03.2020
442 Clouds 20 1015 72 10000 3.6 160 17:21 31.03.2020
443 Clouds 21 1015 72 10000 3.6 160 16:57 31.03.2020
444 Clouds 20 1015 72 10000 3.1 160 16:37 31.03.2020
445 Clouds 20 1015 72 10000 3.1 160 16:18 31.03.2020
446 Clouds 20 1015 72 10000 3.6 160 15:56 31.03.2020
447 Clouds 20 1015 77 10000 3.1 150 15:37 31.03.2020
448 Clouds 20 1015 77 10000 3.1 150 15:18 31.03.2020
449 Clouds 20 1015 72 10000 3.6 150 14:43 31.03.2020
450 Clouds 20 1015 77 10000 3.1 150 14:24 31.03.2020
451 Clouds 20 1015 72 10000 3.6 160 13:59 31.03.2020
452 Clouds 20 1015 72 10000 3.6 160 13:41 31.03.2020
453 Clouds 21 1014 68 10000 3.1 140 13:19 31.03.2020
454 Clouds 21 1014 68 10000 3.1 140 13:19 31.03.2020
455 Clouds 20 1014 72 10000 3.1 130 12:46 31.03.2020
456 Clouds 20 1014 72 10000 3.1 120 12:21 31.03.2020
457 Clouds 20 1014 72 10000 3.1 120 12:21 31.03.2020
458 Clouds 20 1014 68 10000 2.6 110 11:59 31.03.2020
459 Clouds 20 1014 64 10000 2.1 110 11:38 31.03.2020
460 Clouds 20 1014 64 10000 2.1 110 11:19 31.03.2020
461 Clouds 20 1014 64 10000 3.07 318 10:56 31.03.2020
462 Clouds 18 1014 68 10000 1.5 260 10:38 31.03.2020
463 Clouds 18 1014 68 10000 1.5 260 10:20 31.03.2020
464 Clouds 17 1014 72 10000 2.6 260 09:45 31.03.2020
465 Clouds 17 1013 72 10000 3.1 260 09:27 31.03.2020
466 Clouds 16 1013 77 10000 2.6 250 08:59 31.03.2020
467 Clouds 16 1013 77 10000 2.6 250 08:41 31.03.2020
468 Clouds 17 1013 77 10000 1.5 280 08:21 31.03.2020
469 Clouds 17 1013 77 10000 2.1 270 07:59 31.03.2020
470 Clouds 17 1013 77 10000 2.1 270 07:41 31.03.2020
471 Clouds 17 1013 77 10000 1.5 300 07:22 31.03.2020
472 Clouds 17 1013 82 10000 1 320 06:55 31.03.2020
473 Clouds 17 1013 87 10000 1.5 310 06:36 31.03.2020
474 Clouds 17 1013 82 10000 1 250 05:42 31.03.2020
475 Clouds 17 1013 77 10000 2.6 250 05:20 31.03.2020
476 Clouds 17 1014 72 10000 2.1 320 02:40 31.03.2020
477 Clouds 17 1014 72 10000 2.1 310 01:47 31.03.2020
478 Clouds 17 1014 77 10000 2.1 310 01:19 31.03.2020
479 Clouds 17 1014 82 10000 2.1 320 00:42 31.03.2020
480 Clouds 18 1014 77 10000 2.1 340 00:19 31.03.2020
481 Clouds 18 1014 77 10000 3.1 340 23:39 30.03.2020
482 Clouds 18 1014 77 10000 3.1 340 23:20 30.03.2020
483 Clouds 18 1014 72 10000 3.1 340 22:57 30.03.2020
484 Clouds 18 1014 72 10000 3.1 340 22:38 30.03.2020
485 Clouds 18 1014 72 10000 3.1 340 22:18 30.03.2020
486 Clouds 19 1013 72 10000 3.6 360 21:57 30.03.2020
487 Clouds 19 1013 68 10000 3.6 10 21:37 30.03.2020
488 Clouds 19 1013 68 10000 3.6 10 21:19 30.03.2020
489 Clouds 20 1013 64 10000 3.6 10 20:56 30.03.2020
490 Clouds 20 1013 64 10000 2.1 60 20:37 30.03.2020
491 Clouds 20 1013 64 10000 2.1 60 20:19 30.03.2020
492 Clouds 20 1013 64 10000 2.6 110 19:41 30.03.2020
493 Clouds 20 1013 64 10000 2.6 110 19:41 30.03.2020
494 Clouds 21 1013 68 10000 5.1 150 19:22 30.03.2020
495 Clouds 21 1013 68 10000 6.7 160 18:57 30.03.2020
496 Clouds 21 1013 64 10000 6.7 160 18:39 30.03.2020
497 Clouds 21 1013 64 10000 6.7 160 18:21 30.03.2020
498 Clouds 21 1014 64 10000 7.2 160 17:57 30.03.2020
499 Clouds 21 1014 64 10000 7.7 160 17:38 30.03.2020
500 Clouds 20 1014 64 10000 7.7 160 17:19 30.03.2020
501 Clouds 20 1015 64 10000 7.7 160 16:56 30.03.2020
502 Clouds 20 1015 64 10000 7.7 160 16:56 30.03.2020
503 Clouds 21 1015 56 10000 6.2 170 16:38 30.03.2020
504 Clouds 21 1015 56 10000 6.2 170 16:20 30.03.2020
505 Clouds 21 1015 60 10000 6.7 150 15:55 30.03.2020
506 Clouds 20 1016 64 10000 6.2 150 15:36 30.03.2020
507 Clouds 20 1016 64 10000 6.2 150 15:18 30.03.2020
508 Clouds 20 1016 64 10000 4.6 140 14:54 30.03.2020
509 Clouds 20 1016 68 10000 4.1 140 14:36 30.03.2020
510 Clouds 20 1016 68 10000 4.1 140 14:18 30.03.2020
511 Clouds 20 1016 68 10000 4.1 150 13:43 30.03.2020
512 Clouds 20 1017 68 10000 4.1 150 13:21 30.03.2020
513 Clouds 20 1017 68 10000 3.6 150 12:56 30.03.2020
514 Clouds 19 1017 72 10000 3.1 150 12:37 30.03.2020
515 Clouds 19 1017 72 10000 3.1 150 12:19 30.03.2020
516 Clouds 19 1016 60 10000 2.1 180 11:56 30.03.2020
517 Clouds 19 1016 63 10000 1 0 11:38 30.03.2020
518 Clouds 19 1016 63 10000 1 0 11:20 30.03.2020
519 Clouds 18 1016 68 10000 0.5 0 10:39 30.03.2020
520 Clouds 18 1016 68 10000 1.5 260 10:21 30.03.2020
521 Clouds 16 1016 77 10000 2.1 270 09:55 30.03.2020
522 Clouds 16 1016 72 10000 3.1 270 09:37 30.03.2020
523 Clouds 16 1016 72 10000 3.1 270 09:18 30.03.2020
524 Clouds 15 1015 77 10000 2.6 270 08:40 30.03.2020
525 Clouds 15 1015 77 10000 2.1 310 08:22 30.03.2020
526 Clouds 15 1015 82 10000 2.6 320 07:49 30.03.2020
527 Clouds 16 1015 77 10000 2.6 310 07:26 30.03.2020
528 Clouds 16 1015 77 10000 2.6 290 06:52 30.03.2020
529 Clouds 16 1016 77 10000 2.1 290 06:30 30.03.2020
530 Clouds 16 1016 72 10000 2.6 300 05:47 30.03.2020
531 Clouds 17 1016 72 10000 2.1 290 05:18 30.03.2020
532 Clouds 17 1017 77 10000 2.1 290 04:21 30.03.2020
533 Clouds 17 1018 72 10000 1.5 290 03:34 30.03.2020
534 Clouds 17 1018 77 10000 1.5 280 02:37 30.03.2020
535 Clouds 17 1018 77 10000 1.5 290 01:26 30.03.2020
536 Clouds 17 1018 77 10000 1.84 341 00:33 30.03.2020
537 Clouds 18 1018 72 10000 1.64 343 23:59 29.03.2020
538 Clouds 18 1018 72 10000 1.64 343 23:41 29.03.2020
539 Clouds 18 1018 72 10000 0.5 0 23:22 29.03.2020
540 Clouds 18 1018 72 10000 0.5 0 22:56 29.03.2020
541 Clouds 18 1018 72 10000 1 0 22:37 29.03.2020
542 Clouds 18 1018 72 10000 1 0 22:18 29.03.2020
543 Clouds 18 1018 72 10000 0.5 0 21:40 29.03.2020
544 Clouds 19 1018 68 10000 1 0 21:21 29.03.2020
545 Clouds 19 1018 68 10000 1.5 120 20:56 29.03.2020
546 Clouds 19 1018 68 10000 1.5 130 20:37 29.03.2020
547 Clouds 19 1018 68 10000 1.5 130 20:19 29.03.2020
548 Clouds 20 1018 68 10000 2.1 140 19:58 29.03.2020
549 Clouds 20 1018 68 10000 2.1 140 19:40 29.03.2020
550 Clouds 20 1018 68 10000 2.1 140 19:22 29.03.2020
551 Clouds 20 1018 68 10000 2.1 140 18:57 29.03.2020
552 Clouds 20 1018 68 10000 2.1 150 18:38 29.03.2020
553 Clouds 20 1018 68 10000 2.1 150 18:19 29.03.2020
554 Clouds 20 1019 68 10000 2.1 140 17:56 29.03.2020
555 Clouds 20 1019 68 10000 1.5 150 17:38 29.03.2020
556 Clouds 19 1019 68 10000 1.5 150 17:19 29.03.2020
557 Clouds 19 1019 63 10000 1.5 130 16:56 29.03.2020
558 Clouds 19 1020 63 10000 1.5 130 16:38 29.03.2020
559 Clouds 19 1020 63 10000 1.5 130 16:19 29.03.2020
560 Clouds 19 1020 68 10000 2.1 130 15:41 29.03.2020
561 Clouds 19 1020 68 10000 2.1 130 15:41 29.03.2020
562 Clouds 19 1020 68 10000 2.6 120 15:23 29.03.2020
563 Clouds 19 1020 68 10000 2.6 90 14:58 29.03.2020
564 Clouds 19 1020 68 10000 2.6 90 14:40 29.03.2020
565 Clouds 19 1020 64 10000 3.1 100 14:20 29.03.2020
566 Clouds 19 1020 60 10000 3.1 110 13:58 29.03.2020
567 Clouds 20 1020 64 10000 3.1 90 13:39 29.03.2020
568 Clouds 20 1020 64 10000 3.1 90 13:20 29.03.2020
569 Clouds 20 1020 64 10000 3.1 60 12:56 29.03.2020
570 Clouds 19 1020 68 10000 3.1 80 12:37 29.03.2020
571 Clouds 19 1020 68 10000 3.1 80 12:37 29.03.2020
572 Clouds 19 1020 68 10000 3.1 80 12:19 29.03.2020
573 Clouds 19 1020 63 10000 3.1 50 11:55 29.03.2020
574 Clouds 19 1020 63 10000 2.1 20 11:37 29.03.2020
575 Clouds 19 1020 63 10000 2.1 20 11:18 29.03.2020
576 Clouds 19 1020 63 10000 2.1 20 11:18 29.03.2020
577 Clouds 18 1019 67 10000 2.6 300 10:38 29.03.2020
578 Clouds 17 1019 67 10000 2.6 300 10:19 29.03.2020
579 Clouds 16 1019 72 10000 3.1 300 09:41 29.03.2020
580 Clouds 15 1019 77 10000 3.1 300 09:22 29.03.2020
581 Clouds 15 1019 77 10000 3.1 310 08:54 29.03.2020
582 Clouds 15 1019 72 10000 3.6 310 08:36 29.03.2020
583 Clouds 15 1019 72 10000 3.6 310 08:18 29.03.2020
584 Clouds 15 1018 77 10000 3.6 310 07:42 29.03.2020
585 Clouds 15 1018 77 10000 3.1 310 07:21 29.03.2020
586 Clouds 15 1019 77 10000 3.1 320 05:50 29.03.2020
587 Clouds 15 1019 72 10000 3.1 330 04:29 29.03.2020
588 Clouds 16 1020 72 10000 3.1 330 03:31 29.03.2020
589 Clouds 16 1020 67 10000 3.1 340 01:51 29.03.2020
590 Clouds 16 1020 72 10000 3.1 340 01:23 29.03.2020
591 Clouds 17 1020 63 10000 3.1 340 00:58 29.03.2020
592 Clouds 17 1020 67 10000 3.1 340 00:33 29.03.2020
593 Clouds 17 1020 67 10000 3.6 340 23:57 28.03.2020
594 Clouds 17 1020 72 10000 4.1 350 23:39 28.03.2020
595 Clouds 17 1020 72 10000 4.1 350 23:19 28.03.2020
596 Clouds 17 1020 72 10000 4.1 350 22:41 28.03.2020
597 Clouds 18 1019 68 10000 4.1 340 22:22 28.03.2020
598 Clouds 18 1019 68 10000 3.6 360 21:55 28.03.2020
599 Clouds 18 1019 72 10000 5.1 10 21:37 28.03.2020
600 Clouds 18 1019 72 10000 5.1 10 21:18 28.03.2020
601 Clouds 18 1018 72 10000 6.2 20 20:42 28.03.2020
602 Clouds 19 1018 68 10000 6.7 30 20:24 28.03.2020
603 Clouds 19 1018 68 10000 6.7 30 19:58 28.03.2020
604 Clouds 19 1018 64 10000 7.2 30 19:39 28.03.2020
605 Clouds 19 1018 64 10000 7.2 30 19:21 28.03.2020
606 Clouds 20 1017 60 10000 7.2 30 18:58 28.03.2020
607 Clouds 20 1017 64 10000 7.2 30 18:39 28.03.2020
608 Clouds 20 1017 64 10000 7.2 30 18:19 28.03.2020
609 Clouds 20 1017 60 10000 8.2 30 17:39 28.03.2020
610 Clouds 20 1017 60 10000 8.2 30 17:20 28.03.2020
611 Clouds 20 1017 56 10000 8.2 30 16:43 28.03.2020
612 Clouds 20 1017 60 10000 9.3 30 16:20 28.03.2020
613 Clouds 20 1017 60 10000 9.3 30 16:20 28.03.2020
614 Clouds 20 1017 60 10000 9.3 30 16:20 28.03.2020
615 Clouds 19 1017 64 10000 9.3 30 15:59 28.03.2020
616 Clouds 20 1017 64 10000 9.3 30 15:39 28.03.2020
617 Clouds 20 1017 56 10000 9.8 30 15:19 28.03.2020
618 Clouds 20 1017 60 10000 9.8 30 14:55 28.03.2020
619 Clouds 20 1017 60 10000 9.8 30 14:37 28.03.2020
620 Clouds 19 1017 60 10000 9.8 30 14:18 28.03.2020
621 Clouds 18 1017 64 10000 10.8 30 13:40 28.03.2020
622 Clouds 20 1017 64 10000 10.8 30 13:21 28.03.2020
623 Clouds 18 1018 52 10000 7.7 10 12:40 28.03.2020
624 Clouds 20 1018 52 10000 7.7 10 12:22 28.03.2020
625 Clouds 19 1018 56 10000 6.7 10 11:43 28.03.2020
626 Clouds 17 1018 52 10000 6.7 360 11:23 28.03.2020
627 Clouds 16 1017 55 10000 7.2 350 10:57 28.03.2020
628 Clouds 16 1017 63 10000 5.7 360 10:38 28.03.2020
629 Clouds 16 1017 63 10000 5.7 360 10:18 28.03.2020
630 Clouds 17 1017 72 10000 5.1 10 09:42 28.03.2020
631 Clouds 16 1017 72 10000 3.1 360 09:23 28.03.2020
632 Clouds 15 1016 72 10000 4.1 360 08:47 28.03.2020
633 Clouds 15 1016 72 10000 4.6 10 08:28 28.03.2020
634 Clouds 15 1016 72 10000 5.1 20 07:59 28.03.2020
635 Clouds 15 1016 72 10000 5.1 20 07:41 28.03.2020
636 Clouds 15 1015 63 10000 3.1 10 06:58 28.03.2020
637 Clouds 15 1015 72 10000 5.7 10 06:34 28.03.2020
638 Clouds 15 1015 72 10000 3.6 20 05:41 28.03.2020
639 Clouds 15 1014 72 10000 3.6 320 05:21 28.03.2020
640 Clouds 15 1014 82 10000 5.1 360 04:40 28.03.2020
641 Clouds 15 1015 87 10000 2.1 280 03:21 28.03.2020
642 Rain 16 1016 87 9000 4.1 350 01:49 28.03.2020
643 Rain 16 1016 87 9000 4.1 40 01:24 28.03.2020
644 Clouds 16 1016 87 10000 4.1 10 00:55 28.03.2020
645 Rain 16 1016 87 10000 4.1 360 00:35 28.03.2020
646 Clouds 15 1016 88 10000 1.5 320 23:54 27.03.2020
647 Clouds 17 1015 88 10000 0.5 0 23:36 27.03.2020
648 Clouds 17 1015 88 10000 0.5 0 23:18 27.03.2020
649 Clouds 17 1015 82 10000 3.71 326 22:54 27.03.2020
650 Clouds 17 1015 88 10000 1.5 60 22:36 27.03.2020
651 Clouds 17 1015 88 10000 1.5 60 22:18 27.03.2020
652 Clouds 17 1015 88 10000 1 0 21:42 27.03.2020
653 Rain 17 1014 88 10000 1 0 21:23 27.03.2020
654 Clouds 17 1014 82 10000 3.71 326 20:58 27.03.2020
655 Clouds 16 1014 82 10000 3.75 324 20:39 27.03.2020
656 Clouds 17 1014 82 10000 1 0 20:19 27.03.2020
657 Clouds 17 1014 82 10000 1 0 20:19 27.03.2020
658 Clouds 16 1014 77 10000 1.5 130 19:56 27.03.2020
659 Clouds 18 1014 77 10000 2.1 120 19:38 27.03.2020
660 Clouds 16 1014 77 10000 2.1 120 19:19 27.03.2020
661 Clouds 17 1014 82 10000 2.1 110 18:43 27.03.2020
662 Rain 17 1014 82 10000 2.1 110 18:23 27.03.2020
663 Rain 17 1014 77 10000 3.1 160 17:55 27.03.2020
664 Clouds 19 1014 68 10000 3.1 130 17:36 27.03.2020
665 Clouds 18 1014 68 10000 3.1 130 17:18 27.03.2020
666 Clouds 17 1014 64 10000 2.6 120 16:43 27.03.2020
667 Clouds 17 1014 68 10000 3.1 110 16:24 27.03.2020
668 Clouds 17 1014 64 10000 2.6 120 15:44 27.03.2020
669 Clouds 18 1013 61 0 1.65 336 15:26 27.03.2020
670 Clouds 18 1013 61 0 1.65 336 14:56 27.03.2020
671 Clouds 18 1013 61 0 1.65 336 14:36 27.03.2020
672 Clouds 19 1014 58 0 3.32 339 14:18 27.03.2020
673 Clouds 19 1014 58 0 3.32 339 13:42 27.03.2020
674 Clouds 19 1014 58 0 3.32 339 13:21 27.03.2020
675 Clouds 19 1014 57 0 3.47 338 12:58 27.03.2020
676 Clouds 19 1014 57 0 3.47 338 12:39 27.03.2020
677 Clouds 19 1014 57 0 3.47 338 12:19 27.03.2020
678 Clouds 19 1014 57 0 3.47 338 11:42 27.03.2020
679 Clouds 19 1014 57 0 3.47 338 11:24 27.03.2020
680 Clouds 17 1014 67 0 3.88 324 10:55 27.03.2020
681 Clouds 17 1014 67 0 3.88 324 10:37 27.03.2020
682 Clouds 17 1014 67 0 3.88 324 10:19 27.03.2020
683 Clouds 17 1014 67 0 3.88 324 09:57 27.03.2020
684 Clouds 17 1014 67 0 3.88 324 09:38 27.03.2020
685 Clouds 17 1014 67 0 3.88 324 09:19 27.03.2020
686 Clouds 17 1014 67 0 3.88 324 08:56 27.03.2020
687 Clouds 17 1014 67 0 3.88 324 08:38 27.03.2020
688 Clouds 15 1013 73 0 4 323 08:20 27.03.2020
689 Clouds 15 1013 73 0 4 323 07:52 27.03.2020
690 Clouds 15 1013 73 0 4 323 07:25 27.03.2020
691 Clouds 15 1013 73 0 4 323 06:53 27.03.2020
692 Clouds 15 1013 73 0 4 323 06:35 27.03.2020
693 Clouds 15 1013 73 0 3.11 329 04:59 27.03.2020
694 Clouds 15 1013 73 0 3.11 329 02:36 27.03.2020
695 Clouds 16 1015 70 0 2.88 348 01:23 27.03.2020
696 Clouds 15 1015 70 0 3.26 345 00:51 27.03.2020
697 Clouds 15 1015 70 0 3.26 345 00:31 27.03.2020
698 Clouds 15 1015 70 0 3.26 345 23:44 26.03.2020
699 Clouds 15 1015 70 0 3.26 345 23:23 26.03.2020
700 Clouds 16 1015 68 0 3.18 358 22:59 26.03.2020
701 Clouds 16 1015 68 0 3.18 358 22:38 26.03.2020
702 Clouds 16 1015 68 0 3.18 358 22:20 26.03.2020
703 Clouds 16 1015 68 0 3.18 358 22:20 26.03.2020
704 Clouds 16 1015 68 0 3.18 358 21:57 26.03.2020
705 Clouds 16 1015 68 0 3.18 358 21:38 26.03.2020
706 Clouds 16 1015 68 0 3.18 358 21:20 26.03.2020
707 Clouds 16 1015 68 0 3.18 358 20:57 26.03.2020
708 Clouds 16 1015 68 0 3.18 358 20:38 26.03.2020
709 Clouds 17 1013 64 0 2.58 23 20:20 26.03.2020
710 Clouds 17 1013 64 0 2.58 23 19:54 26.03.2020
711 Clouds 17 1013 64 0 2.58 23 19:36 26.03.2020
712 Clouds 17 1013 64 0 2.58 23 19:18 26.03.2020
713 Clouds 17 1013 64 0 2.58 23 18:41 26.03.2020
714 Clouds 17 1013 64 0 2.58 23 18:23 26.03.2020
715 Clouds 17 1013 64 0 2.58 23 17:55 26.03.2020
716 Clouds 17 1013 64 0 2.58 23 17:37 26.03.2020
717 Clouds 17 1014 63 0 2.84 41 17:18 26.03.2020
718 Clouds 17 1014 63 0 2.84 41 16:40 26.03.2020
719 Clouds 17 1014 63 0 2.84 41 16:21 26.03.2020
720 Clouds 17 1014 63 0 2.84 41 15:57 26.03.2020
721 Clouds 17 1014 63 0 2.84 41 15:57 26.03.2020
722 Clouds 17 1014 63 0 2.84 41 15:39 26.03.2020
723 Clouds 17 1014 63 0 2.84 41 15:20 26.03.2020
724 Clouds 17 1014 63 0 2.84 41 14:55 26.03.2020
725 Clouds 17 1014 63 0 2.84 41 14:36 26.03.2020
726 Clouds 18 1016 59 0 2.59 28 14:18 26.03.2020
727 Clouds 18 1016 59 0 2.59 28 13:40 26.03.2020
728 Clouds 18 1016 59 0 2.59 28 13:22 26.03.2020
729 Rain 18 1016 58 0 2.81 19 12:54 26.03.2020
730 Rain 18 1016 58 0 2.81 19 12:36 26.03.2020
731 Rain 18 1016 58 0 2.81 19 12:18 26.03.2020
732 Rain 18 1016 58 0 2.81 19 11:43 26.03.2020
733 Clouds 16 1015 65 0 2.25 25 11:19 26.03.2020
734 Clouds 16 1015 65 0 2.25 25 10:42 26.03.2020
735 Clouds 16 1015 65 0 2.25 25 10:42 26.03.2020
736 Clouds 16 1015 65 0 2.25 25 10:20 26.03.2020
737 Clouds 16 1015 65 0 2.25 25 10:20 26.03.2020
738 Clouds 16 1015 65 0 2.25 25 09:55 26.03.2020
739 Clouds 16 1015 65 0 2.25 25 09:55 26.03.2020
740 Clouds 16 1015 65 0 2.25 25 09:37 26.03.2020
741 Clouds 16 1015 65 0 2.25 25 09:19 26.03.2020
742 Clouds 16 1015 65 0 2.25 25 08:42 26.03.2020
743 Clouds 16 1015 65 0 2.25 25 08:24 26.03.2020
744 Rain 16 1014 72 0 2.89 29 07:57 26.03.2020
745 Rain 16 1014 72 0 2.89 29 07:38 26.03.2020
746 Rain 16 1014 72 0 2.89 29 07:19 26.03.2020
747 Rain 16 1014 72 0 2.89 29 06:33 26.03.2020
748 Rain 16 1014 72 0 2.89 29 05:48 26.03.2020
749 Rain 16 1015 73 0 3.29 34 03:46 26.03.2020
750 Rain 16 1015 73 0 3.29 34 02:58 26.03.2020
751 Clouds 16 1016 75 0 3.33 40 01:51 26.03.2020
752 Clouds 16 1016 74 0 3.36 40 01:18 26.03.2020
753 Clouds 16 1016 74 0 3.36 40 00:32 26.03.2020
754 Clouds 16 1016 74 0 3.36 40 23:44 25.03.2020
755 Clouds 16 1016 74 0 3.36 40 23:26 25.03.2020
756 Clouds 17 1017 69 0 3.76 27 22:54 25.03.2020
757 Clouds 17 1017 69 0 3.76 27 22:36 25.03.2020
758 Clouds 17 1017 69 0 3.76 27 22:18 25.03.2020
759 Clouds 17 1017 69 0 3.76 27 21:42 25.03.2020
760 Clouds 17 1017 69 0 3.76 27 21:24 25.03.2020
761 Clouds 17 1017 69 0 3.76 27 20:58 25.03.2020
762 Clouds 17 1017 69 0 3.76 27 20:38 25.03.2020
763 Clouds 17 1016 66 0 3.45 24 20:19 25.03.2020
764 Clouds 17 1016 66 0 3.78 13 19:55 25.03.2020
765 Clouds 17 1016 66 0 3.45 24 19:36 25.03.2020
766 Clouds 17 1016 66 0 3.78 13 19:18 25.03.2020
767 Clouds 17 1016 66 0 3.45 24 18:42 25.03.2020
768 Clouds 17 1016 66 0 3.45 24 18:24 25.03.2020
769 Clouds 17 1016 66 0 3.45 24 17:58 25.03.2020
770 Clouds 17 1016 66 0 3.78 13 17:58 25.03.2020
771 Clouds 17 1016 66 0 3.45 24 17:40 25.03.2020
772 Clouds 17 1016 66 0 3.45 24 17:21 25.03.2020
773 Clouds 17 1017 64 0 2.82 21 16:56 25.03.2020
774 Clouds 17 1017 66 0 2.77 33 16:38 25.03.2020
775 Clouds 17 1017 66 0 2.77 33 16:20 25.03.2020
776 Clouds 17 1017 66 0 2.77 33 15:42 25.03.2020
777 Clouds 17 1017 64 0 2.82 21 15:20 25.03.2020
778 Clouds 17 1017 66 0 2.77 33 14:56 25.03.2020
779 Clouds 17 1017 66 0 2.77 33 14:37 25.03.2020
780 Clouds 18 1018 60 0 2.79 33 14:19 25.03.2020
781 Clouds 18 1018 60 0 2.63 22 13:44 25.03.2020
782 Clouds 18 1018 60 0 2.63 22 13:22 25.03.2020
783 Clouds 18 1018 60 0 2.63 22 12:39 25.03.2020
784 Clouds 18 1018 60 0 2.63 22 12:20 25.03.2020
785 Clouds 18 1018 60 0 2.63 22 11:57 25.03.2020
786 Clouds 18 1018 60 0 2.63 22 11:39 25.03.2020
787 Clouds 18 1018 60 0 2.63 22 11:20 25.03.2020
788 Clouds 17 1018 63 0 3.41 3 10:57 25.03.2020
789 Clouds 17 1018 63 0 3.41 3 10:39 25.03.2020
790 Clouds 17 1018 63 0 3.41 3 10:18 25.03.2020
791 Clouds 17 1018 63 0 3.41 3 09:43 25.03.2020
792 Clouds 17 1018 63 0 3.41 3 09:25 25.03.2020
793 Clouds 17 1018 63 0 3.41 3 08:58 25.03.2020
794 Clouds 17 1018 63 0 3.41 3 08:39 25.03.2020
795 Clear 16 1016 71 0 3.69 351 08:20 25.03.2020
796 Clear 16 1015 72 0 3.72 357 07:44 25.03.2020
797 Clear 16 1015 72 0 3.72 357 07:24 25.03.2020
798 Clear 16 1015 72 0 3.72 357 06:57 25.03.2020
799 Clear 16 1015 72 0 3.72 357 06:37 25.03.2020
800 Clear 16 1015 72 0 3.72 357 06:19 25.03.2020
801 Clear 16 1015 72 0 3.72 357 05:42 25.03.2020
802 Clear 16 1016 73 0 4.26 2 04:41 25.03.2020
803 Clear 16 1016 73 0 4.26 2 03:53 25.03.2020
804 Clear 16 1016 73 0 4.26 2 03:29 25.03.2020
805 Rain 17 1017 72 0 4.93 1 01:31 25.03.2020
806 Clouds 16 1017 72 0 5.07 0 00:49 25.03.2020
807 Clouds 16 1017 72 0 5.07 0 00:26 25.03.2020
808 Clouds 16 1017 72 0 5.07 0 23:53 24.03.2020
809 Clouds 16 1017 72 0 5.07 0 23:28 24.03.2020
810 Rain 17 1017 72 0 5.42 344 22:58 24.03.2020
811 Rain 17 1017 72 0 5.42 344 22:38 24.03.2020
812 Rain 17 1017 72 0 5.42 344 22:38 24.03.2020
813 Rain 17 1017 72 0 5.42 344 22:19 24.03.2020
814 Rain 17 1017 72 0 5.42 344 22:19 24.03.2020
815 Rain 17 1017 72 0 5.42 344 21:57 24.03.2020
816 Rain 17 1017 72 0 5.42 344 21:57 24.03.2020
817 Rain 17 1017 72 0 5.42 344 21:38 24.03.2020
818 Rain 17 1017 72 0 5.42 344 21:18 24.03.2020
819 Rain 17 1017 72 0 5.42 344 20:57 24.03.2020
820 Rain 17 1017 72 0 5.42 344 20:39 24.03.2020
821 Rain 18 1016 64 0 6.42 336 20:21 24.03.2020
822 Clear 18 1016 62 0 7.08 328 19:45 24.03.2020
823 Clear 18 1016 62 0 7.08 328 19:19 24.03.2020
824 Clear 18 1016 62 0 7.08 328 18:56 24.03.2020
825 Clear 18 1016 62 0 7.08 328 18:56 24.03.2020
826 Clear 18 1016 62 0 7.08 328 18:37 24.03.2020
827 Clear 18 1016 62 0 7.08 328 18:37 24.03.2020
828 Clear 18 1016 62 0 7.08 328 18:19 24.03.2020
829 Clear 18 1016 62 0 7.08 328 17:42 24.03.2020
830 Clear 18 1016 62 0 7.08 328 17:42 24.03.2020
831 Clear 18 1016 62 0 7.08 328 17:24 24.03.2020
832 Clouds 22 1015 43 10000 10.8 350 16:59 24.03.2020
833 Clouds 22 1015 38 10000 11.3 360 16:41 24.03.2020
834 Clouds 22 1015 38 10000 11.3 360 16:23 24.03.2020
835 Clouds 22 1015 38 10000 11.3 360 16:23 24.03.2020
836 Clouds 22 1016 40 10000 10.3 350 15:59 24.03.2020
837 Clouds 22 1016 43 10000 9.8 340 15:39 24.03.2020
838 Clouds 22 1016 43 10000 9.8 340 15:21 24.03.2020
839 Clouds 22 1016 43 10000 9.8 340 15:21 24.03.2020
840 Clouds 22 1016 43 10000 9.8 340 15:21 24.03.2020
841 Clouds 22 1016 38 10000 10.3 350 14:43 24.03.2020
842 Clouds 19 1016 56 0 6.76 328 14:21 24.03.2020
843 Rain 19 1017 61 0 6.93 330 13:55 24.03.2020
844 Rain 19 1017 61 0 6.93 330 13:36 24.03.2020
845 Rain 19 1017 62 0 7.22 330 13:18 24.03.2020
846 Rain 19 1017 62 0 7.22 330 12:41 24.03.2020
847 Rain 19 1017 62 0 7.22 330 12:41 24.03.2020
848 Rain 19 1017 62 0 7.22 330 12:22 24.03.2020
849 Rain 19 1017 62 0 7.22 330 11:41 24.03.2020
850 Clouds 20 1017 56 10000 8.2 360 11:20 24.03.2020
851 Clouds 19 1017 68 10000 5.1 350 10:55 24.03.2020
852 Clouds 19 1017 68 10000 5.7 360 10:36 24.03.2020
853 Clouds 18 1017 68 10000 5.7 360 10:18 24.03.2020
854 Clouds 17 1016 72 10000 4.6 340 09:43 24.03.2020
855 Clouds 17 1016 67 10000 4.6 340 09:24 24.03.2020
856 Clouds 16 1015 72 10000 4.6 330 08:40 24.03.2020
857 Clouds 16 1015 72 10000 4.6 350 08:21 24.03.2020
858 Clouds 16 1015 77 10000 3.1 340 07:52 24.03.2020
859 Clouds 16 1015 77 10000 4.1 350 07:25 24.03.2020
860 Clouds 17 1015 82 10000 4.6 350 06:59 24.03.2020
861 Clouds 17 1015 82 10000 3.6 360 06:34 24.03.2020
862 Clouds 17 1015 72 10000 3.6 350 05:30 24.03.2020
863 Clouds 17 1014 72 10000 4.6 340 04:49 24.03.2020
864 Clouds 17 1015 67 10000 4.6 350 03:19 24.03.2020
865 Clouds 15 1015 72 10000 8.2 340 01:59 24.03.2020
866 Clouds 15 1015 72 10000 3.6 360 00:52 24.03.2020
867 Clouds 17 1015 67 10000 4.1 350 00:26 24.03.2020
868 Clouds 17 1015 67 10000 5.1 350 23:50 23.03.2020
869 Clouds 17 1015 67 10000 6.7 340 23:29 23.03.2020
870 Clouds 17 1014 72 10000 5.1 350 22:59 23.03.2020
871 Clouds 17 1014 72 10000 6.2 360 22:40 23.03.2020
872 Clouds 17 1014 72 10000 6.2 360 22:22 23.03.2020
873 Rain 17 1014 72 10000 7.7 350 21:44 23.03.2020
874 Clouds 18 1013 63 10000 7.2 360 21:21 23.03.2020
875 Clouds 18 1013 59 10000 9.3 350 20:59 23.03.2020
876 Clouds 18 1013 59 10000 9.3 350 20:41 23.03.2020
877 Clouds 18 1012 63 10000 10.8 350 20:23 23.03.2020
878 Clouds 19 1012 55 10000 11.3 350 19:55 23.03.2020
879 Clouds 19 1012 55 10000 10.3 350 19:37 23.03.2020
880 Clouds 19 1012 55 10000 10.3 350 19:18 23.03.2020
881 Clouds 19 1012 59 10000 11.3 360 18:43 23.03.2020
882 Clouds 19 1012 55 10000 10.8 360 18:24 23.03.2020
883 Clouds 20 1012 59 10000 11.8 20 17:57 23.03.2020
884 Clouds 20 1012 59 10000 11.8 20 17:57 23.03.2020
885 Clouds 21 1012 52 10000 10.8 10 17:38 23.03.2020
886 Clouds 20 1012 52 10000 10.8 10 17:19 23.03.2020
887 Clouds 19 1011 59 10000 13.4 10 16:43 23.03.2020
888 Clouds 20 1011 60 10000 11.8 10 16:25 23.03.2020
889 Clouds 20 1011 56 10000 12.9 10 15:44 23.03.2020
890 Clouds 20 1011 56 10000 11.8 360 15:21 23.03.2020
891 Clouds 20 1011 56 10000 12.9 360 14:57 23.03.2020
892 Clouds 19 1011 63 10000 12.9 360 14:37 23.03.2020
893 Clouds 19 1011 63 10000 12.9 360 14:18 23.03.2020
894 Clouds 19 1011 63 10000 12.9 360 14:18 23.03.2020
895 Clouds 18 1012 77 10000 10.3 340 13:41 23.03.2020
896 Clouds 18 1012 77 10000 10.3 340 13:41 23.03.2020
897 Rain 19 1012 63 10000 12.3 360 13:22 23.03.2020
898 Clouds 19 1012 68 10000 10.3 350 12:58 23.03.2020
899 Clouds 19 1012 68 10000 10.3 350 12:40 23.03.2020
900 Rain 18 1012 72 10000 9.8 340 12:22 23.03.2020
901 Clouds 18 1011 67 10000 12.9 350 11:42 23.03.2020
902 Clouds 17 1011 67 10000 12.9 350 11:22 23.03.2020
903 Rain 17 1010 72 10000 9.8 350 10:58 23.03.2020
904 Clouds 17 1010 72 10000 8.2 350 10:40 23.03.2020
905 Clouds 15 1010 72 10000 8.2 350 10:21 23.03.2020
906 Rain 16 1010 77 10000 8.7 340 09:58 23.03.2020
907 Rain 16 1010 77 10000 8.7 340 09:40 23.03.2020
908 Clouds 16 1009 72 10000 10.3 340 09:19 23.03.2020
909 Clouds 15 1009 76 10000 8.7 330 08:38 23.03.2020
910 Clouds 15 1009 76 10000 8.7 330 08:19 23.03.2020
911 Clouds 15 1008 67 10000 6.7 320 07:50 23.03.2020
912 Clouds 15 1008 67 10000 7.7 320 07:32 23.03.2020
913 Clouds 16 1008 55 10000 5.7 350 06:54 23.03.2020
914 Clouds 16 1008 51 10000 4.6 350 06:32 23.03.2020
915 Clouds 16 1009 54 10000 3.1 360 05:42 23.03.2020
916 Clouds 16 1010 59 10000 6.7 340 03:45 23.03.2020
917 Clouds 17 1010 67 10000 4.1 350 02:43 23.03.2020
918 Clouds 16 1012 72 10000 2.6 260 01:39 23.03.2020
919 Clouds 17 1011 67 10000 2.1 250 00:44 23.03.2020
920 Clouds 17 1012 67 10000 1.5 290 23:54 22.03.2020
921 Clouds 17 1012 55 10000 2.1 350 23:36 22.03.2020
922 Clouds 17 1012 55 10000 2.1 350 23:18 22.03.2020
923 Clouds 18 1012 52 10000 3.6 340 22:40 22.03.2020
924 Clouds 18 1012 52 10000 3.6 340 22:19 22.03.2020
925 Clouds 17 1012 59 10000 5.1 360 21:40 22.03.2020
926 Clouds 17 1012 67 10000 7.2 330 21:21 22.03.2020
927 Clouds 16 1012 77 10000 7.2 10 20:58 22.03.2020
928 Clouds 16 1012 77 10000 7.2 10 20:39 22.03.2020
929 Clouds 17 1012 77 10000 7.2 360 20:21 22.03.2020
930 Clouds 18 1012 68 10000 2.1 30 19:55 22.03.2020
931 Clouds 18 1012 72 10000 2.1 120 19:37 22.03.2020
932 Clouds 19 1012 72 10000 2.1 120 19:19 22.03.2020
933 Clouds 17 1012 72 10000 3.6 150 18:56 22.03.2020
934 Clouds 17 1012 68 10000 5.7 160 18:38 22.03.2020
935 Clouds 17 1012 68 10000 5.7 160 18:18 22.03.2020
936 Clouds 19 1013 63 10000 5.1 160 17:56 22.03.2020
937 Clouds 20 1013 60 10000 6.2 170 17:37 22.03.2020
938 Clouds 18 1013 60 10000 6.2 170 17:19 22.03.2020
939 Clouds 18 1014 63 10000 4.6 130 16:55 22.03.2020
940 Clouds 19 1014 56 10000 4.6 140 16:36 22.03.2020
941 Clouds 18 1014 56 10000 4.6 140 16:18 22.03.2020
942 Clouds 19 1015 56 10000 5.1 150 15:39 22.03.2020
943 Clouds 18 1015 56 10000 5.1 160 14:55 22.03.2020
944 Clouds 20 1016 56 10000 5.1 160 14:37 22.03.2020
945 Clouds 18 1016 56 10000 5.1 160 14:18 22.03.2020
946 Clouds 17 1016 56 10000 5.7 170 13:41 22.03.2020
947 Clouds 19 1016 52 10000 6.2 160 13:19 22.03.2020
948 Clouds 19 1017 52 10000 5.7 350 12:47 22.03.2020
949 Clouds 18 1017 63 10000 8.2 30 12:23 22.03.2020
950 Clouds 19 1017 59 10000 5.1 10 11:59 22.03.2020
951 Clouds 19 1018 55 10000 6.2 350 11:41 22.03.2020
952 Clouds 19 1018 55 10000 6.2 350 11:23 22.03.2020
953 Clouds 18 1017 55 10000 7.7 360 10:54 22.03.2020
954 Clouds 18 1017 55 10000 5.1 360 10:36 22.03.2020
955 Clouds 18 1017 55 10000 5.1 360 10:18 22.03.2020
956 Clouds 18 1017 52 10000 3.1 340 09:41 22.03.2020
957 Clouds 13 1017 59 10000 4.1 10 09:19 22.03.2020
958 Clouds 14 1017 63 10000 2.6 330 08:43 22.03.2020
959 Clouds 14 1017 59 10000 5.1 340 08:24 22.03.2020
960 Clouds 14 1017 59 10000 5.1 350 07:51 22.03.2020
961 Clouds 13 1017 67 10000 3.1 360 07:23 22.03.2020
962 Clouds 16 1017 67 10000 4.6 350 06:35 22.03.2020
963 Clouds 14 1017 59 10000 4.6 350 05:31 22.03.2020
964 Clouds 14 1019 55 10000 3.6 330 03:30 22.03.2020
965 Clouds 14 1020 77 10000 5.7 350 01:27 22.03.2020
966 Clouds 14 1020 67 10000 4.6 350 00:47 22.03.2020
967 Clouds 14 1020 67 10000 6.2 360 00:25 22.03.2020
968 Clouds 14 1020 77 10000 5.1 350 23:42 21.03.2020
969 Rain 14 1020 67 10000 6.2 360 23:19 21.03.2020
970 Clouds 17 1020 59 10000 6.2 340 22:55 21.03.2020
971 Clouds 17 1020 63 10000 7.7 330 22:36 21.03.2020
972 Clouds 15 1020 63 10000 7.7 330 22:18 21.03.2020
973 Clouds 15 1020 63 10000 6.7 330 21:41 21.03.2020
974 Clouds 17 1019 59 10000 7.2 340 21:22 21.03.2020
975 Clouds 18 1019 52 10000 7.2 360 20:56 21.03.2020
976 Clouds 18 1019 48 10000 6.7 360 20:38 21.03.2020
977 Clouds 18 1019 48 10000 6.7 360 20:19 21.03.2020
978 Clouds 18 1019 48 10000 8.2 10 19:43 21.03.2020
979 Clouds 18 1019 48 10000 9.3 10 19:24 21.03.2020
980 Clouds 16 1019 48 10000 10.8 20 18:55 21.03.2020
981 Clouds 19 1019 48 10000 10.8 20 18:37 21.03.2020
982 Clouds 17 1019 48 10000 10.8 20 18:19 21.03.2020
983 Clouds 18 1019 49 10000 11.3 20 17:55 21.03.2020
984 Clouds 17 1019 52 10000 11.8 30 17:37 21.03.2020
985 Clouds 18 1019 52 10000 11.8 30 17:18 21.03.2020
986 Clouds 18 1020 49 10000 12.3 30 16:40 21.03.2020
987 Clouds 18 1020 49 10000 12.3 30 16:19 21.03.2020
988 Clouds 20 1020 52 10000 12.3 30 15:55 21.03.2020
989 Clouds 18 1020 56 10000 11.8 30 15:36 21.03.2020
990 Clouds 18 1020 56 10000 11.8 30 15:18 21.03.2020
991 Clouds 17 1021 52 10000 11.8 30 14:54 21.03.2020
992 Clouds 17 1022 52 10000 11.8 30 14:36 21.03.2020
993 Clouds 17 1022 52 10000 11.8 30 14:36 21.03.2020
994 Clouds 17 1022 52 10000 11.8 30 14:18 21.03.2020
995 Clouds 20 1022 45 10000 9.8 20 13:54 21.03.2020
996 Clouds 19 1022 48 10000 9.8 10 13:36 21.03.2020
997 Clouds 19 1022 48 10000 9.8 10 13:18 21.03.2020
998 Clouds 18 1022 55 10000 7.2 330 12:39 21.03.2020
999 Clouds 18 1022 55 10000 7.2 330 12:19 21.03.2020
1000 Clouds 18 1022 55 10000 6.7 340 11:57 21.03.2020
1001 Clouds 17 1022 59 10000 6.7 330 11:38 21.03.2020
1002 Clouds 17 1022 59 10000 6.7 330 11:19 21.03.2020
1003 Clouds 17 1022 59 10000 6.2 350 10:57 21.03.2020
1004 Clouds 17 1022 55 10000 6.2 10 10:38 21.03.2020
1005 Clouds 17 1022 55 10000 6.2 10 10:19 21.03.2020
1006 Clouds 17 1022 51 10000 7.2 20 09:56 21.03.2020
1007 Clouds 17 1021 55 10000 6.7 10 09:37 21.03.2020
1008 Clouds 17 1021 55 10000 6.7 10 09:19 21.03.2020
1009 Clouds 17 1021 55 10000 7.2 10 08:43 21.03.2020
1010 Clouds 17 1021 55 10000 6.7 10 08:24 21.03.2020
1011 Clouds 17 1020 55 10000 6.2 360 07:47 21.03.2020
1012 Clouds 17 1020 55 10000 5.1 350 07:28 21.03.2020
1013 Clouds 17 1020 59 10000 4.6 340 06:48 21.03.2020
1014 Clouds 17 1020 59 10000 4.6 340 06:28 21.03.2020
1015 Clouds 17 1020 63 10000 5.7 340 05:48 21.03.2020
1016 Clouds 16 1020 67 10000 4.6 340 04:47 21.03.2020
1017 Clouds 17 1021 67 10000 7.7 10 02:55 21.03.2020
1018 Clouds 17 1021 77 10000 7.2 350 02:33 21.03.2020
1019 Clouds 17 1021 82 10000 8.2 20 01:33 21.03.2020
1020 Clouds 18 1021 77 10000 7.7 10 00:56 21.03.2020
1021 Clouds 18 1021 72 10000 8.7 10 00:37 21.03.2020
1022 Clouds 15 1021 82 10000 9.3 20 23:58 20.03.2020
1023 Rain 15 1021 82 10000 8.7 20 23:40 20.03.2020
1024 Rain 17 1021 82 10000 8.7 20 23:18 20.03.2020
1025 Clouds 17 1021 82 10000 8.2 10 22:41 20.03.2020
1026 Clouds 17 1021 82 10000 8.2 10 22:22 20.03.2020
1027 Rain 17 1021 82 8000 5.7 350 21:56 20.03.2020
1028 Clouds 15 1020 72 10000 7.7 10 21:38 20.03.2020
1029 Clouds 16 1020 72 10000 7.7 10 21:18 20.03.2020
1030 Clouds 18 1020 72 10000 7.7 350 20:57 20.03.2020
1031 Clouds 16 1020 68 10000 7.7 350 20:38 20.03.2020
1032 Clouds 19 1020 68 10000 7.7 350 20:18 20.03.2020
1033 Clouds 17 1020 63 10000 6.7 340 19:45 20.03.2020
1034 Clouds 17 1019 60 10000 8.2 10 19:19 20.03.2020
1035 Clouds 17 1019 60 10000 8.2 10 19:19 20.03.2020
1036 Clouds 18 1019 52 10000 8.2 360 18:55 20.03.2020
1037 Clouds 21 1019 52 10000 9.3 360 18:37 20.03.2020
1038 Clouds 18 1019 52 10000 9.3 360 18:19 20.03.2020
1039 Clouds 18 1019 52 10000 9.3 360 18:19 20.03.2020
1040 Clouds 19 1019 46 10000 10.8 10 17:39 20.03.2020
1041 Clouds 21 1019 46 10000 10.8 10 17:21 20.03.2020
1042 Clouds 22 1019 43 10000 10.8 360 16:58 20.03.2020
1043 Clouds 22 1019 43 10000 10.8 360 16:58 20.03.2020
1044 Clouds 22 1019 49 10000 10.3 10 16:40 20.03.2020
1045 Clouds 21 1019 49 10000 10.3 10 16:19 20.03.2020
1046 Clouds 19 1019 53 10000 10.8 20 15:43 20.03.2020
1047 Clouds 21 1020 53 10000 11.3 20 15:22 20.03.2020
1048 Clouds 21 1020 53 10000 12.3 20 14:56 20.03.2020
1049 Clouds 21 1020 53 10000 10.3 10 14:37 20.03.2020
1050 Clouds 19 1020 53 10000 10.3 10 14:19 20.03.2020
1051 Clouds 21 1020 53 10000 8.2 360 13:45 20.03.2020
1052 Clouds 21 1020 52 10000 9.8 10 13:19 20.03.2020
1053 Clouds 21 1020 52 10000 9.3 10 12:41 20.03.2020
1054 Clouds 20 1020 56 10000 8.7 10 12:23 20.03.2020
1055 Clouds 17 1020 68 10000 7.7 350 11:59 20.03.2020
1056 Clouds 20 1020 60 10000 8.7 350 11:38 20.03.2020
1057 Clouds 17 1020 60 10000 8.7 350 11:19 20.03.2020
1058 Clouds 20 1020 60 10000 8.2 350 10:42 20.03.2020
1059 Clouds 19 1019 63 10000 7.2 350 10:21 20.03.2020
1060 Clouds 19 1019 68 10000 6.7 350 10:00 20.03.2020
1061 Clouds 18 1019 68 10000 6.7 350 09:41 20.03.2020
1062 Rain 18 1018 72 10000 6.2 360 09:19 20.03.2020
1063 Clouds 15 1018 68 10000 6.2 350 08:43 20.03.2020
1064 Clouds 17 1018 68 10000 6.2 350 08:22 20.03.2020
1065 Clouds 15 1017 68 10000 7.7 360 07:57 20.03.2020
1066 Clouds 15 1017 72 10000 7.2 360 07:38 20.03.2020
1067 Clouds 15 1017 72 10000 7.2 360 07:19 20.03.2020
1068 Clouds 17 1017 72 10000 7.7 360 06:42 20.03.2020
1069 Clouds 15 1017 72 10000 7.7 360 04:54 20.03.2020
1070 Clouds 17 1017 72 10000 6.2 350 03:50 20.03.2020
1071 Clouds 18 1018 72 10000 7.2 350 02:27 20.03.2020
1072 Clouds 18 1019 72 10000 6.7 350 01:47 20.03.2020
1073 Clouds 18 1019 72 10000 7.7 360 00:33 20.03.2020
1074 Clouds 18 1019 77 10000 8.2 360 23:53 19.03.2020
1075 Clouds 18 1019 77 10000 7.2 360 23:34 19.03.2020
1076 Clouds 19 1019 72 10000 7.2 360 22:58 19.03.2020
1077 Clouds 19 1019 68 10000 7.7 360 22:38 19.03.2020
1078 Clouds 19 1019 68 10000 7.7 360 22:20 19.03.2020
1079 Clouds 16 1019 72 10000 8.7 360 21:56 19.03.2020
1080 Clouds 16 1018 72 10000 7.7 360 21:37 19.03.2020
1081 Clouds 19 1018 72 10000 7.7 360 21:18 19.03.2020
1082 Clouds 19 1018 68 10000 8.7 360 20:42 19.03.2020
1083 Clouds 19 1018 68 10000 9.8 360 20:23 19.03.2020
1084 Clouds 20 1018 64 10000 9.8 360 19:57 19.03.2020
1085 Clouds 20 1017 64 10000 10.8 360 19:38 19.03.2020
1086 Clouds 20 1017 64 10000 10.8 360 19:20 19.03.2020
1087 Clouds 21 1017 60 10000 9.8 350 18:56 19.03.2020
1088 Clouds 22 1017 53 10000 9.8 350 18:38 19.03.2020
1089 Clouds 22 1017 53 10000 9.8 350 18:38 19.03.2020
1090 Clouds 22 1017 53 10000 9.8 350 18:19 19.03.2020
1091 Clouds 22 1017 53 10000 10.3 350 17:42 19.03.2020
1092 Clouds 22 1017 53 10000 10.3 350 17:19 19.03.2020
1093 Clouds 22 1017 49 10000 11.8 350 16:45 19.03.2020
1094 Clouds 22 1017 49 10000 11.8 350 16:45 19.03.2020
1095 Clouds 23 1017 43 10000 11.8 10 16:25 19.03.2020
1096 Clouds 22 1017 38 10000 11.3 360 15:55 19.03.2020
1097 Clouds 22 1017 35 10000 11.8 350 15:36 19.03.2020
1098 Clouds 22 1017 35 10000 11.8 350 15:18 19.03.2020
1099 Clouds 22 1017 38 10000 12.3 10 14:43 19.03.2020
1100 Clouds 22 1018 46 10000 12.3 10 14:21 19.03.2020
1101 Clouds 22 1018 46 10000 13.9 10 13:41 19.03.2020
1102 Clouds 21 1018 46 10000 13.4 10 13:19 19.03.2020
1103 Clouds 21 1018 49 10000 12.9 360 12:57 19.03.2020
1104 Clouds 22 1018 56 10000 12.3 360 12:39 19.03.2020
1105 Clouds 21 1018 56 10000 12.3 360 12:21 19.03.2020
1106 Clouds 21 1017 68 10000 10.8 340 11:42 19.03.2020
1107 Clouds 21 1017 68 10000 10.8 340 11:23 19.03.2020
1108 Clouds 20 1017 64 10000 11.3 350 10:57 19.03.2020
1109 Clouds 20 1016 72 10000 11.8 340 10:38 19.03.2020
1110 Clouds 19 1016 72 10000 11.8 340 10:19 19.03.2020
1111 Clouds 19 1016 68 10000 10.8 330 09:45 19.03.2020
1112 Clouds 19 1016 63 10000 10.3 340 09:27 19.03.2020
1113 Clouds 18 1016 68 10000 9.3 340 08:58 19.03.2020
1114 Clouds 17 1016 68 10000 9.3 340 08:40 19.03.2020
1115 Rain 17 1016 63 10000 8.2 340 08:19 19.03.2020
1116 Clouds 17 1016 63 10000 7.2 330 07:44 19.03.2020
1117 Clouds 17 1016 63 10000 9.8 330 07:23 19.03.2020
1118 Clouds 17 1016 59 10000 8.7 330 06:32 19.03.2020
1119 Clouds 17 1016 59 10000 8.2 330 05:46 19.03.2020
1120 Clouds 17 1016 67 10000 7.2 350 04:51 19.03.2020
1121 Clouds 17 1016 68 10000 8.2 350 04:24 19.03.2020
1122 Clouds 18 1016 63 10000 8.7 330 02:34 19.03.2020
1123 Clouds 18 1017 55 10000 8.7 320 00:55 19.03.2020
1124 Clouds 18 1017 55 10000 5.7 330 00:20 19.03.2020
1125 Clouds 18 1017 55 10000 5.7 330 23:45 18.03.2020
1126 Clouds 18 1018 55 10000 8.7 340 23:26 18.03.2020
1127 Clouds 18 1018 59 10000 7.7 350 22:43 18.03.2020
1128 Clouds 18 1017 63 10000 7.2 350 22:24 18.03.2020
1129 Clouds 18 1017 68 10000 7.7 360 21:59 18.03.2020
1130 Clouds 18 1017 68 10000 7.7 360 21:40 18.03.2020
1131 Rain 18 1017 68 10000 7.7 350 21:21 18.03.2020
1132 Rain 18 1017 68 10000 7.7 350 21:21 18.03.2020
1133 Clouds 18 1017 63 10000 8.2 340 20:56 18.03.2020
1134 Clouds 18 1017 63 10000 8.7 350 20:38 18.03.2020
1135 Clouds 18 1017 63 10000 8.7 350 20:19 18.03.2020
1136 Clouds 19 1016 55 10000 9.3 340 19:42 18.03.2020
1137 Clouds 19 1016 52 10000 10.3 340 19:21 18.03.2020
1138 Clouds 19 1017 55 10000 10.8 350 18:59 18.03.2020
1139 Clouds 19 1017 55 10000 10.3 340 18:40 18.03.2020
1140 Clouds 19 1017 55 10000 10.3 340 18:19 18.03.2020
1141 Clouds 20 1016 49 10000 10.8 340 17:57 18.03.2020
1142 Clouds 20 1016 43 10000 9.3 340 17:39 18.03.2020
1143 Clouds 21 1016 43 10000 9.3 340 17:19 18.03.2020
1144 Clouds 21 1017 43 10000 9.3 330 16:43 18.03.2020
1145 Clouds 21 1017 46 10000 10.3 340 16:22 18.03.2020
1146 Clouds 21 1017 40 10000 9.3 350 15:59 18.03.2020
1147 Clouds 21 1017 40 10000 7.2 350 15:39 18.03.2020
1148 Clouds 21 1017 40 10000 7.2 350 15:20 18.03.2020
1149 Clouds 21 1018 37 10000 8.7 350 14:44 18.03.2020
1150 Clouds 21 1018 40 10000 8.7 360 14:21 18.03.2020
1151 Clouds 20 1018 45 10000 9.3 340 13:42 18.03.2020
1152 Clouds 21 1019 40 10000 8.7 350 13:20 18.03.2020
1153 Clouds 20 1019 43 10000 9.8 340 12:58 18.03.2020
1154 Clouds 19 1019 52 10000 9.3 330 12:39 18.03.2020
1155 Clouds 19 1019 52 10000 9.3 330 12:19 18.03.2020
1156 Clouds 19 1019 48 10000 9.8 350 11:39 18.03.2020
1157 Clouds 19 1019 48 10000 9.8 350 11:19 18.03.2020
1158 Clouds 18 1019 48 10000 6.7 350 10:58 18.03.2020
1159 Clouds 18 1019 59 10000 7.7 350 10:38 18.03.2020
1160 Clouds 17 1019 59 10000 7.7 350 10:19 18.03.2020
1161 Clouds 17 1018 59 10000 7.2 330 09:43 18.03.2020
1162 Clouds 17 1018 59 10000 7.2 330 09:24 18.03.2020
1163 Clouds 16 1018 63 10000 5.7 350 08:56 18.03.2020
1164 Clouds 15 1018 67 10000 6.7 350 08:38 18.03.2020
1165 Clouds 15 1018 67 10000 6.7 350 08:38 18.03.2020
1166 Clouds 16 1018 67 10000 6.7 350 08:20 18.03.2020
1167 Clouds 15 1018 67 10000 6.7 360 07:44 18.03.2020
1168 Clouds 16 1018 67 10000 6.7 340 07:25 18.03.2020
1169 Clouds 15 1018 72 10000 7.2 330 06:44 18.03.2020
1170 Clouds 15 1018 77 10000 8.2 340 06:18 18.03.2020
1171 Clouds 13 1018 67 10000 6.7 360 05:34 18.03.2020
1172 Clouds 15 1019 72 10000 8.2 330 04:24 18.03.2020
1173 Clouds 16 1019 77 10000 7.7 360 02:42 18.03.2020
1174 Rain 16 1020 77 10000 9.3 340 01:47 18.03.2020
1175 Clouds 16 1020 77 10000 7.7 350 01:21 18.03.2020
1176 Rain 14 1020 72 10000 7.7 340 00:23 18.03.2020
1177 Clouds 15 1020 63 10000 7.2 360 23:47 17.03.2020
1178 Clouds 17 1020 59 10000 10.3 350 23:26 17.03.2020
1179 Clouds 17 1020 72 10000 10.8 10 22:48 17.03.2020
1180 Rain 14 1020 72 10000 9.3 10 22:29 17.03.2020
1181 Clouds 17 1020 72 10000 8.7 360 21:59 17.03.2020
1182 Clouds 17 1020 72 10000 8.7 360 21:39 17.03.2020
1183 Clouds 17 1019 63 10000 7.7 350 21:20 17.03.2020
1184 Clouds 17 1019 67 10000 12.3 10 20:39 17.03.2020
1185 Clouds 17 1019 67 10000 12.3 10 20:39 17.03.2020
1186 Clouds 17 1019 67 10000 12.3 10 20:21 17.03.2020
1187 Clouds 18 1019 55 10000 9.8 360 19:56 17.03.2020
1188 Clouds 18 1019 48 10000 9.8 360 19:38 17.03.2020
1189 Clouds 18 1019 48 10000 9.8 360 19:18 17.03.2020
1190 Clouds 18 1019 52 10000 10.8 10 18:55 17.03.2020
1191 Clouds 19 1019 55 10000 11.8 10 18:37 17.03.2020
1192 Clouds 16 1019 55 10000 11.8 10 18:19 17.03.2020
1193 Clouds 19 1019 52 10000 10.8 360 17:40 17.03.2020
1194 Clouds 19 1019 52 10000 10.8 360 17:21 17.03.2020
1195 Clouds 18 1019 59 10000 10.3 360 16:45 17.03.2020
1196 Clouds 19 1019 55 10000 11.3 20 16:20 17.03.2020
1197 Clouds 19 1019 55 10000 12.3 20 15:58 17.03.2020
1198 Clouds 19 1020 59 10000 9.8 350 15:39 17.03.2020
1199 Clouds 19 1020 59 10000 9.8 350 15:18 17.03.2020
1200 Clouds 18 1020 72 10000 13.4 10 14:41 17.03.2020
1201 Clouds 19 1020 63 10000 11.8 30 14:21 17.03.2020
1202 Clouds 18 1021 77 10000 12.9 20 13:43 17.03.2020
1203 Clouds 19 1021 59 10000 11.8 360 13:25 17.03.2020
1204 Clouds 19 1021 63 10000 8.2 10 12:54 17.03.2020
1205 Clouds 17 1021 77 10000 9.3 10 12:36 17.03.2020
1206 Clouds 17 1021 77 10000 9.3 10 12:18 17.03.2020
1207 Clouds 18 1021 55 10000 9.8 10 11:42 17.03.2020
1208 Clouds 17 1021 72 10000 8.2 340 11:24 17.03.2020
1209 Clouds 18 1021 59 10000 10.3 20 10:57 17.03.2020
1210 Clouds 18 1021 59 10000 10.3 20 10:57 17.03.2020
1211 Clouds 17 1021 67 10000 7.7 340 10:37 17.03.2020
1212 Clouds 17 1021 67 10000 7.7 340 10:18 17.03.2020
1213 Rain 17 1021 67 10000 8.2 330 09:46 17.03.2020
1214 Clouds 17 1020 67 10000 8.2 340 09:20 17.03.2020
1215 Rain 16 1020 72 10000 7.2 340 08:59 17.03.2020
1216 Rain 16 1020 72 10000 7.2 340 08:41 17.03.2020
1217 Rain 16 1020 63 10000 7.2 350 08:20 17.03.2020
1218 Clouds 15 1020 72 10000 7.2 350 07:49 17.03.2020
1219 Clouds 15 1020 77 10000 9.3 340 07:21 17.03.2020
1220 Rain 15 1019 82 10000 7.2 350 06:51 17.03.2020
1221 Clouds 16 1019 72 10000 8.2 340 06:25 17.03.2020
1222 Rain 16 1019 77 8000 7.7 360 05:26 17.03.2020
1223 Clouds 17 1020 55 10000 11.3 10 03:34 17.03.2020
1224 Clouds 17 1020 55 10000 11.8 10 02:31 17.03.2020
1225 Clouds 17 1020 63 10000 14.4 20 01:38 17.03.2020
1226 Clouds 17 1020 63 10000 12.3 10 00:53 17.03.2020
1227 Clouds 17 1021 67 10000 11.3 10 00:18 17.03.2020
1228 Rain 15 1021 72 7000 10.8 360 23:35 16.03.2020
1229 Clouds 18 1020 68 10000 11.8 10 22:58 16.03.2020
1230 Clouds 18 1020 72 10000 12.9 10 22:38 16.03.2020
1231 Clouds 18 1020 72 10000 12.9 10 22:19 16.03.2020
1232 Clouds 16 1020 72 10000 11.3 10 21:44 16.03.2020
1233 Clouds 15 1019 72 10000 9.8 360 21:25 16.03.2020
1234 Clouds 15 1019 72 10000 13.4 10 20:58 16.03.2020
1235 Rain 15 1019 72 10000 11.3 10 20:39 16.03.2020
1236 Rain 18 1019 72 10000 11.3 10 20:20 16.03.2020
1237 Clouds 19 1019 72 10000 12.9 10 19:46 16.03.2020
1238 Rain 20 1019 72 10000 12.9 10 19:23 16.03.2020
1239 Clouds 20 1019 68 10000 12.9 10 18:57 16.03.2020
1240 Clouds 20 1019 68 10000 12.3 20 18:39 16.03.2020
1241 Clouds 19 1019 68 10000 12.3 20 18:19 16.03.2020
1242 Clouds 20 1019 60 10000 10.8 10 17:46 16.03.2020
1243 Clouds 21 1019 52 10000 11.8 20 17:25 16.03.2020
1244 Clouds 22 1019 49 10000 11.8 10 16:54 16.03.2020
1245 Clouds 22 1019 46 10000 11.8 360 16:36 16.03.2020
1246 Clouds 22 1019 46 10000 11.8 360 16:18 16.03.2020
1247 Clouds 22 1019 46 10000 13.4 10 15:42 16.03.2020
1248 Clouds 22 1019 43 10000 12.9 10 15:22 16.03.2020
1249 Clouds 22 1020 46 10000 12.3 10 14:45 16.03.2020
1250 Clouds 22 1020 40 10000 12.3 10 14:20 16.03.2020
1251 Clouds 21 1021 43 10000 12.9 10 13:45 16.03.2020
1252 Clouds 21 1021 46 10000 13.4 360 13:26 16.03.2020
1253 Clouds 21 1021 49 10000 13.9 20 12:56 16.03.2020
1254 Clouds 21 1021 43 10000 14.4 20 12:37 16.03.2020
1255 Clouds 20 1021 43 10000 14.4 20 12:19 16.03.2020
1256 Clouds 20 1021 45 10000 13.9 20 11:42 16.03.2020
1257 Clouds 19 1021 56 10000 13.9 20 11:20 16.03.2020
1258 Clouds 19 1021 56 10000 12.3 10 10:43 16.03.2020
1259 Clouds 18 1020 68 10000 12.9 10 10:24 16.03.2020
1260 Clouds 18 1020 68 10000 11.3 360 09:47 16.03.2020
1261 Clouds 18 1020 68 10000 9.3 360 09:28 16.03.2020
1262 Clouds 17 1019 59 10000 9.8 360 08:59 16.03.2020
1263 Clouds 17 1019 68 10000 11.8 10 08:26 16.03.2020
1264 Clouds 16 1019 72 10000 7.2 360 07:56 16.03.2020
1265 Clouds 17 1019 63 10000 9.8 360 07:38 16.03.2020
1266 Clouds 17 1019 63 10000 9.8 360 07:18 16.03.2020
1267 Clouds 17 1019 68 10000 9.8 10 06:27 16.03.2020
1268 Clouds 17 1019 72 10000 7.7 360 05:54 16.03.2020
1269 Clouds 18 1019 77 10000 7.2 10 03:31 16.03.2020
1270 Clouds 18 1020 68 10000 7.7 350 01:20 16.03.2020
1271 Clouds 18 1020 68 10000 8.2 360 00:43 16.03.2020
1272 Clouds 18 1020 72 10000 9.8 10 23:49 15.03.2020
1273 Clouds 18 1019 68 10000 8.7 10 23:22 15.03.2020
1274 Clouds 18 1019 68 10000 7.2 360 22:58 15.03.2020
1275 Clouds 18 1019 63 10000 7.2 350 22:37 15.03.2020
1276 Clouds 18 1019 63 10000 7.2 350 22:19 15.03.2020
1277 Clouds 18 1019 63 10000 8.2 360 21:39 15.03.2020
1278 Clouds 18 1019 63 10000 8.2 360 21:19 15.03.2020
1279 Clouds 18 1019 63 10000 8.7 360 20:44 15.03.2020
1280 Clouds 18 1018 63 10000 10.8 10 20:22 15.03.2020
1281 Clouds 19 1018 72 10000 11.3 10 19:59 15.03.2020
1282 Clouds 19 1018 72 10000 11.3 10 19:40 15.03.2020
1283 Clouds 20 1018 60 10000 9.3 360 19:22 15.03.2020
1284 Clouds 19 1018 63 10000 11.3 10 18:58 15.03.2020
1285 Rain 19 1018 68 10000 10.3 10 18:39 15.03.2020
1286 Rain 19 1018 68 10000 10.3 10 18:21 15.03.2020
1287 Rain 19 1018 82 9000 7.2 360 17:54 15.03.2020
1288 Clouds 21 1018 52 10000 10.3 20 17:36 15.03.2020
1289 Clouds 21 1018 52 10000 10.3 20 17:18 15.03.2020
1290 Clouds 21 1018 46 10000 9.8 10 16:42 15.03.2020
1291 Clouds 21 1018 46 10000 9.3 20 16:23 15.03.2020
1292 Clouds 21 1018 46 10000 9.3 10 15:57 15.03.2020
1293 Clouds 21 1019 46 10000 10.3 30 15:38 15.03.2020
1294 Clouds 21 1019 46 10000 10.3 30 15:19 15.03.2020
1295 Clouds 20 1019 52 10000 9.8 360 14:43 15.03.2020
1296 Clouds 20 1019 60 10000 9.3 20 14:24 15.03.2020
1297 Rain 20 1020 60 10000 9.3 10 13:56 15.03.2020
1298 Clouds 20 1020 52 10000 8.2 10 13:38 15.03.2020
1299 Clouds 20 1020 52 10000 8.2 10 13:38 15.03.2020
1300 Clouds 20 1020 52 10000 8.2 10 13:19 15.03.2020
1301 Clouds 20 1020 49 10000 9.3 10 12:41 15.03.2020
1302 Clouds 19 1020 52 10000 9.8 10 12:23 15.03.2020
1303 Clouds 19 1020 59 10000 9.8 20 11:45 15.03.2020
1304 Clouds 19 1020 63 10000 7.2 360 11:26 15.03.2020
1305 Clouds 18 1020 67 10000 7.7 10 10:59 15.03.2020
1306 Clouds 18 1019 68 10000 8.7 10 10:41 15.03.2020
1307 Clouds 18 1019 68 10000 8.7 10 10:22 15.03.2020
1308 Clouds 18 1019 68 10000 8.7 10 10:22 15.03.2020
1309 Clouds 18 1019 72 10000 7.7 360 09:59 15.03.2020
1310 Clouds 17 1019 67 10000 5.7 350 09:39 15.03.2020
1311 Clouds 17 1019 67 10000 5.7 350 09:20 15.03.2020
1312 Clouds 17 1018 67 10000 5.7 350 08:41 15.03.2020
1313 Clouds 17 1018 72 10000 7.2 360 08:20 15.03.2020
1314 Clouds 17 1018 67 10000 5.1 350 07:50 15.03.2020
1315 Clouds 16 1018 67 10000 6.2 350 07:23 15.03.2020
1316 Clouds 17 1017 67 10000 6.7 340 06:44 15.03.2020
1317 Clouds 17 1017 72 10000 7.2 340 05:49 15.03.2020
1318 Clouds 17 1017 67 10000 7.7 340 04:57 15.03.2020
1319 Clouds 17 1017 72 10000 5.7 350 04:39 15.03.2020
1320 Clouds 17 1017 72 10000 5.7 350 04:20 15.03.2020
1321 Clouds 17 1018 72 10000 5.7 360 03:24 15.03.2020
1322 Clouds 17 1019 67 10000 5.1 360 02:28 15.03.2020
1323 Clouds 17 1019 63 10000 7.7 350 00:59 15.03.2020
1324 Clouds 17 1019 63 10000 7.7 350 00:41 15.03.2020
1325 Clouds 17 1019 63 10000 7.7 350 00:19 15.03.2020
1326 Clouds 18 1019 63 10000 7.7 350 23:40 14.03.2020
1327 Clouds 18 1019 63 10000 7.7 350 23:20 14.03.2020
1328 Clouds 18 1019 63 10000 7.2 350 22:56 14.03.2020
1329 Clouds 18 1019 63 10000 6.7 350 22:38 14.03.2020
1330 Clouds 18 1019 63 10000 6.7 350 22:19 14.03.2020
1331 Clouds 18 1019 59 10000 6.7 360 21:55 14.03.2020
1332 Clouds 18 1019 59 10000 6.7 360 21:55 14.03.2020
1333 Clouds 18 1018 59 10000 6.7 350 21:36 14.03.2020
1334 Clouds 18 1018 59 10000 6.7 350 21:36 14.03.2020
1335 Clouds 18 1018 59 10000 6.7 350 21:18 14.03.2020
1336 Clouds 18 1018 59 10000 6.7 350 21:18 14.03.2020
1337 Clouds 18 1018 59 10000 8.2 350 20:56 14.03.2020
1338 Clouds 18 1018 59 10000 8.2 350 20:56 14.03.2020
1339 Clouds 19 1018 55 10000 8.7 350 20:38 14.03.2020
1340 Clouds 19 1018 55 10000 8.7 350 20:18 14.03.2020
1341 Clouds 19 1018 55 10000 9.8 10 19:41 14.03.2020
1342 Clouds 19 1017 55 10000 10.3 20 19:21 14.03.2020
1343 Clouds 20 1018 56 10000 10.3 30 18:40 14.03.2020
1344 Clouds 20 1018 56 10000 10.3 30 18:21 14.03.2020
1345 Clouds 20 1018 52 10000 10.8 30 17:43 14.03.2020
1346 Clouds 20 1018 52 10000 10.8 30 17:24 14.03.2020
1347 Clouds 21 1018 49 10000 10.8 20 16:59 14.03.2020
1348 Clouds 21 1018 49 10000 10.3 20 16:39 14.03.2020
1349 Clouds 21 1018 49 10000 10.3 20 16:20 14.03.2020
1350 Clouds 20 1018 52 10000 9.8 20 15:48 14.03.2020
1351 Clouds 20 1019 56 10000 9.8 20 15:25 14.03.2020
1352 Clouds 21 1019 56 10000 10.3 20 14:44 14.03.2020
1353 Clouds 21 1019 53 10000 10.3 30 14:22 14.03.2020
1354 Clouds 21 1020 56 10000 9.8 30 13:57 14.03.2020
1355 Clouds 21 1020 60 10000 9.3 30 13:39 14.03.2020
1356 Clouds 21 1020 60 10000 9.3 30 13:20 14.03.2020
1357 Clouds 21 1020 60 10000 9.8 20 12:44 14.03.2020
1358 Clouds 20 1020 64 10000 9.3 20 12:26 14.03.2020
1359 Clouds 20 1020 64 10000 8.7 30 11:46 14.03.2020
1360 Clouds 20 1020 64 10000 8.7 20 11:26 14.03.2020
1361 Clouds 20 1019 64 10000 9.3 10 10:57 14.03.2020
1362 Clouds 19 1019 63 10000 8.2 360 10:39 14.03.2020
1363 Clouds 19 1019 63 10000 8.2 360 10:20 14.03.2020
1364 Clouds 18 1019 68 10000 8.7 360 09:41 14.03.2020
1365 Clouds 18 1019 68 10000 7.7 360 09:22 14.03.2020
1366 Clouds 17 1019 63 10000 9.3 10 08:47 14.03.2020
1367 Clouds 17 1019 68 10000 9.3 10 08:28 14.03.2020
1368 Clouds 17 1019 72 10000 8.7 10 07:51 14.03.2020
1369 Clouds 17 1019 72 10000 8.2 10 07:23 14.03.2020
1370 Clouds 17 1018 72 10000 7.7 10 06:59 14.03.2020
1371 Clouds 17 1018 72 10000 7.7 360 06:39 14.03.2020
1372 Clouds 17 1019 72 10000 9.3 10 05:19 14.03.2020
1373 Clouds 18 1019 77 10000 9.3 10 03:43 14.03.2020
1374 Clouds 18 1020 77 10000 7.7 360 03:23 14.03.2020
1375 Clouds 17 1020 77 10000 9.3 10 02:22 14.03.2020
1376 Clouds 18 1021 72 10000 8.2 360 00:44 14.03.2020
1377 Clouds 18 1020 72 10000 9.8 10 23:45 13.03.2020
1378 Clouds 19 1020 72 10000 9.8 10 23:27 13.03.2020
1379 Clouds 19 1020 68 10000 8.7 360 22:49 13.03.2020
1380 Clouds 19 1020 68 10000 9.8 360 22:26 13.03.2020
1381 Clouds 19 1019 72 10000 10.8 10 21:44 13.03.2020
1382 Clouds 19 1019 72 10000 10.8 10 21:21 13.03.2020
1383 Clouds 19 1019 72 10000 10.8 10 20:58 13.03.2020
1384 Clouds 19 1019 72 10000 10.8 10 20:39 13.03.2020
1385 Clouds 19 1019 72 10000 10.8 10 20:39 13.03.2020
1386 Clouds 19 1019 72 10000 10.8 10 20:20 13.03.2020
1387 Clouds 19 1019 72 10000 11.3 10 19:47 13.03.2020
1388 Clouds 20 1019 68 10000 11.3 20 19:28 13.03.2020
1389 Clouds 20 1019 64 10000 11.8 20 18:47 13.03.2020
1390 Clouds 20 1019 64 10000 12.3 20 18:29 13.03.2020
1391 Clouds 21 1019 64 10000 11.8 20 17:57 13.03.2020
1392 Clouds 21 1019 60 10000 11.3 20 17:38 13.03.2020
1393 Clouds 21 1019 60 10000 11.3 20 17:19 13.03.2020
1394 Clouds 21 1019 60 10000 10.8 20 16:42 13.03.2020
1395 Clouds 21 1019 60 10000 10.8 20 16:24 13.03.2020
1396 Clouds 21 1019 60 10000 11.3 30 15:56 13.03.2020
1397 Clouds 21 1019 60 10000 10.8 20 15:37 13.03.2020
1398 Clouds 21 1019 60 10000 10.8 20 15:19 13.03.2020
1399 Clouds 21 1020 64 10000 10.8 20 14:41 13.03.2020
1400 Clouds 21 1020 64 10000 10.8 20 14:22 13.03.2020
1401 Clouds 21 1020 64 10000 10.8 20 14:22 13.03.2020
1402 Clouds 21 1021 60 10000 10.8 20 13:56 13.03.2020
1403 Clouds 21 1021 60 10000 11.3 20 13:38 13.03.2020
1404 Clouds 21 1021 60 10000 11.3 20 13:19 13.03.2020
1405 Clouds 22 1021 60 10000 9.8 360 12:40 13.03.2020
1406 Clouds 21 1021 60 10000 9.8 360 12:22 13.03.2020
1407 Clouds 20 1021 68 10000 10.3 20 11:57 13.03.2020
1408 Clouds 20 1021 68 10000 10.3 20 11:39 13.03.2020
1409 Clouds 20 1021 68 10000 10.3 20 11:21 13.03.2020
1410 Clouds 20 1021 68 10000 10.3 10 10:47 13.03.2020
1411 Clouds 19 1020 68 10000 10.3 10 10:27 13.03.2020
1412 Clouds 18 1020 72 10000 10.3 10 09:57 13.03.2020
1413 Clouds 18 1020 72 10000 10.3 10 09:57 13.03.2020
1414 Clouds 18 1020 72 10000 9.3 10 09:39 13.03.2020
1415 Clouds 18 1020 72 10000 9.3 10 09:20 13.03.2020
1416 Clouds 17 1019 72 10000 9.3 360 08:45 13.03.2020
1417 Clouds 17 1019 72 10000 8.7 360 08:22 13.03.2020
1418 Clouds 17 1019 72 10000 9.3 10 07:49 13.03.2020
1419 Clouds 17 1019 72 10000 10.3 360 07:28 13.03.2020
1420 Clouds 17 1019 77 10000 9.3 10 06:47 13.03.2020
1421 Clouds 17 1019 77 10000 9.3 10 06:28 13.03.2020
1422 Clouds 17 1018 72 10000 8.7 360 05:53 13.03.2020
1423 Clouds 18 1018 77 10000 8.7 360 05:20 13.03.2020
1424 Clouds 18 1019 77 10000 9.8 360 04:37 13.03.2020
1425 Clouds 18 1019 77 10000 8.7 10 03:31 13.03.2020
1426 Clouds 19 1019 82 10000 9.3 10 01:45 13.03.2020
1427 Clouds 19 1019 82 10000 8.7 360 01:18 13.03.2020
1428 Clouds 19 1019 82 10000 8.7 360 01:18 13.03.2020
1429 Clouds 18 1019 77 10000 7.7 360 00:46 13.03.2020
1430 Clouds 18 1019 82 10000 8.2 360 00:23 13.03.2020
1431 Clouds 18 1019 88 10000 8.2 10 23:47 12.03.2020
1432 Clouds 18 1019 88 10000 8.2 10 23:26 12.03.2020
1433 Clouds 19 1019 82 10000 7.7 10 22:55 12.03.2020
1434 Clouds 19 1019 82 10000 8.2 10 22:37 12.03.2020
1435 Clouds 19 1019 82 10000 8.2 10 22:19 12.03.2020
1436 Clouds 19 1019 82 10000 8.2 20 21:42 12.03.2020
1437 Clouds 19 1018 82 10000 8.7 20 21:24 12.03.2020
1438 Clouds 20 1018 82 10000 8.7 20 20:55 12.03.2020
1439 Clouds 20 1018 88 10000 8.7 20 20:37 12.03.2020
1440 Clouds 20 1018 88 10000 8.7 20 20:18 12.03.2020
1441 Clouds 21 1018 82 10000 9.3 20 19:39 12.03.2020
1442 Clouds 22 1018 82 10000 9.3 20 19:20 12.03.2020
1443 Clouds 21 1018 77 10000 8.7 30 18:43 12.03.2020
1444 Clouds 21 1018 77 10000 8.7 30 18:23 12.03.2020
1445 Clouds 22 1018 73 10000 8.7 30 17:56 12.03.2020
1446 Clouds 22 1018 73 10000 8.2 30 17:37 12.03.2020
1447 Clouds 23 1018 73 10000 8.2 30 17:18 12.03.2020
1448 Clouds 22 1018 73 10000 7.7 30 16:43 12.03.2020
1449 Clouds 23 1018 69 10000 7.2 30 16:24 12.03.2020
1450 Clouds 23 1018 56 10000 5.7 30 15:59 12.03.2020
1451 Clouds 24 1018 57 10000 3.6 40 15:39 12.03.2020
1452 Clouds 24 1018 57 10000 3.6 40 15:21 12.03.2020
1453 Clear 23 1019 69 10000 4.6 30 14:38 12.03.2020
1454 Clear 23 1019 69 10000 4.6 30 14:19 12.03.2020
1455 Clear 23 1019 64 10000 4.6 40 13:40 12.03.2020
1456 Clear 23 1019 64 10000 5.1 30 13:22 12.03.2020
1457 Clear 22 1019 68 10000 6.2 30 12:55 12.03.2020
1458 Clear 22 1019 73 10000 5.7 40 12:37 12.03.2020
1459 Clear 22 1019 73 10000 5.7 40 12:18 12.03.2020
1460 Clear 22 1019 68 10000 6.2 30 11:56 12.03.2020
1461 Clear 21 1019 73 10000 6.7 30 11:37 12.03.2020
1462 Clear 21 1019 73 10000 6.7 30 11:19 12.03.2020
1463 Clear 21 1019 73 10000 6.7 20 10:55 12.03.2020
1464 Clear 21 1019 73 10000 6.7 20 10:55 12.03.2020
1465 Clear 21 1019 82 10000 8.2 20 10:37 12.03.2020
1466 Clear 20 1019 82 10000 8.2 20 10:18 12.03.2020
1467 Clouds 19 1018 88 10000 7.7 10 09:42 12.03.2020
1468 Clouds 18 1018 88 10000 6.7 360 09:23 12.03.2020
1469 Clouds 17 1018 88 10000 5.7 360 08:40 12.03.2020
1470 Clouds 17 1018 88 10000 5.7 360 08:19 12.03.2020
1471 Clouds 17 1018 93 10000 7.7 10 07:52 12.03.2020
1472 Clouds 18 1017 77 10000 7.7 20 07:23 12.03.2020
1473 Clouds 18 1017 39 10000 5.1 10 06:38 12.03.2020
1474 Clouds 19 1017 42 10000 3.1 330 05:40 12.03.2020
1475 Clouds 19 1018 68 10000 5.1 350 04:27 12.03.2020
1476 Clouds 18 1019 88 10000 4.1 10 02:34 12.03.2020
1477 Clouds 18 1019 88 10000 7.2 10 01:30 12.03.2020
1478 Clouds 18 1019 88 10000 7.7 10 00:42 12.03.2020
1479 Clouds 18 1019 93 10000 7.2 10 23:59 11.03.2020
1480 Clouds 18 1019 93 10000 7.2 10 23:59 11.03.2020
1481 Clouds 20 1018 82 10000 5.1 20 23:40 11.03.2020
1482 Clouds 18 1018 82 10000 5.1 20 23:22 11.03.2020
1483 Clouds 20 1018 82 10000 5.1 360 22:45 11.03.2020
1484 Clouds 20 1018 82 10000 6.7 20 22:25 11.03.2020
1485 Clouds 20 1018 88 10000 6.2 10 21:58 11.03.2020
1486 Clouds 20 1018 88 10000 6.2 10 21:40 11.03.2020
1487 Clouds 20 1018 88 10000 6.2 20 21:22 11.03.2020
1488 Clouds 20 1018 82 10000 6.2 20 20:57 11.03.2020
1489 Clouds 21 1017 82 10000 6.2 30 20:37 11.03.2020
1490 Clouds 21 1017 82 10000 6.2 30 20:19 11.03.2020
1491 Clouds 22 1017 77 10000 5.1 30 19:42 11.03.2020
1492 Clouds 21 1017 77 10000 5.1 30 19:24 11.03.2020
1493 Clouds 22 1017 73 10000 5.7 30 18:57 11.03.2020
1494 Clouds 22 1017 56 10000 4.1 30 18:38 11.03.2020
1495 Clouds 22 1017 56 10000 4.1 30 18:20 11.03.2020
1496 Clouds 23 1017 53 10000 3.6 30 17:55 11.03.2020
1497 Clouds 23 1017 53 10000 3.6 30 17:55 11.03.2020
1498 Clouds 23 1017 60 10000 3.6 60 17:37 11.03.2020
1499 Clouds 24 1017 60 10000 3.6 60 17:19 11.03.2020
1500 Clouds 24 1018 64 10000 3.1 70 16:44 11.03.2020
1501 Clouds 23 1018 53 10000 3.1 80 16:20 11.03.2020
1502 Clouds 23 1018 49 10000 3.1 80 15:43 11.03.2020
1503 Clouds 23 1018 53 10000 2.6 60 15:23 11.03.2020
1504 Clouds 23 1019 56 10000 3.1 60 14:56 11.03.2020
1505 Clouds 23 1019 49 10000 3.1 60 14:37 11.03.2020
1506 Clouds 23 1019 49 10000 3.1 60 14:18 11.03.2020
1507 Clouds 23 1019 49 10000 2.6 50 13:42 11.03.2020
1508 Clouds 23 1019 64 10000 3.6 50 13:24 11.03.2020
1509 Clouds 22 1019 73 10000 4.1 30 12:56 11.03.2020
1510 Clouds 21 1019 72 10000 4.6 30 12:38 11.03.2020
1511 Clouds 21 1019 72 10000 4.6 30 12:19 11.03.2020
1512 Clouds 20 1019 77 10000 4.6 30 11:41 11.03.2020
1513 Clouds 19 1019 77 10000 4.1 30 11:21 11.03.2020
1514 Clouds 19 1019 77 10000 4.1 40 10:47 11.03.2020
1515 Clouds 18 1019 82 10000 4.1 10 10:21 11.03.2020
1516 Clouds 18 1019 82 10000 4.1 10 10:21 11.03.2020
1517 Clouds 18 1019 82 10000 4.1 10 10:21 11.03.2020
1518 Clouds 18 1018 77 10000 3.6 360 09:59 11.03.2020
1519 Clouds 17 1018 82 10000 4.1 360 09:40 11.03.2020
1520 Clouds 17 1018 82 10000 4.1 360 09:21 11.03.2020
1521 Clouds 16 1018 82 10000 4.1 350 08:43 11.03.2020
1522 Clouds 16 1018 82 10000 4.6 340 08:25 11.03.2020
1523 Clouds 16 1018 82 10000 4.1 350 07:47 11.03.2020
1524 Clouds 16 1018 82 10000 4.6 350 07:21 11.03.2020
1525 Clouds 15 1018 87 10000 5.1 350 06:50 11.03.2020
1526 Clouds 16 1018 87 10000 4.6 350 06:31 11.03.2020
1527 Clouds 16 1019 87 10000 5.7 350 05:32 11.03.2020
1528 Clouds 17 1019 82 10000 5.7 360 03:26 11.03.2020
1529 Clouds 17 1019 82 10000 5.7 360 03:26 11.03.2020
1530 Clouds 17 1019 88 10000 6.2 360 01:53 11.03.2020
1531 Clouds 17 1020 82 10000 6.7 10 01:23 11.03.2020
1532 Clouds 17 1020 88 10000 6.7 360 00:40 11.03.2020
1533 Clouds 18 1020 82 10000 7.7 10 23:50 10.03.2020
1534 Clouds 18 1020 82 10000 7.7 20 23:28 10.03.2020
1535 Clouds 18 1020 82 10000 7.2 10 22:58 10.03.2020
1536 Clouds 18 1020 88 10000 7.2 10 22:37 10.03.2020
1537 Clouds 18 1020 88 10000 7.2 10 22:19 10.03.2020
1538 Clouds 18 1019 88 10000 6.2 10 21:56 10.03.2020
1539 Clouds 18 1019 82 10000 6.7 20 21:38 10.03.2020
1540 Clouds 18 1019 82 10000 6.7 20 21:19 10.03.2020
1541 Clouds 19 1019 77 10000 6.7 20 20:43 10.03.2020
1542 Clouds 19 1019 77 10000 6.7 20 20:21 10.03.2020
1543 Clouds 20 1019 82 10000 7.2 20 19:59 10.03.2020
1544 Clouds 20 1019 82 10000 7.2 20 19:41 10.03.2020
1545 Clouds 20 1019 72 10000 7.7 30 19:23 10.03.2020
1546 Clouds 21 1019 73 10000 8.7 30 18:58 10.03.2020
1547 Clouds 21 1019 73 10000 8.7 30 18:40 10.03.2020
1548 Clouds 21 1019 73 10000 8.7 30 18:21 10.03.2020
1549 Clouds 21 1019 73 10000 9.3 30 17:56 10.03.2020
1550 Clouds 21 1019 68 10000 9.8 30 17:37 10.03.2020
1551 Clouds 22 1019 68 10000 9.8 30 17:18 10.03.2020
1552 Clouds 22 1020 68 10000 8.7 30 16:38 10.03.2020
1553 Clouds 22 1020 68 10000 8.7 30 16:18 10.03.2020
1554 Clouds 22 1020 64 10000 9.3 30 15:43 10.03.2020
1555 Clouds 22 1020 68 10000 8.7 30 15:20 10.03.2020
1556 Clouds 23 1021 60 10000 6.7 40 14:59 10.03.2020
1557 Clouds 23 1021 60 10000 6.7 40 14:40 10.03.2020
1558 Clouds 22 1022 68 10000 5.1 30 14:19 10.03.2020
1559 Clouds 22 1022 68 10000 4.6 60 13:44 10.03.2020
1560 Clouds 22 1022 68 10000 5.1 50 13:26 10.03.2020
1561 Clouds 21 1022 72 10000 6.2 30 12:56 10.03.2020
1562 Clouds 21 1022 72 10000 6.2 20 12:37 10.03.2020
1563 Clouds 21 1022 72 10000 6.2 20 12:18 10.03.2020
1564 Clouds 21 1022 72 10000 6.7 30 11:42 10.03.2020
1565 Clouds 21 1022 72 10000 7.7 30 11:24 10.03.2020
1566 Clouds 20 1022 68 10000 7.2 20 10:57 10.03.2020
1567 Clouds 20 1022 77 10000 6.7 30 10:39 10.03.2020
1568 Clouds 19 1022 77 10000 6.7 30 10:19 10.03.2020
1569 Clouds 19 1021 72 10000 6.2 20 09:45 10.03.2020
1570 Clouds 18 1021 55 10000 5.7 20 09:21 10.03.2020
1571 Clouds 18 1021 55 10000 5.7 20 09:21 10.03.2020
1572 Clouds 18 1021 42 10000 5.1 20 08:58 10.03.2020
1573 Clouds 18 1021 42 10000 5.1 20 08:40 10.03.2020
1574 Clouds 18 1021 42 10000 6.2 360 08:20 10.03.2020
1575 Clear 17 1021 72 10000 6.2 360 07:42 10.03.2020
1576 Clear 17 1020 82 10000 7.2 360 07:23 10.03.2020
1577 Clear 17 1020 82 10000 6.7 360 06:38 10.03.2020
1578 Clear 18 1020 82 10000 6.7 360 05:55 10.03.2020
1579 Clear 18 1020 88 10000 7.2 360 05:36 10.03.2020
1580 Clear 17 1021 82 10000 7.7 20 04:31 10.03.2020
1581 Clear 18 1021 63 10000 7.2 10 03:19 10.03.2020
1582 Clear 18 1022 40 10000 7.2 360 01:36 10.03.2020
1583 Clear 18 1022 42 10000 7.7 360 00:51 10.03.2020
1584 Clear 18 1022 55 10000 6.7 360 00:29 10.03.2020
1585 Clouds 17 1022 82 10000 8.2 360 23:43 09.03.2020
1586 Clouds 18 1022 82 10000 8.2 360 23:22 09.03.2020
1587 Clouds 19 1022 82 10000 7.7 10 22:58 09.03.2020
1588 Clouds 20 1022 82 10000 7.2 360 22:38 09.03.2020
1589 Clouds 19 1022 82 10000 7.2 360 22:20 09.03.2020
1590 Clouds 19 1022 82 10000 7.2 360 21:45 09.03.2020
1591 Clouds 20 1022 82 10000 7.7 10 21:22 09.03.2020
1592 Clouds 20 1022 82 10000 7.7 10 21:22 09.03.2020
1593 Clouds 19 1022 82 10000 8.7 10 20:58 09.03.2020
1594 Clouds 20 1022 77 10000 8.2 10 20:40 09.03.2020
1595 Clouds 20 1022 77 10000 8.2 10 20:22 09.03.2020
1596 Clouds 19 1022 77 10000 7.7 10 19:59 09.03.2020
1597 Clouds 19 1022 77 10000 7.7 10 19:59 09.03.2020
1598 Clouds 20 1022 77 10000 7.7 10 19:41 09.03.2020
1599 Clear 22 1022 73 10000 7.7 10 19:18 09.03.2020
1600 Clear 21 1022 73 10000 7.7 20 18:56 09.03.2020
1601 Clear 21 1022 73 10000 7.7 30 18:37 09.03.2020
1602 Clear 21 1022 73 10000 7.7 30 18:18 09.03.2020
1603 Clear 21 1022 68 10000 8.7 20 17:55 09.03.2020
1604 Clear 22 1022 69 10000 8.2 30 17:37 09.03.2020
1605 Clear 23 1022 69 10000 8.2 30 17:19 09.03.2020
1606 Clear 23 1022 64 10000 7.7 30 16:55 09.03.2020
1607 Clear 23 1022 64 10000 8.2 30 16:36 09.03.2020
1608 Clear 23 1022 64 10000 8.2 30 16:18 09.03.2020
1609 Clear 23 1023 56 10000 7.2 30 15:55 09.03.2020
1610 Clear 23 1023 56 10000 7.2 30 15:55 09.03.2020
1611 Clear 23 1023 56 10000 7.2 30 15:37 09.03.2020
1612 Clear 23 1023 53 10000 5.7 30 15:18 09.03.2020
1613 Clear 23 1024 53 10000 7.2 30 14:39 09.03.2020
1614 Clear 23 1024 56 10000 7.2 30 14:20 09.03.2020
1615 Clear 23 1025 60 9000 7.2 40 13:58 09.03.2020
1616 Clear 23 1025 60 9000 7.2 40 13:39 09.03.2020
1617 Clear 22 1025 56 9000 7.7 30 13:20 09.03.2020
1618 Clear 22 1025 56 9000 7.2 30 12:44 09.03.2020
1619 Clear 22 1025 56 9000 7.7 30 12:24 09.03.2020
1620 Clear 21 1025 60 9000 8.7 20 11:58 09.03.2020
1621 Clear 21 1025 60 9000 8.7 20 11:40 09.03.2020
1622 Clear 20 1025 68 10000 8.2 20 11:20 09.03.2020
1623 Clouds 20 1024 72 10000 8.7 10 10:55 09.03.2020
1624 Clouds 20 1024 72 10000 8.7 10 10:37 09.03.2020
1625 Clouds 19 1024 77 10000 8.2 360 10:18 09.03.2020
1626 Clouds 18 1024 63 10000 6.7 360 09:41 09.03.2020
1627 Clear 17 1023 63 10000 5.7 360 09:23 09.03.2020
1628 Clear 17 1023 63 10000 5.7 360 08:45 09.03.2020
1629 Clouds 18 1022 59 10000 6.2 20 08:27 09.03.2020
1630 Clouds 17 1022 63 10000 6.2 10 07:43 09.03.2020
1631 Clouds 17 1022 63 10000 6.2 10 07:22 09.03.2020
1632 Clouds 18 1021 59 10000 5.7 360 06:46 09.03.2020
1633 Clouds 18 1021 72 10000 7.2 350 06:28 09.03.2020
1634 Clouds 18 1022 72 10000 7.7 350 05:58 09.03.2020
1635 Clouds 17 1022 72 10000 7.7 350 05:40 09.03.2020
1636 Clouds 17 1022 77 10000 8.2 360 04:46 09.03.2020
1637 Clear 18 1022 72 10000 8.2 360 04:23 09.03.2020
1638 Clear 17 1023 68 10000 9.3 340 03:29 09.03.2020
1639 Clear 19 1023 68 10000 8.7 360 02:37 09.03.2020
1640 Clear 20 1022 56 10000 8.2 360 00:42 09.03.2020
1641 Clear 19 1022 63 10000 8.2 360 00:24 09.03.2020
1642 Clear 19 1022 72 10000 7.7 360 23:55 08.03.2020
1643 Clouds 19 1022 77 10000 8.2 360 23:28 08.03.2020
1644 Clouds 19 1022 82 9000 8.7 10 22:58 08.03.2020
1645 Clouds 19 1022 82 9000 8.7 10 22:40 08.03.2020
1646 Clouds 19 1021 82 9000 9.8 10 22:21 08.03.2020
1647 Clouds 19 1021 82 9000 9.8 10 21:57 08.03.2020
1648 Clouds 19 1021 82 9000 9.8 10 21:57 08.03.2020
1649 Clouds 19 1021 82 9000 9.8 10 21:39 08.03.2020
1650 Clouds 19 1020 82 9000 10.3 10 21:19 08.03.2020
1651 Clouds 19 1020 82 9000 10.3 10 21:19 08.03.2020
1652 Clouds 19 1020 82 9000 9.3 360 20:56 08.03.2020
1653 Clouds 19 1020 82 9000 9.3 360 20:37 08.03.2020
1654 Clouds 19 1020 82 9000 9.8 10 20:18 08.03.2020
1655 Clouds 21 1020 73 9000 9.3 10 19:38 08.03.2020
1656 Clouds 21 1020 73 9000 9.3 10 19:19 08.03.2020
1657 Clouds 21 1020 68 9000 8.7 10 18:43 08.03.2020
1658 Clouds 22 1020 68 9000 8.7 10 18:24 08.03.2020
1659 Clouds 22 1020 68 9000 9.3 10 17:57 08.03.2020
1660 Clouds 22 1020 68 10000 10.3 30 17:38 08.03.2020
1661 Clouds 22 1020 64 10000 9.3 20 17:20 08.03.2020
1662 Clouds 23 1020 64 10000 9.3 20 16:47 08.03.2020
1663 Clouds 23 1020 64 10000 9.8 30 16:28 08.03.2020
1664 Clouds 22 1020 64 10000 8.7 10 15:59 08.03.2020
1665 Clouds 22 1020 64 10000 8.7 10 15:40 08.03.2020
1666 Clouds 22 1021 64 10000 10.3 30 15:21 08.03.2020
1667 Clouds 22 1021 68 10000 10.8 30 14:55 08.03.2020
1668 Clouds 22 1021 64 10000 11.3 20 14:37 08.03.2020
1669 Clouds 22 1021 64 10000 11.3 20 14:18 08.03.2020
1670 Clear 22 1021 60 10000 9.8 20 13:40 08.03.2020
1671 Clouds 22 1021 60 10000 9.8 20 13:20 08.03.2020
1672 Clouds 23 1022 56 10000 10.3 10 12:43 08.03.2020
1673 Clouds 22 1021 60 10000 9.8 10 12:25 08.03.2020
1674 Clouds 21 1022 64 10000 9.8 20 11:57 08.03.2020
1675 Clouds 21 1022 64 10000 9.8 20 11:57 08.03.2020
1676 Clouds 21 1021 64 10000 8.7 10 11:39 08.03.2020
1677 Clouds 21 1021 64 10000 8.7 10 11:20 08.03.2020
1678 Clouds 19 1020 72 10000 8.7 10 10:41 08.03.2020
1679 Clouds 20 1020 72 10000 8.7 10 10:23 08.03.2020
1680 Clouds 19 1019 68 10000 8.2 10 09:57 08.03.2020
1681 Clouds 19 1019 68 10000 8.2 10 09:36 08.03.2020
1682 Clouds 18 1019 72 10000 7.7 360 09:18 08.03.2020
1683 Clouds 18 1019 72 10000 7.7 360 09:18 08.03.2020
1684 Clouds 17 1018 77 10000 9.8 10 08:40 08.03.2020
1685 Clouds 17 1018 77 10000 9.8 10 08:19 08.03.2020
1686 Clouds 17 1018 77 10000 9.3 360 07:44 08.03.2020
1687 Clouds 17 1018 72 10000 8.7 360 07:25 08.03.2020
1688 Clouds 17 1018 72 10000 10.3 360 06:42 08.03.2020
1689 Clouds 17 1018 72 10000 10.3 360 06:22 08.03.2020
1690 Clouds 16 1018 77 10000 8.7 350 05:39 08.03.2020
1691 Clouds 17 1018 72 10000 10.8 360 03:52 08.03.2020
1692 Clouds 17 1019 72 10000 10.8 360 02:30 08.03.2020
1693 Clouds 17 1018 72 10000 11.3 10 01:34 08.03.2020
1694 Clouds 17 1018 72 10000 11.3 360 00:52 08.03.2020
1695 Clouds 17 1019 72 10000 10.3 360 00:27 08.03.2020
1696 Clouds 18 1019 72 10000 11.3 360 23:46 07.03.2020
1697 Clouds 18 1019 68 10000 11.3 360 23:24 07.03.2020
1698 Clouds 18 1019 72 10000 11.3 360 22:54 07.03.2020
1699 Clouds 18 1019 68 10000 11.8 360 22:36 07.03.2020
1700 Clouds 18 1019 68 10000 11.8 360 22:18 07.03.2020
1701 Clouds 18 1018 72 10000 9.8 360 21:42 07.03.2020
1702 Clouds 18 1018 68 10000 11.3 360 21:19 07.03.2020
1703 Clouds 18 1018 68 10000 11.8 360 20:39 07.03.2020
1704 Clouds 19 1017 63 10000 11.8 360 20:19 07.03.2020
1705 Clouds 19 1017 63 10000 11.8 360 20:19 07.03.2020
1706 Clouds 19 1017 63 10000 11.3 360 19:41 07.03.2020
1707 Clouds 20 1017 64 10000 12.3 10 19:22 07.03.2020
1708 Clouds 20 1017 64 10000 12.9 10 18:47 07.03.2020
1709 Clouds 20 1017 60 10000 13.9 20 18:28 07.03.2020
1710 Clouds 20 1017 60 10000 13.9 20 17:59 07.03.2020
1711 Clouds 20 1017 60 10000 13.9 20 17:40 07.03.2020
1712 Clouds 20 1017 60 10000 13.9 20 17:40 07.03.2020
1713 Clouds 21 1017 56 10000 14.9 20 17:19 07.03.2020
1714 Clouds 21 1018 56 10000 14.4 20 16:55 07.03.2020
1715 Clouds 21 1018 56 10000 14.4 20 16:36 07.03.2020
1716 Clouds 21 1018 56 10000 14.4 20 16:18 07.03.2020
1717 Clouds 21 1018 56 10000 13.4 20 15:41 07.03.2020
1718 Clouds 21 1019 56 10000 13.9 20 15:21 07.03.2020
1719 Clouds 21 1019 52 10000 12.3 10 14:58 07.03.2020
1720 Clouds 21 1019 52 10000 12.3 10 14:40 07.03.2020
1721 Clouds 21 1020 56 10000 14.4 10 14:21 07.03.2020
1722 Clouds 21 1020 52 10000 12.9 10 13:41 07.03.2020
1723 Clouds 20 1020 52 10000 13.9 20 13:21 07.03.2020
1724 Clouds 20 1021 56 10000 13.9 20 12:45 07.03.2020
1725 Clouds 20 1021 60 10000 12.9 20 12:23 07.03.2020
1726 Clouds 19 1021 52 10000 11.3 360 11:59 07.03.2020
1727 Clouds 19 1021 52 10000 11.3 360 11:41 07.03.2020
1728 Clouds 20 1021 56 10000 11.8 360 11:23 07.03.2020
1729 Clouds 19 1021 59 10000 10.8 360 10:56 07.03.2020
1730 Clouds 19 1021 59 10000 10.8 360 10:36 07.03.2020
1731 Clouds 18 1021 59 10000 10.3 360 10:18 07.03.2020
1732 Clouds 17 1021 63 10000 9.8 10 09:40 07.03.2020
1733 Clouds 16 1020 63 10000 9.8 10 09:19 07.03.2020
1734 Clouds 16 1020 59 10000 8.7 10 08:56 07.03.2020
1735 Clouds 17 1020 59 10000 8.7 10 08:38 07.03.2020
1736 Clouds 17 1020 59 10000 11.3 20 08:19 07.03.2020
1737 Clouds 17 1020 63 10000 9.8 10 07:44 07.03.2020
1738 Clouds 17 1019 59 10000 10.8 10 07:21 07.03.2020
1739 Clouds 16 1019 63 10000 9.3 360 06:39 07.03.2020
1740 Clouds 16 1019 63 10000 9.3 360 05:59 07.03.2020
1741 Clouds 17 1019 63 10000 9.3 360 05:38 07.03.2020
1742 Clouds 16 1021 63 10000 10.8 10 03:35 07.03.2020
1743 Clouds 17 1021 63 10000 9.8 10 02:42 07.03.2020
1744 Clouds 17 1021 63 10000 10.8 10 01:51 07.03.2020
1745 Clouds 16 1022 59 10000 10.3 360 00:43 07.03.2020
1746 Clouds 16 1022 59 10000 11.8 10 00:23 07.03.2020
1747 Clouds 16 1022 59 10000 11.8 10 00:23 07.03.2020
1748 Clouds 17 1022 59 10000 11.8 10 00:23 07.03.2020
1749 Clouds 16 1022 59 10000 12.3 10 23:58 06.03.2020
1750 Clouds 18 1022 59 10000 12.3 10 23:38 06.03.2020
1751 Clouds 18 1022 59 10000 12.3 10 23:38 06.03.2020
1752 Clouds 16 1022 59 10000 11.8 10 23:20 06.03.2020
1753 Clouds 15 1022 59 10000 11.8 20 22:44 06.03.2020
1754 Clouds 15 1022 59 10000 10.8 360 22:19 06.03.2020
1755 Clouds 14 1022 63 10000 11.3 10 21:46 06.03.2020
1756 Clouds 15 1022 63 10000 11.8 20 21:20 06.03.2020
1757 Clouds 16 1021 63 10000 10.3 10 20:43 06.03.2020
1758 Clouds 16 1022 59 10000 11.8 10 20:21 06.03.2020
1759 Clouds 17 1022 55 10000 11.3 10 19:55 06.03.2020
1760 Clouds 17 1022 59 10000 11.3 10 19:36 06.03.2020
1761 Clouds 17 1022 59 10000 11.3 10 19:18 06.03.2020
1762 Clouds 17 1022 59 10000 12.9 10 18:42 06.03.2020
1763 Clouds 18 1022 52 10000 12.9 20 18:20 06.03.2020
1764 Clouds 20 1022 63 10000 12.9 20 17:56 06.03.2020
1765 Clouds 20 1022 56 10000 12.3 10 17:38 06.03.2020
1766 Clouds 18 1022 56 10000 12.3 10 17:19 06.03.2020
1767 Clouds 18 1023 56 10000 13.4 20 16:42 06.03.2020
1768 Clouds 18 1023 56 10000 13.4 20 16:21 06.03.2020
1769 Clouds 20 1023 52 10000 13.4 10 15:58 06.03.2020
1770 Clouds 18 1023 52 10000 13.4 10 15:40 06.03.2020
1771 Clouds 18 1023 56 10000 14.4 10 15:20 06.03.2020
1772 Clouds 18 1023 52 10000 13.9 10 14:40 06.03.2020
1773 Clouds 20 1024 52 10000 14.4 10 14:21 06.03.2020
1774 Clouds 20 1024 52 10000 14.4 10 14:21 06.03.2020
1775 Clouds 17 1024 56 10000 13.9 10 13:44 06.03.2020
1776 Clouds 19 1025 63 10000 13.4 10 13:23 06.03.2020
1777 Clouds 20 1025 56 10000 11.8 10 12:58 06.03.2020
1778 Clouds 20 1025 56 10000 11.8 10 12:38 06.03.2020
1779 Clouds 19 1025 55 10000 13.4 10 12:20 06.03.2020
1780 Clouds 19 1025 63 10000 11.8 360 11:58 06.03.2020
1781 Clouds 19 1025 63 10000 11.8 360 11:40 06.03.2020
1782 Clouds 15 1024 63 10000 12.9 10 11:20 06.03.2020
1783 Clouds 19 1024 63 10000 12.9 10 10:40 06.03.2020
1784 Clouds 14 1024 67 10000 13.9 20 10:21 06.03.2020
1785 Clouds 17 1024 72 10000 12.9 20 09:56 06.03.2020
1786 Clouds 17 1024 72 10000 12.9 20 09:37 06.03.2020
1787 Clouds 18 1023 68 10000 11.3 10 09:19 06.03.2020
1788 Clouds 15 1023 77 10000 11.3 10 08:46 06.03.2020
1789 Clouds 16 1023 82 10000 12.9 10 08:27 06.03.2020
1790 Clouds 17 1022 88 10000 12.3 10 07:57 06.03.2020
1791 Clouds 15 1022 88 10000 12.3 10 07:39 06.03.2020
1792 Rain 16 1022 93 2500 11.3 10 06:59 06.03.2020
1793 Rain 17 1022 93 2500 11.3 10 06:40 06.03.2020
1794 Rain 16 1023 93 6000 11.3 10 05:46 06.03.2020
1795 Clouds 17 1023 93 10000 10.8 10 05:27 06.03.2020
1796 Rain 16 1023 93 6000 10.8 360 04:57 06.03.2020
1797 Clouds 18 1024 68 10000 9.3 350 02:55 06.03.2020
1798 Clouds 16 1024 72 10000 10.3 360 01:40 06.03.2020
1799 Clouds 16 1024 72 10000 9.3 360 01:22 06.03.2020
1800 Clouds 18 1025 72 10000 10.3 10 00:33 06.03.2020
1801 Clouds 16 1025 72 10000 11.8 10 23:57 05.03.2020
1802 Clouds 17 1025 72 10000 11.8 10 23:39 05.03.2020
1803 Clouds 19 1025 68 10000 11.3 360 23:19 05.03.2020
1804 Clouds 18 1024 68 10000 12.9 10 22:40 05.03.2020
1805 Clouds 18 1024 68 10000 13.4 10 22:22 05.03.2020
1806 Clouds 18 1023 68 10000 12.9 10 21:57 05.03.2020
1807 Clouds 19 1023 68 10000 12.9 10 21:38 05.03.2020
1808 Clouds 19 1023 68 10000 12.3 10 21:20 05.03.2020
1809 Clouds 19 1023 68 10000 12.3 10 20:57 05.03.2020
1810 Clouds 19 1023 68 10000 12.3 10 20:39 05.03.2020
1811 Clouds 18 1023 68 10000 12.3 10 20:19 05.03.2020
1812 Clouds 20 1022 68 10000 12.3 10 19:56 05.03.2020
1813 Clouds 20 1022 68 10000 12.3 10 19:38 05.03.2020
1814 Clouds 20 1022 64 10000 11.8 360 19:18 05.03.2020
1815 Clouds 21 1022 60 10000 12.9 10 18:54 05.03.2020
1816 Clouds 21 1022 60 10000 12.9 10 18:36 05.03.2020
1817 Clouds 21 1022 60 10000 12.9 20 18:18 05.03.2020
1818 Clouds 21 1022 60 10000 12.3 10 17:41 05.03.2020
1819 Clouds 22 1022 60 10000 12.3 10 17:22 05.03.2020
1820 Clouds 22 1022 56 10000 13.4 20 16:55 05.03.2020
1821 Clouds 22 1022 56 10000 13.4 20 16:37 05.03.2020
1822 Clouds 22 1023 56 10000 13.4 20 16:19 05.03.2020
1823 Clouds 22 1023 56 10000 13.4 20 15:44 05.03.2020
1824 Clouds 21 1023 64 10000 12.3 10 15:22 05.03.2020
1825 Clouds 21 1023 60 10000 13.4 20 14:58 05.03.2020
1826 Clouds 21 1023 60 10000 13.4 20 14:39 05.03.2020
1827 Clouds 22 1023 60 10000 12.9 20 14:21 05.03.2020
1828 Clouds 21 1024 64 10000 11.8 20 13:55 05.03.2020
1829 Clouds 21 1024 64 10000 11.8 20 13:36 05.03.2020
1830 Clouds 21 1024 64 10000 11.8 20 13:36 05.03.2020
1831 Clouds 21 1024 64 10000 11.8 20 13:18 05.03.2020
1832 Clouds 21 1024 68 10000 11.8 20 12:40 05.03.2020
1833 Clouds 21 1024 68 10000 11.8 20 12:40 05.03.2020
1834 Clouds 20 1024 68 10000 10.8 10 12:20 05.03.2020
1835 Clouds 20 1024 68 10000 9.8 10 11:57 05.03.2020
1836 Clouds 20 1024 68 10000 9.8 10 11:37 05.03.2020
1837 Clouds 19 1024 72 10000 10.3 10 11:19 05.03.2020
1838 Clouds 19 1024 72 10000 10.3 10 10:57 05.03.2020
1839 Clouds 19 1024 72 10000 10.3 10 10:39 05.03.2020
1840 Clouds 19 1023 72 10000 9.3 10 10:20 05.03.2020
1841 Clouds 18 1023 77 10000 10.3 10 09:45 05.03.2020
1842 Clouds 18 1022 77 10000 9.3 10 09:27 05.03.2020
1843 Clouds 18 1022 82 10000 9.8 10 08:48 05.03.2020
1844 Clouds 17 1022 77 10000 9.3 10 08:30 05.03.2020
1845 Clouds 17 1022 77 10000 9.8 10 07:49 05.03.2020
1846 Clouds 18 1022 82 10000 8.7 10 07:23 05.03.2020
1847 Clouds 18 1021 77 10000 11.3 10 06:59 05.03.2020
1848 Clouds 18 1021 77 10000 11.3 10 06:41 05.03.2020
1849 Clouds 18 1021 77 10000 8.7 360 06:19 05.03.2020
1850 Clouds 18 1021 77 10000 9.3 10 05:32 05.03.2020
1851 Clouds 18 1021 77 10000 9.8 10 04:23 05.03.2020
1852 Clouds 18 1021 77 10000 8.2 10 03:58 05.03.2020
1853 Clouds 19 1022 82 10000 10.8 10 02:25 05.03.2020
1854 Clouds 18 1022 82 10000 11.3 10 01:24 05.03.2020
1855 Clouds 18 1022 82 10000 9.8 10 00:43 05.03.2020
1856 Clouds 19 1022 82 10000 8.7 10 23:56 04.03.2020
1857 Clouds 18 1022 82 10000 8.7 10 23:38 04.03.2020
1858 Clouds 19 1022 82 10000 8.7 10 23:19 04.03.2020
1859 Clouds 19 1022 88 10000 8.7 10 22:40 04.03.2020
1860 Clouds 19 1022 88 10000 8.2 10 22:19 04.03.2020
1861 Clouds 19 1021 88 10000 7.7 20 21:59 04.03.2020
1862 Clouds 19 1021 88 10000 7.7 20 21:41 04.03.2020
1863 Clouds 20 1021 82 10000 8.2 20 21:21 04.03.2020
1864 Clouds 20 1021 82 10000 8.2 20 20:57 04.03.2020
1865 Clouds 20 1021 82 10000 8.2 20 20:39 04.03.2020
1866 Clouds 20 1021 82 10000 8.7 10 20:21 04.03.2020
1867 Clouds 20 1021 77 10000 8.7 10 19:42 04.03.2020
1868 Clouds 20 1021 77 10000 9.3 20 19:24 04.03.2020
1869 Clouds 21 1021 73 10000 9.8 20 18:58 04.03.2020
1870 Clouds 22 1021 73 10000 9.8 20 18:40 04.03.2020
1871 Clouds 22 1021 73 10000 10.8 20 18:22 04.03.2020
1872 Clouds 22 1021 73 10000 11.3 30 17:57 04.03.2020
1873 Clouds 21 1021 73 10000 11.3 30 17:38 04.03.2020
1874 Clouds 21 1021 73 10000 11.8 20 17:20 04.03.2020
1875 Clouds 21 1021 73 10000 11.8 20 16:44 04.03.2020
1876 Clouds 22 1021 68 10000 11.8 30 16:26 04.03.2020
1877 Clouds 22 1021 68 10000 11.3 30 15:59 04.03.2020
1878 Clouds 22 1021 68 10000 11.3 30 15:59 04.03.2020
1879 Clouds 22 1021 68 10000 11.3 30 15:41 04.03.2020
1880 Clouds 22 1022 68 10000 10.8 30 15:23 04.03.2020
1881 Clouds 22 1022 68 10000 11.8 30 14:56 04.03.2020
1882 Clouds 22 1022 68 10000 11.8 30 14:37 04.03.2020
1883 Clouds 22 1022 68 10000 11.3 30 14:19 04.03.2020
1884 Clouds 22 1023 68 10000 11.3 20 13:57 04.03.2020
1885 Clouds 22 1023 68 10000 11.3 20 13:38 04.03.2020
1886 Clouds 22 1023 73 10000 11.3 30 13:20 04.03.2020
1887 Clouds 22 1023 73 10000 10.8 30 12:45 04.03.2020
1888 Clouds 21 1023 73 10000 10.3 30 12:27 04.03.2020
1889 Clouds 22 1023 73 10000 8.7 20 11:59 04.03.2020
1890 Clouds 22 1023 73 10000 8.7 20 11:41 04.03.2020
1891 Clouds 21 1023 68 10000 8.2 20 11:22 04.03.2020
1892 Clouds 21 1023 72 10000 8.2 20 10:57 04.03.2020
1893 Clouds 21 1023 72 10000 8.2 20 10:38 04.03.2020
1894 Clouds 20 1023 77 10000 8.7 20 10:18 04.03.2020
1895 Clouds 18 1023 82 10000 8.2 20 09:42 04.03.2020
1896 Clouds 18 1022 82 10000 6.7 10 09:21 04.03.2020
1897 Clouds 18 1022 82 10000 6.7 360 08:46 04.03.2020
1898 Clouds 18 1022 82 10000 6.7 360 08:26 04.03.2020
1899 Clear 17 1021 82 10000 9.3 10 07:56 04.03.2020
1900 Clear 17 1021 82 10000 9.3 10 07:37 04.03.2020
1901 Clear 18 1021 82 10000 7.7 10 07:18 04.03.2020
1902 Clear 18 1021 82 10000 7.7 10 06:41 04.03.2020
1903 Clear 17 1021 82 10000 7.2 360 06:23 04.03.2020
1904 Clear 17 1022 77 10000 7.2 10 05:47 04.03.2020
1905 Clear 18 1023 82 10000 6.7 360 04:21 04.03.2020
1906 Clear 17 1023 82 10000 6.7 360 03:38 04.03.2020
1907 Clouds 18 1024 82 10000 6.7 360 03:00 04.03.2020
1908 Clouds 17 1024 82 10000 6.7 360 02:37 04.03.2020
1909 Clouds 18 1024 77 10000 6.7 360 02:18 04.03.2020
1910 Clouds 18 1024 77 10000 6.2 360 01:50 04.03.2020
1911 Clouds 19 1024 77 10000 8.2 360 00:44 04.03.2020
1912 Clouds 19 1024 77 10000 8.7 360 00:24 04.03.2020
1913 Clouds 19 1024 77 10000 8.2 10 23:45 03.03.2020
1914 Clouds 18 1024 77 10000 9.8 10 23:27 03.03.2020
1915 Clouds 18 1024 77 10000 10.3 10 22:57 03.03.2020
1916 Clouds 18 1024 77 10000 10.3 10 22:39 03.03.2020
1917 Clouds 19 1024 82 10000 9.8 10 22:19 03.03.2020
1918 Clouds 19 1024 72 10000 10.8 10 21:56 03.03.2020
1919 Clouds 19 1024 72 10000 10.8 10 21:36 03.03.2020
1920 Clouds 19 1023 72 10000 11.3 10 21:18 03.03.2020
1921 Clouds 19 1023 72 10000 10.8 20 20:40 03.03.2020
1922 Clouds 20 1023 72 10000 10.8 20 20:20 03.03.2020
1923 Clouds 20 1023 72 10000 10.8 20 20:20 03.03.2020
1924 Clouds 19 1023 72 10000 11.8 20 19:59 03.03.2020
1925 Clouds 19 1023 72 10000 11.8 20 19:37 03.03.2020
1926 Clouds 19 1023 72 10000 11.8 20 19:37 03.03.2020
1927 Clouds 21 1023 72 10000 11.3 20 19:19 03.03.2020
1928 Clouds 21 1023 72 10000 11.3 20 19:19 03.03.2020
1929 Clouds 21 1023 68 10000 11.8 20 18:58 03.03.2020
1930 Clouds 22 1023 68 10000 11.8 20 18:40 03.03.2020
1931 Clouds 21 1023 68 10000 12.3 30 18:21 03.03.2020
1932 Clouds 21 1023 64 10000 11.3 20 17:56 03.03.2020
1933 Clouds 21 1023 64 10000 11.3 20 17:37 03.03.2020
1934 Clouds 22 1023 64 10000 12.3 30 17:19 03.03.2020
1935 Clouds 21 1023 64 10000 13.4 30 16:56 03.03.2020
1936 Clouds 22 1023 64 10000 13.4 30 16:37 03.03.2020
1937 Clouds 23 1023 60 10000 12.3 20 16:18 03.03.2020
1938 Clouds 22 1023 64 10000 13.4 30 15:43 03.03.2020
1939 Clouds 22 1023 64 10000 13.4 20 15:21 03.03.2020
1940 Clouds 22 1024 64 10000 12.9 30 14:56 03.03.2020
1941 Clouds 22 1024 64 10000 12.9 30 14:37 03.03.2020
1942 Clouds 22 1024 60 10000 12.3 20 14:19 03.03.2020
1943 Clouds 22 1025 60 10000 11.8 30 13:55 03.03.2020
1944 Clouds 22 1025 60 10000 11.8 30 13:37 03.03.2020
1945 Clouds 21 1025 64 10000 10.8 20 13:18 03.03.2020
1946 Clouds 22 1025 68 10000 10.8 20 12:42 03.03.2020
1947 Clouds 21 1025 64 10000 9.3 10 12:23 03.03.2020
1948 Clouds 21 1025 64 10000 9.3 10 12:23 03.03.2020
1949 Clouds 21 1025 64 10000 9.3 360 11:55 03.03.2020
1950 Clouds 21 1025 64 10000 9.3 360 11:37 03.03.2020
1951 Clouds 20 1025 68 10000 9.8 20 11:18 03.03.2020
1952 Clouds 21 1025 68 10000 10.3 20 10:54 03.03.2020
1953 Clouds 20 1025 68 10000 10.3 20 10:36 03.03.2020
1954 Clouds 20 1025 72 10000 7.7 10 10:18 03.03.2020
1955 Clouds 19 1024 68 10000 8.7 10 09:41 03.03.2020
1956 Clouds 18 1024 77 10000 8.7 10 09:21 03.03.2020
1957 Clouds 19 1024 72 10000 7.2 10 08:42 03.03.2020
1958 Clouds 17 1023 77 10000 7.7 10 08:22 03.03.2020
1959 Clouds 17 1023 77 10000 8.2 10 07:56 03.03.2020
1960 Clouds 17 1023 77 10000 8.2 10 07:38 03.03.2020
1961 Clouds 18 1023 72 10000 6.7 10 07:18 03.03.2020
1962 Clouds 18 1023 77 10000 6.7 10 06:40 03.03.2020
1963 Clouds 18 1023 77 10000 9.3 20 06:21 03.03.2020
1964 Clouds 17 1023 77 10000 9.3 10 05:43 03.03.2020
1965 Clouds 18 1023 77 10000 6.7 360 04:54 03.03.2020
1966 Clouds 17 1024 77 10000 7.7 360 02:38 03.03.2020
1967 Clouds 18 1024 68 10000 8.7 360 01:29 03.03.2020
1968 Clouds 18 1025 68 10000 8.2 10 00:42 03.03.2020
1969 Clouds 18 1025 63 10000 8.7 360 00:23 03.03.2020
1970 Clouds 18 1024 63 10000 8.2 350 23:50 02.03.2020
1971 Clouds 18 1024 72 10000 7.7 360 23:23 02.03.2020
1972 Clouds 19 1024 72 10000 8.7 360 22:57 02.03.2020
1973 Clouds 19 1024 72 10000 8.7 360 22:57 02.03.2020
1974 Clouds 19 1024 72 10000 8.7 360 22:38 02.03.2020
1975 Clouds 19 1024 77 10000 9.3 10 22:19 02.03.2020
1976 Clouds 19 1024 77 10000 9.8 10 21:56 02.03.2020
1977 Clouds 19 1024 77 10000 9.8 10 21:37 02.03.2020
1978 Clouds 18 1024 82 10000 9.3 10 21:19 02.03.2020
1979 Clouds 18 1024 77 10000 9.8 10 20:54 02.03.2020
1980 Clouds 18 1024 77 10000 9.8 10 20:36 02.03.2020
1981 Clouds 19 1023 77 10000 9.8 20 20:18 02.03.2020
1982 Clouds 19 1023 72 10000 10.3 20 19:40 02.03.2020
1983 Clouds 20 1023 68 10000 11.3 20 19:21 02.03.2020
1984 Clouds 21 1023 64 10000 11.8 20 18:57 02.03.2020
1985 Clouds 21 1023 64 10000 11.8 20 18:38 02.03.2020
1986 Clouds 21 1023 60 10000 10.8 20 18:18 02.03.2020
1987 Clouds 22 1023 60 10000 11.8 20 17:56 02.03.2020
1988 Clouds 22 1023 60 10000 11.8 20 17:38 02.03.2020
1989 Clouds 21 1022 60 10000 12.3 20 17:20 02.03.2020
1990 Clouds 22 1023 60 10000 12.3 30 16:43 02.03.2020
1991 Clouds 23 1023 53 10000 12.9 20 16:25 02.03.2020
1992 Clouds 23 1023 49 10000 12.3 20 15:58 02.03.2020
1993 Clouds 22 1023 49 10000 12.3 20 15:40 02.03.2020
1994 Clouds 22 1024 60 10000 11.8 20 15:18 02.03.2020
1995 Clouds 21 1024 64 10000 13.4 20 14:39 02.03.2020
1996 Clouds 21 1024 64 10000 12.3 30 14:20 02.03.2020
1997 Clouds 22 1025 64 10000 12.9 30 13:57 02.03.2020
1998 Clouds 22 1025 64 10000 12.9 30 13:37 02.03.2020
1999 Clouds 22 1025 64 10000 11.3 30 13:18 02.03.2020
2000 Clouds 21 1025 64 10000 11.3 30 12:43 02.03.2020
2001 Clouds 20 1025 68 10000 10.3 30 12:19 02.03.2020
2002 Clouds 20 1025 64 10000 9.8 20 11:39 02.03.2020
2003 Clouds 19 1025 60 10000 9.8 10 11:21 02.03.2020
2004 Clouds 20 1025 68 10000 9.3 10 10:58 02.03.2020
2005 Clouds 18 1025 68 10000 9.3 10 10:40 02.03.2020
2006 Clouds 18 1025 68 10000 9.3 10 10:40 02.03.2020
2007 Clouds 18 1024 68 10000 7.7 360 10:19 02.03.2020
2008 Clouds 19 1024 68 10000 6.2 10 09:53 02.03.2020
2009 Clouds 17 1024 68 10000 6.2 10 09:32 02.03.2020
2010 Clouds 17 1023 68 10000 6.2 10 08:49 02.03.2020
2011 Clouds 17 1023 72 10000 6.2 20 08:24 02.03.2020
2012 Clouds 17 1023 72 10000 6.7 10 07:54 02.03.2020
2013 Clouds 16 1023 72 10000 6.7 10 07:36 02.03.2020
2014 Clouds 17 1023 68 10000 5.7 360 06:56 02.03.2020
2015 Clouds 17 1023 68 10000 6.2 350 06:28 02.03.2020
2016 Clouds 16 1023 68 10000 7.7 360 05:27 02.03.2020
2017 Clouds 17 1024 72 10000 8.2 20 03:59 02.03.2020
2018 Clouds 18 1024 68 10000 8.7 10 03:19 02.03.2020
2019 Clouds 18 1024 68 10000 8.7 360 02:32 02.03.2020
2020 Clouds 18 1024 68 10000 8.2 10 01:40 02.03.2020
2021 Clouds 18 1024 68 10000 6.2 360 01:22 02.03.2020
2022 Clouds 18 1024 68 10000 6.2 360 00:22 02.03.2020
2023 Clouds 18 1024 68 10000 6.7 360 23:56 01.03.2020
2024 Clouds 19 1024 68 10000 6.7 360 23:37 01.03.2020
2025 Clouds 18 1024 68 10000 7.7 20 23:18 01.03.2020
2026 Clouds 18 1024 68 10000 8.2 10 22:36 01.03.2020
2027 Clouds 18 1024 72 10000 7.2 10 22:18 01.03.2020
2028 Clouds 17 1023 72 10000 8.2 20 21:42 01.03.2020
2029 Clouds 18 1023 72 10000 9.3 20 21:24 01.03.2020
2030 Clouds 18 1022 72 10000 7.7 20 20:58 01.03.2020
2031 Clouds 18 1022 72 10000 7.7 20 20:39 01.03.2020
2032 Clouds 19 1022 72 10000 8.7 20 20:21 01.03.2020
2033 Clouds 19 1022 68 10000 9.8 20 19:42 01.03.2020
2034 Clouds 20 1022 68 10000 10.3 20 19:23 01.03.2020
2035 Clouds 20 1022 68 10000 10.3 30 18:58 01.03.2020
2036 Clouds 20 1022 68 10000 10.3 30 18:39 01.03.2020
2037 Clouds 20 1022 68 10000 10.8 30 18:19 01.03.2020
2038 Clouds 20 1022 68 10000 11.3 30 17:57 01.03.2020
2039 Clouds 20 1022 68 10000 11.3 30 17:38 01.03.2020
2040 Clouds 20 1022 68 10000 10.8 30 17:19 01.03.2020
2041 Clear 20 1021 68 10000 10.3 30 16:55 01.03.2020
2042 Clear 21 1021 64 10000 10.3 30 16:36 01.03.2020
2043 Clear 21 1021 64 10000 10.3 30 16:36 01.03.2020
2044 Clear 21 1021 64 10000 10.3 30 16:18 01.03.2020
2045 Clear 21 1022 68 10000 10.3 30 15:55 01.03.2020
2046 Clear 20 1022 68 10000 10.3 30 15:37 01.03.2020
2047 Clouds 21 1022 64 10000 10.3 30 15:18 01.03.2020
2048 Clouds 22 1023 64 10000 9.3 30 14:55 01.03.2020
2049 Clouds 22 1023 64 10000 9.3 30 14:36 01.03.2020
2050 Clouds 21 1023 68 10000 9.8 30 14:18 01.03.2020
2051 Clouds 21 1023 68 10000 10.8 30 13:43 01.03.2020
2052 Clouds 21 1024 68 10000 10.3 30 13:21 01.03.2020
2053 Clouds 21 1024 68 10000 9.8 30 12:59 01.03.2020
2054 Clouds 20 1024 68 10000 9.8 30 12:40 01.03.2020
2055 Clouds 20 1024 64 10000 9.3 30 12:20 01.03.2020
2056 Clouds 20 1024 64 10000 8.7 20 11:41 01.03.2020
2057 Clouds 19 1024 68 10000 8.2 10 11:22 01.03.2020
2058 Clouds 19 1024 68 10000 9.3 10 10:57 01.03.2020
2059 Clouds 19 1024 68 10000 9.3 10 10:37 01.03.2020
2060 Clouds 18 1024 72 10000 9.3 360 10:19 01.03.2020
2061 Clouds 18 1024 72 10000 7.7 360 09:46 01.03.2020
2062 Clouds 17 1024 77 10000 7.2 360 09:27 01.03.2020
2063 Clouds 16 1023 82 10000 6.2 360 08:57 01.03.2020
2064 Clouds 16 1023 82 10000 6.2 360 08:38 01.03.2020
2065 Clouds 16 1023 82 10000 5.1 350 08:18 01.03.2020
2066 Clouds 16 1023 82 10000 5.7 360 07:41 01.03.2020
2067 Clouds 16 1023 82 10000 5.7 360 07:23 01.03.2020
2068 Clouds 16 1023 77 10000 6.7 10 06:47 01.03.2020
2069 Clouds 16 1023 77 10000 6.7 10 06:28 01.03.2020
2070 Clouds 17 1023 77 10000 6.7 360 03:54 01.03.2020
2071 Clouds 17 1024 82 10000 6.7 10 02:23 01.03.2020
2072 Clouds 17 1024 77 10000 6.7 10 01:48 01.03.2020
2073 Clouds 17 1024 77 10000 7.2 10 01:21 01.03.2020
2074 Clouds 17 1024 77 10000 7.7 10 00:42 01.03.2020
2075 Clear 18 1025 77 10000 8.2 10 00:21 01.03.2020
2076 Clear 18 1025 72 10000 7.2 10 23:46 29.02.2020
2077 Clear 18 1024 72 10000 7.2 20 23:28 29.02.2020
2078 Clear 18 1024 72 10000 8.2 10 22:42 29.02.2020
2079 Clear 18 1024 72 10000 8.7 10 22:23 29.02.2020
2080 Clouds 18 1024 72 10000 9.8 10 21:42 29.02.2020
2081 Clouds 18 1023 72 10000 9.8 10 21:23 29.02.2020
2082 Clouds 18 1023 72 10000 8.2 10 20:43 29.02.2020
2083 Clouds 19 1023 68 10000 9.3 10 20:22 29.02.2020
2084 Clouds 19 1022 68 10000 11.3 10 19:56 29.02.2020
2085 Clouds 19 1022 68 10000 11.3 10 19:38 29.02.2020
2086 Clouds 19 1022 64 10000 10.8 20 19:19 29.02.2020
2087 Clouds 20 1022 68 10000 11.3 10 18:43 29.02.2020
2088 Clouds 20 1022 68 10000 11.3 20 18:24 29.02.2020
2089 Clouds 20 1022 68 10000 10.3 20 17:58 29.02.2020
2090 Clouds 20 1022 68 10000 10.3 20 17:40 29.02.2020
2091 Clouds 20 1022 68 10000 10.8 20 17:20 29.02.2020
2092 Clouds 20 1022 68 10000 10.8 20 17:20 29.02.2020
2093 Clouds 21 1022 64 10000 11.3 30 16:45 29.02.2020
2094 Clouds 21 1022 60 10000 11.3 30 16:22 29.02.2020
2095 Clouds 21 1022 60 10000 10.8 30 15:58 29.02.2020
2096 Clouds 21 1022 60 10000 10.8 30 15:40 29.02.2020
2097 Clouds 21 1022 60 10000 10.8 30 15:40 29.02.2020
2098 Clouds 21 1023 64 10000 10.3 30 15:21 29.02.2020
2099 Clouds 20 1023 64 10000 9.8 30 14:41 29.02.2020
2100 Clouds 20 1024 68 10000 9.3 30 14:22 29.02.2020
2101 Clouds 21 1024 60 10000 9.8 30 13:56 29.02.2020
2102 Clouds 21 1024 60 10000 8.7 30 13:37 29.02.2020
2103 Clouds 21 1024 60 10000 8.7 30 13:18 29.02.2020
2104 Clouds 21 1024 60 10000 9.3 30 12:41 29.02.2020
2105 Clouds 21 1024 60 10000 9.8 10 12:21 29.02.2020
2106 Clouds 20 1025 64 10000 9.8 20 11:56 29.02.2020
2107 Clouds 20 1025 64 10000 9.8 20 11:38 29.02.2020
2108 Clouds 19 1024 68 10000 9.8 20 11:20 29.02.2020
2109 Clouds 19 1024 63 10000 9.3 10 10:44 29.02.2020
2110 Clouds 18 1024 68 10000 7.2 360 10:26 29.02.2020
2111 Clouds 18 1024 68 10000 7.2 360 09:47 29.02.2020
2112 Clouds 17 1023 72 10000 7.2 360 09:23 29.02.2020
2113 Clouds 16 1023 72 10000 7.7 10 08:42 29.02.2020
2114 Clouds 16 1023 72 10000 7.2 10 08:22 29.02.2020
2115 Clouds 16 1022 72 10000 8.2 10 07:57 29.02.2020
2116 Clouds 16 1022 72 10000 8.2 10 07:39 29.02.2020
2117 Clouds 16 1022 72 10000 7.2 10 07:18 29.02.2020
2118 Clouds 16 1022 72 10000 10.3 10 06:42 29.02.2020
2119 Clouds 16 1022 72 10000 9.3 360 06:22 29.02.2020
2120 Clouds 16 1022 72 10000 8.7 20 05:46 29.02.2020
2121 Clouds 17 1022 68 10000 8.7 10 04:45 29.02.2020
2122 Clouds 17 1022 72 10000 9.3 10 03:40 29.02.2020
2123 Clouds 17 1022 72 10000 8.7 10 03:21 29.02.2020
2124 Clouds 17 1022 72 10000 9.3 10 02:37 29.02.2020
2125 Clouds 17 1022 72 10000 9.3 10 02:37 29.02.2020
2126 Clouds 17 1023 68 10000 10.3 10 00:58 29.02.2020
2127 Clouds 18 1023 68 10000 10.3 10 00:36 29.02.2020
2128 Clouds 18 1023 72 10000 9.8 10 23:43 28.02.2020
2129 Clouds 18 1023 72 10000 8.2 360 23:25 28.02.2020
2130 Clear 18 1022 72 10000 7.7 360 22:55 28.02.2020
2131 Clear 18 1022 72 10000 7.7 360 22:36 28.02.2020
2132 Clear 18 1022 68 10000 5.1 360 22:18 28.02.2020
2133 Clear 18 1022 68 10000 6.7 360 21:41 28.02.2020
2134 Clear 18 1021 68 10000 7.2 10 21:21 28.02.2020
2135 Clear 19 1021 63 10000 7.2 10 20:41 28.02.2020
2136 Clouds 19 1020 68 10000 8.7 30 20:22 28.02.2020
2137 Clear 19 1020 68 10000 8.7 30 20:22 28.02.2020
2138 Clear 19 1020 68 10000 9.3 20 19:59 28.02.2020
2139 Clear 19 1020 68 10000 9.3 20 19:39 28.02.2020
2140 Clear 19 1020 68 10000 9.3 20 19:39 28.02.2020
2141 Clear 19 1020 63 10000 10.3 20 19:21 28.02.2020
2142 Clear 20 1020 60 10000 9.8 30 18:57 28.02.2020
2143 Clear 20 1020 60 10000 9.8 30 18:39 28.02.2020
2144 Clear 20 1020 64 10000 9.8 30 18:20 28.02.2020
2145 Clear 21 1020 56 10000 10.3 30 17:41 28.02.2020
2146 Clear 21 1020 60 10000 10.3 30 17:22 28.02.2020
2147 Clouds 21 1020 56 10000 10.3 30 16:47 28.02.2020
2148 Clouds 21 1020 56 10000 10.8 30 16:20 28.02.2020
2149 Clouds 21 1020 60 10000 10.8 30 15:59 28.02.2020
2150 Clouds 22 1020 60 10000 10.8 30 15:40 28.02.2020
2151 Clouds 22 1021 53 10000 10.3 30 15:20 28.02.2020
2152 Clouds 21 1021 56 10000 9.8 30 14:57 28.02.2020
2153 Clouds 21 1021 56 10000 9.8 30 14:39 28.02.2020
2154 Clouds 21 1021 56 10000 9.3 30 14:18 28.02.2020
2155 Clouds 21 1022 56 10000 9.3 30 13:42 28.02.2020
2156 Clouds 21 1022 56 10000 8.2 40 13:21 28.02.2020
2157 Clouds 21 1022 56 10000 8.2 40 12:59 28.02.2020
2158 Clouds 21 1022 56 10000 8.2 40 12:40 28.02.2020
2159 Clouds 21 1022 60 10000 7.2 40 12:22 28.02.2020
2160 Clouds 21 1022 56 10000 7.7 30 11:42 28.02.2020
2161 Clouds 20 1022 60 10000 5.7 20 11:23 28.02.2020
2162 Clouds 19 1022 56 10000 6.2 360 10:57 28.02.2020
2163 Clouds 19 1022 56 10000 6.2 360 10:37 28.02.2020
2164 Clouds 18 1021 59 10000 4.6 340 10:19 28.02.2020
2165 Clouds 17 1021 67 10000 2.6 350 09:44 28.02.2020
2166 Clouds 16 1021 72 10000 3.6 340 09:21 28.02.2020
2167 Clouds 16 1020 72 10000 3.6 340 08:55 28.02.2020
2168 Clouds 16 1020 72 10000 3.6 340 08:36 28.02.2020
2169 Clouds 17 1020 67 10000 4.1 360 08:18 28.02.2020
2170 Clouds 17 1020 67 10000 5.1 360 07:39 28.02.2020
2171 Clouds 18 1020 63 10000 4.1 360 07:19 28.02.2020
2172 Clouds 17 1020 67 10000 4.1 350 06:41 28.02.2020
2173 Clouds 18 1020 63 10000 5.7 360 05:37 28.02.2020
2174 Clouds 17 1021 67 10000 3.1 340 04:33 28.02.2020
2175 Clouds 18 1021 68 10000 5.1 360 03:39 28.02.2020
2176 Clouds 18 1021 68 10000 5.7 360 02:42 28.02.2020
2177 Clouds 18 1021 68 10000 4.6 360 02:18 28.02.2020
2178 Clouds 18 1021 68 10000 6.2 360 00:35 28.02.2020
2179 Clouds 18 1021 63 10000 6.7 350 23:58 27.02.2020
2180 Clouds 18 1021 63 10000 6.7 350 23:38 27.02.2020
2181 Clouds 18 1021 68 10000 7.7 20 23:18 27.02.2020
2182 Clouds 19 1021 63 10000 7.2 10 22:40 27.02.2020
2183 Clouds 19 1021 63 10000 8.2 20 22:22 27.02.2020
2184 Clouds 19 1021 68 10000 7.2 10 21:55 27.02.2020
2185 Clouds 19 1021 68 10000 7.2 10 21:37 27.02.2020
2186 Clouds 19 1021 63 10000 7.2 10 21:18 27.02.2020
2187 Clouds 19 1020 68 10000 7.7 20 20:42 27.02.2020
2188 Clouds 19 1020 68 10000 7.7 20 20:23 27.02.2020
2189 Clouds 19 1020 63 10000 8.2 30 19:58 27.02.2020
2190 Clouds 19 1020 63 10000 8.2 30 19:39 27.02.2020
2191 Clouds 19 1020 68 10000 9.3 30 19:21 27.02.2020
2192 Clouds 20 1020 56 10000 8.7 20 18:57 27.02.2020
2193 Clouds 20 1020 56 10000 8.7 20 18:39 27.02.2020
2194 Clouds 20 1020 64 10000 9.8 30 18:19 27.02.2020
2195 Clouds 20 1020 64 10000 9.3 30 17:55 27.02.2020
2196 Clouds 20 1020 64 10000 9.3 30 17:36 27.02.2020
2197 Clouds 21 1020 60 10000 9.3 30 17:18 27.02.2020
2198 Clouds 21 1020 60 10000 9.3 30 17:18 27.02.2020
2199 Clouds 21 1020 60 10000 9.3 30 16:41 27.02.2020
2200 Clouds 21 1020 56 10000 9.8 30 16:20 27.02.2020
2201 Clouds 21 1021 60 10000 8.7 40 15:59 27.02.2020
2202 Clouds 21 1021 60 10000 8.7 40 15:38 27.02.2020
2203 Clouds 21 1021 60 10000 8.7 30 15:20 27.02.2020
2204 Clouds 21 1022 60 10000 8.7 30 14:59 27.02.2020
2205 Clouds 21 1022 60 10000 8.7 30 14:38 27.02.2020
2206 Clouds 21 1022 60 10000 7.7 20 14:20 27.02.2020
2207 Clouds 20 1022 64 10000 8.2 30 13:43 27.02.2020
2208 Clouds 20 1022 64 10000 9.3 40 13:22 27.02.2020
2209 Clouds 20 1023 60 10000 9.3 30 12:56 27.02.2020
2210 Clouds 20 1023 60 10000 9.3 30 12:38 27.02.2020
2211 Clouds 20 1023 68 10000 9.8 30 12:18 27.02.2020
2212 Clouds 20 1023 68 10000 8.7 20 11:42 27.02.2020
2213 Clouds 20 1023 68 10000 6.7 350 11:22 27.02.2020
2214 Clouds 20 1023 68 10000 6.7 350 11:22 27.02.2020
2215 Clouds 19 1023 68 10000 6.7 350 10:44 27.02.2020
2216 Clouds 19 1022 77 10000 4.6 10 10:24 27.02.2020
2217 Clouds 18 1022 82 10000 4.6 350 09:49 27.02.2020
2218 Clouds 18 1022 82 10000 4.6 350 09:30 27.02.2020
2219 Clouds 16 1021 93 10000 5.7 330 08:58 27.02.2020
2220 Clouds 16 1021 93 10000 5.7 330 08:40 27.02.2020
2221 Drizzle 16 1021 82 8000 6.7 360 08:22 27.02.2020
2222 Drizzle 16 1021 82 7000 6.7 10 07:44 27.02.2020
2223 Clouds 17 1021 82 10000 6.2 360 07:25 27.02.2020
2224 Drizzle 16 1021 82 6000 6.7 360 06:46 27.02.2020
2225 Drizzle 17 1021 88 8000 6.2 360 05:48 27.02.2020
2226 Drizzle 18 1021 77 10000 8.2 10 03:42 27.02.2020
2227 Clouds 18 1022 77 10000 9.3 20 02:22 27.02.2020
2228 Drizzle 18 1023 72 10000 9.3 10 00:46 27.02.2020
2229 Clouds 18 1023 72 10000 9.8 10 00:26 27.02.2020
2230 Clouds 18 1023 72 10000 9.3 10 23:40 26.02.2020
2231 Clouds 18 1023 68 10000 9.8 10 23:19 26.02.2020
2232 Clouds 18 1023 72 10000 8.7 10 22:57 26.02.2020
2233 Clouds 18 1023 72 10000 8.7 10 22:39 26.02.2020
2234 Clouds 18 1023 72 10000 8.7 10 22:39 26.02.2020
2235 Clouds 18 1023 68 10000 8.7 10 22:20 26.02.2020
2236 Clouds 18 1022 68 10000 9.8 360 21:56 26.02.2020
2237 Clouds 18 1022 68 10000 9.8 360 21:36 26.02.2020
2238 Clouds 18 1022 72 10000 9.8 10 21:18 26.02.2020
2239 Clouds 18 1022 68 10000 10.8 10 20:54 26.02.2020
2240 Clouds 18 1022 68 10000 10.8 10 20:36 26.02.2020
2241 Clouds 18 1022 68 10000 11.8 10 20:18 26.02.2020
2242 Clouds 19 1022 63 10000 11.8 20 19:45 26.02.2020
2243 Clouds 19 1021 63 10000 11.8 20 19:20 26.02.2020
2244 Clouds 19 1021 63 10000 12.9 20 18:58 26.02.2020
2245 Clouds 20 1021 63 10000 12.9 20 18:58 26.02.2020
2246 Clouds 20 1021 63 10000 12.9 20 18:40 26.02.2020
2247 Clouds 20 1021 64 10000 12.3 20 18:22 26.02.2020
2248 Clouds 20 1021 64 10000 12.3 20 18:22 26.02.2020
2249 Clouds 21 1021 60 10000 12.3 20 17:42 26.02.2020
2250 Clouds 21 1021 60 10000 12.3 20 17:42 26.02.2020
2251 Clouds 21 1022 64 10000 12.3 20 17:24 26.02.2020
2252 Clouds 20 1022 60 10000 12.3 20 16:59 26.02.2020
2253 Clouds 20 1022 60 10000 12.3 20 16:41 26.02.2020
2254 Clouds 21 1022 60 10000 11.8 20 16:22 26.02.2020
2255 Clouds 21 1023 56 10000 12.3 20 15:48 26.02.2020
2256 Clouds 21 1023 60 10000 12.3 30 15:29 26.02.2020
2257 Clouds 21 1023 60 10000 11.3 30 14:59 26.02.2020
2258 Clouds 21 1023 60 10000 11.3 30 14:41 26.02.2020
2259 Clouds 21 1024 60 10000 10.8 30 14:22 26.02.2020
2260 Clouds 21 1024 64 10000 11.3 30 13:43 26.02.2020
2261 Clouds 21 1025 60 10000 10.8 30 13:22 26.02.2020
2262 Clouds 20 1025 64 10000 11.3 30 12:42 26.02.2020
2263 Clouds 20 1025 60 10000 10.8 20 12:22 26.02.2020
2264 Clouds 19 1025 68 10000 10.8 20 11:59 26.02.2020
2265 Clouds 19 1025 68 10000 10.8 20 11:40 26.02.2020
2266 Clouds 20 1025 68 10000 11.3 20 11:21 26.02.2020
2267 Clouds 20 1024 68 10000 10.8 20 10:43 26.02.2020
2268 Clouds 19 1024 72 10000 9.3 10 10:24 26.02.2020
2269 Clouds 18 1024 77 10000 9.3 10 09:58 26.02.2020
2270 Clouds 18 1024 77 10000 9.3 10 09:39 26.02.2020
2271 Clouds 18 1024 77 10000 8.7 10 09:21 26.02.2020
2272 Clouds 18 1024 72 10000 8.7 360 08:39 26.02.2020
2273 Clouds 18 1023 72 10000 8.2 360 08:20 26.02.2020
2274 Clouds 18 1023 63 10000 7.7 360 07:51 26.02.2020
2275 Clear 18 1023 63 10000 7.7 360 07:30 26.02.2020
2276 Clear 18 1023 59 10000 7.2 360 06:59 26.02.2020
2277 Clear 18 1023 59 10000 7.2 360 06:40 26.02.2020
2278 Clear 18 1023 72 10000 7.2 10 06:21 26.02.2020
2279 Clear 18 1023 68 10000 6.7 360 05:48 26.02.2020
2280 Clear 19 1024 68 10000 8.2 360 04:58 26.02.2020
2281 Clear 20 1024 49 10000 7.2 360 02:56 26.02.2020
2282 Clear 20 1024 52 10000 7.2 360 01:57 26.02.2020
2283 Clear 20 1024 45 10000 6.7 360 01:24 26.02.2020
2284 Clear 20 1025 45 10000 7.2 360 00:38 26.02.2020
2285 Clear 20 1025 52 10000 6.7 360 00:19 26.02.2020
2286 Clear 20 1025 56 10000 6.7 360 23:41 25.02.2020
2287 Clear 20 1025 64 10000 7.2 10 23:21 25.02.2020
2288 Clear 20 1024 64 10000 8.2 10 22:56 25.02.2020
2289 Clear 20 1024 64 10000 8.2 10 22:36 25.02.2020
2290 Clear 21 1024 49 10000 7.7 360 22:18 25.02.2020
2291 Clear 21 1024 56 10000 7.7 10 21:38 25.02.2020
2292 Clear 20 1024 68 10000 8.7 360 21:20 25.02.2020
2293 Clear 21 1024 64 10000 9.8 10 20:57 25.02.2020
2294 Clear 21 1024 64 10000 9.8 10 20:38 25.02.2020
2295 Clear 21 1024 60 10000 9.8 10 20:19 25.02.2020
2296 Clear 22 1023 56 10000 9.8 10 19:45 25.02.2020
2297 Clear 23 1023 49 10000 10.8 10 19:23 25.02.2020
2298 Clear 25 1023 36 10000 8.2 20 18:59 25.02.2020
2299 Clear 26 1023 36 10000 8.2 20 18:40 25.02.2020
2300 Clear 28 1023 14 10000 6.7 10 18:21 25.02.2020
2301 Clear 28 1023 37 10000 7.7 20 17:56 25.02.2020
2302 Clear 28 1023 37 10000 7.7 20 17:37 25.02.2020
2303 Clear 27 1023 24 10000 8.2 30 17:18 25.02.2020
2304 Clear 26 1023 29 10000 9.3 30 16:55 25.02.2020
2305 Clear 25 1023 29 10000 9.3 30 16:37 25.02.2020
2306 Clear 27 1023 28 10000 9.3 30 16:19 25.02.2020
2307 Clear 27 1023 28 10000 7.2 30 15:45 25.02.2020
2308 Clear 27 1023 28 10000 7.2 30 15:45 25.02.2020
2309 Clear 28 1024 20 10000 4.6 20 15:20 25.02.2020
2310 Clear 29 1024 28 10000 4.1 40 14:59 25.02.2020
2311 Clear 29 1024 28 10000 4.1 40 14:39 25.02.2020
2312 Clear 28 1025 24 10000 3.6 40 14:18 25.02.2020
2313 Clear 24 1025 41 10000 2.1 80 13:58 25.02.2020
2314 Clear 24 1025 41 10000 2.1 80 13:40 25.02.2020
2315 Clear 23 1025 46 10000 2.1 90 13:20 25.02.2020
2316 Clear 24 1025 46 10000 2.1 90 13:20 25.02.2020
2317 Clear 25 1025 44 10000 1.5 120 12:56 25.02.2020
2318 Clear 24 1025 44 10000 1.5 120 12:37 25.02.2020
2319 Clear 24 1026 46 10000 0.5 0 12:19 25.02.2020
2320 Clear 23 1026 49 10000 1.5 100 11:55 25.02.2020
2321 Clear 23 1026 49 10000 1.5 100 11:37 25.02.2020
2322 Clear 23 1026 46 10000 1.5 140 11:18 25.02.2020
2323 Clear 22 1026 49 10000 1.79 94 10:41 25.02.2020
2324 Clear 21 1026 52 10000 1 0 10:23 25.02.2020
2325 Clear 20 1025 52 9000 1.5 230 09:42 25.02.2020
2326 Clear 20 1025 63 9000 1.79 94 09:23 25.02.2020
2327 Clear 19 1024 59 9000 1 130 08:58 25.02.2020
2328 Clear 19 1024 59 9000 1 130 08:39 25.02.2020
2329 Clouds 21 1024 49 8000 0.5 0 08:21 25.02.2020
2330 Clouds 20 1024 55 8000 2.1 300 07:48 25.02.2020
2331 Clouds 21 1025 56 8000 1.5 340 07:21 25.02.2020
2332 Clouds 21 1024 60 8000 1.5 60 06:51 25.02.2020
2333 Clouds 21 1024 60 8000 1.5 60 06:51 25.02.2020
2334 Clouds 22 1024 46 8000 6.2 110 05:41 25.02.2020
2335 Clouds 24 1024 38 7000 3.6 30 03:54 25.02.2020
2336 Clouds 25 1024 27 7000 3.6 320 02:32 25.02.2020
2337 Clouds 24 1025 23 7000 2.6 330 00:57 25.02.2020
2338 Clouds 24 1025 23 7000 2.6 310 00:30 25.02.2020
2339 Clouds 25 1025 23 7000 1 0 23:46 24.02.2020
2340 Clouds 25 1025 23 7000 1 0 23:28 24.02.2020
2341 Clouds 25 1025 22 7000 1.5 40 22:43 24.02.2020
2342 Clouds 25 1025 22 6000 1.5 0 22:21 24.02.2020
2343 Clouds 25 1025 22 6000 1.5 0 22:21 24.02.2020
2344 Clouds 25 1025 22 6000 3.1 0 21:58 24.02.2020
2345 Clouds 25 1025 22 6000 3.1 0 21:40 24.02.2020
2346 Clouds 25 1024 25 6000 2.1 0 21:20 24.02.2020
2347 Clouds 24 1024 27 6000 2.1 10 20:59 24.02.2020
2348 Clouds 24 1024 27 6000 2.1 10 20:41 24.02.2020
2349 Clear 24 1024 27 6000 1 0 20:20 24.02.2020
2350 Clear 24 1024 27 6000 1 0 20:20 24.02.2020
2351 Clear 24 1023 27 6000 1.5 330 19:58 24.02.2020
2352 Clear 24 1023 27 6000 1.5 330 19:40 24.02.2020
2353 Haze 24 1023 29 5000 1 0 19:22 24.02.2020
2354 Haze 24 1023 40 5000 2.6 90 18:56 24.02.2020
2355 Haze 24 1023 40 5000 2.6 90 18:37 24.02.2020
2356 Haze 24 1023 49 5000 2.6 80 18:19 24.02.2020
2357 Haze 25 1023 27 5000 1.5 0 17:42 24.02.2020
2358 Haze 25 1023 27 5000 1.5 0 17:42 24.02.2020
2359 Haze 26 1023 26 3500 2.1 0 17:21 24.02.2020
2360 Haze 26 1023 27 3500 1 0 16:58 24.02.2020
2361 Haze 26 1023 27 3500 1 0 16:39 24.02.2020
2362 Haze 25 1023 33 3000 1.5 0 16:20 24.02.2020
2363 Haze 25 1023 38 3000 2.6 80 15:58 24.02.2020
2364 Haze 25 1023 38 3000 2.6 80 15:40 24.02.2020
2365 Haze 25 1023 38 3000 2.6 80 15:40 24.02.2020
2366 Haze 25 1023 38 4000 3.1 90 15:21 24.02.2020
2367 Haze 26 1023 34 3500 4.1 120 14:58 24.02.2020
2368 Haze 26 1023 34 3500 4.1 120 14:58 24.02.2020
2369 Haze 25 1023 34 3500 4.1 120 14:39 24.02.2020
2370 Haze 28 1023 28 3500 1 0 14:19 24.02.2020
2371 Haze 25 1024 31 3500 0.5 0 13:56 24.02.2020
2372 Haze 25 1024 31 3500 0.5 0 13:36 24.02.2020
2373 Haze 25 1024 41 2500 7.59 130 13:18 24.02.2020
2374 Haze 25 1024 60 2500 1.5 60 12:54 24.02.2020
2375 Haze 24 1024 60 2500 1.5 60 12:36 24.02.2020
2376 Haze 25 1024 50 3000 2.6 120 12:18 24.02.2020
2377 Haze 24 1024 60 2500 2.1 160 11:41 24.02.2020
2378 Haze 24 1023 60 1500 2.6 210 11:23 24.02.2020
2379 Haze 22 1023 73 1500 2.1 180 10:43 24.02.2020
2380 Haze 23 1023 73 4000 4.6 150 10:24 24.02.2020
2381 Clouds 24 1022 53 9000 4.1 200 09:41 24.02.2020
2382 Clouds 24 1021 53 9000 6.2 220 09:19 24.02.2020
2383 Clouds 25 1020 47 9000 7.2 240 08:53 24.02.2020
2384 Rain 23 1021 53 8000 7.7 220 08:30 24.02.2020
2385 Haze 21 1020 72 5000 4.6 210 07:59 24.02.2020
2386 Haze 21 1020 72 5000 4.6 210 07:40 24.02.2020
2387 Haze 22 1021 68 5000 5.1 140 07:22 24.02.2020
2388 Clouds 22 1021 56 6000 2.1 180 06:33 24.02.2020
2389 Clouds 22 1020 53 6000 2.6 180 05:47 24.02.2020
2390 Clouds 23 1020 49 7000 3.1 180 05:27 24.02.2020
2391 Clouds 24 1020 46 7000 3.6 240 03:18 24.02.2020
2392 Clouds 24 1019 46 7000 2.1 190 02:45 24.02.2020
2393 Clouds 24 1019 44 6000 2.1 0 01:40 24.02.2020
2394 Haze 23 1019 49 4000 2.1 0 00:51 24.02.2020
2395 Haze 23 1019 49 3000 1 0 00:21 24.02.2020
2396 Haze 24 1020 47 2800 2.1 0 23:58 23.02.2020
2397 Haze 24 1020 47 2800 2.1 0 23:38 23.02.2020
2398 Haze 25 1019 38 1500 1 0 23:18 23.02.2020
2399 Haze 25 1019 38 1200 1 0 22:43 23.02.2020
2400 Haze 25 1019 38 1100 2.6 180 22:22 23.02.2020
2401 Haze 25 1018 36 1000 2.6 220 21:58 23.02.2020
2402 Haze 25 1018 36 1000 2.6 220 21:39 23.02.2020
2403 Haze 25 1018 36 900 2.1 0 21:19 23.02.2020
2404 Haze 25 1018 36 900 2.6 200 20:55 23.02.2020
2405 Haze 25 1018 36 900 2.6 200 20:37 23.02.2020
2406 Haze 25 1017 33 750 1 0 20:18 23.02.2020
2407 Haze 25 1017 36 700 1.5 0 19:54 23.02.2020
2408 Haze 26 1017 36 700 1.5 0 19:36 23.02.2020
2409 Haze 26 1017 36 700 1.5 0 19:36 23.02.2020
2410 Haze 26 1017 31 700 2.1 0 19:18 23.02.2020
2411 Haze 26 1017 31 700 2.1 0 19:18 23.02.2020
2412 Haze 25 1017 33 650 1 0 18:41 23.02.2020
2413 Haze 26 1017 31 650 1 0 18:21 23.02.2020
2414 Haze 26 1017 31 600 2.1 0 17:58 23.02.2020
2415 Haze 25 1017 31 600 2.1 0 17:40 23.02.2020
2416 Haze 25 1017 31 600 1 0 17:21 23.02.2020
2417 Haze 25 1017 33 550 1.5 0 16:56 23.02.2020
2418 Haze 25 1017 33 550 1.5 0 16:38 23.02.2020
2419 Haze 25 1017 31 550 1 0 16:19 23.02.2020
2420 Haze 24 1018 33 550 1 0 15:54 23.02.2020
2421 Haze 24 1018 33 550 1 0 15:36 23.02.2020
2422 Haze 25 1018 31 600 2.1 0 15:18 23.02.2020
2423 Haze 25 1019 31 600 2.1 0 14:55 23.02.2020
2424 Haze 25 1019 31 600 2.1 0 14:55 23.02.2020
2425 Haze 25 1019 31 600 2.1 0 14:37 23.02.2020
2426 Haze 24 1020 33 700 3.6 0 14:18 23.02.2020
2427 Haze 24 1020 33 750 3.1 0 13:42 23.02.2020
2428 Haze 24 1020 36 1300 2.6 0 13:22 23.02.2020
2429 Haze 24 1020 33 1500 4.6 130 12:59 23.02.2020
2430 Haze 24 1020 33 1500 4.6 130 12:39 23.02.2020
2431 Haze 24 1020 33 1500 4.6 130 12:39 23.02.2020
2432 Haze 23 1020 35 1500 3.6 0 12:20 23.02.2020
2433 Haze 23 1020 35 1800 5.1 110 11:38 23.02.2020
2434 Haze 23 1020 35 2000 2.6 0 11:20 23.02.2020
2435 Haze 23 1020 35 2000 2.6 0 11:20 23.02.2020
2436 Haze 23 1019 35 2000 5.1 100 10:57 23.02.2020
2437 Haze 23 1019 35 2000 5.1 100 10:39 23.02.2020
2438 Haze 23 1019 35 2000 3.1 0 10:21 23.02.2020
2439 Haze 23 1019 33 2500 2.6 0 09:56 23.02.2020
2440 Haze 23 1019 33 2500 2.6 0 09:37 23.02.2020
2441 Haze 23 1018 35 2500 3.1 0 09:18 23.02.2020
2442 Haze 24 1017 31 2500 2.6 0 08:43 23.02.2020
2443 Haze 23 1018 35 4000 4.6 20 08:24 23.02.2020
2444 Haze 23 1017 33 4500 5.7 350 07:43 23.02.2020
2445 Clouds 23 1017 35 6000 5.1 20 07:25 23.02.2020
2446 Clouds 24 1017 33 8000 4.1 0 06:20 23.02.2020
2447 Clouds 23 1017 40 9000 4.6 10 04:51 23.02.2020
2448 Clouds 23 1017 43 8000 7.7 360 03:53 23.02.2020
2449 Clouds 24 1017 36 8000 6.7 10 02:40 23.02.2020
2450 Clouds 23 1018 43 8000 7.2 350 01:27 23.02.2020
2451 Clouds 23 1018 43 8000 7.2 350 01:27 23.02.2020
2452 Clouds 23 1017 43 7000 6.7 360 00:58 23.02.2020
2453 Clouds 23 1017 43 7000 6.7 360 00:37 23.02.2020
2454 Clouds 24 1017 38 6000 7.2 360 00:18 23.02.2020
2455 Clouds 23 1017 40 6000 7.7 360 23:42 22.02.2020
2456 Haze 24 1017 38 2500 7.7 360 23:20 22.02.2020
2457 Haze 24 1017 41 1300 7.2 350 22:44 22.02.2020
2458 Haze 24 1016 38 1300 6.2 360 22:19 22.02.2020
2459 Haze 24 1016 38 700 7.7 360 21:43 22.02.2020
2460 Haze 24 1015 36 700 8.2 350 21:25 22.02.2020
2461 Haze 24 1015 33 700 7.7 360 20:57 22.02.2020
2462 Haze 24 1015 33 700 7.7 360 20:38 22.02.2020
2463 Haze 24 1015 33 700 7.7 360 20:38 22.02.2020
2464 Haze 23 1015 36 600 6.7 360 20:20 22.02.2020
2465 Haze 25 1015 27 600 7.2 10 19:42 22.02.2020
2466 Haze 25 1015 27 400 7.2 10 19:23 22.02.2020
2467 Haze 26 1015 22 400 5.1 350 18:54 22.02.2020
2468 Haze 26 1015 22 400 5.1 350 18:54 22.02.2020
2469 Haze 26 1015 22 400 5.1 350 18:36 22.02.2020
2470 Haze 25 1015 27 500 5.1 20 18:18 22.02.2020
2471 Haze 23 1015 33 800 4.6 30 17:43 22.02.2020
2472 Haze 23 1015 33 800 4.6 30 17:43 22.02.2020
2473 Haze 23 1016 29 900 4.1 40 17:25 22.02.2020
2474 Haze 23 1016 29 900 2.6 60 16:58 22.02.2020
2475 Haze 23 1016 29 900 2.6 60 16:39 22.02.2020
2476 Haze 25 1016 23 1200 1.5 0 16:20 22.02.2020
2477 Haze 24 1017 23 1800 2.1 0 15:45 22.02.2020
2478 Haze 24 1017 23 1800 2.1 0 15:45 22.02.2020
2479 Haze 24 1017 25 3500 1 0 15:27 22.02.2020
2480 Clear 24 1018 29 9000 1.5 0 14:57 22.02.2020
2481 Clear 24 1018 29 9000 1.5 0 14:39 22.02.2020
2482 Clouds 23 1018 33 10000 2.1 0 14:19 22.02.2020
2483 Clouds 24 1018 29 10000 1.5 0 13:41 22.02.2020
2484 Clouds 23 1018 31 10000 1.5 0 13:20 22.02.2020
2485 Clouds 23 1019 31 10000 2.1 0 12:48 22.02.2020
2486 Clouds 23 1019 33 10000 3.1 10 12:26 22.02.2020
2487 Clouds 22 1019 46 10000 3.1 360 11:56 22.02.2020
2488 Clouds 22 1019 46 10000 3.1 360 11:38 22.02.2020
2489 Clouds 21 1019 49 10000 3.6 30 11:20 22.02.2020
2490 Clouds 20 1018 60 10000 6.2 350 10:41 22.02.2020
2491 Clouds 19 1018 55 10000 6.2 350 10:21 22.02.2020
2492 Clouds 18 1018 59 10000 6.2 340 09:59 22.02.2020
2493 Clouds 17 1018 59 10000 6.2 340 09:39 22.02.2020
2494 Clouds 16 1018 59 10000 6.2 350 09:21 22.02.2020
2495 Clouds 16 1018 51 10000 5.7 350 08:51 22.02.2020
2496 Clouds 16 1017 59 10000 5.7 360 08:28 22.02.2020
2497 Clouds 16 1017 55 10000 6.2 360 07:52 22.02.2020
2498 Clouds 15 1017 59 10000 5.7 360 07:20 22.02.2020
2499 Clouds 15 1017 59 10000 6.7 360 06:50 22.02.2020
2500 Clouds 15 1017 63 10000 7.2 350 06:32 22.02.2020
2501 Clouds 16 1017 67 10000 7.2 340 04:38 22.02.2020
2502 Clouds 16 1018 67 10000 6.7 350 03:33 22.02.2020
2503 Clouds 16 1019 67 10000 6.7 340 02:33 22.02.2020
2504 Clouds 16 1019 67 10000 7.2 340 01:46 22.02.2020
2505 Clouds 16 1019 67 10000 6.7 350 01:27 22.02.2020
2506 Clouds 17 1020 63 10000 5.7 360 00:45 22.02.2020
2507 Clouds 17 1020 63 10000 5.1 360 00:27 22.02.2020
2508 Clouds 17 1020 63 10000 5.7 360 23:47 21.02.2020
2509 Clouds 17 1019 59 10000 5.7 360 23:24 21.02.2020
2510 Clouds 17 1019 59 10000 6.7 360 22:56 21.02.2020
2511 Clouds 17 1019 59 10000 6.7 360 22:38 21.02.2020
2512 Clouds 17 1019 52 10000 7.2 350 22:18 21.02.2020
2513 Clouds 18 1018 55 10000 5.7 350 21:42 21.02.2020
2514 Clouds 18 1018 59 10000 6.2 350 21:23 21.02.2020
2515 Clouds 18 1018 59 10000 7.2 350 20:49 21.02.2020
2516 Clouds 18 1018 55 10000 7.7 360 20:29 21.02.2020
2517 Clouds 18 1017 63 10000 9.3 20 19:57 21.02.2020
2518 Clouds 18 1017 63 10000 9.3 20 19:37 21.02.2020
2519 Clouds 19 1017 55 10000 9.8 30 19:18 21.02.2020
2520 Clouds 19 1017 55 10000 9.3 30 18:40 21.02.2020
2521 Clouds 20 1017 55 10000 9.3 30 18:22 21.02.2020
2522 Clouds 20 1017 52 10000 8.7 30 17:42 21.02.2020
2523 Clouds 21 1018 49 10000 11.3 30 17:24 21.02.2020
2524 Clouds 21 1018 52 10000 11.3 30 16:58 21.02.2020
2525 Clouds 21 1018 52 10000 11.3 30 16:40 21.02.2020
2526 Clouds 22 1018 46 10000 10.8 30 16:21 21.02.2020
2527 Clouds 20 1018 49 10000 9.8 30 15:47 21.02.2020
2528 Clouds 20 1018 49 10000 9.8 30 15:47 21.02.2020
2529 Clouds 22 1019 43 10000 9.3 30 15:19 21.02.2020
2530 Clouds 22 1019 43 10000 9.3 30 14:59 21.02.2020
2531 Clouds 22 1019 43 10000 9.3 30 14:41 21.02.2020
2532 Clouds 21 1020 49 10000 9.8 30 14:19 21.02.2020
2533 Clouds 21 1020 49 10000 9.3 30 13:44 21.02.2020
2534 Clouds 20 1020 52 10000 9.3 30 13:24 21.02.2020
2535 Clouds 20 1020 49 10000 8.7 30 12:55 21.02.2020
2536 Clouds 20 1020 49 10000 8.7 30 12:36 21.02.2020
2537 Clouds 20 1021 49 10000 7.7 30 12:18 21.02.2020
2538 Clouds 20 1021 49 10000 8.2 30 11:42 21.02.2020
2539 Clouds 18 1020 48 10000 7.2 10 11:21 21.02.2020
2540 Clouds 18 1020 55 10000 6.7 10 10:57 21.02.2020
2541 Clouds 18 1020 55 10000 4.6 350 10:38 21.02.2020
2542 Clouds 18 1020 55 10000 4.6 350 10:19 21.02.2020
2543 Clouds 17 1019 59 10000 4.1 340 09:57 21.02.2020
2544 Clouds 17 1019 59 10000 4.1 340 09:37 21.02.2020
2545 Clouds 16 1019 59 10000 5.1 340 09:19 21.02.2020
2546 Clouds 15 1019 62 10000 4.6 340 08:42 21.02.2020
2547 Clouds 15 1019 59 10000 4.6 350 08:22 21.02.2020
2548 Clouds 15 1018 58 10000 4.6 350 07:59 21.02.2020
2549 Clouds 15 1018 58 10000 4.6 350 07:40 21.02.2020
2550 Clouds 16 1018 59 10000 4.6 360 07:19 21.02.2020
2551 Clouds 16 1018 59 10000 5.1 360 06:50 21.02.2020
2552 Clouds 16 1019 55 10000 6.2 360 06:30 21.02.2020
2553 Clouds 16 1019 63 10000 5.1 360 05:43 21.02.2020
2554 Clouds 16 1019 63 10000 4.6 360 04:36 21.02.2020
2555 Clouds 16 1020 55 10000 4.6 360 04:18 21.02.2020
2556 Clouds 16 1020 55 10000 4.6 360 04:18 21.02.2020
2557 Clouds 17 1021 55 10000 5.1 350 03:31 21.02.2020
2558 Clouds 18 1021 59 10000 7.7 360 01:51 21.02.2020
2559 Clouds 17 1021 59 10000 7.2 360 01:24 21.02.2020
2560 Clouds 18 1021 68 10000 6.7 360 00:45 21.02.2020
2561 Clouds 18 1021 63 10000 7.7 360 00:23 21.02.2020
2562 Clouds 18 1021 63 10000 7.7 360 00:23 21.02.2020
2563 Clouds 18 1021 63 10000 7.7 360 23:44 20.02.2020
2564 Clouds 18 1021 68 10000 8.7 10 23:23 20.02.2020
2565 Clouds 18 1020 68 10000 8.7 10 22:56 20.02.2020
2566 Clouds 18 1020 68 10000 8.7 10 22:37 20.02.2020
2567 Clouds 18 1020 68 10000 9.3 10 22:19 20.02.2020
2568 Clouds 18 1020 72 10000 9.8 10 21:55 20.02.2020
2569 Clouds 18 1020 72 10000 9.8 10 21:37 20.02.2020
2570 Clouds 18 1019 68 10000 7.7 360 21:19 20.02.2020
2571 Clouds 18 1019 68 10000 9.3 10 20:54 20.02.2020
2572 Clouds 18 1019 68 10000 9.3 10 20:36 20.02.2020
2573 Clouds 18 1019 68 10000 9.3 10 20:18 20.02.2020
2574 Clouds 19 1019 63 10000 11.3 20 19:43 20.02.2020
2575 Clouds 20 1019 56 10000 10.3 10 19:25 20.02.2020
2576 Clouds 20 1019 56 10000 10.3 10 18:59 20.02.2020
2577 Clouds 20 1019 56 10000 10.3 10 18:39 20.02.2020
2578 Clouds 20 1019 56 10000 11.3 10 18:19 20.02.2020
2579 Clouds 21 1019 49 10000 10.3 10 17:41 20.02.2020
2580 Clouds 21 1020 52 10000 11.3 20 17:23 20.02.2020
2581 Clouds 21 1020 49 10000 11.8 20 16:59 20.02.2020
2582 Clouds 21 1020 49 10000 11.8 20 16:41 20.02.2020
2583 Clouds 22 1020 46 10000 11.8 10 16:21 20.02.2020
2584 Clouds 21 1020 46 10000 12.3 20 15:59 20.02.2020
2585 Clouds 21 1020 46 10000 12.3 20 15:41 20.02.2020
2586 Clouds 21 1020 49 10000 12.3 20 15:20 20.02.2020
2587 Clouds 21 1021 49 10000 12.9 20 14:55 20.02.2020
2588 Clouds 21 1021 49 10000 12.9 20 14:37 20.02.2020
2589 Clouds 21 1021 52 10000 11.8 10 14:18 20.02.2020
2590 Clouds 21 1022 52 10000 12.3 10 13:44 20.02.2020
2591 Clouds 20 1022 49 10000 9.8 10 13:20 20.02.2020
2592 Clouds 20 1022 49 10000 9.8 10 12:57 20.02.2020
2593 Clouds 21 1022 49 10000 9.8 10 12:37 20.02.2020
2594 Clouds 20 1023 52 10000 10.8 10 12:19 20.02.2020
2595 Clouds 19 1023 55 10000 10.8 10 11:43 20.02.2020
2596 Clouds 19 1022 55 10000 10.3 10 11:23 20.02.2020
2597 Clouds 18 1022 55 10000 11.8 10 10:57 20.02.2020
2598 Clouds 18 1022 55 10000 11.8 10 10:39 20.02.2020
2599 Clouds 18 1022 55 10000 9.3 360 10:21 20.02.2020
2600 Clouds 18 1022 55 10000 9.3 360 10:21 20.02.2020
2601 Clouds 18 1022 55 10000 9.8 360 09:46 20.02.2020
2602 Clouds 17 1021 63 10000 9.8 10 09:25 20.02.2020
2603 Clouds 17 1021 63 10000 8.2 360 08:59 20.02.2020
2604 Clouds 16 1021 63 10000 8.2 360 08:38 20.02.2020
2605 Clouds 16 1020 63 10000 9.8 350 08:20 20.02.2020
2606 Clouds 16 1020 59 10000 10.3 350 07:45 20.02.2020
2607 Clouds 16 1020 63 10000 9.8 350 07:23 20.02.2020
2608 Clouds 16 1020 63 10000 9.3 360 06:53 20.02.2020
2609 Clouds 16 1020 59 10000 11.3 360 06:27 20.02.2020
2610 Clouds 16 1020 63 10000 9.3 360 05:46 20.02.2020
2611 Clouds 16 1021 63 10000 9.8 360 04:55 20.02.2020
2612 Clouds 16 1021 63 10000 10.3 10 04:19 20.02.2020
2613 Clouds 17 1021 63 10000 10.8 20 03:30 20.02.2020
2614 Clouds 17 1022 63 10000 9.8 360 02:26 20.02.2020
2615 Clouds 17 1022 63 10000 8.7 360 01:18 20.02.2020
2616 Clouds 18 1022 63 10000 9.3 360 00:33 20.02.2020
2617 Clouds 18 1022 63 10000 10.3 10 23:52 19.02.2020
2618 Clouds 18 1022 68 10000 10.8 360 23:23 19.02.2020
2619 Clouds 18 1022 68 10000 9.8 360 22:54 19.02.2020
2620 Clouds 18 1022 68 10000 9.8 360 22:36 19.02.2020
2621 Clouds 18 1022 68 10000 10.8 10 22:18 19.02.2020
2622 Clouds 18 1021 68 10000 10.3 10 21:41 19.02.2020
2623 Clouds 18 1021 68 10000 10.3 10 21:19 19.02.2020
2624 Clouds 18 1021 68 10000 10.8 10 20:58 19.02.2020
2625 Clouds 18 1021 68 10000 10.8 10 20:58 19.02.2020
2626 Clouds 18 1021 68 10000 10.8 10 20:40 19.02.2020
2627 Clouds 18 1021 68 10000 11.3 10 20:20 19.02.2020
2628 Clouds 18 1021 68 10000 12.9 10 19:59 19.02.2020
2629 Clouds 18 1021 68 10000 12.9 10 19:39 19.02.2020
2630 Clouds 19 1021 63 10000 12.9 20 19:21 19.02.2020
2631 Clouds 19 1021 63 10000 12.3 20 18:59 19.02.2020
2632 Clouds 19 1021 63 10000 12.3 20 18:40 19.02.2020
2633 Clouds 20 1021 60 10000 11.8 10 18:22 19.02.2020
2634 Clouds 20 1021 60 10000 12.3 20 17:59 19.02.2020
2635 Clouds 20 1021 60 10000 12.3 20 17:41 19.02.2020
2636 Clouds 21 1021 60 10000 12.9 20 17:19 19.02.2020
2637 Clouds 21 1021 60 10000 13.4 30 16:43 19.02.2020
2638 Clouds 21 1022 60 10000 12.9 20 16:19 19.02.2020
2639 Clouds 21 1022 60 10000 12.3 20 15:57 19.02.2020
2640 Clouds 21 1022 60 10000 12.3 20 15:57 19.02.2020
2641 Clouds 21 1022 60 10000 12.3 20 15:38 19.02.2020
2642 Clouds 21 1022 60 10000 12.9 20 15:19 19.02.2020
2643 Clouds 21 1023 60 10000 12.3 20 14:41 19.02.2020
2644 Clouds 21 1023 64 10000 11.8 10 14:23 19.02.2020
2645 Clouds 21 1024 56 10000 12.3 20 13:55 19.02.2020
2646 Clouds 21 1024 56 10000 10.8 10 13:37 19.02.2020
2647 Clouds 21 1024 56 10000 10.8 10 13:18 19.02.2020
2648 Clouds 20 1024 60 10000 11.8 20 12:39 19.02.2020
2649 Clouds 20 1024 60 10000 11.8 20 12:39 19.02.2020
2650 Clouds 20 1025 60 10000 9.8 10 12:19 19.02.2020
2651 Clouds 20 1025 60 10000 10.8 20 11:55 19.02.2020
2652 Clouds 20 1025 60 10000 10.8 20 11:37 19.02.2020
2653 Clouds 19 1025 59 10000 9.8 10 11:18 19.02.2020
2654 Clouds 19 1024 63 10000 9.3 10 10:55 19.02.2020
2655 Clouds 19 1024 63 10000 9.3 10 10:36 19.02.2020
2656 Clouds 19 1024 59 10000 9.3 360 10:18 19.02.2020
2657 Clouds 18 1024 63 10000 9.8 10 09:41 19.02.2020
2658 Clouds 17 1024 68 10000 9.3 10 09:20 19.02.2020
2659 Clouds 17 1024 68 10000 9.8 10 08:55 19.02.2020
2660 Clouds 17 1024 68 10000 9.8 10 08:37 19.02.2020
2661 Clouds 17 1024 72 10000 9.3 10 08:18 19.02.2020
2662 Clouds 17 1023 72 10000 9.3 10 07:40 19.02.2020
2663 Drizzle 17 1024 72 10000 10.3 10 07:20 19.02.2020
2664 Clouds 17 1024 72 10000 10.8 10 06:46 19.02.2020
2665 Clouds 17 1024 68 10000 9.3 360 05:32 19.02.2020
2666 Clouds 17 1024 68 10000 10.3 10 03:53 19.02.2020
2667 Clouds 17 1025 72 10000 10.3 20 02:36 19.02.2020
2668 Clouds 18 1025 68 10000 8.2 360 01:44 19.02.2020
2669 Clouds 18 1025 68 10000 10.3 10 01:23 19.02.2020
2670 Clouds 18 1026 72 10000 9.3 360 00:41 19.02.2020
2671 Clouds 18 1026 72 10000 9.3 360 00:41 19.02.2020
2672 Clouds 18 1026 68 10000 9.3 10 00:19 19.02.2020
2673 Clouds 18 1026 72 10000 9.8 360 23:40 18.02.2020
2674 Clouds 18 1026 72 10000 9.8 10 23:20 18.02.2020
2675 Clouds 19 1026 72 10000 10.8 10 22:55 18.02.2020
2676 Clouds 19 1026 72 10000 10.8 10 22:37 18.02.2020
2677 Clouds 19 1026 68 10000 9.8 10 22:19 18.02.2020
2678 Clouds 19 1026 68 10000 9.8 10 22:19 18.02.2020
2679 Clouds 19 1025 68 10000 9.8 10 21:54 18.02.2020
2680 Clouds 19 1025 68 10000 9.8 10 21:36 18.02.2020
2681 Clouds 19 1025 68 10000 11.8 20 21:18 18.02.2020
2682 Clouds 19 1025 68 10000 11.3 10 20:40 18.02.2020
2683 Clouds 19 1025 77 10000 10.8 360 20:22 18.02.2020
2684 Clouds 19 1025 72 10000 10.3 10 19:59 18.02.2020
2685 Clouds 19 1025 72 10000 10.3 10 19:41 18.02.2020
2686 Clouds 20 1025 64 10000 9.8 360 19:19 18.02.2020
2687 Clouds 21 1025 60 10000 10.8 360 18:56 18.02.2020
2688 Clouds 21 1025 60 10000 10.8 360 18:38 18.02.2020
2689 Clouds 20 1025 64 10000 11.3 10 18:18 18.02.2020
2690 Clouds 20 1025 64 10000 11.8 10 17:40 18.02.2020
2691 Clouds 20 1025 64 10000 12.9 10 17:19 18.02.2020
2692 Clouds 20 1024 60 10000 14.4 10 16:40 18.02.2020
2693 Clouds 21 1025 60 10000 13.4 20 16:22 18.02.2020
2694 Clouds 21 1025 60 10000 13.4 20 16:22 18.02.2020
2695 Clouds 20 1025 60 10000 13.4 10 15:56 18.02.2020
2696 Clouds 20 1025 60 10000 13.4 10 15:37 18.02.2020
2697 Clouds 21 1025 56 10000 12.9 10 15:18 18.02.2020
2698 Clouds 21 1026 64 10000 13.4 20 14:55 18.02.2020
2699 Clouds 21 1026 64 10000 13.4 20 14:37 18.02.2020
2700 Clouds 21 1026 64 10000 12.9 10 14:19 18.02.2020
2701 Clouds 21 1027 60 10000 12.3 10 13:41 18.02.2020
2702 Clouds 21 1027 60 10000 12.3 10 13:41 18.02.2020
2703 Clouds 21 1027 60 10000 12.9 10 13:21 18.02.2020
2704 Clouds 20 1027 64 10000 11.3 10 12:50 18.02.2020
2705 Clouds 20 1027 64 10000 10.8 360 12:31 18.02.2020
2706 Clouds 20 1027 68 10000 12.9 10 11:59 18.02.2020
2707 Clouds 20 1027 68 10000 12.9 10 11:59 18.02.2020
2708 Clouds 20 1027 68 10000 12.9 10 11:41 18.02.2020
2709 Clouds 20 1027 72 10000 10.8 10 11:23 18.02.2020
2710 Clouds 20 1027 72 10000 11.3 360 10:46 18.02.2020
2711 Clouds 19 1027 77 10000 9.8 360 10:24 18.02.2020
2712 Clouds 19 1027 77 10000 9.8 360 10:24 18.02.2020
2713 Clouds 18 1026 72 10000 9.3 10 09:58 18.02.2020
2714 Clouds 18 1026 72 10000 9.3 10 09:58 18.02.2020
2715 Clouds 18 1026 72 10000 9.3 10 09:39 18.02.2020
2716 Clouds 17 1026 82 10000 8.2 360 09:20 18.02.2020
2717 Clouds 18 1026 82 10000 8.2 360 08:58 18.02.2020
2718 Clouds 18 1026 82 10000 8.2 360 08:40 18.02.2020
2719 Clouds 18 1025 82 10000 8.7 360 08:19 18.02.2020
2720 Clouds 18 1025 82 10000 8.7 360 07:52 18.02.2020
2721 Clouds 19 1025 77 10000 9.3 360 07:29 18.02.2020
2722 Clouds 19 1025 77 10000 9.3 360 06:55 18.02.2020
2723 Clouds 20 1025 77 10000 9.3 360 06:29 18.02.2020
2724 Clouds 18 1025 77 10000 9.8 10 05:53 18.02.2020
2725 Clouds 18 1025 77 10000 9.8 360 05:22 18.02.2020
2726 Clouds 18 1025 72 10000 9.8 360 03:55 18.02.2020
2727 Clouds 19 1026 68 10000 8.7 360 02:58 18.02.2020
2728 Clouds 18 1026 77 10000 7.7 10 01:27 18.02.2020
2729 Clouds 18 1026 77 10000 9.8 10 00:44 18.02.2020
2730 Clouds 19 1026 72 10000 8.7 360 00:19 18.02.2020
2731 Clouds 18 1026 82 10000 10.8 10 23:40 17.02.2020
2732 Clouds 19 1026 77 10000 10.8 10 23:21 17.02.2020
2733 Clouds 19 1026 77 10000 11.3 10 22:58 17.02.2020
2734 Clouds 19 1026 77 10000 11.3 10 22:40 17.02.2020
2735 Clouds 19 1026 77 10000 10.8 10 22:19 17.02.2020
2736 Clouds 19 1026 77 10000 10.3 10 21:39 17.02.2020
2737 Clouds 20 1026 77 10000 9.8 10 21:19 17.02.2020
2738 Clouds 20 1025 77 10000 9.8 10 20:57 17.02.2020
2739 Clouds 20 1025 77 10000 9.8 10 20:38 17.02.2020
2740 Clouds 19 1025 77 10000 11.8 10 20:19 17.02.2020
2741 Clouds 19 1025 77 10000 10.3 10 19:43 17.02.2020
2742 Clouds 20 1025 72 10000 9.8 10 19:22 17.02.2020
2743 Clouds 20 1025 72 10000 9.8 10 19:22 17.02.2020
2744 Clouds 20 1025 72 10000 11.8 10 18:58 17.02.2020
2745 Clouds 20 1025 72 10000 11.8 10 18:36 17.02.2020
2746 Clouds 21 1025 68 10000 10.8 20 18:18 17.02.2020
2747 Clouds 21 1025 68 10000 11.8 20 17:38 17.02.2020
2748 Clouds 21 1025 68 10000 11.8 20 17:20 17.02.2020
2749 Clouds 21 1025 68 10000 12.3 20 16:59 17.02.2020
2750 Clouds 21 1025 68 10000 12.3 20 16:41 17.02.2020
2751 Clouds 21 1025 68 10000 12.3 30 16:22 17.02.2020
2752 Clouds 22 1025 64 10000 12.3 20 15:56 17.02.2020
2753 Clouds 22 1025 64 10000 12.3 20 15:37 17.02.2020
2754 Clouds 22 1025 64 10000 12.3 20 15:37 17.02.2020
2755 Clouds 22 1026 64 10000 12.3 20 15:19 17.02.2020
2756 Clouds 22 1026 64 10000 12.3 30 14:42 17.02.2020
2757 Clouds 22 1026 64 10000 12.3 30 14:42 17.02.2020
2758 Clouds 22 1026 64 10000 11.8 20 14:24 17.02.2020
2759 Clouds 22 1027 64 10000 11.8 20 13:58 17.02.2020
2760 Clouds 22 1027 64 10000 11.8 20 13:38 17.02.2020
2761 Clouds 22 1027 64 10000 10.8 20 13:19 17.02.2020
2762 Clouds 22 1027 68 10000 11.8 20 12:43 17.02.2020
2763 Clouds 21 1027 68 10000 11.3 20 12:25 17.02.2020
2764 Clouds 21 1027 72 10000 10.8 20 11:58 17.02.2020
2765 Clouds 21 1027 72 10000 10.8 20 11:39 17.02.2020
2766 Clouds 21 1027 72 10000 10.8 20 11:39 17.02.2020
2767 Clouds 20 1027 72 10000 11.3 10 11:20 17.02.2020
2768 Clouds 19 1027 77 10000 10.3 10 10:54 17.02.2020
2769 Clouds 19 1027 77 10000 10.3 10 10:36 17.02.2020
2770 Clouds 19 1026 72 10000 10.3 10 10:18 17.02.2020
2771 Clouds 19 1026 72 10000 9.3 10 09:41 17.02.2020
2772 Clouds 18 1025 77 10000 7.7 360 09:21 17.02.2020
2773 Clouds 18 1025 77 10000 9.3 360 08:57 17.02.2020
2774 Clouds 18 1025 77 10000 9.3 360 08:39 17.02.2020
2775 Clouds 18 1025 77 10000 9.8 10 08:19 17.02.2020
2776 Clouds 17 1025 77 10000 8.2 360 07:43 17.02.2020
2777 Clouds 17 1025 77 10000 8.2 360 07:23 17.02.2020
2778 Clouds 17 1025 77 10000 9.3 360 06:51 17.02.2020
2779 Clouds 18 1025 77 10000 10.8 10 06:32 17.02.2020
2780 Clouds 18 1025 77 10000 11.3 10 05:41 17.02.2020
2781 Clouds 18 1025 82 10000 7.7 10 04:59 17.02.2020
2782 Clouds 18 1025 77 10000 8.2 360 03:21 17.02.2020
2783 Clouds 18 1025 82 10000 9.8 10 01:47 17.02.2020
2784 Clouds 18 1026 82 10000 8.7 10 00:42 17.02.2020
2785 Clouds 18 1026 82 10000 7.7 10 00:21 17.02.2020
2786 Clouds 18 1026 82 10000 7.2 360 23:53 16.02.2020
2787 Clouds 18 1025 82 10000 7.7 360 23:30 16.02.2020
2788 Clouds 18 1025 82 10000 7.7 10 22:57 16.02.2020
2789 Clouds 18 1025 82 10000 7.7 10 22:39 16.02.2020
2790 Clouds 18 1025 82 10000 8.2 10 22:20 16.02.2020
2791 Clouds 18 1025 82 10000 8.2 10 21:57 16.02.2020
2792 Clouds 18 1025 82 10000 8.2 10 21:39 16.02.2020
2793 Clouds 19 1025 77 10000 9.3 10 21:20 16.02.2020
2794 Clouds 19 1024 77 10000 8.7 10 20:57 16.02.2020
2795 Clouds 19 1024 77 10000 8.7 10 20:38 16.02.2020
2796 Clouds 19 1024 77 10000 8.7 10 20:20 16.02.2020
2797 Clouds 19 1024 77 10000 9.8 20 19:57 16.02.2020
2798 Clouds 20 1024 77 10000 9.8 20 19:37 16.02.2020
2799 Clouds 20 1024 72 10000 10.3 20 19:18 16.02.2020
2800 Clouds 20 1024 72 10000 10.3 20 19:18 16.02.2020
2801 Clouds 21 1024 72 10000 10.8 20 18:42 16.02.2020
2802 Clouds 21 1024 68 10000 10.8 20 18:23 16.02.2020
2803 Clouds 22 1023 68 10000 10.3 20 17:55 16.02.2020
2804 Clouds 21 1023 68 10000 10.3 20 17:36 16.02.2020
2805 Clouds 22 1023 64 10000 10.3 20 17:18 16.02.2020
2806 Clouds 22 1023 64 10000 10.3 20 16:39 16.02.2020
2807 Clouds 21 1024 68 10000 10.8 30 16:21 16.02.2020
2808 Clouds 21 1024 68 10000 10.8 30 16:21 16.02.2020
2809 Clouds 21 1024 68 10000 10.8 30 16:21 16.02.2020
2810 Clouds 22 1024 68 10000 10.8 20 15:59 16.02.2020
2811 Clouds 22 1024 68 10000 10.8 20 15:39 16.02.2020
2812 Clouds 21 1024 64 10000 10.8 30 15:21 16.02.2020
2813 Clouds 21 1024 64 10000 10.8 30 15:21 16.02.2020
2814 Clouds 21 1025 64 10000 10.8 30 14:41 16.02.2020
2815 Clouds 21 1025 64 10000 11.3 30 14:23 16.02.2020
2816 Clouds 21 1025 64 10000 11.8 30 13:49 16.02.2020
2817 Clouds 21 1025 64 10000 10.8 20 13:25 16.02.2020
2818 Clouds 21 1026 64 10000 11.3 20 12:58 16.02.2020
2819 Clouds 21 1026 64 10000 11.3 20 12:39 16.02.2020
2820 Clouds 21 1026 60 10000 10.3 10 12:19 16.02.2020
2821 Clouds 20 1026 64 10000 10.8 20 11:40 16.02.2020
2822 Clouds 20 1026 64 10000 10.3 20 11:19 16.02.2020
2823 Clouds 19 1025 68 10000 9.8 10 10:58 16.02.2020
2824 Clouds 19 1025 68 10000 9.8 10 10:39 16.02.2020
2825 Clouds 18 1025 68 10000 7.2 360 10:21 16.02.2020
2826 Clouds 17 1025 72 10000 7.2 350 09:58 16.02.2020
2827 Clouds 17 1025 72 10000 7.2 350 09:37 16.02.2020
2828 Clouds 17 1025 72 10000 7.2 350 09:37 16.02.2020
2829 Clouds 17 1024 72 10000 7.2 350 09:19 16.02.2020
2830 Clouds 16 1024 72 10000 7.2 350 08:49 16.02.2020
2831 Clouds 16 1024 72 10000 6.7 360 08:22 16.02.2020
2832 Clouds 16 1024 72 10000 6.7 360 08:22 16.02.2020
2833 Clouds 16 1024 72 10000 6.7 10 07:56 16.02.2020
2834 Clouds 16 1024 72 10000 6.7 10 07:38 16.02.2020
2835 Clouds 16 1023 72 10000 6.7 360 06:39 16.02.2020
2836 Clouds 16 1023 72 10000 8.2 10 05:37 16.02.2020
2837 Clouds 17 1024 72 10000 7.7 10 04:30 16.02.2020
2838 Clouds 17 1024 72 10000 7.7 10 02:37 16.02.2020
2839 Clouds 17 1025 77 10000 7.7 20 01:57 16.02.2020
2840 Clouds 17 1025 77 10000 7.7 20 01:37 16.02.2020
2841 Clouds 18 1025 77 10000 7.2 10 01:19 16.02.2020
2842 Clouds 18 1025 77 10000 7.2 10 00:41 16.02.2020
2843 Clouds 18 1025 77 10000 8.2 20 00:21 16.02.2020
2844 Clouds 18 1025 77 10000 8.7 10 23:42 15.02.2020
2845 Clouds 18 1025 72 10000 7.7 360 23:24 15.02.2020
2846 Clouds 18 1025 77 10000 7.2 360 22:56 15.02.2020
2847 Clouds 18 1025 77 10000 7.2 360 22:38 15.02.2020
2848 Clouds 18 1025 77 10000 7.7 10 22:19 15.02.2020
2849 Clouds 18 1025 77 10000 7.7 360 21:43 15.02.2020
2850 Clouds 19 1024 68 10000 8.2 360 21:24 15.02.2020
2851 Clouds 19 1024 72 10000 9.3 10 20:56 15.02.2020
2852 Clouds 19 1024 72 10000 9.3 10 20:37 15.02.2020
2853 Clouds 19 1024 72 10000 9.3 10 20:37 15.02.2020
2854 Clouds 19 1023 72 10000 8.7 20 20:19 15.02.2020
2855 Clouds 19 1023 72 10000 10.3 20 19:41 15.02.2020
2856 Clouds 19 1023 72 10000 10.3 10 19:22 15.02.2020
2857 Clouds 21 1023 68 10000 11.3 20 18:41 15.02.2020
2858 Clouds 21 1023 68 10000 10.3 20 18:21 15.02.2020
2859 Clouds 21 1023 68 10000 10.3 20 17:55 15.02.2020
2860 Clouds 21 1023 68 10000 10.3 20 17:37 15.02.2020
2861 Clouds 20 1023 68 10000 10.3 30 17:18 15.02.2020
2862 Clouds 21 1023 68 10000 10.8 20 16:41 15.02.2020
2863 Clouds 21 1023 68 10000 9.8 30 16:21 15.02.2020
2864 Clouds 21 1023 64 10000 11.3 30 15:50 15.02.2020
2865 Clouds 21 1024 64 10000 10.8 20 15:31 15.02.2020
2866 Clouds 21 1024 64 10000 9.8 30 14:57 15.02.2020
2867 Clouds 21 1024 64 10000 9.8 30 14:39 15.02.2020
2868 Clouds 21 1024 68 10000 9.8 30 14:18 15.02.2020
2869 Clouds 21 1024 68 10000 9.8 30 14:18 15.02.2020
2870 Clouds 21 1025 68 10000 8.7 20 13:42 15.02.2020
2871 Clouds 21 1025 68 10000 8.7 30 13:22 15.02.2020
2872 Clouds 21 1025 68 10000 8.7 30 12:57 15.02.2020
2873 Clouds 21 1025 68 10000 8.7 30 12:38 15.02.2020
2874 Clouds 20 1025 68 10000 8.2 30 12:19 15.02.2020
2875 Clouds 20 1025 68 10000 8.2 20 11:45 15.02.2020
2876 Clouds 19 1025 72 10000 7.7 10 11:25 15.02.2020
2877 Clouds 19 1025 72 10000 7.2 360 10:47 15.02.2020
2878 Clouds 18 1024 82 10000 6.7 360 10:29 15.02.2020
2879 Clouds 17 1024 77 10000 5.1 350 09:55 15.02.2020
2880 Clouds 17 1024 77 10000 5.1 350 09:36 15.02.2020
2881 Clouds 17 1023 82 10000 5.7 350 09:18 15.02.2020
2882 Clouds 17 1023 67 10000 6.2 360 08:41 15.02.2020
2883 Clear 17 1023 51 10000 5.1 350 08:22 15.02.2020
2884 Clouds 17 1023 67 10000 4.6 360 07:44 15.02.2020
2885 Clouds 17 1023 67 10000 4.6 360 07:44 15.02.2020
2886 Clouds 17 1022 67 10000 4.6 350 07:25 15.02.2020
2887 Clouds 17 1022 82 10000 5.7 10 06:45 15.02.2020
2888 Clouds 17 1022 82 10000 5.1 10 06:26 15.02.2020
2889 Clouds 17 1022 82 10000 4.6 10 05:30 15.02.2020
2890 Clouds 17 1023 82 10000 4.6 360 04:44 15.02.2020
2891 Clouds 18 1023 82 10000 5.7 360 03:21 15.02.2020
2892 Clouds 18 1023 82 10000 5.7 360 02:41 15.02.2020
2893 Clouds 18 1024 88 10000 5.1 10 02:19 15.02.2020
2894 Clouds 18 1024 88 10000 5.1 360 01:38 15.02.2020
2895 Clear 19 1024 77 10000 5.1 10 00:36 15.02.2020
2896 Clear 19 1024 77 10000 5.1 350 00:18 15.02.2020
2897 Clear 19 1024 82 10000 5.1 360 23:39 14.02.2020
2898 Clear 19 1024 82 10000 5.1 360 23:18 14.02.2020
2899 Clear 19 1023 72 10000 4.1 10 22:43 14.02.2020
2900 Clear 19 1023 72 10000 2.6 30 22:22 14.02.2020
2901 Clear 19 1023 72 10000 2.1 50 21:50 14.02.2020
2902 Clear 19 1022 68 10000 1.5 50 21:31 14.02.2020
2903 Clear 20 1022 68 10000 1 0 20:58 14.02.2020
2904 Clear 20 1022 68 10000 1 0 20:38 14.02.2020
2905 Clouds 20 1022 60 10000 1 0 20:19 14.02.2020
2906 Clouds 20 1022 64 10000 2.1 130 19:42 14.02.2020
2907 Clouds 20 1022 64 10000 2.1 130 19:42 14.02.2020
2908 Clouds 21 1021 56 10000 2.1 150 19:24 14.02.2020
2909 Clouds 21 1021 46 10000 2.6 140 18:58 14.02.2020
2910 Clouds 21 1021 46 10000 2.6 140 18:40 14.02.2020
2911 Clouds 22 1021 37 10000 2.1 140 18:20 14.02.2020
2912 Clouds 23 1021 33 10000 2.1 130 17:44 14.02.2020
2913 Clouds 23 1021 33 10000 2.1 130 17:44 14.02.2020
2914 Clouds 23 1021 33 10000 2.1 100 17:23 14.02.2020
2915 Clouds 23 1021 35 10000 1.5 100 16:59 14.02.2020
2916 Clouds 23 1021 35 10000 1.5 100 16:41 14.02.2020
2917 Clouds 23 1021 56 10000 2.1 90 16:23 14.02.2020
2918 Clouds 22 1021 68 10000 2.6 100 15:56 14.02.2020
2919 Clouds 22 1021 68 10000 2.6 100 15:38 14.02.2020
2920 Clouds 22 1021 68 10000 2.6 100 15:38 14.02.2020
2921 Clouds 22 1022 53 10000 2.1 80 15:20 14.02.2020
2922 Clouds 21 1022 56 10000 2.1 110 14:59 14.02.2020
2923 Clouds 21 1022 56 10000 2.1 110 14:40 14.02.2020
2924 Clouds 21 1023 64 10000 1.5 0 14:22 14.02.2020
2925 Clouds 21 1023 68 10000 1.5 100 13:55 14.02.2020
2926 Clouds 21 1023 68 10000 1.5 100 13:55 14.02.2020
2927 Clouds 21 1023 68 10000 1.5 100 13:37 14.02.2020
2928 Clouds 20 1023 68 10000 2.6 140 13:19 14.02.2020
2929 Clouds 20 1023 72 10000 3.1 150 12:56 14.02.2020
2930 Clouds 20 1023 72 10000 3.1 150 12:56 14.02.2020
2931 Clouds 20 1023 72 10000 3.1 150 12:38 14.02.2020
2932 Clouds 20 1023 72 10000 3.1 150 12:38 14.02.2020
2933 Clouds 20 1023 68 10000 3.1 160 12:19 14.02.2020
2934 Clouds 21 1023 64 10000 2.6 170 11:55 14.02.2020
2935 Clouds 20 1023 64 10000 2.6 170 11:36 14.02.2020
2936 Clouds 20 1023 60 10000 2.1 160 11:18 14.02.2020
2937 Clouds 20 1023 56 10000 2.1 0 10:41 14.02.2020
2938 Clouds 20 1023 42 10000 2.1 200 10:22 14.02.2020
2939 Clouds 20 1022 34 10000 1 0 09:44 14.02.2020
2940 Clouds 20 1022 30 10000 1.5 240 09:23 14.02.2020
2941 Clouds 19 1022 27 10000 1.5 250 08:57 14.02.2020
2942 Clouds 19 1022 27 10000 1.5 250 08:38 14.02.2020
2943 Clouds 19 1022 34 10000 1.5 260 08:20 14.02.2020
2944 Clouds 19 1021 39 10000 0.5 0 07:49 14.02.2020
2945 Clouds 19 1021 39 10000 0.5 0 07:49 14.02.2020
2946 Clouds 21 1021 40 10000 2.1 90 07:29 14.02.2020
2947 Clouds 21 1021 34 10000 1 0 06:38 14.02.2020
2948 Clouds 22 1021 28 10000 1 0 06:18 14.02.2020
2949 Clouds 22 1021 24 10000 1 0 05:28 14.02.2020
2950 Clouds 20 1021 28 10000 3.6 200 03:46 14.02.2020
2951 Clouds 20 1022 25 10000 2.1 250 02:56 14.02.2020
2952 Clouds 21 1022 22 10000 1 310 01:56 14.02.2020
2953 Clouds 21 1022 39 10000 1.5 310 00:45 14.02.2020
2954 Clouds 21 1023 26 10000 2.1 320 00:26 14.02.2020
2955 Clouds 21 1022 28 10000 2.1 350 23:56 13.02.2020
2956 Clouds 21 1022 28 10000 2.1 350 23:37 13.02.2020
2957 Clouds 21 1022 28 10000 1.5 330 23:18 13.02.2020
2958 Clouds 20 1022 40 10000 2.6 320 22:38 13.02.2020
2959 Clouds 20 1022 52 10000 2.6 360 22:19 13.02.2020
2960 Clouds 21 1022 52 10000 2.6 320 21:55 13.02.2020
2961 Clouds 20 1022 52 10000 2.6 320 21:37 13.02.2020
2962 Clouds 20 1022 60 10000 3.6 10 21:19 13.02.2020
2963 Clouds 21 1021 56 10000 3.1 20 20:42 13.02.2020
2964 Clouds 21 1021 49 10000 3.1 20 20:22 13.02.2020
2965 Clouds 21 1021 49 10000 3.1 20 20:22 13.02.2020
2966 Clouds 22 1021 49 10000 3.1 40 19:57 13.02.2020
2967 Clouds 23 1021 46 10000 2.6 40 19:37 13.02.2020
2968 Clouds 23 1021 46 10000 2.6 40 19:19 13.02.2020
2969 Clouds 25 1021 20 10000 0.5 0 18:56 13.02.2020
2970 Clouds 25 1021 20 10000 0.5 0 18:37 13.02.2020
2971 Clouds 24 1021 22 10000 1 0 18:19 13.02.2020
2972 Clouds 25 1022 20 10000 1 0 17:54 13.02.2020
2973 Clouds 25 1022 20 10000 1 0 17:36 13.02.2020
2974 Clouds 25 1022 20 10000 1.5 0 17:18 13.02.2020
2975 Clouds 25 1022 22 10000 1 0 16:41 13.02.2020
2976 Clouds 25 1022 20 10000 1.5 0 16:20 13.02.2020
2977 Clouds 25 1023 22 10000 1.5 0 15:57 13.02.2020
2978 Clouds 25 1023 22 10000 1.5 0 15:39 13.02.2020
2979 Clouds 25 1023 22 10000 1 0 15:19 13.02.2020
2980 Clouds 25 1023 20 10000 1 0 14:58 13.02.2020
2981 Clouds 25 1023 20 10000 1 0 14:39 13.02.2020
2982 Clouds 25 1024 22 10000 1 0 14:21 13.02.2020
2983 Clouds 24 1024 25 10000 1.5 0 13:48 13.02.2020
2984 Clouds 24 1024 25 10000 1.5 0 13:48 13.02.2020
2985 Clouds 24 1024 27 10000 1.5 0 13:19 13.02.2020
2986 Clouds 24 1025 29 10000 1.5 0 12:56 13.02.2020
2987 Clouds 24 1025 29 10000 1.5 0 12:56 13.02.2020
2988 Clouds 25 1025 29 10000 1.5 0 12:38 13.02.2020
2989 Clouds 24 1024 31 10000 1 0 12:19 13.02.2020
2990 Clouds 23 1024 35 10000 1.5 20 11:47 13.02.2020
2991 Clouds 22 1024 37 10000 1 0 11:20 13.02.2020
2992 Clouds 22 1024 33 10000 2.1 320 10:55 13.02.2020
2993 Clouds 22 1024 33 10000 2.1 320 10:37 13.02.2020
2994 Clouds 21 1023 35 10000 2.1 270 10:19 13.02.2020
2995 Clouds 21 1023 35 10000 1 0 09:41 13.02.2020
2996 Clouds 21 1023 32 10000 2.1 220 09:22 13.02.2020
2997 Clouds 20 1022 42 10000 3.1 250 08:44 13.02.2020
2998 Clouds 19 1022 52 10000 1.5 250 08:19 13.02.2020
2999 Clouds 19 1022 52 10000 1.5 250 08:19 13.02.2020
3000 Clouds 19 1022 63 10000 2.6 320 07:41 13.02.2020
3001 Clouds 18 1022 55 10000 2.1 310 07:22 13.02.2020
3002 Clouds 18 1022 55 10000 2.1 310 07:22 13.02.2020
3003 Clouds 18 1022 55 10000 1.5 320 06:49 13.02.2020
3004 Clouds 18 1022 52 10000 2.1 340 06:31 13.02.2020
3005 Clouds 19 1022 52 10000 3.1 350 05:38 13.02.2020
3006 Clouds 19 1022 39 10000 3.6 360 04:28 13.02.2020
3007 Clouds 20 1023 39 10000 3.6 350 03:57 13.02.2020
3008 Clouds 20 1023 37 10000 5.1 350 03:29 13.02.2020
3009 Clouds 20 1023 37 10000 4.1 360 02:55 13.02.2020
3010 Clouds 19 1023 39 10000 4.1 350 02:19 13.02.2020
3011 Clouds 20 1023 37 10000 5.1 350 01:36 13.02.2020
3012 Clouds 20 1023 37 10000 5.7 350 00:43 13.02.2020
3013 Clouds 21 1023 37 10000 6.7 10 00:22 13.02.2020
3014 Clouds 20 1023 37 10000 2.6 350 23:41 12.02.2020
3015 Clouds 20 1023 55 10000 4.6 10 23:22 12.02.2020
3016 Clouds 20 1023 52 10000 2.6 360 22:48 12.02.2020
3017 Clouds 19 1023 59 10000 2.6 360 22:28 12.02.2020
3018 Clouds 19 1023 63 10000 3.6 10 21:59 12.02.2020
3019 Clouds 19 1023 63 10000 3.6 10 21:40 12.02.2020
3020 Clouds 19 1023 68 10000 4.1 20 21:20 12.02.2020
3021 Clouds 20 1022 64 10000 4.6 10 20:59 12.02.2020
3022 Clouds 20 1022 64 10000 4.6 10 20:41 12.02.2020
3023 Clouds 20 1022 68 10000 4.6 20 20:22 12.02.2020
3024 Clouds 20 1022 68 10000 3.6 30 19:56 12.02.2020
3025 Clouds 20 1022 68 10000 3.6 30 19:37 12.02.2020
3026 Clouds 21 1022 60 10000 3.1 30 19:18 12.02.2020
3027 Clouds 22 1022 56 10000 2.6 40 18:46 12.02.2020
3028 Clouds 21 1022 60 10000 2.6 70 18:19 12.02.2020
3029 Clouds 22 1022 64 10000 1.5 80 17:56 12.02.2020
3030 Clouds 22 1022 64 10000 1.5 80 17:36 12.02.2020
3031 Clouds 21 1022 64 10000 1.5 100 17:18 12.02.2020
3032 Clouds 21 1022 60 10000 2.1 0 16:40 12.02.2020
3033 Clouds 21 1022 60 10000 2.6 130 16:20 12.02.2020
3034 Clouds 22 1023 60 10000 2.6 140 15:43 12.02.2020
3035 Clouds 22 1023 56 10000 2.6 120 15:24 12.02.2020
3036 Clouds 22 1024 60 10000 2.1 120 14:59 12.02.2020
3037 Clouds 22 1024 60 10000 2.1 120 14:41 12.02.2020
3038 Clouds 22 1024 56 10000 2.6 100 14:20 12.02.2020
3039 Clouds 22 1025 56 10000 1.5 0 13:57 12.02.2020
3040 Clouds 22 1025 56 10000 1.5 0 13:39 12.02.2020
3041 Clouds 22 1025 53 10000 1 0 13:20 12.02.2020
3042 Clouds 22 1025 53 10000 1 0 12:57 12.02.2020
3043 Clouds 23 1025 53 10000 1 0 12:38 12.02.2020
3044 Clouds 23 1025 49 10000 2.6 90 12:18 12.02.2020
3045 Clouds 23 1025 43 10000 1.5 100 11:57 12.02.2020
3046 Clouds 23 1025 43 10000 1.5 100 11:39 12.02.2020
3047 Clouds 22 1025 40 10000 1.5 120 11:20 12.02.2020
3048 Clouds 22 1025 56 10000 2.1 20 10:55 12.02.2020
3049 Clouds 22 1025 56 10000 2.1 20 10:36 12.02.2020
3050 Clouds 20 1025 45 10000 2.1 10 10:18 12.02.2020
3051 Clouds 20 1024 37 10000 3.1 330 09:42 12.02.2020
3052 Clouds 20 1024 37 10000 3.1 330 09:42 12.02.2020
3053 Clouds 19 1024 31 10000 2.6 330 09:22 12.02.2020
3054 Clouds 19 1024 45 10000 2.6 350 08:58 12.02.2020
3055 Clouds 19 1024 45 10000 2.6 350 08:38 12.02.2020
3056 Clouds 19 1024 45 10000 2.6 350 08:38 12.02.2020
3057 Clear 17 1024 42 10000 2.6 10 08:19 12.02.2020
3058 Clear 17 1024 42 10000 2.6 10 08:19 12.02.2020
3059 Clear 17 1023 42 10000 3.6 320 07:44 12.02.2020
3060 Clear 18 1024 42 10000 4.1 340 07:23 12.02.2020
3061 Clear 19 1023 52 10000 3.6 320 06:57 12.02.2020
3062 Clear 17 1023 42 10000 3.1 340 06:24 12.02.2020
3063 Clear 19 1023 48 10000 3.6 340 05:39 12.02.2020
3064 Clear 19 1024 31 10000 4.6 20 04:58 12.02.2020
3065 Clear 19 1024 31 10000 4.6 20 04:40 12.02.2020
3066 Clear 19 1024 29 10000 4.6 350 03:37 12.02.2020
3067 Clear 19 1024 34 10000 4.6 360 03:19 12.02.2020
3068 Clear 20 1024 37 10000 4.6 350 02:30 12.02.2020
3069 Clear 20 1024 40 10000 5.1 340 01:58 12.02.2020
3070 Clear 20 1024 42 10000 5.1 350 00:46 12.02.2020
3071 Clear 20 1024 52 10000 5.7 350 00:26 12.02.2020
3072 Clear 20 1024 59 10000 5.7 360 23:58 11.02.2020
3073 Clear 20 1024 59 10000 5.7 360 23:40 11.02.2020
3074 Clear 20 1024 45 10000 6.2 10 23:22 11.02.2020
3075 Clear 19 1024 25 10000 4.6 20 22:55 11.02.2020
3076 Clear 19 1024 25 10000 4.6 20 22:37 11.02.2020
3077 Clear 21 1024 18 10000 5.1 350 22:19 11.02.2020
3078 Clear 21 1024 21 10000 4.1 350 21:56 11.02.2020
3079 Clear 21 1024 21 10000 4.1 350 21:37 11.02.2020
3080 Clear 22 1024 37 10000 5.1 10 21:18 11.02.2020
3081 Clear 21 1024 46 10000 3.6 30 20:54 11.02.2020
3082 Clear 21 1024 46 10000 3.6 30 20:36 11.02.2020
3083 Clear 22 1024 49 10000 3.6 10 20:18 11.02.2020
3084 Clear 22 1024 46 10000 4.1 20 19:42 11.02.2020
3085 Clear 24 1024 43 10000 5.1 20 19:24 11.02.2020
3086 Clear 23 1024 53 10000 6.2 20 18:56 11.02.2020
3087 Clear 23 1024 53 10000 6.2 20 18:37 11.02.2020
3088 Clear 24 1024 49 10000 4.6 40 18:19 11.02.2020
3089 Clear 24 1024 46 10000 4.6 30 17:55 11.02.2020
3090 Clear 24 1024 46 10000 4.6 30 17:36 11.02.2020
3091 Clear 24 1024 46 10000 4.6 30 17:36 11.02.2020
3092 Clear 24 1024 44 10000 5.1 40 17:18 11.02.2020
3093 Clear 24 1024 36 10000 5.1 30 16:55 11.02.2020
3094 Clear 24 1024 36 10000 5.1 30 16:37 11.02.2020
3095 Clear 24 1024 41 10000 4.1 40 16:19 11.02.2020
3096 Clear 24 1025 20 10000 3.1 40 15:43 11.02.2020
3097 Clear 25 1025 20 10000 3.6 10 15:24 11.02.2020
3098 Clear 25 1026 37 10000 3.6 10 14:54 11.02.2020
3099 Clear 24 1026 37 10000 3.6 10 14:36 11.02.2020
3100 Clear 25 1026 23 10000 3.1 40 14:18 11.02.2020
3101 Clear 25 1027 27 10000 4.1 20 13:41 11.02.2020
3102 Clear 24 1027 33 10000 4.6 20 13:21 11.02.2020
3103 Clear 23 1028 40 10000 4.6 20 12:58 11.02.2020
3104 Clear 23 1028 40 10000 4.6 20 12:39 11.02.2020
3105 Clear 23 1028 43 10000 5.7 30 12:20 11.02.2020
3106 Clear 23 1027 53 10000 5.7 10 11:41 11.02.2020
3107 Clear 22 1027 56 10000 5.7 10 11:21 11.02.2020
3108 Clear 20 1027 72 10000 6.2 10 10:57 11.02.2020
3109 Clear 20 1027 72 10000 6.2 10 10:38 11.02.2020
3110 Clouds 18 1027 72 10000 6.2 10 10:20 11.02.2020
3111 Clouds 17 1027 77 10000 5.7 360 09:55 11.02.2020
3112 Clouds 19 1027 77 10000 5.7 360 09:37 11.02.2020
3113 Clouds 19 1026 72 10000 7.7 10 09:19 11.02.2020
3114 Clouds 19 1026 52 10000 6.2 10 08:44 11.02.2020
3115 Clouds 19 1026 63 10000 7.2 350 08:23 11.02.2020
3116 Clouds 18 1026 77 10000 6.7 340 07:48 11.02.2020
3117 Clouds 18 1026 82 10000 5.1 350 07:26 11.02.2020
3118 Clouds 16 1026 82 10000 6.2 350 06:44 11.02.2020
3119 Clouds 16 1026 82 10000 6.7 350 06:22 11.02.2020
3120 Clouds 17 1026 82 10000 6.2 360 05:56 11.02.2020
3121 Clouds 16 1026 82 10000 6.2 360 05:24 11.02.2020
3122 Clouds 17 1027 77 10000 6.2 360 04:40 11.02.2020
3123 Clear 17 1027 82 10000 7.7 10 03:20 11.02.2020
3124 Clouds 18 1027 77 10000 8.7 360 02:32 11.02.2020
3125 Clouds 19 1027 77 10000 6.7 350 01:38 11.02.2020
3126 Clouds 17 1027 82 10000 6.2 350 00:40 11.02.2020
3127 Clouds 17 1027 82 10000 5.7 350 23:57 10.02.2020
3128 Clouds 17 1027 82 10000 5.7 350 23:38 10.02.2020
3129 Clouds 18 1027 82 10000 5.1 360 23:20 10.02.2020
3130 Clouds 18 1027 82 10000 5.1 360 23:20 10.02.2020
3131 Clouds 18 1027 82 10000 6.2 360 22:40 10.02.2020
3132 Clouds 18 1027 82 10000 6.7 10 22:20 10.02.2020
3133 Clouds 18 1027 82 10000 6.7 10 21:47 10.02.2020
3134 Clouds 19 1027 77 10000 7.2 10 21:27 10.02.2020
3135 Clouds 19 1027 77 10000 7.2 10 20:58 10.02.2020
3136 Clouds 19 1027 77 10000 7.2 10 20:58 10.02.2020
3137 Clouds 19 1027 77 10000 7.2 10 20:40 10.02.2020
3138 Clouds 19 1027 82 10000 6.2 10 20:21 10.02.2020
3139 Clouds 19 1027 82 10000 6.2 10 20:21 10.02.2020
3140 Clouds 20 1026 77 10000 7.2 10 19:59 10.02.2020
3141 Clouds 20 1026 77 10000 7.2 10 19:39 10.02.2020
3142 Clouds 20 1027 77 10000 7.7 20 19:19 10.02.2020
3143 Clouds 20 1027 77 10000 7.2 20 18:59 10.02.2020
3144 Clouds 20 1027 77 10000 7.2 20 18:41 10.02.2020
3145 Clouds 20 1026 77 10000 8.2 20 18:21 10.02.2020
3146 Clouds 21 1026 68 10000 7.7 30 17:58 10.02.2020
3147 Clouds 21 1026 68 10000 7.7 30 17:38 10.02.2020
3148 Clouds 21 1026 68 10000 7.7 30 17:20 10.02.2020
3149 Clouds 20 1027 72 10000 8.2 20 16:59 10.02.2020
3150 Clouds 20 1027 72 10000 8.2 20 16:40 10.02.2020
3151 Clouds 21 1027 68 10000 7.2 30 16:20 10.02.2020
3152 Clouds 21 1027 68 10000 7.2 30 16:20 10.02.2020
3153 Clouds 21 1027 68 10000 8.7 30 15:56 10.02.2020
3154 Clouds 22 1027 68 10000 8.7 30 15:38 10.02.2020
3155 Clouds 21 1028 68 10000 8.7 30 15:20 10.02.2020
3156 Clouds 21 1028 68 10000 8.7 20 14:56 10.02.2020
3157 Clouds 22 1028 68 10000 8.7 20 14:37 10.02.2020
3158 Clouds 21 1029 68 10000 8.7 30 14:18 10.02.2020
3159 Clouds 21 1029 64 10000 9.3 30 13:43 10.02.2020
3160 Clouds 21 1029 64 10000 9.3 30 13:24 10.02.2020
3161 Clouds 22 1029 64 10000 9.3 30 12:54 10.02.2020
3162 Clouds 22 1030 68 10000 9.3 20 12:36 10.02.2020
3163 Clouds 22 1030 68 10000 9.3 20 12:18 10.02.2020
3164 Clouds 21 1029 68 10000 9.3 20 11:43 10.02.2020
3165 Clouds 20 1029 68 10000 9.3 20 11:20 10.02.2020
3166 Clouds 20 1029 68 10000 8.7 10 10:47 10.02.2020
3167 Clouds 19 1029 72 10000 7.7 10 10:28 10.02.2020
3168 Clouds 18 1028 72 10000 6.7 10 09:48 10.02.2020
3169 Clouds 18 1028 72 10000 6.7 360 09:27 10.02.2020
3170 Clouds 17 1028 72 10000 9.3 350 08:58 10.02.2020
3171 Clouds 17 1028 72 10000 9.3 350 08:38 10.02.2020
3172 Clouds 17 1028 72 10000 7.7 360 08:19 10.02.2020
3173 Clouds 17 1027 72 10000 7.2 360 07:51 10.02.2020
3174 Clouds 17 1027 72 10000 9.3 350 07:31 10.02.2020
3175 Clouds 17 1027 77 10000 8.2 350 06:23 10.02.2020
3176 Clouds 18 1028 77 10000 7.7 360 04:46 10.02.2020
3177 Clouds 18 1028 77 10000 8.7 360 03:45 10.02.2020
3178 Clouds 18 1028 77 10000 6.7 360 02:55 10.02.2020
3179 Clouds 18 1028 82 10000 9.8 360 01:59 10.02.2020
3180 Drizzle 18 1028 82 10000 8.2 360 00:52 10.02.2020
3181 Clouds 18 1028 77 10000 9.8 360 00:31 10.02.2020
3182 Clouds 18 1028 82 10000 9.3 360 23:58 09.02.2020
3183 Clouds 18 1028 82 10000 9.3 360 23:39 09.02.2020
3184 Clouds 18 1028 88 10000 9.3 360 23:21 09.02.2020
3185 Drizzle 18 1028 82 10000 8.7 350 22:41 09.02.2020
3186 Drizzle 18 1028 82 10000 7.7 360 22:21 09.02.2020
3187 Clouds 19 1028 68 10000 9.3 350 21:44 09.02.2020
3188 Clouds 19 1028 72 10000 8.7 350 21:25 09.02.2020
3189 Clouds 19 1027 72 10000 8.7 360 20:58 09.02.2020
3190 Clouds 19 1027 72 10000 8.7 360 20:40 09.02.2020
3191 Clouds 19 1027 77 10000 9.8 350 20:18 09.02.2020
3192 Clouds 20 1027 68 10000 9.3 360 19:40 09.02.2020
3193 Clouds 20 1027 68 10000 10.8 360 19:21 09.02.2020
3194 Clouds 21 1027 64 10000 11.3 360 18:57 09.02.2020
3195 Clouds 21 1027 64 10000 11.3 360 18:39 09.02.2020
3196 Clouds 21 1026 64 10000 11.8 10 18:21 09.02.2020
3197 Clouds 21 1026 64 10000 11.8 10 17:42 09.02.2020
3198 Clouds 22 1026 64 10000 12.9 20 17:23 09.02.2020
3199 Clouds 22 1026 73 10000 12.3 30 16:56 09.02.2020
3200 Clouds 22 1027 73 10000 12.3 10 16:38 09.02.2020
3201 Clouds 22 1027 73 10000 12.3 10 16:18 09.02.2020
3202 Clouds 22 1027 64 10000 10.8 10 15:56 09.02.2020
3203 Clouds 22 1027 64 10000 10.8 10 15:38 09.02.2020
3204 Clouds 22 1027 64 10000 10.8 10 15:19 09.02.2020
3205 Clouds 22 1028 64 10000 11.8 10 14:42 09.02.2020
3206 Clouds 22 1028 64 10000 11.8 10 14:23 09.02.2020
3207 Clouds 22 1028 64 10000 12.3 10 13:47 09.02.2020
3208 Clouds 21 1028 73 10000 10.8 10 13:29 09.02.2020
3209 Clouds 21 1029 68 10000 11.8 20 12:58 09.02.2020
3210 Clouds 21 1029 68 10000 11.8 20 12:40 09.02.2020
3211 Clouds 21 1029 77 10000 10.8 10 12:19 09.02.2020
3212 Clouds 20 1028 72 10000 11.3 10 11:56 09.02.2020
3213 Clouds 21 1028 72 10000 11.3 10 11:36 09.02.2020
3214 Clouds 20 1028 72 10000 10.3 10 11:18 09.02.2020
3215 Clouds 20 1028 68 10000 8.2 360 10:42 09.02.2020
3216 Clouds 19 1027 72 10000 8.2 10 10:22 09.02.2020
3217 Clouds 18 1027 72 10000 7.2 360 09:48 09.02.2020
3218 Clouds 18 1027 72 10000 8.7 10 09:28 09.02.2020
3219 Clouds 18 1027 72 10000 8.7 10 09:28 09.02.2020
3220 Clouds 17 1027 72 10000 7.2 360 08:55 09.02.2020
3221 Clouds 17 1027 72 10000 7.2 360 08:37 09.02.2020
3222 Clouds 17 1027 77 10000 7.2 10 08:19 09.02.2020
3223 Clouds 17 1027 77 10000 7.7 10 07:49 09.02.2020
3224 Clouds 18 1027 68 10000 7.2 360 06:54 09.02.2020
3225 Clouds 18 1027 68 10000 7.2 360 06:36 09.02.2020
3226 Clouds 16 1027 77 10000 8.7 20 05:49 09.02.2020
3227 Clouds 16 1027 72 10000 9.3 20 05:31 09.02.2020
3228 Clouds 17 1027 77 10000 9.3 10 03:58 09.02.2020
3229 Clouds 17 1027 72 10000 6.7 360 02:47 09.02.2020
3230 Clouds 17 1028 68 10000 8.7 350 02:27 09.02.2020
3231 Clouds 17 1028 77 10000 8.7 360 01:35 09.02.2020
3232 Clouds 18 1029 72 10000 8.7 360 00:52 09.02.2020
3233 Clouds 18 1029 72 10000 9.3 360 00:28 09.02.2020
3234 Clouds 19 1028 72 10000 9.3 10 23:45 08.02.2020
3235 Clouds 18 1028 72 10000 9.8 10 23:22 08.02.2020
3236 Clouds 18 1028 72 10000 10.3 10 22:55 08.02.2020
3237 Clouds 19 1028 72 10000 10.3 10 22:37 08.02.2020
3238 Clouds 19 1028 72 10000 9.8 10 22:19 08.02.2020
3239 Clouds 19 1028 72 10000 10.3 10 21:42 08.02.2020
3240 Clouds 19 1028 72 10000 10.3 10 21:24 08.02.2020
3241 Clouds 19 1027 72 10000 8.7 10 20:58 08.02.2020
3242 Clouds 17 1027 72 10000 8.7 10 20:39 08.02.2020
3243 Clouds 18 1027 72 10000 9.3 10 20:19 08.02.2020
3244 Clouds 18 1027 68 10000 10.8 10 19:56 08.02.2020
3245 Clouds 19 1027 68 10000 10.8 10 19:38 08.02.2020
3246 Clouds 19 1027 64 10000 10.3 10 19:19 08.02.2020
3247 Clouds 19 1026 64 10000 9.8 360 18:43 08.02.2020
3248 Clouds 19 1026 60 10000 10.8 20 18:24 08.02.2020
3249 Clouds 20 1026 60 10000 10.8 20 17:56 08.02.2020
3250 Clouds 21 1026 60 10000 10.8 20 17:37 08.02.2020
3251 Clouds 20 1026 60 10000 11.8 20 17:18 08.02.2020
3252 Clouds 20 1026 60 10000 11.8 20 16:40 08.02.2020
3253 Clouds 21 1026 56 10000 11.3 20 16:22 08.02.2020
3254 Clouds 21 1026 56 10000 10.8 20 15:56 08.02.2020
3255 Clouds 21 1026 56 10000 10.8 20 15:38 08.02.2020
3256 Clouds 21 1026 56 10000 10.8 20 15:38 08.02.2020
3257 Clouds 20 1027 56 10000 11.8 30 15:18 08.02.2020
3258 Clouds 20 1027 56 10000 11.8 30 15:18 08.02.2020
3259 Clouds 20 1028 60 10000 9.8 20 14:41 08.02.2020
3260 Clouds 20 1028 60 10000 9.8 20 14:19 08.02.2020
3261 Clouds 20 1028 60 10000 9.8 20 14:19 08.02.2020
3262 Clouds 20 1028 56 10000 10.8 20 13:55 08.02.2020
3263 Clouds 20 1028 56 10000 10.8 20 13:37 08.02.2020
3264 Clouds 20 1029 60 10000 9.8 20 13:18 08.02.2020
3265 Clouds 21 1029 60 10000 9.8 30 12:38 08.02.2020
3266 Clouds 19 1029 60 10000 9.8 10 12:19 08.02.2020
3267 Clouds 19 1029 64 10000 10.3 10 11:43 08.02.2020
3268 Clouds 18 1029 63 10000 10.3 20 11:22 08.02.2020
3269 Clouds 18 1028 63 10000 8.7 360 10:57 08.02.2020
3270 Clouds 18 1028 63 10000 8.7 360 10:39 08.02.2020
3271 Clouds 17 1028 68 10000 8.7 350 10:20 08.02.2020
3272 Clouds 16 1028 68 10000 8.2 350 09:50 08.02.2020
3273 Clouds 16 1027 67 10000 7.7 350 09:24 08.02.2020
3274 Clouds 16 1027 72 10000 7.7 350 08:46 08.02.2020
3275 Clouds 16 1027 72 10000 7.2 350 08:24 08.02.2020
3276 Clouds 16 1026 72 10000 7.2 350 07:53 08.02.2020
3277 Clouds 16 1026 72 10000 7.2 350 07:34 08.02.2020
3278 Clouds 16 1025 72 10000 6.7 360 06:55 08.02.2020
3279 Clouds 16 1025 72 10000 7.7 350 06:22 08.02.2020
3280 Clouds 16 1025 72 10000 7.2 360 05:34 08.02.2020
3281 Clouds 16 1025 72 10000 6.2 350 04:55 08.02.2020
3282 Clouds 16 1025 72 10000 6.7 350 04:24 08.02.2020
3283 Clouds 17 1026 72 10000 5.7 360 03:38 08.02.2020
3284 Clouds 17 1026 68 10000 5.7 360 02:29 08.02.2020
3285 Clouds 17 1027 68 10000 6.7 360 01:34 08.02.2020
3286 Clouds 17 1027 68 10000 7.2 360 00:54 08.02.2020
3287 Clouds 18 1027 68 10000 9.8 10 00:25 08.02.2020
3288 Clouds 17 1027 72 10000 7.2 360 23:58 07.02.2020
3289 Clouds 18 1027 72 10000 7.2 360 23:39 07.02.2020
3290 Clouds 17 1026 72 10000 8.2 10 23:20 07.02.2020
3291 Clouds 17 1026 77 10000 9.3 10 22:42 07.02.2020
3292 Clouds 17 1026 77 10000 9.3 10 22:20 07.02.2020
3293 Clouds 17 1026 77 10000 7.7 20 21:59 07.02.2020
3294 Clouds 17 1026 77 10000 7.7 20 21:40 07.02.2020
3295 Clouds 18 1026 72 10000 7.2 10 21:20 07.02.2020
3296 Clouds 19 1025 77 10000 8.2 10 20:39 07.02.2020
3297 Clouds 18 1025 77 10000 8.7 20 20:20 07.02.2020
3298 Clouds 18 1025 77 10000 9.8 20 19:55 07.02.2020
3299 Clouds 19 1025 77 10000 9.8 20 19:37 07.02.2020
3300 Clouds 20 1024 72 10000 8.7 20 19:18 07.02.2020
3301 Clouds 20 1024 72 10000 10.3 30 18:44 07.02.2020
3302 Clouds 20 1024 72 10000 10.3 30 18:44 07.02.2020
3303 Clouds 20 1024 72 10000 10.3 30 18:44 07.02.2020
3304 Clouds 20 1024 72 10000 10.8 30 18:25 07.02.2020
3305 Clouds 21 1024 68 10000 10.3 30 17:55 07.02.2020
3306 Clouds 21 1024 68 10000 10.3 30 17:37 07.02.2020
3307 Clouds 21 1024 68 10000 11.3 30 17:19 07.02.2020
3308 Clouds 22 1024 64 10000 10.8 30 16:43 07.02.2020
3309 Clouds 21 1024 68 10000 11.3 30 16:23 07.02.2020
3310 Clouds 21 1024 68 10000 11.3 30 15:54 07.02.2020
3311 Clouds 22 1025 64 10000 10.8 30 15:28 07.02.2020
3312 Clouds 22 1025 68 10000 9.3 40 14:56 07.02.2020
3313 Clouds 22 1025 68 10000 9.3 40 14:38 07.02.2020
3314 Clouds 22 1025 64 10000 9.3 30 14:19 07.02.2020
3315 Clouds 21 1026 73 10000 9.3 30 13:56 07.02.2020
3316 Clouds 21 1026 73 10000 9.3 30 13:56 07.02.2020
3317 Clouds 21 1026 73 10000 9.3 30 13:38 07.02.2020
3318 Clouds 21 1026 73 10000 9.8 30 13:19 07.02.2020
3319 Clouds 21 1026 73 10000 9.8 30 12:41 07.02.2020
3320 Clouds 21 1026 73 10000 9.3 30 12:23 07.02.2020
3321 Clouds 20 1026 72 10000 8.7 20 11:45 07.02.2020
3322 Clouds 20 1026 72 10000 7.7 10 11:23 07.02.2020
3323 Clouds 19 1026 77 10000 6.2 360 10:58 07.02.2020
3324 Clouds 19 1026 77 10000 6.2 360 10:38 07.02.2020
3325 Clouds 18 1025 77 10000 3.6 350 10:19 07.02.2020
3326 Clouds 17 1025 77 10000 5.1 350 09:41 07.02.2020
3327 Clouds 17 1025 77 10000 5.1 350 09:23 07.02.2020
3328 Clouds 17 1024 77 10000 4.6 350 08:50 07.02.2020
3329 Clouds 17 1024 77 10000 5.1 360 08:24 07.02.2020
3330 Clouds 17 1024 82 10000 5.1 360 07:55 07.02.2020
3331 Clouds 17 1024 82 10000 5.1 360 07:33 07.02.2020
3332 Clouds 17 1023 82 10000 5.7 360 06:59 07.02.2020
3333 Clouds 17 1023 82 10000 5.7 360 06:40 07.02.2020
3334 Clouds 17 1023 77 10000 7.2 10 06:19 07.02.2020
3335 Clouds 18 1023 77 10000 5.7 360 05:38 07.02.2020
3336 Clouds 17 1023 77 10000 6.2 360 03:54 07.02.2020
3337 Clouds 18 1024 77 10000 6.2 360 02:23 07.02.2020
3338 Clouds 18 1024 77 10000 6.2 360 02:23 07.02.2020
3339 Clouds 17 1024 77 10000 6.7 10 01:21 07.02.2020
3340 Clouds 17 1024 77 10000 6.7 10 00:29 07.02.2020
3341 Clouds 17 1024 77 10000 6.2 10 23:39 06.02.2020
3342 Clouds 17 1024 77 10000 6.2 10 23:39 06.02.2020
3343 Clouds 17 1024 77 10000 5.1 360 23:19 06.02.2020
3344 Clouds 17 1024 77 10000 5.1 360 22:48 06.02.2020
3345 Clouds 18 1023 72 10000 5.7 10 22:27 06.02.2020
3346 Clouds 19 1023 72 10000 5.1 360 21:59 06.02.2020
3347 Clouds 18 1023 72 10000 5.1 360 21:37 06.02.2020
3348 Clouds 18 1023 72 10000 5.1 10 21:18 06.02.2020
3349 Clouds 18 1023 77 10000 6.2 20 20:55 06.02.2020
3350 Clouds 19 1023 77 10000 6.2 20 20:55 06.02.2020
3351 Clouds 19 1023 77 10000 6.2 20 20:36 06.02.2020
3352 Clouds 18 1022 77 10000 7.7 20 20:18 06.02.2020
3353 Clouds 19 1022 68 10000 8.2 20 19:56 06.02.2020
3354 Clouds 20 1022 68 10000 8.2 20 19:37 06.02.2020
3355 Clouds 19 1022 72 10000 8.2 20 19:19 06.02.2020
3356 Clouds 20 1021 68 10000 9.3 30 18:42 06.02.2020
3357 Clouds 20 1021 68 10000 8.7 30 18:24 06.02.2020
3358 Clouds 21 1021 60 10000 8.7 20 17:58 06.02.2020
3359 Clouds 21 1021 60 10000 8.7 20 17:58 06.02.2020
3360 Clouds 21 1021 60 10000 8.7 20 17:40 06.02.2020
3361 Clouds 22 1021 56 10000 9.3 30 17:20 06.02.2020
3362 Clouds 22 1021 60 10000 9.8 30 16:43 06.02.2020
3363 Clouds 21 1021 64 10000 10.3 30 16:25 06.02.2020
3364 Clouds 22 1021 60 10000 10.8 30 15:44 06.02.2020
3365 Clouds 22 1021 60 10000 10.3 30 15:24 06.02.2020
3366 Clouds 22 1022 60 10000 10.3 30 14:59 06.02.2020
3367 Clouds 22 1022 60 10000 10.3 30 14:41 06.02.2020
3368 Clouds 23 1022 60 10000 10.3 30 14:22 06.02.2020
3369 Clouds 21 1022 60 10000 9.8 30 13:43 06.02.2020
3370 Clouds 21 1022 60 10000 9.8 30 13:25 06.02.2020
3371 Clouds 20 1023 64 10000 9.3 30 12:45 06.02.2020
3372 Clouds 20 1023 64 10000 9.3 30 12:45 06.02.2020
3373 Clouds 21 1023 64 10000 9.3 20 12:20 06.02.2020
3374 Clouds 21 1022 60 10000 7.2 360 11:59 06.02.2020
3375 Clouds 21 1022 60 10000 7.2 360 11:40 06.02.2020
3376 Clouds 20 1022 68 10000 7.7 350 11:21 06.02.2020
3377 Clouds 20 1021 68 10000 7.2 360 10:58 06.02.2020
3378 Clouds 20 1021 68 10000 7.2 360 10:39 06.02.2020
3379 Clouds 19 1021 68 10000 5.7 10 10:21 06.02.2020
3380 Clouds 18 1021 72 10000 5.7 360 09:57 06.02.2020
3381 Clouds 18 1021 72 10000 5.7 360 09:38 06.02.2020
3382 Clouds 17 1020 72 10000 5.7 360 09:19 06.02.2020
3383 Clouds 17 1020 77 10000 6.7 10 08:42 06.02.2020
3384 Clouds 18 1019 68 10000 6.2 10 08:22 06.02.2020
3385 Clouds 17 1019 68 10000 6.2 10 08:22 06.02.2020
3386 Clouds 18 1019 68 10000 6.2 10 07:52 06.02.2020
3387 Clouds 18 1019 68 10000 6.2 10 07:52 06.02.2020
3388 Clouds 17 1019 67 10000 5.7 10 07:29 06.02.2020
3389 Clouds 17 1019 67 10000 5.7 10 07:29 06.02.2020
3390 Clouds 17 1019 77 10000 6.2 10 06:46 06.02.2020
3391 Clouds 17 1019 72 10000 6.7 10 06:18 06.02.2020
3392 Clouds 18 1019 72 10000 6.7 10 05:22 06.02.2020
3393 Clouds 18 1019 72 10000 5.7 10 03:44 06.02.2020
3394 Clouds 18 1019 68 10000 7.2 350 02:58 06.02.2020
3395 Clear 19 1020 68 10000 6.7 360 01:42 06.02.2020
3396 Clear 18 1020 68 10000 7.7 360 00:59 06.02.2020
3397 Clear 19 1020 72 10000 7.7 360 00:27 06.02.2020
3398 Clear 19 1020 72 10000 7.2 360 23:50 05.02.2020
3399 Clear 19 1020 72 10000 7.2 360 23:29 05.02.2020
3400 Clear 19 1020 68 10000 7.2 10 22:59 05.02.2020
3401 Clear 19 1020 68 10000 7.2 10 22:40 05.02.2020
3402 Clear 20 1020 64 10000 7.2 10 22:22 05.02.2020
3403 Clear 20 1019 64 10000 7.2 10 21:55 05.02.2020
3404 Clear 20 1019 64 10000 7.2 10 21:55 05.02.2020
3405 Clear 20 1019 64 10000 7.2 10 21:36 05.02.2020
3406 Clear 20 1019 68 10000 6.7 10 21:18 05.02.2020
3407 Clear 20 1019 72 10000 6.7 10 20:39 05.02.2020
3408 Clear 20 1018 72 8000 7.2 20 20:20 05.02.2020
3409 Clear 21 1018 68 8000 7.2 20 19:58 05.02.2020
3410 Clear 21 1018 68 8000 7.2 20 19:40 05.02.2020
3411 Clear 21 1018 73 8000 6.7 30 19:19 05.02.2020
3412 Clear 22 1018 68 7000 6.2 30 18:56 05.02.2020
3413 Clear 23 1018 68 7000 6.2 30 18:38 05.02.2020
3414 Clear 23 1018 60 8000 5.7 30 18:18 05.02.2020
3415 Clear 23 1018 56 10000 4.1 50 17:38 05.02.2020
3416 Clear 23 1018 56 10000 4.1 50 17:38 05.02.2020
3417 Clear 23 1018 40 10000 6.7 130 17:19 05.02.2020
3418 Clear 24 1017 49 10000 6.7 150 16:57 05.02.2020
3419 Clear 24 1017 49 10000 6.7 150 16:38 05.02.2020
3420 Clear 24 1017 49 10000 6.7 160 16:19 05.02.2020
3421 Clear 24 1018 44 10000 7.7 160 15:45 05.02.2020
3422 Clear 25 1018 27 10000 7.7 170 15:20 05.02.2020
3423 Clear 24 1018 41 10000 7.2 150 14:57 05.02.2020
3424 Clear 24 1018 41 10000 7.2 150 14:38 05.02.2020
3425 Clouds 24 1019 36 10000 5.7 150 14:20 05.02.2020
3426 Clouds 24 1020 33 10000 6.7 160 13:42 05.02.2020
3427 Clouds 24 1020 33 10000 6.7 160 13:22 05.02.2020
3428 Clouds 24 1020 27 10000 6.2 170 12:54 05.02.2020
3429 Clouds 24 1020 27 10000 6.2 170 12:36 05.02.2020
3430 Clouds 24 1020 33 10000 5.1 170 12:18 05.02.2020
3431 Clouds 23 1020 49 10000 4.6 180 11:41 05.02.2020
3432 Clouds 22 1020 40 10000 4.6 200 11:22 05.02.2020
3433 Clouds 21 1020 56 10000 3.6 200 10:44 05.02.2020
3434 Clouds 18 1020 59 9000 2.6 210 10:26 05.02.2020
3435 Clouds 19 1020 59 9000 2.6 210 09:59 05.02.2020
3436 Clouds 19 1020 59 9000 2.6 210 09:38 05.02.2020
3437 Clouds 19 1019 63 9000 3.1 200 09:20 05.02.2020
3438 Clouds 19 1019 55 9000 2.1 210 08:46 05.02.2020
3439 Clouds 18 1019 48 10000 2.1 210 08:24 05.02.2020
3440 Clear 19 1019 48 10000 3.1 210 07:55 05.02.2020
3441 Clear 19 1019 48 10000 3.1 210 07:36 05.02.2020
3442 Clear 19 1019 52 10000 0.5 0 06:54 05.02.2020
3443 Clear 19 1019 52 10000 0.5 0 06:36 05.02.2020
3444 Clear 19 1019 42 10000 2.1 220 06:18 05.02.2020
3445 Clear 19 1019 45 10000 2.6 250 05:19 05.02.2020
3446 Clear 20 1020 45 10000 2.6 230 04:54 05.02.2020
3447 Clear 21 1020 42 9000 1.5 210 03:56 05.02.2020
3448 Clear 21 1020 37 7000 1.5 230 02:28 05.02.2020
3449 Clouds 21 1021 40 7000 1.5 240 01:53 05.02.2020
3450 Clouds 20 1021 42 7000 0.5 0 00:53 05.02.2020
3451 Clouds 21 1021 49 6000 0.5 0 23:58 04.02.2020
3452 Clouds 21 1021 49 6000 0.5 0 23:39 04.02.2020
3453 Clouds 21 1021 52 6000 0.5 180 23:18 04.02.2020
3454 Haze 21 1021 52 5000 1 0 22:56 04.02.2020
3455 Haze 21 1021 52 5000 1 0 22:38 04.02.2020
3456 Haze 19 1020 60 5000 2.38 191 22:19 04.02.2020
3457 Haze 19 1020 64 5000 1 0 21:54 04.02.2020
3458 Haze 19 1020 64 5000 1 0 21:54 04.02.2020
3459 Haze 20 1020 64 5000 1 0 21:36 04.02.2020
3460 Haze 21 1020 26 5000 3.1 180 21:18 04.02.2020
3461 Haze 21 1019 28 3300 2.6 190 20:42 04.02.2020
3462 Haze 22 1019 28 3000 2.6 180 20:21 04.02.2020
3463 Haze 23 1019 25 3000 2.6 170 19:58 04.02.2020
3464 Haze 22 1019 25 3000 2.6 170 19:40 04.02.2020
3465 Haze 24 1019 23 3100 3.1 170 19:22 04.02.2020
3466 Haze 24 1019 21 3100 4.1 200 18:55 04.02.2020
3467 Haze 24 1019 21 3100 4.1 200 18:37 04.02.2020
3468 Haze 24 1019 19 3300 4.6 190 18:18 04.02.2020
3469 Haze 24 1019 19 3300 4.6 190 18:18 04.02.2020
3470 Haze 23 1019 19 4000 5.1 190 17:42 04.02.2020
3471 Haze 24 1020 21 5000 5.7 200 17:21 04.02.2020
3472 Clouds 24 1020 24 8000 4.1 190 16:55 04.02.2020
3473 Clouds 24 1020 24 8000 4.1 190 16:36 04.02.2020
3474 Clouds 24 1020 25 9000 5.1 190 16:18 04.02.2020
3475 Clouds 23 1021 31 10000 6.2 200 15:55 04.02.2020
3476 Clouds 24 1021 31 10000 6.2 200 15:37 04.02.2020
3477 Clouds 23 1021 31 10000 6.2 200 15:18 04.02.2020
3478 Clouds 23 1021 31 10000 6.2 200 14:42 04.02.2020
3479 Clouds 24 1022 33 10000 6.7 200 14:23 04.02.2020
3480 Clouds 24 1023 33 10000 6.2 190 13:57 04.02.2020
3481 Clouds 24 1023 33 10000 6.2 190 13:39 04.02.2020
3482 Clouds 23 1023 38 10000 5.1 200 13:19 04.02.2020
3483 Clouds 23 1024 40 10000 4.1 180 12:43 04.02.2020
3484 Clouds 23 1024 40 10000 3.6 190 12:25 04.02.2020
3485 Clouds 23 1023 46 10000 3.6 190 11:58 04.02.2020
3486 Clouds 22 1023 46 10000 3.6 190 11:39 04.02.2020
3487 Clouds 21 1023 46 10000 3.1 0 11:19 04.02.2020
3488 Clouds 21 1023 43 10000 3.1 200 10:50 04.02.2020
3489 Clouds 22 1023 49 10000 2.6 200 10:28 04.02.2020
3490 Clouds 21 1023 49 10000 2.1 200 09:58 04.02.2020
3491 Clouds 20 1023 49 10000 2.1 200 09:40 04.02.2020
3492 Clouds 20 1022 46 10000 2.6 0 09:21 04.02.2020
3493 Clouds 20 1022 46 10000 2.6 190 08:49 04.02.2020
3494 Clouds 20 1022 43 10000 2.6 210 08:28 04.02.2020
3495 Clear 20 1022 46 10000 2.1 220 07:56 04.02.2020
3496 Clear 20 1022 46 10000 2.1 220 07:37 04.02.2020
3497 Clear 20 1022 46 10000 2.1 220 07:37 04.02.2020
3498 Clear 20 1021 45 10000 2.1 0 07:18 04.02.2020
3499 Clear 20 1021 45 10000 2.1 0 07:18 04.02.2020
3500 Clear 20 1021 43 10000 2.6 220 06:41 04.02.2020
3501 Clear 22 1022 46 10000 1 0 05:37 04.02.2020
3502 Clear 20 1022 60 10000 1 0 04:41 04.02.2020
3503 Clear 20 1022 59 10000 1 0 03:49 04.02.2020
3504 Clear 20 1022 56 10000 1.5 220 03:30 04.02.2020
3505 Clear 20 1022 49 10000 3.1 168 02:48 04.02.2020
3506 Clear 21 1022 52 10000 3.1 168 02:27 04.02.2020
3507 Clear 21 1022 49 10000 1 0 01:46 04.02.2020
3508 Clear 20 1022 42 10000 1 0 01:19 04.02.2020
3509 Clear 22 1022 43 10000 2.1 300 00:23 04.02.2020
3510 Clear 20 1022 46 10000 1 0 23:55 03.02.2020
3511 Clear 21 1022 40 10000 1 0 23:37 03.02.2020
3512 Clear 21 1022 40 10000 1 0 23:18 03.02.2020
3513 Clear 21 1022 28 10000 1.7 144 22:38 03.02.2020
3514 Clear 21 1021 25 10000 1 0 22:19 03.02.2020
3515 Clear 22 1021 25 10000 0.5 0 21:42 03.02.2020
3516 Clear 21 1021 27 10000 0.5 0 21:20 03.02.2020
3517 Clear 21 1021 27 10000 0.5 0 21:20 03.02.2020
3518 Clear 21 1021 28 10000 1 0 20:56 03.02.2020
3519 Clear 21 1021 28 10000 1 0 20:38 03.02.2020
3520 Clear 22 1021 29 10000 0.5 0 20:18 03.02.2020
3521 Clear 22 1021 31 10000 3.68 141 19:42 03.02.2020
3522 Clear 22 1021 31 10000 0.5 0 19:23 03.02.2020
3523 Clear 22 1020 31 10000 1.5 150 18:59 03.02.2020
3524 Clear 22 1020 31 10000 1.5 150 18:40 03.02.2020
3525 Clear 23 1021 29 10000 2.1 0 18:21 03.02.2020
3526 Clear 22 1020 33 10000 2.6 150 17:57 03.02.2020
3527 Clear 23 1020 33 10000 2.6 150 17:39 03.02.2020
3528 Clear 22 1020 33 10000 2.6 170 17:19 03.02.2020
3529 Clear 25 1020 36 10000 2.6 180 16:40 03.02.2020
3530 Clear 23 1021 40 10000 3.1 180 16:21 03.02.2020
3531 Clear 24 1021 43 10000 3.1 170 15:57 03.02.2020
3532 Clear 22 1021 43 10000 3.1 170 15:39 03.02.2020
3533 Clear 22 1021 40 10000 3.6 170 15:20 03.02.2020
3534 Clear 24 1022 40 10000 4.1 180 14:57 03.02.2020
3535 Clear 24 1022 40 10000 4.1 180 14:38 03.02.2020
3536 Clear 22 1022 40 10000 3.6 180 14:19 03.02.2020
3537 Clear 22 1023 43 10000 3.1 190 13:42 03.02.2020
3538 Clear 22 1023 43 10000 3.1 170 13:21 03.02.2020
3539 Clear 22 1023 49 10000 3.1 170 12:58 03.02.2020
3540 Clear 22 1023 49 10000 3.1 170 12:39 03.02.2020
3541 Clear 22 1023 46 10000 3.1 170 12:21 03.02.2020
3542 Clear 22 1023 38 10000 2.6 150 11:55 03.02.2020
3543 Clear 22 1023 38 10000 2.6 150 11:36 03.02.2020
3544 Clear 22 1023 38 10000 2.6 150 11:36 03.02.2020
3545 Clear 22 1023 40 10000 2.1 150 11:18 03.02.2020
3546 Clear 22 1023 35 10000 1 0 10:40 03.02.2020
3547 Clear 21 1023 40 10000 2.1 180 10:21 03.02.2020
3548 Clear 21 1023 32 10000 1.5 230 09:42 03.02.2020
3549 Clear 20 1022 32 10000 1.5 230 09:21 03.02.2020
3550 Clear 20 1022 32 10000 1.5 230 08:42 03.02.2020
3551 Clear 21 1022 28 10000 2.1 230 08:23 03.02.2020
3552 Clear 19 1022 29 10000 2.6 230 07:58 03.02.2020
3553 Clear 20 1022 29 10000 2.6 230 07:39 03.02.2020
3554 Clear 20 1022 30 10000 2.6 230 07:21 03.02.2020
3555 Clear 19 1021 37 10000 1.5 230 06:47 03.02.2020
3556 Clear 19 1022 39 10000 2.1 250 06:27 03.02.2020
3557 Clear 19 1022 34 10000 0.5 0 05:36 03.02.2020
3558 Clear 20 1022 30 10000 1 0 04:56 03.02.2020
3559 Clear 21 1023 28 10000 3.1 290 02:58 03.02.2020
3560 Clear 20 1023 35 10000 2.6 300 02:34 03.02.2020
3561 Clear 19 1023 24 10000 2.6 310 01:30 03.02.2020
3562 Clear 19 1023 32 10000 2.6 320 00:46 03.02.2020
3563 Clear 20 1023 28 10000 3.1 300 00:22 03.02.2020
3564 Clear 18 1023 45 10000 2.1 310 23:38 02.02.2020
3565 Clear 19 1023 52 10000 2.6 320 23:20 02.02.2020
3566 Clear 18 1023 59 10000 2.6 330 22:57 02.02.2020
3567 Clear 18 1023 59 10000 2.6 330 22:38 02.02.2020
3568 Clear 18 1023 59 10000 2.6 330 22:19 02.02.2020
3569 Clear 19 1022 63 10000 2.1 340 21:54 02.02.2020
3570 Clear 19 1022 63 10000 2.1 340 21:36 02.02.2020
3571 Clear 19 1022 63 10000 1.5 330 21:18 02.02.2020
3572 Clear 19 1022 72 10000 0.5 70 20:55 02.02.2020
3573 Clear 19 1022 72 10000 0.5 70 20:36 02.02.2020
3574 Clear 20 1021 68 10000 0.5 80 20:18 02.02.2020
3575 Clear 20 1021 68 10000 3.35 141 19:42 02.02.2020
3576 Clear 20 1022 72 10000 1.5 150 19:23 02.02.2020
3577 Clear 20 1021 77 10000 2.1 140 18:59 02.02.2020
3578 Clear 20 1021 77 10000 2.1 140 18:39 02.02.2020
3579 Clear 21 1022 73 10000 2.6 140 18:20 02.02.2020
3580 Clear 21 1021 73 10000 2.1 140 17:58 02.02.2020
3581 Clear 21 1021 73 10000 2.1 140 17:38 02.02.2020
3582 Clear 21 1021 73 10000 2.1 140 17:19 02.02.2020
3583 Clear 21 1021 68 10000 2.1 130 16:58 02.02.2020
3584 Clear 22 1021 68 10000 2.1 130 16:39 02.02.2020
3585 Clear 21 1022 73 10000 3.1 130 16:19 02.02.2020
3586 Clear 22 1022 53 10000 4.1 150 15:57 02.02.2020
3587 Clear 22 1022 53 10000 4.1 150 15:39 02.02.2020
3588 Clear 22 1022 56 10000 3.6 140 15:19 02.02.2020
3589 Clear 22 1023 68 10000 2.1 0 14:54 02.02.2020
3590 Clear 22 1023 68 10000 2.1 0 14:36 02.02.2020
3591 Clear 21 1023 68 10000 2.1 160 14:18 02.02.2020
3592 Clear 22 1023 60 10000 5.1 130 13:54 02.02.2020
3593 Clear 21 1023 60 10000 5.1 130 13:36 02.02.2020
3594 Clear 23 1023 33 10000 4.1 140 13:18 02.02.2020
3595 Clear 25 1024 29 10000 2.1 160 12:40 02.02.2020
3596 Clear 24 1024 40 10000 2.6 150 12:22 02.02.2020
3597 Clear 22 1024 43 10000 2.1 160 11:55 02.02.2020
3598 Clear 21 1024 43 10000 2.1 160 11:36 02.02.2020
3599 Clear 21 1024 43 10000 2.1 170 11:18 02.02.2020
3600 Clear 21 1023 46 10000 1.5 210 10:54 02.02.2020
3601 Clear 21 1023 46 10000 1.5 210 10:36 02.02.2020
3602 Clear 20 1023 48 10000 1.5 250 10:18 02.02.2020
3603 Clear 18 1023 59 10000 1.5 240 09:40 02.02.2020
3604 Clear 16 1023 72 10000 2.1 240 09:21 02.02.2020
3605 Clouds 17 1023 72 10000 2.1 250 08:56 02.02.2020
3606 Clouds 17 1023 72 10000 2.1 250 08:37 02.02.2020
3607 Clouds 17 1023 72 10000 2.1 250 08:37 02.02.2020
3608 Clouds 16 1023 77 10000 1.5 270 08:18 02.02.2020
3609 Clouds 16 1022 72 10000 1.5 300 07:42 02.02.2020
3610 Clouds 16 1022 72 10000 1.5 300 07:42 02.02.2020
3611 Clouds 16 1022 67 10000 2.1 310 07:24 02.02.2020
3612 Clear 16 1022 72 10000 2.6 320 06:38 02.02.2020
3613 Clear 16 1022 51 10000 2.6 350 06:18 02.02.2020
3614 Clear 17 1022 38 10000 2.1 360 05:20 02.02.2020
3615 Clear 17 1022 38 10000 2.6 10 04:21 02.02.2020
3616 Clear 18 1022 34 10000 2.1 340 03:23 02.02.2020
3617 Clear 18 1023 34 10000 4.6 350 02:22 02.02.2020
3618 Clear 19 1023 39 10000 4.1 350 01:50 02.02.2020
3619 Clear 19 1024 39 10000 4.6 350 00:51 02.02.2020
3620 Clear 19 1024 37 10000 4.1 350 00:29 02.02.2020
3621 Clear 19 1024 37 10000 4.6 360 23:58 01.02.2020
3622 Clear 19 1024 37 10000 4.6 360 23:39 01.02.2020
3623 Clear 19 1024 37 10000 4.6 10 23:21 01.02.2020
3624 Clear 19 1023 59 10000 4.1 20 22:43 01.02.2020
3625 Clear 18 1023 72 10000 4.6 20 22:19 01.02.2020
3626 Clear 18 1023 77 10000 4.6 20 21:42 01.02.2020
3627 Clear 20 1023 72 10000 4.6 10 21:19 01.02.2020
3628 Clear 20 1023 72 10000 5.7 20 20:56 01.02.2020
3629 Clear 20 1023 72 10000 5.7 20 20:37 01.02.2020
3630 Clear 20 1023 72 10000 5.1 20 20:18 01.02.2020
3631 Clear 20 1023 68 10000 5.7 30 19:55 01.02.2020
3632 Clear 20 1023 68 10000 5.7 30 19:37 01.02.2020
3633 Clear 20 1023 68 10000 5.7 30 19:37 01.02.2020
3634 Clear 21 1023 68 10000 5.7 30 19:18 01.02.2020
3635 Clear 22 1022 56 10000 5.1 30 18:55 01.02.2020
3636 Clear 21 1022 56 10000 5.1 30 18:37 01.02.2020
3637 Clear 21 1022 60 10000 4.6 30 18:18 01.02.2020
3638 Clear 21 1023 56 10000 3.6 30 17:54 01.02.2020
3639 Clear 21 1023 56 10000 3.6 30 17:36 01.02.2020
3640 Clear 22 1023 60 10000 3.6 40 17:18 01.02.2020
3641 Clear 22 1023 60 10000 3.6 40 17:18 01.02.2020
3642 Clear 22 1023 60 10000 4.1 50 16:39 01.02.2020
3643 Clear 22 1023 60 10000 4.1 50 16:39 01.02.2020
3644 Clear 22 1023 53 10000 4.6 30 16:21 01.02.2020
3645 Clear 23 1023 53 10000 4.6 30 16:21 01.02.2020
3646 Clear 22 1023 53 10000 5.1 30 15:47 01.02.2020
3647 Clear 22 1024 53 10000 5.1 30 15:29 01.02.2020
3648 Clear 22 1024 53 10000 5.7 30 14:58 01.02.2020
3649 Clear 22 1024 53 10000 5.7 30 14:39 01.02.2020
3650 Clear 22 1025 43 10000 6.2 30 14:20 01.02.2020
3651 Clear 22 1025 56 10000 7.2 30 13:45 01.02.2020
3652 Clear 22 1026 49 10000 7.2 30 13:22 01.02.2020
3653 Clear 22 1026 49 10000 7.2 30 13:22 01.02.2020
3654 Clear 23 1026 46 10000 7.2 30 12:46 01.02.2020
3655 Clear 23 1025 38 10000 7.2 30 12:28 01.02.2020
3656 Clear 23 1025 38 10000 6.7 30 11:58 01.02.2020
3657 Clear 23 1025 38 10000 6.7 30 11:38 01.02.2020
3658 Clear 22 1025 37 10000 6.2 20 11:19 01.02.2020
3659 Clear 21 1024 43 10000 6.7 20 10:56 01.02.2020
3660 Clear 21 1024 43 10000 6.7 20 10:38 01.02.2020
3661 Clear 21 1024 30 10000 5.1 30 10:20 01.02.2020
3662 Clear 19 1024 32 10000 4.1 20 09:42 01.02.2020
3663 Clear 20 1023 47 10000 5.1 350 09:23 01.02.2020
3664 Clear 20 1023 24 10000 4.6 350 09:00 01.02.2020
3665 Clear 20 1023 24 10000 4.6 350 08:40 01.02.2020
3666 Clouds 19 1023 22 10000 4.6 350 07:48 01.02.2020
3667 Clouds 19 1022 22 10000 5.1 350 07:25 01.02.2020
3668 Clouds 19 1022 22 10000 5.1 350 07:25 01.02.2020
3669 Clouds 19 1022 20 10000 5.1 350 06:54 01.02.2020
3670 Clouds 18 1023 27 10000 5.1 350 06:31 01.02.2020
3671 Clouds 19 1023 32 10000 5.7 360 05:51 01.02.2020
3672 Clouds 19 1024 37 10000 5.7 20 03:43 01.02.2020
3673 Clouds 20 1024 19 10000 4.6 350 03:20 01.02.2020
3674 Clouds 21 1024 18 10000 5.1 350 02:43 01.02.2020
3675 Clouds 19 1025 22 10000 4.1 350 02:24 01.02.2020
3676 Clouds 20 1025 19 10000 3.6 360 01:49 01.02.2020
3677 Clouds 18 1025 23 10000 1.5 360 01:30 01.02.2020
3678 Clouds 19 1025 24 10000 2.6 340 00:27 01.02.2020
3679 Clouds 18 1025 25 10000 1 0 23:43 31.01.2020
3680 Clouds 19 1025 24 10000 2.1 330 23:19 31.01.2020
3681 Clouds 19 1025 25 10000 2.1 350 22:58 31.01.2020
3682 Clouds 19 1025 25 10000 2.1 350 22:40 31.01.2020
3683 Clouds 19 1025 25 10000 2.1 340 22:21 31.01.2020
3684 Clouds 19 1025 38 10000 3.1 340 21:55 31.01.2020
3685 Clouds 20 1025 38 10000 3.1 340 21:37 31.01.2020
3686 Clouds 20 1025 28 10000 2.6 340 21:19 31.01.2020
3687 Clouds 20 1024 28 10000 2.1 350 20:55 31.01.2020
3688 Clouds 20 1024 28 10000 2.1 350 20:37 31.01.2020
3689 Clear 21 1024 26 10000 1.5 10 20:18 31.01.2020
3690 Clear 21 1024 28 10000 1.5 30 19:55 31.01.2020
3691 Clear 21 1024 28 10000 1.5 30 19:36 31.01.2020
3692 Clear 22 1024 33 10000 1.5 70 19:18 31.01.2020
3693 Clear 22 1024 33 10000 1.5 80 18:39 31.01.2020
3694 Clear 22 1024 35 10000 1 0 18:20 31.01.2020
3695 Clear 22 1024 33 10000 1.5 100 17:46 31.01.2020
3696 Clear 22 1024 33 10000 1.5 100 17:46 31.01.2020
3697 Clear 22 1024 33 10000 1.5 100 17:28 31.01.2020
3698 Clear 23 1024 31 10000 2.1 110 16:58 31.01.2020
3699 Clear 24 1024 31 10000 2.1 110 16:38 31.01.2020
3700 Clear 23 1024 31 10000 2.1 0 16:19 31.01.2020
3701 Clear 24 1025 28 10000 2.1 140 15:58 31.01.2020
3702 Clear 23 1025 28 10000 2.1 140 15:40 31.01.2020
3703 Clear 24 1025 27 10000 1.5 0 15:20 31.01.2020
3704 Clear 24 1026 23 10000 2.1 0 14:44 31.01.2020
3705 Clear 24 1026 27 10000 1.5 0 14:24 31.01.2020
3706 Clear 23 1026 25 10000 1 0 13:56 31.01.2020
3707 Clear 24 1026 25 10000 1 0 13:37 31.01.2020
3708 Clear 24 1027 25 10000 1.5 0 13:18 31.01.2020
3709 Clear 23 1027 27 10000 1.5 160 12:43 31.01.2020
3710 Clear 22 1027 23 10000 1.5 0 12:23 31.01.2020
3711 Clear 23 1027 23 10000 1 0 11:55 31.01.2020
3712 Clear 23 1027 23 10000 1 0 11:37 31.01.2020
3713 Clear 22 1027 23 10000 0.5 0 11:18 31.01.2020
3714 Clear 22 1026 21 10000 0.5 0 10:43 31.01.2020
3715 Clear 21 1026 33 10000 1.5 280 10:22 31.01.2020
3716 Clear 19 1026 25 10000 1 240 09:57 31.01.2020
3717 Clear 20 1026 25 10000 1 240 09:39 31.01.2020
3718 Clear 19 1026 24 10000 1 0 09:19 31.01.2020
3719 Clear 18 1025 18 10000 1.5 310 08:52 31.01.2020
3720 Clear 19 1025 19 10000 2.6 310 08:27 31.01.2020
3721 Clear 18 1025 20 10000 2.6 310 07:53 31.01.2020
3722 Clear 19 1024 20 10000 3.1 330 07:25 31.01.2020
3723 Clear 18 1024 25 10000 2.6 350 06:49 31.01.2020
3724 Clear 17 1024 25 10000 2.1 0 06:20 31.01.2020
3725 Clear 17 1024 25 10000 2.6 310 05:48 31.01.2020
3726 Clear 18 1025 23 10000 2.1 340 04:56 31.01.2020
3727 Clear 21 1025 16 10000 3.1 320 02:58 31.01.2020
3728 Clear 20 1025 16 10000 2.6 320 01:39 31.01.2020
3729 Clear 21 1026 18 10000 3.1 300 00:46 31.01.2020
3730 Clear 21 1026 18 10000 2.1 290 00:27 31.01.2020
3731 Clear 20 1026 20 10000 0.5 0 23:57 30.01.2020
3732 Clear 20 1026 30 10000 1.87 119 23:26 30.01.2020
3733 Clear 21 1026 20 10000 0.5 0 22:57 30.01.2020
3734 Clear 21 1026 20 10000 0.5 0 22:37 30.01.2020
3735 Clear 21 1025 21 10000 1 0 22:18 30.01.2020
3736 Clear 21 1025 21 10000 1 0 22:18 30.01.2020
3737 Clear 20 1025 45 10000 0.5 0 21:57 30.01.2020
3738 Clear 19 1025 45 10000 0.5 0 21:38 30.01.2020
3739 Clear 19 1025 59 10000 1.5 320 21:18 30.01.2020
3740 Clear 19 1025 59 10000 1.5 320 21:18 30.01.2020
3741 Clear 19 1024 68 10000 1.5 360 20:40 30.01.2020
3742 Clear 19 1024 72 10000 0.5 0 20:22 30.01.2020
3743 Clear 19 1024 72 10000 0.5 0 20:22 30.01.2020
3744 Clouds 20 1024 68 10000 2.53 137 19:56 30.01.2020
3745 Clouds 20 1024 68 10000 2.53 137 19:38 30.01.2020
3746 Clouds 20 1024 68 10000 1 0 19:18 30.01.2020
3747 Clouds 21 1024 68 10000 1.5 140 18:41 30.01.2020
3748 Clouds 21 1024 68 10000 2.1 140 18:21 30.01.2020
3749 Clouds 21 1024 64 10000 2.1 130 17:57 30.01.2020
3750 Clouds 21 1024 64 10000 2.1 130 17:37 30.01.2020
3751 Clouds 22 1024 64 10000 2.6 0 17:19 30.01.2020
3752 Clouds 22 1024 60 10000 3.6 150 16:56 30.01.2020
3753 Clouds 22 1024 60 10000 3.6 150 16:38 30.01.2020
3754 Clouds 22 1024 64 10000 3.6 140 16:19 30.01.2020
3755 Clouds 22 1024 64 10000 4.1 140 15:43 30.01.2020
3756 Clouds 22 1024 60 10000 4.1 150 15:19 30.01.2020
3757 Clouds 23 1025 56 10000 4.6 160 14:50 30.01.2020
3758 Clouds 23 1025 53 10000 4.6 150 14:27 30.01.2020
3759 Clouds 23 1025 53 10000 5.1 150 13:56 30.01.2020
3760 Clouds 23 1025 53 10000 5.1 150 13:36 30.01.2020
3761 Clouds 23 1026 46 10000 4.6 160 13:18 30.01.2020
3762 Clouds 23 1026 43 10000 4.1 160 12:42 30.01.2020
3763 Clouds 23 1026 40 10000 3.1 160 12:24 30.01.2020
3764 Clouds 22 1026 40 10000 1.5 160 11:58 30.01.2020
3765 Clouds 22 1026 40 10000 1.5 160 11:39 30.01.2020
3766 Clouds 22 1026 43 10000 2.1 160 11:21 30.01.2020
3767 Clouds 22 1026 35 10000 0.5 0 10:42 30.01.2020
3768 Clouds 21 1025 34 10000 2.59 150 10:24 30.01.2020
3769 Clouds 19 1025 25 10000 2.59 150 09:49 30.01.2020
3770 Clouds 20 1024 24 10000 1 0 09:30 30.01.2020
3771 Clouds 21 1024 22 10000 2.6 300 08:59 30.01.2020
3772 Clouds 21 1024 22 10000 2.6 300 08:41 30.01.2020
3773 Clouds 20 1024 28 10000 3.1 300 08:20 30.01.2020
3774 Clouds 20 1024 29 10000 3.1 310 07:49 30.01.2020
3775 Clouds 20 1024 29 10000 2.1 330 07:28 30.01.2020
3776 Clouds 19 1023 29 10000 1.5 310 06:47 30.01.2020
3777 Clouds 19 1023 29 10000 2.6 320 06:28 30.01.2020
3778 Clouds 19 1024 29 10000 3.1 310 05:44 30.01.2020
3779 Clouds 19 1024 31 10000 2.6 340 05:20 30.01.2020
3780 Clouds 20 1024 39 10000 1.5 310 03:55 30.01.2020
3781 Clouds 20 1024 39 10000 1.5 310 03:36 30.01.2020
3782 Clouds 19 1024 39 10000 1.5 330 02:42 30.01.2020
3783 Clouds 20 1024 26 10000 3.1 300 00:43 30.01.2020
3784 Clouds 20 1024 28 10000 2.1 310 00:21 30.01.2020
3785 Clouds 19 1024 45 10000 2.1 310 23:46 29.01.2020
3786 Clouds 19 1024 68 10000 2.6 350 23:22 29.01.2020
3787 Clouds 19 1024 72 10000 2.1 330 22:57 29.01.2020
3788 Clouds 19 1024 72 10000 2.1 330 22:39 29.01.2020
3789 Clouds 19 1024 72 10000 1.5 340 22:19 29.01.2020
3790 Clouds 19 1023 72 10000 1 0 21:58 29.01.2020
3791 Clouds 18 1023 72 10000 1 0 21:38 29.01.2020
3792 Clouds 19 1023 68 10000 1 0 21:19 29.01.2020
3793 Clouds 19 1023 68 10000 1 0 20:58 29.01.2020
3794 Clouds 19 1023 68 10000 1 0 20:38 29.01.2020
3795 Clouds 19 1023 68 10000 1 0 20:38 29.01.2020
3796 Clouds 19 1022 68 10000 1 40 20:19 29.01.2020
3797 Clouds 19 1022 68 10000 1 40 20:19 29.01.2020
3798 Clouds 19 1022 72 10000 1.5 90 19:55 29.01.2020
3799 Clouds 19 1022 72 10000 1.5 90 19:37 29.01.2020
3800 Clouds 20 1022 64 10000 1.5 100 19:18 29.01.2020
3801 Clouds 20 1022 68 10000 2.1 80 18:46 29.01.2020
3802 Clouds 21 1022 68 10000 1.5 100 18:19 29.01.2020
3803 Clouds 20 1022 64 10000 2.6 0 17:57 29.01.2020
3804 Clouds 21 1022 64 10000 2.6 0 17:38 29.01.2020
3805 Clouds 21 1022 60 10000 3.1 0 17:20 29.01.2020
3806 Clouds 22 1022 56 10000 3.6 0 16:41 29.01.2020
3807 Clouds 22 1022 56 10000 4.1 150 16:22 29.01.2020
3808 Clouds 22 1022 56 10000 5.1 150 15:55 29.01.2020
3809 Clouds 22 1022 56 10000 5.1 150 15:36 29.01.2020
3810 Clouds 21 1022 60 10000 4.6 160 15:18 29.01.2020
3811 Clouds 21 1022 60 10000 6.2 160 14:41 29.01.2020
3812 Clouds 22 1023 64 10000 5.7 160 14:20 29.01.2020
3813 Clouds 21 1023 64 10000 5.7 160 13:41 29.01.2020
3814 Clouds 21 1023 64 10000 4.1 160 13:23 29.01.2020
3815 Clouds 21 1023 64 10000 4.1 160 13:23 29.01.2020
3816 Clouds 21 1024 60 10000 3.1 160 12:59 29.01.2020
3817 Clouds 21 1024 60 10000 3.1 160 12:39 29.01.2020
3818 Clouds 21 1024 56 10000 3.1 170 12:21 29.01.2020
3819 Clouds 21 1024 60 10000 2.6 160 11:58 29.01.2020
3820 Clouds 21 1024 60 10000 2.6 160 11:39 29.01.2020
3821 Clouds 20 1023 56 10000 1.5 150 11:19 29.01.2020
3822 Clouds 20 1023 49 10000 1.08 148 10:46 29.01.2020
3823 Clouds 20 1023 45 10000 1.5 300 10:22 29.01.2020
3824 Clouds 17 1022 39 10000 2.1 300 09:57 29.01.2020
3825 Clouds 17 1022 39 10000 2.1 300 09:38 29.01.2020
3826 Clouds 17 1022 39 10000 2.1 300 09:18 29.01.2020
3827 Clouds 17 1022 33 10000 1.5 320 08:41 29.01.2020
3828 Clouds 17 1021 38 10000 2.1 330 08:22 29.01.2020
3829 Clouds 17 1021 38 10000 2.6 310 07:45 29.01.2020
3830 Clouds 18 1021 38 10000 3.6 310 07:25 29.01.2020
3831 Clouds 17 1021 38 10000 3.6 310 06:55 29.01.2020
3832 Clouds 18 1021 38 10000 3.6 310 06:37 29.01.2020
3833 Clouds 18 1021 38 10000 3.6 310 06:37 29.01.2020
3834 Clouds 17 1021 38 10000 2.6 350 06:19 29.01.2020
3835 Clouds 17 1021 31 10000 2.6 10 05:47 29.01.2020
3836 Clouds 18 1021 27 10000 2.6 300 05:29 29.01.2020
3837 Clouds 18 1021 27 10000 2.6 290 04:38 29.01.2020
3838 Clouds 18 1021 25 10000 2.6 270 03:58 29.01.2020
3839 Clouds 17 1022 45 10000 3.1 290 02:33 29.01.2020
3840 Clouds 17 1022 58 10000 3.1 320 00:57 29.01.2020
3841 Clouds 16 1022 58 10000 3.1 320 00:36 29.01.2020
3842 Clouds 17 1022 59 10000 3.1 330 00:18 29.01.2020
3843 Clouds 16 1022 59 10000 3.1 330 23:38 28.01.2020
3844 Clear 16 1022 67 10000 3.1 330 23:19 28.01.2020
3845 Clear 16 1022 72 10000 3.1 320 22:46 28.01.2020
3846 Clear 16 1022 72 10000 2.6 320 22:27 28.01.2020
3847 Clear 17 1022 67 10000 2.1 10 21:54 28.01.2020
3848 Clear 17 1022 67 10000 2.1 10 21:36 28.01.2020
3849 Clear 17 1022 67 10000 2.6 330 21:18 28.01.2020
3850 Clear 17 1021 68 10000 3.6 10 20:45 28.01.2020
3851 Clear 17 1021 68 10000 3.1 10 20:25 28.01.2020
3852 Clear 18 1021 63 10000 2.6 30 19:55 28.01.2020
3853 Clear 19 1021 63 10000 2.6 30 19:37 28.01.2020
3854 Clear 20 1021 63 10000 2.6 60 19:18 28.01.2020
3855 Clear 19 1021 63 10000 2.6 60 19:18 28.01.2020
3856 Clear 20 1021 64 10000 2.6 60 18:41 28.01.2020
3857 Clear 21 1021 56 10000 3.1 60 18:23 28.01.2020
3858 Clear 21 1021 60 10000 2.6 80 17:59 28.01.2020
3859 Clear 20 1021 60 10000 2.6 80 17:39 28.01.2020
3860 Clear 20 1021 56 10000 2.6 90 17:21 28.01.2020
3861 Clear 21 1021 60 10000 2.6 90 16:56 28.01.2020
3862 Clear 21 1021 60 10000 2.6 90 16:37 28.01.2020
3863 Clear 21 1021 64 10000 2.1 100 16:19 28.01.2020
3864 Clear 21 1022 64 10000 2.1 90 15:44 28.01.2020
3865 Clear 21 1022 64 10000 2.1 0 15:19 28.01.2020
3866 Clear 21 1023 64 10000 1.5 60 14:57 28.01.2020
3867 Clear 21 1023 64 10000 1.5 60 14:38 28.01.2020
3868 Clear 21 1023 64 10000 1.5 60 14:38 28.01.2020
3869 Clear 20 1023 60 10000 1.5 0 14:18 28.01.2020
3870 Clear 20 1023 64 10000 1.5 60 13:40 28.01.2020
3871 Clear 19 1024 64 10000 1.5 0 13:22 28.01.2020
3872 Clear 21 1024 60 10000 1 0 12:42 28.01.2020
3873 Clouds 21 1024 56 10000 2.1 80 12:24 28.01.2020
3874 Clear 20 1024 49 10000 2.6 30 11:55 28.01.2020
3875 Clear 20 1024 49 10000 2.6 30 11:55 28.01.2020
3876 Clear 19 1024 49 10000 2.6 30 11:37 28.01.2020
3877 Clear 18 1024 45 10000 3.1 30 11:18 28.01.2020
3878 Clear 18 1023 45 10000 1.5 10 10:40 28.01.2020
3879 Clear 19 1023 45 10000 1.5 320 10:22 28.01.2020
3880 Clear 16 1023 59 10000 3.1 320 09:55 28.01.2020
3881 Clear 17 1023 59 10000 3.1 320 09:37 28.01.2020
3882 Clear 15 1023 76 10000 3.1 320 09:18 28.01.2020
3883 Clouds 14 1023 76 10000 2.6 330 08:40 28.01.2020
3884 Clouds 14 1022 82 10000 3.1 330 08:19 28.01.2020
3885 Clouds 15 1022 82 10000 3.1 320 07:38 28.01.2020
3886 Clouds 15 1022 77 10000 3.1 320 06:51 28.01.2020
3887 Clouds 15 1022 77 10000 3.6 320 06:28 28.01.2020
3888 Clouds 14 1023 72 10000 3.6 330 05:55 28.01.2020
3889 Clouds 15 1023 72 10000 3.6 340 05:27 28.01.2020
3890 Clouds 15 1023 72 10000 3.6 340 05:27 28.01.2020
3891 Clouds 15 1023 72 10000 4.1 330 04:30 28.01.2020
3892 Clouds 15 1024 72 10000 5.1 350 02:58 28.01.2020
3893 Clouds 15 1024 72 10000 5.1 350 02:25 28.01.2020
3894 Clouds 16 1024 72 10000 5.1 360 01:57 28.01.2020
3895 Clouds 15 1024 72 10000 6.2 10 01:26 28.01.2020
3896 Clouds 15 1024 72 10000 7.2 20 00:51 28.01.2020
3897 Clouds 16 1024 72 10000 7.7 20 00:29 28.01.2020
3898 Clouds 16 1024 72 10000 6.7 20 23:51 27.01.2020
3899 Clouds 15 1024 72 10000 7.2 20 23:30 27.01.2020
3900 Clouds 17 1024 72 10000 6.7 20 22:56 27.01.2020
3901 Clouds 17 1024 72 10000 6.7 20 22:38 27.01.2020
3902 Clouds 17 1024 68 10000 6.7 10 22:19 27.01.2020
3903 Clouds 17 1024 68 10000 6.2 10 21:54 27.01.2020
3904 Clouds 18 1024 68 10000 6.2 10 21:36 27.01.2020
3905 Clouds 18 1024 68 10000 5.7 10 21:18 27.01.2020
3906 Clouds 18 1023 63 10000 5.7 10 20:43 27.01.2020
3907 Clouds 18 1023 63 10000 5.7 20 20:22 27.01.2020
3908 Clouds 16 1023 63 10000 6.7 20 19:59 27.01.2020
3909 Clouds 18 1023 63 10000 6.7 20 19:40 27.01.2020
3910 Clouds 17 1023 63 10000 6.7 30 19:22 27.01.2020
3911 Clouds 18 1023 63 10000 6.2 20 18:56 27.01.2020
3912 Clouds 18 1023 63 10000 6.2 20 18:37 27.01.2020
3913 Clouds 18 1023 63 10000 6.2 20 18:37 27.01.2020
3914 Clouds 19 1023 59 10000 6.7 30 18:19 27.01.2020
3915 Clouds 18 1023 59 10000 7.2 30 17:39 27.01.2020
3916 Clouds 18 1023 59 10000 7.2 30 17:39 27.01.2020
3917 Clouds 18 1022 59 10000 6.2 40 17:20 27.01.2020
3918 Clouds 20 1023 56 10000 6.2 40 16:58 27.01.2020
3919 Clouds 20 1023 56 10000 6.2 40 16:58 27.01.2020
3920 Clouds 20 1023 56 10000 6.2 40 16:40 27.01.2020
3921 Clouds 19 1023 56 10000 6.2 50 16:22 27.01.2020
3922 Clouds 18 1023 59 10000 6.7 60 15:55 27.01.2020
3923 Clouds 18 1023 59 10000 6.7 60 15:36 27.01.2020
3924 Clouds 20 1023 60 10000 6.2 50 15:18 27.01.2020
3925 Clouds 19 1024 60 10000 6.2 60 14:41 27.01.2020
3926 Clouds 18 1025 63 10000 6.2 50 14:22 27.01.2020
3927 Clouds 18 1025 63 10000 5.7 30 13:55 27.01.2020
3928 Clouds 19 1025 63 10000 5.7 30 13:37 27.01.2020
3929 Clouds 20 1025 63 10000 6.7 30 13:18 27.01.2020
3930 Clouds 18 1026 56 10000 6.2 30 12:43 27.01.2020
3931 Clouds 20 1026 56 10000 6.2 30 12:23 27.01.2020
3932 Clouds 19 1026 55 10000 6.2 40 11:58 27.01.2020
3933 Clouds 19 1026 55 10000 6.2 40 11:40 27.01.2020
3934 Clouds 17 1026 55 10000 5.7 30 11:19 27.01.2020
3935 Clouds 18 1025 59 10000 4.6 360 10:42 27.01.2020
3936 Clouds 17 1025 63 10000 4.6 350 10:24 27.01.2020
3937 Clouds 16 1025 67 10000 3.6 340 09:40 27.01.2020
3938 Clouds 15 1025 63 10000 4.1 330 09:19 27.01.2020
3939 Clouds 15 1025 67 10000 3.6 330 08:59 27.01.2020
3940 Clouds 15 1025 67 10000 3.6 330 08:40 27.01.2020
3941 Clouds 15 1024 72 10000 3.6 330 08:19 27.01.2020
3942 Clouds 15 1024 72 10000 3.6 340 07:52 27.01.2020
3943 Clouds 15 1024 72 10000 3.6 340 07:33 27.01.2020
3944 Clouds 15 1024 67 10000 4.1 340 06:49 27.01.2020
3945 Clouds 15 1024 67 10000 3.6 340 05:53 27.01.2020
3946 Clouds 15 1024 67 10000 4.1 340 05:18 27.01.2020
3947 Clouds 16 1025 67 10000 4.1 360 03:37 27.01.2020
3948 Clouds 16 1025 67 10000 4.6 340 02:27 27.01.2020
3949 Clouds 16 1025 67 10000 4.6 350 01:28 27.01.2020
3950 Clouds 17 1025 63 10000 4.6 350 00:42 27.01.2020
3951 Clouds 16 1025 67 10000 4.6 350 00:22 27.01.2020
3952 Clouds 17 1025 63 10000 4.1 350 23:58 26.01.2020
3953 Clouds 17 1025 63 10000 4.1 350 23:39 26.01.2020
3954 Clouds 17 1025 63 10000 4.6 350 23:18 26.01.2020
3955 Clouds 17 1025 63 10000 4.6 340 22:39 26.01.2020
3956 Clouds 17 1025 67 10000 5.1 340 22:20 26.01.2020
3957 Clouds 17 1025 67 10000 4.6 350 21:58 26.01.2020
3958 Clouds 17 1025 67 10000 4.6 350 21:40 26.01.2020
3959 Clouds 17 1024 67 10000 4.6 350 21:21 26.01.2020
3960 Clouds 17 1024 63 10000 5.1 360 20:58 26.01.2020
3961 Clouds 17 1024 63 10000 5.1 360 20:38 26.01.2020
3962 Clouds 17 1024 63 10000 5.7 10 20:19 26.01.2020
3963 Clouds 17 1024 68 10000 6.2 20 19:59 26.01.2020
3964 Clouds 17 1024 68 10000 6.2 20 19:59 26.01.2020
3965 Clouds 18 1024 68 10000 6.2 20 19:39 26.01.2020
3966 Clouds 18 1024 59 10000 6.7 10 19:21 26.01.2020
3967 Clouds 19 1024 59 10000 7.2 20 18:56 26.01.2020
3968 Clouds 19 1024 59 10000 7.2 20 18:38 26.01.2020
3969 Clouds 20 1024 60 10000 7.2 20 18:20 26.01.2020
3970 Clouds 20 1024 56 10000 7.2 30 17:55 26.01.2020
3971 Clouds 20 1024 56 10000 7.2 30 17:37 26.01.2020
3972 Clouds 20 1024 60 10000 6.7 30 17:18 26.01.2020
3973 Clouds 20 1024 60 10000 6.7 30 16:56 26.01.2020
3974 Clouds 20 1024 60 10000 6.7 30 16:38 26.01.2020
3975 Clouds 20 1024 56 10000 6.7 30 16:18 26.01.2020
3976 Clouds 18 1024 56 10000 5.7 30 15:43 26.01.2020
3977 Clouds 20 1026 60 10000 4.6 40 15:21 26.01.2020
3978 Clouds 18 1026 60 10000 4.6 40 14:58 26.01.2020
3979 Clouds 20 1026 60 10000 4.6 40 14:38 26.01.2020
3980 Clouds 20 1026 60 10000 4.6 40 14:19 26.01.2020
3981 Clouds 17 1027 63 10000 5.7 60 13:40 26.01.2020
3982 Clouds 20 1025 59 0 4.02 102 13:19 26.01.2020
3983 Clouds 21 1026 59 0 2.24 138 12:56 26.01.2020
3984 Clouds 21 1026 57 0 3.13 112 12:36 26.01.2020
3985 Clouds 21 1026 57 0 2.68 110 12:18 26.01.2020
3986 Clouds 22 1029 40 0 2.42 47 11:56 26.01.2020
3987 Clouds 20 1029 45 0 2.42 47 11:36 26.01.2020
3988 Clouds 17 1026 72 10000 3.1 310 11:18 26.01.2020
3989 Clouds 16 1026 72 10000 3.1 310 10:39 26.01.2020
3990 Clouds 16 1026 72 10000 3.1 310 10:21 26.01.2020
3991 Clouds 16 1025 72 10000 3.6 320 09:59 26.01.2020
3992 Clouds 16 1025 72 10000 3.6 320 09:41 26.01.2020
3993 Clouds 16 1025 72 10000 3.6 320 09:23 26.01.2020
3994 Clouds 15 1025 72 10000 4.6 330 08:57 26.01.2020
3995 Clouds 15 1025 72 10000 4.6 330 08:57 26.01.2020
3996 Clouds 15 1025 72 10000 4.6 330 08:38 26.01.2020
3997 Clouds 16 1024 67 10000 4.1 340 08:20 26.01.2020
3998 Clouds 15 1024 67 10000 2.1 320 07:45 26.01.2020
3999 Clouds 15 1024 67 10000 2.6 320 07:22 26.01.2020
4000 Clouds 15 1024 67 10000 3.6 330 06:34 26.01.2020
4001 Clouds 15 1024 67 10000 3.1 350 05:52 26.01.2020
4002 Clouds 15 1024 67 10000 4.1 360 05:22 26.01.2020
4003 Clouds 16 1025 59 10000 3.6 320 03:22 26.01.2020
4004 Clouds 16 1025 63 10000 4.1 340 02:23 26.01.2020
4005 Clouds 16 1025 63 10000 3.6 340 01:40 26.01.2020
4006 Clouds 17 1025 59 10000 4.1 340 01:20 26.01.2020
4007 Clouds 17 1025 59 10000 3.6 340 00:40 26.01.2020
4008 Clouds 17 1025 59 10000 4.1 330 00:20 26.01.2020
4009 Clouds 18 1011 63 0 4.47 340 23:38 25.01.2020
4010 Clouds 18 1011 63 0 4.47 340 23:20 25.01.2020
4011 Clouds 18 1025 52 0 5.36 320 22:43 25.01.2020
4012 Clouds 18 1025 63 0 5.81 360 22:20 25.01.2020
4013 Clouds 18 1025 63 0 5.81 360 22:20 25.01.2020
4014 Clouds 18 1024 63 0 4.47 10 21:59 25.01.2020
4015 Clouds 18 1024 63 0 4.47 10 21:41 25.01.2020
4016 Clouds 12 1024 79 0 3.66 343 21:22 25.01.2020
4017 Clouds 18 1027 51 0 3.66 343 20:54 25.01.2020
4018 Clouds 12 1024 79 0 3.66 343 20:36 25.01.2020
4019 Clouds 15 1023 68 0 3.87 352 20:18 25.01.2020
4020 Clouds 18 1026 51 0 3.49 348 19:41 25.01.2020
4021 Clouds 19 1022 67 0 2.24 240 19:19 25.01.2020
4022 Clouds 19 1026 48 0 3.87 352 18:56 25.01.2020
4023 Clouds 19 1022 67 0 2.24 240 18:37 25.01.2020
4024 Clouds 19 1022 67 0 2.24 240 18:19 25.01.2020
4025 Clouds 19 1022 68 0 1.34 231 17:39 25.01.2020
4026 Clouds 19 1025 50 0 3.42 353 17:19 25.01.2020
4027 Clouds 18 1023 52 10000 8.7 30 16:56 25.01.2020
4028 Clouds 19 1023 52 10000 8.7 30 16:38 25.01.2020
4029 Clouds 20 1023 52 10000 8.7 30 16:19 25.01.2020
4030 Clouds 20 1025 45 0 3.42 353 15:42 25.01.2020
4031 Clouds 20 1025 46 0 3.42 353 15:24 25.01.2020
4032 Clouds 20 1023 56 0 8.94 40 14:47 25.01.2020
4033 Clouds 19 1024 57 0 0.89 199 14:20 25.01.2020
4034 Clouds 19 1024 56 0 0.89 154 13:58 25.01.2020
4035 Clouds 19 1024 61 0 1.34 159 13:39 25.01.2020
4036 Clear 20 1027 41 0 4.35 348 13:20 25.01.2020
4037 Clouds 20 1024 56 10000 4.1 350 12:43 25.01.2020
4038 Clouds 20 1024 56 10000 4.1 350 12:21 25.01.2020
4039 Clouds 20 1024 56 10000 4.1 350 11:45 25.01.2020
4040 Clouds 19 1024 59 10000 4.1 360 11:21 25.01.2020
4041 Clouds 19 1023 55 10000 1.5 0 10:57 25.01.2020
4042 Clouds 19 1023 55 10000 1.5 0 10:39 25.01.2020
4043 Clouds 17 1023 59 10000 1 0 10:20 25.01.2020
4044 Clouds 17 1023 59 10000 1 0 10:20 25.01.2020
4045 Clouds 16 1023 62 10000 2.6 260 09:41 25.01.2020
4046 Clouds 14 1022 62 10000 3.1 260 09:22 25.01.2020
4047 Clouds 14 1022 67 10000 2.1 330 08:44 25.01.2020
4048 Clouds 15 1022 58 10000 3.1 280 08:21 25.01.2020
4049 Clouds 14 1021 62 10000 3.1 270 07:43 25.01.2020
4050 Clouds 14 1021 58 10000 2.1 300 06:51 25.01.2020
4051 Clouds 14 1021 58 10000 2.1 290 06:27 25.01.2020
4052 Clouds 14 1021 58 10000 1.5 310 05:45 25.01.2020
4053 Clouds 15 1021 62 10000 3.1 330 04:43 25.01.2020
4054 Clouds 14 1021 58 10000 2.6 290 03:51 25.01.2020
4055 Clouds 15 1022 62 10000 2.6 280 02:54 25.01.2020
4056 Clouds 15 1022 67 10000 3.1 260 01:59 25.01.2020
4057 Clouds 15 1022 67 10000 3.1 260 01:37 25.01.2020
4058 Clouds 16 1022 63 10000 2.1 260 00:43 25.01.2020
4059 Clouds 15 1022 62 10000 2.1 280 00:24 25.01.2020
4060 Clouds 15 1022 67 10000 2.1 0 23:57 24.01.2020
4061 Clouds 16 1022 67 10000 2.1 0 23:38 24.01.2020
4062 Clouds 15 1022 72 10000 2.1 270 23:20 24.01.2020
4063 Clouds 16 1022 67 10000 2.6 280 22:42 24.01.2020
4064 Clouds 16 1022 67 10000 2.1 300 22:24 24.01.2020
4065 Clouds 16 1022 63 10000 2.1 260 21:43 24.01.2020
4066 Clouds 17 1021 63 10000 1.5 260 21:20 24.01.2020
4067 Clouds 17 1021 63 10000 1 0 20:56 24.01.2020
4068 Clouds 17 1021 63 10000 1 0 20:38 24.01.2020
4069 Clouds 17 1021 63 10000 1 0 20:19 24.01.2020
4070 Clouds 18 1020 63 10000 1 0 19:56 24.01.2020
4071 Clouds 18 1020 63 10000 1 0 19:38 24.01.2020
4072 Clouds 18 1020 63 10000 1 0 19:20 24.01.2020
4073 Clouds 19 1020 59 10000 1.5 100 18:43 24.01.2020
4074 Clouds 19 1020 59 10000 2.1 160 18:23 24.01.2020
4075 Clouds 19 1020 59 10000 3.1 150 17:46 24.01.2020
4076 Clouds 17 1019 59 10000 2.6 140 17:23 24.01.2020
4077 Clouds 20 1019 56 10000 2.6 130 16:59 24.01.2020
4078 Clouds 20 1019 56 10000 2.6 130 16:39 24.01.2020
4079 Clouds 18 1019 59 10000 2.6 130 16:20 24.01.2020
4080 Clouds 20 1020 56 10000 3.1 120 15:43 24.01.2020
4081 Clouds 19 1020 59 10000 3.1 140 15:22 24.01.2020
4082 Clouds 19 1020 59 10000 3.1 140 15:22 24.01.2020
4083 Clouds 18 1020 63 10000 3.1 160 14:56 24.01.2020
4084 Clouds 19 1020 63 10000 3.1 160 14:38 24.01.2020
4085 Clouds 18 1021 52 10000 3.1 160 14:19 24.01.2020
4086 Clouds 19 1021 63 10000 3.1 140 13:42 24.01.2020
4087 Clouds 20 1022 60 10000 3.1 140 13:23 24.01.2020
4088 Clouds 17 1022 52 10000 3.6 150 12:44 24.01.2020
4089 Clouds 17 1022 59 10000 3.1 150 12:22 24.01.2020
4090 Clouds 19 1022 52 10000 2.1 180 11:45 24.01.2020
4091 Clouds 18 1021 55 10000 2.6 200 11:20 24.01.2020
4092 Clouds 18 1021 42 10000 1 0 10:59 24.01.2020
4093 Clouds 18 1021 42 10000 1 0 10:40 24.01.2020
4094 Clouds 16 1021 48 10000 2.6 260 10:19 24.01.2020
4095 Clouds 16 1021 51 10000 3.1 260 09:42 24.01.2020
4096 Clouds 16 1021 51 10000 3.1 260 09:42 24.01.2020
4097 Clouds 15 1020 54 10000 3.6 260 09:24 24.01.2020
4098 Clouds 14 1020 62 10000 2.6 270 08:59 24.01.2020
4099 Clouds 14 1020 62 10000 2.6 270 08:36 24.01.2020
4100 Clear 14 1020 58 10000 2.6 280 08:18 24.01.2020
4101 Clear 14 1020 62 10000 2.6 270 07:42 24.01.2020
4102 Clear 14 1020 62 10000 3.6 270 07:21 24.01.2020
4103 Clear 14 1020 58 10000 3.6 260 06:43 24.01.2020
4104 Clear 14 1020 58 10000 3.6 260 06:43 24.01.2020
4105 Clear 14 1020 67 10000 3.6 270 06:23 24.01.2020
4106 Clear 14 1020 67 10000 3.6 280 05:21 24.01.2020
4107 Clear 15 1021 67 10000 3.1 290 03:29 24.01.2020
4108 Clear 15 1021 67 10000 3.1 290 02:39 24.01.2020
4109 Clouds 15 1021 67 10000 2.6 290 02:19 24.01.2020
4110 Clouds 15 1021 67 10000 3.1 300 01:38 24.01.2020
4111 Clouds 15 1021 62 10000 1.5 290 00:40 24.01.2020
4112 Clouds 15 1021 63 10000 2.6 290 00:18 24.01.2020
4113 Clouds 16 1021 63 10000 2.6 290 23:41 23.01.2020
4114 Clouds 16 1021 67 10000 2.1 290 23:21 23.01.2020
4115 Clouds 16 1021 63 10000 2.1 300 22:58 23.01.2020
4116 Clouds 17 1021 63 10000 2.1 300 22:36 23.01.2020
4117 Clouds 17 1020 63 10000 2.6 300 22:18 23.01.2020
4118 Clouds 17 1020 63 10000 2.1 300 21:55 23.01.2020
4119 Clouds 17 1020 63 10000 2.1 300 21:37 23.01.2020
4120 Clouds 17 1020 63 10000 2.1 320 21:18 23.01.2020
4121 Clouds 18 1020 59 10000 0.5 80 20:41 23.01.2020
4122 Clouds 18 1019 63 10000 0.5 0 20:22 23.01.2020
4123 Clouds 18 1019 59 10000 1 0 19:57 23.01.2020
4124 Clouds 18 1019 59 10000 1 0 19:39 23.01.2020
4125 Clouds 18 1019 63 10000 1 0 19:21 23.01.2020
4126 Clouds 18 1019 63 10000 1.5 110 18:56 23.01.2020
4127 Clouds 18 1019 63 10000 1.5 110 18:37 23.01.2020
4128 Clouds 19 1019 59 10000 2.1 80 18:19 23.01.2020
4129 Clouds 18 1019 59 10000 2.1 120 17:44 23.01.2020
4130 Clouds 18 1019 59 10000 2.1 110 17:21 23.01.2020
4131 Clouds 19 1019 59 10000 2.1 80 16:58 23.01.2020
4132 Clouds 19 1019 59 10000 2.1 80 16:38 23.01.2020
4133 Clouds 19 1019 59 10000 2.6 100 16:19 23.01.2020
4134 Clouds 19 1019 63 10000 2.6 90 15:57 23.01.2020
4135 Clouds 20 1019 63 10000 2.6 90 15:38 23.01.2020
4136 Clouds 19 1019 59 10000 2.6 70 15:19 23.01.2020
4137 Clouds 19 1019 59 10000 3.1 100 14:57 23.01.2020
4138 Clouds 19 1019 59 10000 3.1 100 14:39 23.01.2020
4139 Clouds 18 1020 59 10000 3.1 90 14:21 23.01.2020
4140 Clouds 19 1020 56 10000 3.6 80 13:46 23.01.2020
4141 Clouds 19 1020 59 10000 3.6 70 13:21 23.01.2020
4142 Clouds 19 1021 59 10000 3.1 70 12:56 23.01.2020
4143 Clouds 19 1021 59 10000 3.1 70 12:56 23.01.2020
4144 Clouds 20 1021 59 10000 3.1 70 12:38 23.01.2020
4145 Clouds 18 1020 52 10000 3.1 70 12:20 23.01.2020
4146 Clouds 19 1020 48 10000 2.1 80 11:43 23.01.2020
4147 Clouds 19 1020 48 10000 1.5 40 11:25 23.01.2020
4148 Clouds 18 1020 42 10000 1.5 350 10:59 23.01.2020
4149 Clouds 18 1020 42 10000 1.5 350 10:40 23.01.2020
4150 Clouds 16 1019 44 10000 2.6 330 10:19 23.01.2020
4151 Clouds 15 1019 47 10000 3.1 300 09:41 23.01.2020
4152 Clouds 15 1018 47 10000 3.1 300 09:22 23.01.2020
4153 Clouds 14 1018 50 10000 3.1 300 08:56 23.01.2020
4154 Clouds 14 1018 50 10000 3.1 300 08:38 23.01.2020
4155 Clouds 14 1018 50 10000 3.1 310 08:19 23.01.2020
4156 Clouds 14 1018 50 10000 2.6 310 07:39 23.01.2020
4157 Clouds 13 1018 54 10000 1.03 332 07:18 23.01.2020
4158 Clouds 13 1018 54 10000 1.5 250 06:44 23.01.2020
4159 Clouds 13 1018 54 10000 2.1 280 06:18 23.01.2020
4160 Clouds 14 1018 50 10000 2.6 260 04:25 23.01.2020
4161 Clouds 14 1019 50 10000 3.6 260 03:36 23.01.2020
4162 Clouds 14 1019 62 10000 2.6 290 01:55 23.01.2020
4163 Clouds 14 1019 62 10000 2.6 250 00:44 23.01.2020
4164 Clouds 14 1019 62 10000 2.1 0 00:24 23.01.2020
4165 Clouds 15 1019 62 10000 2.1 270 23:46 22.01.2020
4166 Clouds 15 1019 67 10000 2.1 270 23:28 22.01.2020
4167 Clouds 16 1019 63 10000 2.6 260 22:43 22.01.2020
4168 Clouds 16 1019 67 10000 2.1 250 22:25 22.01.2020
4169 Clouds 16 1019 67 10000 2.6 230 21:59 22.01.2020
4170 Clouds 16 1019 67 10000 2.6 230 21:38 22.01.2020
4171 Clouds 16 1018 67 10000 2.6 220 21:19 22.01.2020
4172 Clouds 17 1018 59 10000 1 0 20:42 22.01.2020
4173 Clouds 17 1018 59 10000 1 0 20:42 22.01.2020
4174 Clouds 17 1017 59 10000 4.1 220 20:23 22.01.2020
4175 Clouds 18 1017 52 10000 3.1 190 19:59 22.01.2020
4176 Clouds 18 1017 52 10000 3.1 190 19:41 22.01.2020
4177 Clouds 18 1017 55 10000 1.5 190 19:21 22.01.2020
4178 Clouds 18 1017 55 10000 0.5 0 18:59 22.01.2020
4179 Clouds 18 1017 55 10000 0.5 0 18:40 22.01.2020
4180 Clouds 18 1017 55 10000 2.6 80 18:21 22.01.2020
4181 Clouds 18 1017 52 10000 2.6 150 17:59 22.01.2020
4182 Clouds 18 1017 52 10000 2.6 150 17:39 22.01.2020
4183 Clouds 19 1017 48 10000 2.6 0 17:20 22.01.2020
4184 Clouds 19 1017 42 10000 2.6 190 16:55 22.01.2020
4185 Clouds 19 1017 42 10000 2.6 190 16:55 22.01.2020
4186 Clouds 19 1017 42 10000 2.6 190 16:55 22.01.2020
4187 Clouds 19 1017 42 10000 2.6 190 16:37 22.01.2020
4188 Clouds 19 1018 45 10000 3.1 170 16:18 22.01.2020
4189 Clouds 19 1018 45 10000 2.1 0 15:41 22.01.2020
4190 Clouds 18 1018 48 10000 2.6 120 15:23 22.01.2020
4191 Clouds 18 1018 48 10000 3.1 150 14:58 22.01.2020
4192 Clouds 19 1018 48 10000 3.1 150 14:37 22.01.2020
4193 Clouds 18 1019 48 10000 3.1 160 14:19 22.01.2020
4194 Clouds 16 1019 52 10000 3.1 150 13:56 22.01.2020
4195 Clouds 16 1019 52 10000 3.1 150 13:56 22.01.2020
4196 Clouds 16 1019 52 10000 3.1 150 13:56 22.01.2020
4197 Clouds 19 1019 52 10000 3.1 150 13:37 22.01.2020
4198 Clouds 17 1019 48 10000 3.1 140 13:19 22.01.2020
4199 Clouds 19 1019 45 10000 3.1 160 12:56 22.01.2020
4200 Clouds 18 1019 45 10000 3.1 160 12:38 22.01.2020
4201 Clouds 18 1019 48 10000 2.6 130 12:18 22.01.2020
4202 Clouds 18 1019 45 10000 2.1 90 11:56 22.01.2020
4203 Clouds 18 1019 45 10000 2.1 90 11:38 22.01.2020
4204 Clouds 18 1019 45 10000 1.5 120 11:19 22.01.2020
4205 Clouds 17 1019 36 10000 0.5 0 10:44 22.01.2020
4206 Clouds 15 1018 44 10000 1.77 294 10:21 22.01.2020
4207 Clouds 14 1018 44 10000 2.1 290 09:45 22.01.2020
4208 Clouds 13 1018 50 10000 2.1 300 09:26 22.01.2020
4209 Clouds 13 1018 47 10000 2.6 310 08:59 22.01.2020
4210 Clouds 13 1018 47 10000 2.6 310 08:40 22.01.2020
4211 Clouds 14 1018 50 10000 2.6 290 08:21 22.01.2020
4212 Clouds 13 1017 54 10000 3.1 300 07:58 22.01.2020
4213 Clouds 13 1017 54 10000 3.1 300 07:58 22.01.2020
4214 Clouds 13 1017 54 10000 3.1 300 07:40 22.01.2020
4215 Clouds 13 1017 58 10000 2.6 300 07:21 22.01.2020
4216 Clouds 14 1017 58 10000 3.6 310 06:31 22.01.2020
4217 Clouds 13 1017 54 10000 3.1 310 05:41 22.01.2020
4218 Clouds 14 1017 54 10000 3.1 290 04:20 22.01.2020
4219 Clouds 14 1018 58 10000 2.6 290 03:23 22.01.2020
4220 Clouds 14 1018 58 10000 2.6 290 03:23 22.01.2020
4221 Clouds 14 1018 54 10000 2.1 280 02:27 22.01.2020
4222 Clouds 15 1018 54 10000 2.6 310 00:46 22.01.2020
4223 Clouds 15 1018 62 10000 4.1 320 00:26 22.01.2020
4224 Clouds 16 1017 59 10000 3.1 330 23:39 21.01.2020
4225 Clouds 15 1017 58 10000 3.1 340 23:21 21.01.2020
4226 Clouds 16 1017 51 10000 3.6 350 22:59 21.01.2020
4227 Clouds 16 1017 51 10000 3.6 350 22:39 21.01.2020
4228 Clouds 16 1017 55 10000 4.6 350 22:20 21.01.2020
4229 Clouds 16 1017 59 10000 4.1 330 21:56 21.01.2020
4230 Clouds 16 1017 59 10000 4.1 330 21:38 21.01.2020
4231 Clouds 16 1017 59 10000 5.7 320 21:19 21.01.2020
4232 Clouds 16 1016 59 10000 5.1 330 20:56 21.01.2020
4233 Clouds 15 1016 59 10000 5.1 330 20:37 21.01.2020
4234 Clouds 16 1016 51 10000 3.6 330 20:18 21.01.2020
4235 Clouds 16 1016 51 10000 3.6 330 20:18 21.01.2020
4236 Clouds 16 1016 55 10000 3.6 320 19:56 21.01.2020
4237 Clouds 17 1016 55 10000 3.6 320 19:37 21.01.2020
4238 Clouds 17 1016 55 10000 3.6 320 19:37 21.01.2020
4239 Clouds 17 1016 55 10000 4.1 330 19:18 21.01.2020
4240 Clouds 17 1015 55 10000 5.1 320 18:55 21.01.2020
4241 Clouds 17 1015 55 10000 5.1 320 18:36 21.01.2020
4242 Clouds 17 1015 55 10000 5.7 340 18:18 21.01.2020
4243 Clouds 18 1015 52 10000 6.2 350 17:42 21.01.2020
4244 Clouds 18 1015 48 10000 5.7 340 17:20 21.01.2020
4245 Clouds 18 1015 45 10000 5.7 340 16:57 21.01.2020
4246 Clouds 18 1015 45 10000 5.7 340 16:36 21.01.2020
4247 Clouds 18 1015 45 10000 5.7 340 16:36 21.01.2020
4248 Clouds 18 1015 45 10000 6.7 330 16:18 21.01.2020
4249 Clouds 19 1015 39 10000 6.7 350 15:40 21.01.2020
4250 Clouds 18 1015 42 10000 5.7 310 15:20 21.01.2020
4251 Clouds 18 1016 45 10000 6.2 340 14:57 21.01.2020
4252 Clouds 18 1016 45 10000 6.2 340 14:37 21.01.2020
4253 Clouds 17 1016 55 10000 4.1 340 14:18 21.01.2020
4254 Clouds 17 1017 59 10000 4.1 320 13:39 21.01.2020
4255 Clouds 17 1017 63 10000 5.7 330 13:18 21.01.2020
4256 Clouds 17 1017 55 10000 6.2 340 12:43 21.01.2020
4257 Clouds 18 1017 52 10000 6.2 350 12:25 21.01.2020
4258 Clouds 18 1016 48 10000 6.7 340 11:57 21.01.2020
4259 Clouds 18 1016 48 10000 6.7 340 11:38 21.01.2020
4260 Clouds 18 1016 48 10000 5.7 350 11:19 21.01.2020
4261 Clouds 17 1016 45 10000 5.7 350 10:44 21.01.2020
4262 Clouds 16 1016 48 10000 4.1 340 10:23 21.01.2020
4263 Clouds 16 1016 55 10000 3.1 340 09:59 21.01.2020
4264 Clouds 16 1016 55 10000 3.1 340 09:40 21.01.2020
4265 Clouds 15 1015 55 10000 3.1 330 09:21 21.01.2020
4266 Clouds 15 1015 59 10000 4.1 330 08:47 21.01.2020
4267 Clouds 15 1015 59 10000 3.6 330 08:27 21.01.2020
4268 Clouds 15 1015 59 10000 5.1 330 07:56 21.01.2020
4269 Clouds 15 1015 59 10000 5.1 330 07:37 21.01.2020
4270 Clouds 15 1015 59 10000 3.1 330 07:19 21.01.2020
4271 Clouds 15 1015 63 10000 3.6 340 06:44 21.01.2020
4272 Clouds 15 1015 63 10000 3.6 350 06:23 21.01.2020
4273 Clouds 15 1015 59 10000 5.1 340 05:41 21.01.2020
4274 Clouds 15 1015 59 10000 4.1 320 04:39 21.01.2020
4275 Clouds 15 1015 59 10000 4.1 320 04:39 21.01.2020
4276 Clouds 16 1016 67 10000 5.7 330 02:34 21.01.2020
4277 Clouds 15 1017 77 10000 5.7 330 01:37 21.01.2020
4278 Clouds 16 1017 67 10000 4.6 330 00:52 21.01.2020
4279 Clouds 16 1017 72 10000 8.7 350 00:29 21.01.2020
4280 Clouds 17 1017 55 10000 5.7 350 23:57 20.01.2020
4281 Clouds 17 1017 55 10000 5.7 350 23:36 20.01.2020
4282 Clouds 17 1017 59 10000 6.2 350 23:18 20.01.2020
4283 Clouds 17 1017 55 10000 8.7 350 22:55 20.01.2020
4284 Clouds 17 1017 55 10000 8.7 350 22:36 20.01.2020
4285 Clouds 17 1016 59 10000 7.2 350 22:18 20.01.2020
4286 Clouds 17 1016 55 10000 6.7 350 21:55 20.01.2020
4287 Clouds 17 1016 55 10000 6.7 350 21:36 20.01.2020
4288 Clouds 18 1016 55 10000 7.2 350 21:18 20.01.2020
4289 Clouds 18 1016 52 10000 6.2 350 20:43 20.01.2020
4290 Clouds 18 1016 55 10000 7.7 360 20:20 20.01.2020
4291 Clouds 18 1016 59 10000 8.7 360 19:59 20.01.2020
4292 Clouds 18 1016 59 10000 8.7 360 19:59 20.01.2020
4293 Clouds 18 1016 59 10000 8.7 360 19:41 20.01.2020
4294 Clouds 18 1016 59 10000 9.3 360 19:19 20.01.2020
4295 Clouds 19 1016 55 10000 8.2 350 18:56 20.01.2020
4296 Clouds 19 1016 55 10000 8.2 350 18:38 20.01.2020
4297 Clouds 19 1016 55 10000 8.2 350 18:19 20.01.2020
4298 Clouds 19 1016 55 10000 8.2 350 18:19 20.01.2020
4299 Clouds 19 1016 55 10000 10.3 360 17:38 20.01.2020
4300 Clouds 20 1015 56 10000 8.7 350 17:19 20.01.2020
4301 Clouds 20 1015 46 10000 9.3 350 16:46 20.01.2020
4302 Clouds 20 1015 49 10000 9.8 350 16:26 20.01.2020
4303 Clouds 20 1016 49 10000 9.8 340 15:59 20.01.2020
4304 Clouds 18 1016 49 10000 9.8 340 15:40 20.01.2020
4305 Clouds 18 1016 52 10000 9.8 350 15:22 20.01.2020
4306 Clouds 20 1016 49 10000 8.2 350 14:58 20.01.2020
4307 Clouds 18 1016 49 10000 8.2 350 14:39 20.01.2020
4308 Clouds 19 1017 52 10000 8.7 340 14:20 20.01.2020
4309 Clouds 19 1018 59 10000 9.3 330 13:44 20.01.2020
4310 Clouds 19 1018 55 10000 9.8 340 13:24 20.01.2020
4311 Clouds 19 1019 68 10000 9.3 330 12:58 20.01.2020
4312 Clouds 18 1019 68 10000 9.3 330 12:40 20.01.2020
4313 Drizzle 18 1019 63 10000 8.7 340 12:21 20.01.2020
4314 Clouds 18 1019 63 10000 7.7 340 11:54 20.01.2020
4315 Clouds 17 1019 63 10000 7.7 340 11:36 20.01.2020
4316 Clouds 18 1019 63 10000 8.2 340 11:18 20.01.2020
4317 Clouds 17 1019 67 10000 6.7 320 10:41 20.01.2020
4318 Drizzle 17 1019 63 10000 7.2 350 10:20 20.01.2020
4319 Clouds 17 1019 55 10000 7.7 340 09:41 20.01.2020
4320 Clouds 17 1019 59 10000 6.2 340 09:22 20.01.2020
4321 Clouds 17 1019 59 10000 6.2 340 08:54 20.01.2020
4322 Clouds 17 1019 59 10000 6.2 350 08:31 20.01.2020
4323 Clouds 17 1019 59 10000 6.2 350 07:55 20.01.2020
4324 Clouds 17 1019 59 10000 6.2 350 07:36 20.01.2020
4325 Clouds 17 1018 59 10000 9.3 340 07:18 20.01.2020
4326 Clouds 15 1018 63 10000 8.2 360 06:36 20.01.2020
4327 Clouds 16 1018 67 10000 9.8 10 05:56 20.01.2020
4328 Clouds 16 1018 67 10000 9.8 10 05:37 20.01.2020
4329 Clouds 16 1018 72 10000 7.7 360 05:18 20.01.2020
4330 Clouds 16 1019 77 10000 9.8 10 03:47 20.01.2020
4331 Drizzle 17 1021 88 8000 7.7 10 01:58 20.01.2020
4332 Drizzle 17 1021 88 8000 7.7 10 01:39 20.01.2020
4333 Clouds 17 1022 77 10000 8.7 10 00:55 20.01.2020
4334 Clouds 17 1022 68 10000 6.2 10 00:28 20.01.2020
4335 Clouds 17 1022 72 10000 6.2 360 23:56 19.01.2020
4336 Clouds 18 1022 72 10000 6.2 360 23:37 19.01.2020
4337 Clouds 18 1023 72 10000 6.2 360 23:18 19.01.2020
4338 Clouds 18 1023 72 10000 6.2 360 23:18 19.01.2020
4339 Clouds 18 1023 77 10000 7.2 10 22:55 19.01.2020
4340 Clouds 18 1023 77 10000 7.2 10 22:36 19.01.2020
4341 Clouds 17 1023 77 10000 8.2 20 22:18 19.01.2020
4342 Clouds 18 1023 77 10000 7.7 10 21:55 19.01.2020
4343 Clouds 17 1023 77 10000 7.7 10 21:55 19.01.2020
4344 Clouds 17 1023 77 10000 7.7 10 21:37 19.01.2020
4345 Clouds 17 1023 77 10000 7.7 10 21:19 19.01.2020
4346 Clouds 18 1023 77 10000 7.2 10 20:55 19.01.2020
4347 Clouds 18 1023 77 10000 7.2 10 20:55 19.01.2020
4348 Clouds 18 1023 77 10000 7.2 10 20:37 19.01.2020
4349 Clouds 18 1023 77 10000 7.2 360 20:18 19.01.2020
4350 Clouds 18 1022 77 10000 8.2 20 19:54 19.01.2020
4351 Clouds 18 1022 77 10000 8.2 20 19:36 19.01.2020
4352 Clouds 19 1023 72 10000 7.7 10 19:18 19.01.2020
4353 Clouds 19 1023 68 10000 7.7 10 18:54 19.01.2020
4354 Clouds 19 1023 68 10000 7.7 10 18:54 19.01.2020
4355 Clouds 19 1023 68 10000 7.7 10 18:36 19.01.2020
4356 Clouds 19 1023 68 10000 7.7 10 18:36 19.01.2020
4357 Clouds 20 1023 68 10000 9.3 10 18:18 19.01.2020
4358 Clouds 19 1023 64 10000 9.8 10 17:56 19.01.2020
4359 Clouds 20 1023 64 10000 9.8 10 17:37 19.01.2020
4360 Clouds 20 1023 49 10000 8.7 20 17:18 19.01.2020
4361 Clouds 22 1023 49 10000 7.7 20 16:54 19.01.2020
4362 Clouds 22 1023 49 10000 7.7 20 16:54 19.01.2020
4363 Clouds 20 1023 49 10000 7.7 20 16:36 19.01.2020
4364 Clouds 21 1023 64 10000 8.7 30 16:18 19.01.2020
4365 Clouds 21 1024 64 10000 8.2 20 15:40 19.01.2020
4366 Clouds 21 1024 60 10000 7.2 30 15:22 19.01.2020
4367 Clouds 21 1025 64 10000 6.2 30 14:59 19.01.2020
4368 Clouds 21 1025 64 10000 6.2 30 14:59 19.01.2020
4369 Clouds 22 1025 64 10000 6.2 30 14:40 19.01.2020
4370 Clear 21 1025 64 10000 6.2 40 14:19 19.01.2020
4371 Clear 21 1026 60 10000 6.2 40 13:58 19.01.2020
4372 Clear 21 1026 60 10000 6.2 40 13:38 19.01.2020
4373 Clear 21 1026 56 10000 5.7 40 13:20 19.01.2020
4374 Clear 21 1027 60 10000 5.7 20 12:56 19.01.2020
4375 Clear 20 1027 60 10000 5.7 20 12:37 19.01.2020
4376 Clear 20 1027 60 10000 5.7 30 12:19 19.01.2020
4377 Clear 22 1027 49 10000 4.6 20 11:56 19.01.2020
4378 Clear 21 1027 49 10000 4.6 20 11:37 19.01.2020
4379 Clear 20 1027 45 10000 5.1 360 11:18 19.01.2020
4380 Clear 19 1027 55 10000 5.1 350 10:39 19.01.2020
4381 Clear 18 1027 55 10000 5.7 360 10:19 19.01.2020
4382 Clear 18 1027 27 10000 4.1 360 09:56 19.01.2020
4383 Clear 18 1027 27 10000 4.1 360 09:56 19.01.2020
4384 Clear 18 1027 27 10000 4.1 360 09:56 19.01.2020
4385 Clear 18 1027 27 10000 4.1 360 09:37 19.01.2020
4386 Clear 16 1027 49 10000 4.1 20 09:19 19.01.2020
4387 Clear 17 1026 25 10000 2.6 340 08:54 19.01.2020
4388 Clear 17 1026 27 10000 3.1 330 08:30 19.01.2020
4389 Clear 17 1026 51 10000 3.1 340 07:46 19.01.2020
4390 Clear 19 1026 29 10000 3.6 340 07:27 19.01.2020
4391 Clear 18 1026 51 10000 3.6 340 06:54 19.01.2020
4392 Clear 18 1026 31 10000 4.6 350 06:21 19.01.2020
4393 Clear 17 1027 36 10000 3.6 340 03:51 19.01.2020
4394 Clear 19 1028 36 10000 4.6 340 02:28 19.01.2020
4395 Clear 18 1028 36 10000 5.1 350 01:38 19.01.2020
4396 Clear 19 1028 36 10000 4.6 350 01:18 19.01.2020
4397 Clear 18 1028 39 10000 5.7 350 00:41 19.01.2020
4398 Clear 18 1028 48 10000 6.2 340 00:19 19.01.2020
4399 Clear 19 1028 42 10000 7.2 340 23:41 18.01.2020
4400 Clear 19 1028 38 10000 5.7 360 23:23 18.01.2020
4401 Clear 19 1028 38 10000 5.7 360 23:23 18.01.2020
4402 Clear 18 1028 24 10000 5.7 350 22:56 18.01.2020
4403 Clear 19 1028 24 10000 5.7 350 22:38 18.01.2020
4404 Clear 19 1028 25 10000 5.7 340 22:20 18.01.2020
4405 Clear 18 1028 34 10000 5.1 350 21:57 18.01.2020
4406 Clear 18 1028 34 10000 5.1 350 21:38 18.01.2020
4407 Clear 18 1028 37 10000 5.1 10 21:20 18.01.2020
4408 Clear 18 1028 45 10000 4.6 20 20:44 18.01.2020
4409 Clear 18 1028 55 10000 4.1 20 20:22 18.01.2020
4410 Clear 18 1027 52 10000 4.6 30 19:59 18.01.2020
4411 Clear 19 1027 52 10000 4.6 30 19:41 18.01.2020
4412 Clear 20 1028 52 10000 5.1 30 19:22 18.01.2020
4413 Clear 20 1028 52 10000 4.1 30 18:43 18.01.2020
4414 Clear 21 1028 52 10000 3.6 50 18:24 18.01.2020
4415 Clear 20 1028 43 10000 3.1 50 17:56 18.01.2020
4416 Clear 22 1028 43 10000 3.1 50 17:38 18.01.2020
4417 Clear 20 1028 49 10000 2.6 80 17:19 18.01.2020
4418 Clear 20 1028 52 10000 3.1 80 16:55 18.01.2020
4419 Clear 20 1028 52 10000 3.1 80 16:36 18.01.2020
4420 Clear 22 1028 46 10000 2.6 90 16:18 18.01.2020
4421 Clear 20 1029 56 10000 2.6 80 15:42 18.01.2020
4422 Clear 22 1029 52 10000 2.1 100 15:24 18.01.2020
4423 Clear 21 1030 60 10000 2.1 90 14:57 18.01.2020
4424 Clear 20 1030 60 10000 2.1 90 14:39 18.01.2020
4425 Clear 21 1030 60 10000 2.1 100 14:18 18.01.2020
4426 Clear 20 1031 64 10000 2.6 80 13:44 18.01.2020
4427 Clear 20 1031 64 10000 2.1 90 13:26 18.01.2020
4428 Clear 20 1032 60 10000 2.1 80 12:58 18.01.2020
4429 Clear 20 1032 60 10000 2.1 80 12:39 18.01.2020
4430 Clear 20 1032 60 10000 1.5 80 12:20 18.01.2020
4431 Clear 19 1032 52 10000 2.1 90 11:44 18.01.2020
4432 Clear 20 1031 45 10000 2.1 0 11:22 18.01.2020
4433 Clear 20 1031 40 10000 1 0 10:57 18.01.2020
4434 Clear 19 1031 40 10000 1 0 10:38 18.01.2020
4435 Clear 17 1031 39 10000 2.1 320 10:20 18.01.2020
4436 Clear 17 1030 42 10000 3.1 310 09:48 18.01.2020
4437 Clear 16 1030 44 10000 3.1 310 09:30 18.01.2020
4438 Clear 16 1030 51 10000 2.6 310 08:56 18.01.2020
4439 Clear 17 1030 51 10000 2.6 310 08:38 18.01.2020
4440 Clear 17 1029 48 10000 2.6 290 08:19 18.01.2020
4441 Clear 16 1029 44 10000 2.6 320 07:47 18.01.2020
4442 Clear 17 1029 38 10000 3.1 320 07:29 18.01.2020
4443 Clear 16 1029 65 10000 3.1 340 06:47 18.01.2020
4444 Clear 16 1029 38 10000 3.1 340 05:59 18.01.2020
4445 Clear 17 1029 38 10000 4.1 320 05:21 18.01.2020
4446 Clear 17 1029 67 10000 5.1 340 02:55 18.01.2020
4447 Clear 16 1030 59 10000 5.7 350 01:54 18.01.2020
4448 Clear 16 1030 55 10000 6.2 350 01:30 18.01.2020
4449 Clear 18 1030 48 10000 5.7 350 00:37 18.01.2020
4450 Clear 17 1030 48 10000 6.2 340 00:18 18.01.2020
4451 Clear 16 1029 48 10000 5.7 350 23:41 17.01.2020
4452 Clear 17 1029 42 10000 5.7 350 23:20 17.01.2020
4453 Clear 17 1029 39 10000 4.6 350 22:45 17.01.2020
4454 Clear 17 1029 42 10000 3.1 340 22:22 17.01.2020
4455 Clear 18 1029 39 10000 4.1 340 21:59 17.01.2020
4456 Clear 18 1029 39 10000 4.1 340 21:41 17.01.2020
4457 Clear 17 1028 42 10000 3.1 330 21:22 17.01.2020
4458 Clear 17 1028 59 10000 3.1 340 20:57 17.01.2020
4459 Clear 17 1028 59 10000 3.1 340 20:38 17.01.2020
4460 Clear 18 1028 63 10000 2.6 350 20:20 17.01.2020
4461 Clear 18 1028 59 10000 1.5 20 19:55 17.01.2020
4462 Clear 18 1028 59 10000 1.5 20 19:37 17.01.2020
4463 Clear 19 1028 55 10000 2.1 70 19:18 17.01.2020
4464 Clear 19 1028 59 10000 2.1 80 18:47 17.01.2020
4465 Clear 20 1028 56 10000 1.5 80 18:28 17.01.2020
4466 Clear 20 1028 59 10000 2.6 80 17:56 17.01.2020
4467 Clear 20 1028 59 10000 2.6 80 17:38 17.01.2020
4468 Clear 20 1028 52 10000 2.6 80 17:20 17.01.2020
4469 Clear 20 1028 52 10000 2.1 80 16:42 17.01.2020
4470 Clear 20 1028 52 10000 2.1 80 16:42 17.01.2020
4471 Clear 20 1028 52 10000 2.6 90 16:20 17.01.2020
4472 Clear 20 1029 56 10000 2.6 80 15:49 17.01.2020
4473 Clear 20 1029 52 10000 3.1 90 15:28 17.01.2020
4474 Clear 20 1029 56 10000 2.1 80 14:59 17.01.2020
4475 Clear 20 1029 56 10000 2.1 80 14:40 17.01.2020
4476 Clear 20 1030 56 10000 2.1 90 14:22 17.01.2020
4477 Clear 20 1030 52 10000 2.6 90 13:42 17.01.2020
4478 Clear 20 1031 49 10000 3.1 90 13:22 17.01.2020
4479 Clear 20 1031 45 10000 2.1 0 12:46 17.01.2020
4480 Clear 20 1031 42 10000 1.5 10 12:23 17.01.2020
4481 Clear 19 1031 42 10000 2.1 30 11:41 17.01.2020
4482 Clear 19 1030 45 10000 1.5 350 11:20 17.01.2020
4483 Clear 18 1030 48 10000 1.5 320 10:56 17.01.2020
4484 Clear 18 1030 48 10000 1.5 320 10:37 17.01.2020
4485 Clear 17 1030 51 10000 2.6 300 10:19 17.01.2020
4486 Clear 17 1030 51 10000 2.1 290 09:43 17.01.2020
4487 Clear 16 1029 51 10000 2.1 300 09:21 17.01.2020
4488 Clear 15 1029 51 10000 3.1 300 08:56 17.01.2020
4489 Clear 16 1029 51 10000 3.1 300 08:38 17.01.2020
4490 Clear 16 1029 62 10000 3.6 300 08:19 17.01.2020
4491 Clear 15 1028 62 10000 3.1 310 07:43 17.01.2020
4492 Clear 15 1028 62 10000 3.1 320 07:25 17.01.2020
4493 Clear 15 1028 62 10000 3.1 320 06:51 17.01.2020
4494 Clear 15 1028 54 10000 3.6 330 06:30 17.01.2020
4495 Clear 17 1028 36 10000 4.1 350 04:27 17.01.2020
4496 Clear 16 1028 45 10000 4.1 340 02:56 17.01.2020
4497 Clear 15 1028 45 10000 4.1 340 02:32 17.01.2020
4498 Clouds 16 1028 47 10000 4.1 340 01:44 17.01.2020
4499 Clouds 16 1028 53 10000 3.6 330 01:22 17.01.2020
4500 Clouds 16 1028 53 0 2.24 320 00:37 17.01.2020
4501 Clouds 16 1028 44 10000 3.1 330 00:19 17.01.2020
4502 Clouds 16 1028 44 10000 3.1 330 23:41 16.01.2020
4503 Clouds 16 1028 44 10000 3.1 330 23:22 16.01.2020
4504 Clouds 16 1028 48 10000 3.1 320 22:41 16.01.2020
4505 Clouds 16 1028 55 10000 2.1 320 22:21 16.01.2020
4506 Clouds 17 1028 51 10000 2.6 320 21:57 16.01.2020
4507 Clouds 17 1028 51 10000 2.6 320 21:38 16.01.2020
4508 Clouds 17 1027 55 10000 2.1 320 21:19 16.01.2020
4509 Clouds 17 1027 55 10000 2.1 320 21:19 16.01.2020
4510 Clouds 18 1027 52 10000 1 0 20:57 16.01.2020
4511 Clouds 18 1027 52 10000 1 0 20:38 16.01.2020
4512 Clear 18 1027 52 10000 1.5 40 20:19 16.01.2020
4513 Clear 19 1027 48 10000 2.1 30 19:56 16.01.2020
4514 Clear 19 1027 48 10000 2.1 30 19:37 16.01.2020
4515 Clear 19 1027 52 10000 2.1 70 19:19 16.01.2020
4516 Clear 19 1027 52 10000 2.1 70 19:19 16.01.2020
4517 Clear 19 1026 52 10000 2.1 90 18:55 16.01.2020
4518 Clear 19 1026 52 10000 2.1 90 18:37 16.01.2020
4519 Clear 20 1026 49 10000 2.1 90 18:18 16.01.2020
4520 Clear 20 1026 52 10000 2.1 110 17:42 16.01.2020
4521 Clear 20 1026 45 10000 2.6 110 17:23 16.01.2020
4522 Clear 20 1026 49 10000 3.1 130 16:57 16.01.2020
4523 Clear 20 1026 49 10000 3.1 130 16:39 16.01.2020
4524 Clear 20 1026 42 10000 3.1 140 16:19 16.01.2020
4525 Clear 19 1026 49 10000 3.1 140 15:44 16.01.2020
4526 Clear 20 1026 52 10000 3.6 140 15:23 16.01.2020
4527 Clear 19 1027 52 10000 3.6 130 14:57 16.01.2020
4528 Clear 20 1027 52 10000 3.6 130 14:39 16.01.2020
4529 Clear 19 1027 52 10000 3.1 140 14:20 16.01.2020
4530 Clear 19 1027 60 10000 2.6 130 13:45 16.01.2020
4531 Clear 19 1027 60 10000 2.1 110 13:26 16.01.2020
4532 Clear 19 1028 60 10000 2.1 110 12:47 16.01.2020
4533 Clear 20 1028 60 10000 1.5 100 12:29 16.01.2020
4534 Clear 19 1028 60 10000 1.5 100 12:29 16.01.2020
4535 Clear 20 1027 56 10000 1 0 11:59 16.01.2020
4536 Clear 20 1027 56 10000 1 0 11:41 16.01.2020
4537 Clear 19 1027 59 10000 1 0 11:23 16.01.2020
4538 Clear 18 1027 63 10000 1 0 10:55 16.01.2020
4539 Clear 18 1027 63 10000 1 0 10:36 16.01.2020
4540 Clear 17 1026 67 10000 2.6 290 10:18 16.01.2020
4541 Clear 16 1026 67 10000 2.1 280 09:42 16.01.2020
4542 Clear 15 1025 62 10000 2.6 270 09:24 16.01.2020
4543 Clear 15 1025 58 10000 2.6 280 08:56 16.01.2020
4544 Clear 15 1025 58 10000 2.6 280 08:36 16.01.2020
4545 Clear 15 1025 47 10000 2.6 290 08:18 16.01.2020
4546 Clear 15 1025 44 10000 2.6 300 07:42 16.01.2020
4547 Clear 15 1025 38 10000 2.6 300 07:23 16.01.2020
4548 Clear 14 1024 44 10000 2.1 290 06:46 16.01.2020
4549 Clear 15 1024 44 10000 1.5 270 06:28 16.01.2020
4550 Clear 15 1024 58 10000 3.1 280 05:46 16.01.2020
4551 Clear 15 1024 67 10000 2.1 270 04:46 16.01.2020
4552 Clear 15 1024 58 10000 2.1 290 03:29 16.01.2020
4553 Clear 15 1024 54 10000 2.1 290 02:44 16.01.2020
4554 Clear 16 1024 29 10000 0.5 0 01:24 16.01.2020
4555 Clear 16 1024 29 10000 2.6 250 00:41 16.01.2020
4556 Clear 16 1024 30 10000 2.6 250 00:19 16.01.2020
4557 Clear 16 1024 36 10000 2.6 260 23:40 15.01.2020
4558 Clear 16 1024 38 10000 2.1 260 23:20 15.01.2020
4559 Clear 16 1024 38 10000 2.1 260 23:19 15.01.2020
4560 Clear 16 1024 51 10000 2.1 250 22:56 15.01.2020
4561 Clear 16 1024 51 10000 2.1 250 22:36 15.01.2020
4562 Clear 16 1024 51 10000 1.5 240 22:18 15.01.2020
4563 Clear 17 1024 45 10000 1 0 21:55 15.01.2020
4564 Clear 17 1024 45 10000 1 0 21:36 15.01.2020
4565 Clear 17 1024 51 10000 1 0 21:18 15.01.2020
4566 Clear 17 1023 55 10000 1.86 141 20:54 15.01.2020
4567 Clear 17 1023 55 10000 1.86 141 20:36 15.01.2020
4568 Clear 18 1023 55 10000 2.29 139 20:18 15.01.2020
4569 Clear 18 1023 52 10000 0.5 0 19:54 15.01.2020
4570 Clear 17 1023 52 10000 0.5 0 19:36 15.01.2020
4571 Clear 19 1023 48 10000 1.5 150 19:18 15.01.2020
4572 Clear 17 1023 52 10000 1.5 140 18:54 15.01.2020
4573 Clear 17 1023 52 10000 1.5 140 18:36 15.01.2020
4574 Clear 20 1022 45 10000 2.6 140 18:18 15.01.2020
4575 Clear 18 1022 49 10000 3.1 130 17:40 15.01.2020
4576 Clear 18 1022 52 10000 4.1 140 17:21 15.01.2020
4577 Clear 18 1022 49 10000 4.1 140 16:56 15.01.2020
4578 Clear 20 1022 49 10000 4.1 140 16:38 15.01.2020
4579 Clear 19 1022 52 10000 4.1 150 16:20 15.01.2020
4580 Clear 21 1022 46 10000 4.1 140 15:43 15.01.2020
4581 Clear 19 1022 45 10000 4.6 150 15:20 15.01.2020
4582 Clear 18 1023 49 10000 4.1 150 14:55 15.01.2020
4583 Clear 18 1023 49 10000 4.1 150 14:37 15.01.2020
4584 Clear 18 1023 49 10000 4.1 150 14:37 15.01.2020
4585 Clear 20 1023 45 10000 4.1 160 14:18 15.01.2020
4586 Clouds 18 1024 52 10000 4.1 150 13:41 15.01.2020
4587 Clouds 19 1024 56 10000 3.6 150 13:23 15.01.2020
4588 Clear 19 1024 52 10000 3.1 150 12:55 15.01.2020
4589 Clear 20 1024 52 10000 3.1 150 12:37 15.01.2020
4590 Clear 20 1024 52 10000 2.6 160 12:18 15.01.2020
4591 Clear 20 1024 52 10000 2.6 160 12:18 15.01.2020
4592 Clear 20 1024 49 10000 2.1 160 11:38 15.01.2020
4593 Clear 19 1024 55 10000 1 0 11:20 15.01.2020
4594 Clear 19 1023 52 10000 1 0 10:58 15.01.2020
4595 Clear 19 1023 52 10000 1 0 10:40 15.01.2020
4596 Clear 17 1023 55 10000 2.6 260 10:21 15.01.2020
4597 Clear 15 1023 62 10000 3.1 260 09:41 15.01.2020
4598 Clear 15 1023 67 10000 3.1 260 09:21 15.01.2020
4599 Clear 15 1023 62 10000 3.1 260 08:45 15.01.2020
4600 Clear 15 1022 62 10000 3.6 270 08:26 15.01.2020
4601 Clouds 15 1022 58 10000 2.6 250 07:56 15.01.2020
4602 Clouds 15 1022 54 10000 2.6 250 07:33 15.01.2020
4603 Clouds 15 1021 47 10000 3.1 250 06:54 15.01.2020
4604 Clouds 15 1021 54 10000 1.5 270 06:32 15.01.2020
4605 Clouds 16 1022 36 10000 2.1 240 05:32 15.01.2020
4606 Clouds 15 1022 42 10000 1.6 169 03:20 15.01.2020
4607 Clear 16 1022 30 10000 1.36 220 01:49 15.01.2020
4608 Clear 16 1022 29 10000 2.1 250 01:22 15.01.2020
4609 Clear 15 1022 33 10000 1.5 250 00:37 15.01.2020
4610 Clear 16 1022 48 10000 1.5 230 00:19 15.01.2020
4611 Clear 15 1022 38 10000 1.5 230 23:47 14.01.2020
4612 Clear 16 1022 38 10000 2.6 240 23:28 14.01.2020
4613 Clear 16 1022 44 10000 2.1 210 22:58 14.01.2020
4614 Clear 16 1022 44 10000 2.1 210 22:40 14.01.2020
4615 Clear 16 1021 48 10000 2.6 240 22:19 14.01.2020
4616 Clear 17 1021 48 10000 2.1 260 21:57 14.01.2020
4617 Clear 17 1021 51 10000 2.6 240 21:39 14.01.2020
4618 Clear 17 1021 51 10000 2.6 240 21:19 14.01.2020
4619 Clear 17 1021 51 10000 3.6 210 20:54 14.01.2020
4620 Clear 17 1021 51 10000 3.6 210 20:36 14.01.2020
4621 Clear 17 1021 48 10000 4.6 180 20:18 14.01.2020
4622 Clear 18 1021 48 10000 4.6 180 19:55 14.01.2020
4623 Clear 18 1021 48 10000 4.6 180 19:36 14.01.2020
4624 Clear 19 1021 52 10000 5.1 180 19:18 14.01.2020
4625 Clear 19 1021 45 10000 6.2 190 18:40 14.01.2020
4626 Clear 20 1020 42 10000 6.2 170 18:20 14.01.2020
4627 Clear 20 1020 42 10000 6.2 170 17:55 14.01.2020
4628 Clear 20 1020 42 10000 5.7 170 17:36 14.01.2020
4629 Clear 20 1020 42 10000 5.7 170 17:18 14.01.2020
4630 Clear 20 1020 37 10000 6.7 190 16:42 14.01.2020
4631 Clear 20 1021 40 10000 7.2 170 16:22 14.01.2020
4632 Clear 19 1021 46 10000 7.7 160 15:56 14.01.2020
4633 Clear 19 1021 46 10000 7.7 160 15:38 14.01.2020
4634 Clear 21 1021 46 10000 7.2 160 15:18 14.01.2020
4635 Clear 21 1021 46 10000 7.2 160 15:18 14.01.2020
4636 Clear 20 1021 46 10000 6.2 170 14:43 14.01.2020
4637 Clear 20 1022 37 10000 6.2 190 14:20 14.01.2020
4638 Clear 20 1022 43 10000 6.2 190 13:54 14.01.2020
4639 Clear 20 1022 43 10000 6.2 190 13:36 14.01.2020
4640 Clear 20 1023 40 10000 6.2 170 13:18 14.01.2020
4641 Clear 20 1023 42 10000 6.2 180 12:40 14.01.2020
4642 Clear 20 1023 40 10000 5.7 180 12:20 14.01.2020
4643 Clear 20 1023 40 10000 5.7 180 12:20 14.01.2020
4644 Clear 20 1023 40 10000 5.7 180 12:20 14.01.2020
4645 Clear 20 1023 42 10000 5.1 190 11:43 14.01.2020
4646 Clear 20 1023 45 10000 4.6 200 11:23 14.01.2020
4647 Clear 19 1022 48 10000 3.6 210 10:59 14.01.2020
4648 Clear 19 1022 48 10000 3.6 210 10:39 14.01.2020
4649 Clear 18 1022 52 10000 3.6 220 10:20 14.01.2020
4650 Clear 16 1022 63 10000 3.6 220 09:57 14.01.2020
4651 Clear 16 1022 63 10000 3.6 220 09:39 14.01.2020
4652 Clouds 16 1022 63 10000 3.6 220 09:20 14.01.2020
4653 Clear 16 1021 67 10000 3.1 220 08:46 14.01.2020
4654 Clear 16 1021 67 10000 3.6 230 08:24 14.01.2020
4655 Clear 16 1020 67 10000 3.1 250 07:53 14.01.2020
4656 Clear 16 1020 67 10000 2.6 240 07:33 14.01.2020
4657 Clear 16 1020 67 10000 3.1 250 06:54 14.01.2020
4658 Clear 16 1020 67 10000 2.6 250 06:33 14.01.2020
4659 Clear 16 1020 59 10000 2.6 250 05:27 14.01.2020
4660 Clear 15 1021 72 10000 3.1 260 03:52 14.01.2020
4661 Clear 16 1022 72 10000 2.6 260 02:43 14.01.2020
4662 Clear 16 1022 68 10000 3.1 130 01:53 14.01.2020
4663 Clear 17 1022 36 10000 2.6 220 00:51 14.01.2020
4664 Clear 16 1022 40 10000 2.6 200 00:32 14.01.2020
4665 Clear 18 1022 36 10000 3.1 160 23:55 13.01.2020
4666 Clear 18 1022 36 10000 3.1 160 23:37 13.01.2020
4667 Clear 17 1022 27 10000 2.1 230 23:18 13.01.2020
4668 Clear 17 1022 38 10000 2.1 220 22:42 13.01.2020
4669 Clear 17 1022 38 10000 2.1 210 22:21 13.01.2020
4670 Clear 17 1022 38 10000 2.1 210 21:56 13.01.2020
4671 Clear 18 1022 38 10000 2.1 210 21:38 13.01.2020
4672 Clear 18 1022 33 10000 2.6 200 21:19 13.01.2020
4673 Clear 18 1022 34 10000 3.1 210 20:58 13.01.2020
4674 Clear 18 1022 34 10000 3.1 210 20:40 13.01.2020
4675 Clear 19 1022 34 10000 3.6 220 20:22 13.01.2020
4676 Clear 20 1021 34 10000 4.1 210 19:58 13.01.2020
4677 Clear 20 1021 34 10000 4.1 210 19:39 13.01.2020
4678 Clear 20 1021 42 10000 4.6 200 19:19 13.01.2020
4679 Clear 20 1021 45 10000 5.1 180 18:56 13.01.2020
4680 Clear 20 1021 45 10000 5.1 180 18:37 13.01.2020
4681 Clear 20 1021 45 10000 5.1 180 18:37 13.01.2020
4682 Clear 20 1021 45 10000 6.2 180 18:18 13.01.2020
4683 Clear 20 1021 45 10000 6.2 180 18:18 13.01.2020
4684 Clear 19 1021 43 10000 6.2 180 17:40 13.01.2020
4685 Clear 19 1021 49 10000 6.2 170 17:22 13.01.2020
4686 Clear 19 1021 49 10000 6.2 170 17:22 13.01.2020
4687 Clear 19 1022 45 10000 6.7 170 16:56 13.01.2020
4688 Clear 20 1022 45 10000 6.7 170 16:38 13.01.2020
4689 Clouds 20 1022 49 10000 5.7 160 16:19 13.01.2020
4690 Clear 19 1023 46 0 3.58 180 15:44 13.01.2020
4691 Clear 21 1013 52 0 5.36 170 15:23 13.01.2020
4692 Clear 21 1022 57 0 0.45 156 14:58 13.01.2020
4693 Clear 18 1024 50 0 4.47 202 14:38 13.01.2020
4694 Clear 18 1024 45 0 3.58 192 14:19 13.01.2020
4695 Clear 18 1025 44 0 4.92 212 13:42 13.01.2020
4696 Clear 19 1024 67 0 1.79 118 13:24 13.01.2020
4697 Clear 18 1024 63 10000 1 0 12:59 13.01.2020
4698 Clear 18 1024 63 10000 1 0 12:41 13.01.2020
4699 Clear 20 1024 63 10000 1 0 12:22 13.01.2020
4700 Clear 20 1024 63 10000 1 0 11:57 13.01.2020
4701 Clear 20 1024 63 10000 1 0 11:37 13.01.2020
4702 Clear 20 1024 63 10000 0.5 0 11:19 13.01.2020
4703 Clear 18 1024 68 10000 1 0 10:55 13.01.2020
4704 Clear 18 1024 67 10000 2.6 300 10:37 13.01.2020
4705 Clear 18 1024 67 10000 2.6 300 10:19 13.01.2020
4706 Clear 17 1024 72 10000 3.1 300 09:43 13.01.2020
4707 Clouds 17 1024 72 10000 3.1 320 09:23 13.01.2020
4708 Clouds 16 1023 72 10000 3.1 320 08:44 13.01.2020
4709 Clouds 16 1023 72 10000 3.1 320 08:24 13.01.2020
4710 Clear 16 1023 72 10000 2.6 320 07:59 13.01.2020
4711 Clear 16 1023 72 10000 2.6 320 07:59 13.01.2020
4712 Clear 16 1023 72 10000 2.6 320 07:41 13.01.2020
4713 Clear 16 1023 67 10000 2.6 330 07:19 13.01.2020
4714 Clear 17 1022 67 10000 4.1 330 06:37 13.01.2020
4715 Clear 15 1023 67 10000 3.6 340 05:37 13.01.2020
4716 Clear 15 1023 67 10000 4.1 340 04:26 13.01.2020
4717 Clear 15 1023 67 10000 4.1 340 03:35 13.01.2020
4718 Clear 18 1024 63 10000 4.6 340 02:49 13.01.2020
4719 Clear 16 1023 59 10000 5.7 350 02:30 13.01.2020
4720 Clear 16 1023 59 10000 5.7 350 02:30 13.01.2020
4721 Clear 18 1024 59 10000 5.1 350 01:33 13.01.2020
4722 Clear 18 1024 59 10000 4.1 340 00:44 13.01.2020
4723 Clear 16 1024 59 10000 4.6 330 00:25 13.01.2020
4724 Clear 18 1025 55 10000 5.1 340 23:57 12.01.2020
4725 Clear 16 1025 55 10000 5.1 340 23:38 12.01.2020
4726 Clear 16 1024 51 10000 4.6 340 23:20 12.01.2020
4727 Clear 18 1024 48 10000 5.1 340 22:43 12.01.2020
4728 Clear 18 1024 45 10000 4.1 330 22:24 12.01.2020
4729 Clear 17 1024 51 10000 3.1 340 21:59 12.01.2020
4730 Clear 17 1024 51 10000 3.1 340 21:59 12.01.2020
4731 Clear 17 1024 51 10000 3.1 340 21:40 12.01.2020
4732 Clear 17 1025 55 10000 3.1 320 21:20 12.01.2020
4733 Clear 17 1025 55 10000 2.6 30 20:57 12.01.2020
4734 Clear 17 1025 55 10000 2.6 30 20:39 12.01.2020
4735 Clouds 18 1025 59 10000 2.6 50 20:20 12.01.2020
4736 Clouds 18 1024 55 10000 3.6 20 19:56 12.01.2020
4737 Clouds 18 1024 55 10000 3.6 20 19:38 12.01.2020
4738 Clouds 19 1024 52 10000 3.1 50 19:19 12.01.2020
4739 Clouds 19 1024 52 10000 3.6 60 18:57 12.01.2020
4740 Clouds 19 1024 52 10000 3.6 60 18:39 12.01.2020
4741 Clouds 18 1024 55 10000 3.6 80 18:21 12.01.2020
4742 Clouds 18 1024 49 10000 2.6 50 17:56 12.01.2020
4743 Clouds 18 1024 49 10000 2.6 50 17:37 12.01.2020
4744 Clouds 20 1023 52 10000 3.1 60 17:18 12.01.2020
4745 Clouds 19 1023 52 10000 3.6 80 16:55 12.01.2020
4746 Clouds 19 1023 52 10000 3.6 80 16:55 12.01.2020
4747 Clouds 19 1023 56 10000 3.6 40 16:37 12.01.2020
4748 Clouds 19 1023 56 10000 3.6 40 16:18 12.01.2020
4749 Clouds 19 1023 56 10000 4.1 50 15:42 12.01.2020
4750 Clouds 20 1024 56 10000 4.6 60 15:24 12.01.2020
4751 Clouds 20 1024 56 10000 4.6 60 15:24 12.01.2020
4752 Clouds 19 1025 56 10000 4.6 60 14:56 12.01.2020
4753 Clouds 19 1025 56 10000 4.6 60 14:37 12.01.2020
4754 Clouds 21 1025 52 10000 6.2 60 14:18 12.01.2020
4755 Clouds 20 1026 52 10000 6.7 50 13:42 12.01.2020
4756 Clouds 18 1026 59 10000 6.7 50 13:23 12.01.2020
4757 Clouds 20 1026 52 10000 7.7 30 12:58 12.01.2020
4758 Clouds 20 1027 49 10000 7.2 40 12:38 12.01.2020
4759 Clouds 20 1027 49 10000 7.2 40 12:19 12.01.2020
4760 Clouds 19 1027 49 10000 6.7 40 11:55 12.01.2020
4761 Clouds 19 1027 49 10000 6.7 40 11:36 12.01.2020
4762 Clouds 19 1026 52 10000 7.2 30 11:18 12.01.2020
4763 Clouds 18 1026 52 10000 5.7 10 10:41 12.01.2020
4764 Clouds 17 1025 59 10000 5.7 360 10:21 12.01.2020
4765 Clouds 17 1025 52 10000 7.2 10 09:55 12.01.2020
4766 Clouds 17 1025 52 10000 7.2 10 09:37 12.01.2020
4767 Clouds 17 1025 55 10000 6.7 10 09:18 12.01.2020
4768 Clouds 17 1024 55 10000 6.7 10 08:42 12.01.2020
4769 Clouds 17 1024 55 10000 10.8 20 08:19 12.01.2020
4770 Clouds 17 1024 63 10000 10.3 30 07:39 12.01.2020
4771 Clouds 17 1024 63 10000 9.3 20 07:21 12.01.2020
4772 Clouds 17 1024 63 10000 7.7 20 06:43 12.01.2020
4773 Clouds 17 1024 68 10000 5.1 360 06:19 12.01.2020
4774 Clouds 17 1025 68 10000 6.2 10 05:21 12.01.2020
4775 Clouds 17 1025 63 10000 7.7 10 03:45 12.01.2020
4776 Clouds 17 1025 68 10000 7.7 20 03:22 12.01.2020
4777 Clouds 17 1025 77 10000 4.6 350 02:30 12.01.2020
4778 Clouds 17 1026 67 10000 5.1 360 01:42 12.01.2020
4779 Clouds 18 1026 63 10000 5.7 340 01:21 12.01.2020
4780 Clouds 18 1026 63 10000 5.7 340 01:21 12.01.2020
4781 Clouds 17 1026 72 10000 4.6 340 00:40 12.01.2020
4782 Clouds 17 1026 77 10000 5.7 340 00:19 12.01.2020
4783 Clouds 17 1026 77 10000 4.6 360 23:42 11.01.2020
4784 Clouds 18 1025 63 10000 6.7 340 23:19 11.01.2020
4785 Clouds 17 1025 67 10000 6.2 340 22:57 11.01.2020
4786 Clouds 17 1025 67 10000 6.2 340 22:39 11.01.2020
4787 Clouds 18 1025 63 10000 7.2 350 22:20 11.01.2020
4788 Clouds 18 1025 63 10000 6.7 350 21:55 11.01.2020
4789 Clouds 18 1025 63 10000 6.7 350 21:37 11.01.2020
4790 Clouds 18 1025 63 10000 8.2 360 21:18 11.01.2020
4791 Clouds 18 1025 55 10000 6.7 350 20:40 11.01.2020
4792 Clouds 18 1025 59 10000 8.7 10 20:22 11.01.2020
4793 Clouds 18 1024 63 10000 8.2 10 19:58 11.01.2020
4794 Clouds 18 1024 63 10000 8.2 10 19:38 11.01.2020
4795 Clouds 18 1024 63 10000 8.2 10 19:38 11.01.2020
4796 Clouds 18 1024 63 10000 8.2 10 19:38 11.01.2020
4797 Clouds 18 1024 63 10000 9.8 20 19:20 11.01.2020
4798 Clouds 18 1024 68 10000 8.7 10 18:57 11.01.2020
4799 Clouds 19 1024 68 10000 8.7 10 18:38 11.01.2020
4800 Clouds 18 1024 77 10000 6.7 350 18:19 11.01.2020
4801 Clouds 19 1024 63 10000 6.2 350 17:57 11.01.2020
4802 Clouds 19 1024 63 10000 6.2 350 17:39 11.01.2020
4803 Clouds 19 1024 63 10000 7.7 350 17:19 11.01.2020
4804 Clouds 20 1024 60 10000 10.3 10 16:44 11.01.2020
4805 Clouds 20 1024 56 10000 9.3 20 16:26 11.01.2020
4806 Clouds 16 1025 56 10000 9.8 20 15:58 11.01.2020
4807 Clouds 20 1025 56 10000 9.8 20 15:40 11.01.2020
4808 Clouds 20 1025 60 10000 9.8 20 15:20 11.01.2020
4809 Clouds 20 1025 60 10000 9.8 20 14:56 11.01.2020
4810 Clouds 20 1025 60 10000 9.8 20 14:37 11.01.2020
4811 Clouds 18 1026 63 10000 8.7 20 14:19 11.01.2020
4812 Clouds 20 1026 56 10000 6.7 360 13:39 11.01.2020
4813 Clouds 18 1027 52 10000 9.3 10 13:20 11.01.2020
4814 Clouds 20 1027 52 10000 10.3 20 12:56 11.01.2020
4815 Clouds 20 1027 52 10000 10.3 20 12:38 11.01.2020
4816 Clouds 18 1027 56 10000 8.7 20 12:20 11.01.2020
4817 Clouds 17 1027 68 10000 7.2 10 11:45 11.01.2020
4818 Clouds 17 1027 55 10000 7.2 340 11:24 11.01.2020
4819 Clouds 19 1027 55 10000 6.2 350 10:50 11.01.2020
4820 Clouds 18 1026 59 10000 7.2 360 10:30 11.01.2020
4821 Clouds 16 1026 59 10000 8.2 350 09:44 11.01.2020
4822 Clouds 16 1026 59 10000 7.7 350 09:21 11.01.2020
4823 Clouds 16 1026 59 10000 7.7 350 09:21 11.01.2020
4824 Clouds 16 1026 59 10000 7.7 350 09:21 11.01.2020
4825 Clouds 16 1026 59 10000 7.7 350 09:21 11.01.2020
4826 Clouds 16 1026 59 10000 7.7 350 09:21 11.01.2020
4827 Clouds 17 1026 59 10000 6.7 360 08:59 11.01.2020
4828 Clouds 16 1026 59 10000 6.7 360 08:41 11.01.2020
4829 Clouds 16 1026 59 10000 7.2 350 08:20 11.01.2020
4830 Clouds 16 1026 59 10000 7.7 10 07:43 11.01.2020
4831 Clouds 17 1026 55 10000 9.8 10 07:24 11.01.2020
4832 Clouds 15 1025 59 10000 8.7 10 06:45 11.01.2020
4833 Clouds 17 1026 68 10000 8.2 360 05:31 11.01.2020
4834 Clouds 17 1026 72 10000 7.2 360 04:43 11.01.2020
4835 Clouds 17 1026 72 10000 7.7 10 04:25 11.01.2020
4836 Clouds 17 1027 77 10000 8.2 10 02:48 11.01.2020
4837 Clouds 15 1027 82 10000 6.7 350 01:48 11.01.2020
4838 Clouds 17 1027 82 10000 7.2 360 01:30 11.01.2020
4839 Rain 18 1027 72 10000 7.7 10 00:58 11.01.2020
4840 Rain 18 1027 72 10000 7.7 10 00:58 11.01.2020
4841 Clouds 17 1028 72 10000 6.7 10 00:29 11.01.2020
4842 Clouds 18 1028 68 10000 7.2 10 23:59 10.01.2020
4843 Clouds 18 1028 68 10000 7.2 10 23:39 10.01.2020
4844 Clouds 18 1028 68 10000 7.2 360 23:20 10.01.2020
4845 Clouds 19 1027 68 10000 8.7 10 22:54 10.01.2020
4846 Clouds 19 1027 68 10000 8.7 10 22:36 10.01.2020
4847 Clouds 19 1027 68 10000 6.7 10 22:18 10.01.2020
4848 Clouds 19 1027 72 10000 7.7 10 21:41 10.01.2020
4849 Clouds 19 1027 68 10000 6.7 10 21:21 10.01.2020
4850 Clouds 19 1027 52 10000 6.7 360 20:59 10.01.2020
4851 Clouds 20 1027 52 10000 6.7 360 20:41 10.01.2020
4852 Clouds 19 1027 59 10000 7.2 10 20:23 10.01.2020
4853 Clouds 19 1027 68 10000 8.2 10 19:41 10.01.2020
4854 Clouds 20 1027 64 10000 8.7 10 19:21 10.01.2020
4855 Clouds 20 1026 64 10000 9.3 10 18:57 10.01.2020
4856 Clouds 20 1026 64 10000 9.3 10 18:39 10.01.2020
4857 Clouds 20 1027 64 10000 9.8 360 18:18 10.01.2020
4858 Clouds 20 1026 64 10000 7.2 360 17:56 10.01.2020
4859 Clouds 20 1026 64 10000 7.2 360 17:38 10.01.2020
4860 Clouds 20 1026 64 10000 10.3 10 17:19 10.01.2020
4861 Clouds 20 1026 64 10000 10.3 10 17:19 10.01.2020
4862 Clouds 21 1026 64 10000 9.8 20 16:43 10.01.2020
4863 Clouds 21 1027 60 10000 10.8 20 16:22 10.01.2020
4864 Clouds 21 1027 60 10000 11.3 20 15:58 10.01.2020
4865 Clouds 21 1027 60 10000 11.3 20 15:39 10.01.2020
4866 Clouds 20 1027 64 10000 10.3 20 15:20 10.01.2020
4867 Clouds 20 1027 64 10000 10.3 10 14:59 10.01.2020
4868 Clouds 21 1027 64 10000 10.3 10 14:41 10.01.2020
4869 Clouds 20 1027 64 10000 10.8 20 14:20 10.01.2020
4870 Clouds 20 1028 68 10000 9.8 20 13:58 10.01.2020
4871 Clouds 20 1028 68 10000 9.8 20 13:39 10.01.2020
4872 Clouds 20 1028 72 10000 9.8 20 13:21 10.01.2020
4873 Clouds 20 1029 77 10000 10.3 20 12:57 10.01.2020
4874 Clouds 20 1029 77 10000 10.3 20 12:38 10.01.2020
4875 Clouds 19 1029 82 10000 9.8 10 12:18 10.01.2020
4876 Clouds 19 1029 88 10000 9.8 30 11:42 10.01.2020
4877 Clouds 19 1029 88 10000 9.8 30 11:42 10.01.2020
4878 Clouds 19 1028 77 10000 7.2 360 11:22 10.01.2020
4879 Rain 18 1028 88 6000 9.8 30 10:59 10.01.2020
4880 Rain 18 1028 88 6000 9.8 30 10:39 10.01.2020
4881 Clouds 18 1028 77 10000 7.7 360 10:21 10.01.2020
4882 Clouds 17 1027 77 10000 7.7 350 09:56 10.01.2020
4883 Clouds 17 1027 77 10000 7.7 350 09:37 10.01.2020
4884 Clouds 16 1027 77 10000 7.7 350 09:19 10.01.2020
4885 Clouds 16 1027 77 10000 7.7 350 09:19 10.01.2020
4886 Clouds 16 1027 82 10000 8.2 340 08:40 10.01.2020
4887 Rain 17 1027 72 8000 7.7 360 08:22 10.01.2020
4888 Clouds 17 1027 68 10000 7.7 360 07:44 10.01.2020
4889 Clouds 17 1027 77 10000 6.2 360 07:23 10.01.2020
4890 Clouds 17 1027 77 10000 8.7 20 06:45 10.01.2020
4891 Clouds 17 1027 72 10000 7.2 360 06:25 10.01.2020
4892 Clouds 17 1027 72 10000 8.2 10 05:44 10.01.2020
4893 Clouds 17 1028 63 10000 7.2 10 03:35 10.01.2020
4894 Clouds 15 1028 63 10000 8.7 10 02:58 10.01.2020
4895 Clouds 14 1028 63 10000 8.7 10 02:37 10.01.2020
4896 Clouds 17 1028 63 10000 7.7 360 01:38 10.01.2020
4897 Clouds 17 1029 59 10000 7.7 360 00:57 10.01.2020
4898 Clouds 17 1029 59 10000 7.7 360 00:38 10.01.2020
4899 Clouds 17 1029 59 10000 8.7 10 23:57 09.01.2020
4900 Clouds 17 1029 59 10000 8.7 10 23:38 09.01.2020
4901 Clouds 17 1029 59 10000 8.7 10 23:38 09.01.2020
4902 Clouds 17 1029 59 10000 8.7 10 23:38 09.01.2020
4903 Clouds 17 1029 59 10000 8.7 10 23:38 09.01.2020
4904 Clouds 17 1029 59 10000 8.7 10 23:38 09.01.2020
4905 Clouds 17 1029 59 10000 11.8 20 23:19 09.01.2020
4906 Clouds 18 1029 59 10000 9.3 360 22:57 09.01.2020
4907 Clouds 18 1029 52 10000 8.2 360 22:37 09.01.2020
4908 Clouds 18 1029 52 10000 8.2 360 22:18 09.01.2020
4909 Clouds 18 1028 55 10000 9.8 10 21:56 09.01.2020
4910 Clouds 18 1028 55 10000 9.8 10 21:37 09.01.2020
4911 Clouds 18 1028 55 10000 9.8 10 21:37 09.01.2020
4912 Clouds 18 1028 63 10000 10.3 10 21:37 09.01.2020
4913 Clouds 18 1028 63 10000 10.3 10 21:18 09.01.2020
4914 Clouds 18 1028 59 10000 10.3 10 20:55 09.01.2020
4915 Clouds 18 1028 59 10000 10.3 10 20:37 09.01.2020
4916 Clouds 19 1028 59 10000 9.8 10 20:19 09.01.2020
4917 Clouds 19 1027 63 10000 9.3 10 19:39 09.01.2020
4918 Clouds 19 1027 63 10000 9.3 10 19:21 09.01.2020
4919 Clouds 19 1027 59 10000 10.3 10 18:59 09.01.2020
4920 Clouds 20 1027 52 10000 9.8 10 18:40 09.01.2020
4921 Clouds 20 1027 52 10000 9.8 10 18:21 09.01.2020
4922 Clouds 20 1027 52 10000 10.8 20 17:57 09.01.2020
4923 Clouds 20 1027 52 10000 10.8 10 17:39 09.01.2020
4924 Clouds 20 1027 52 10000 10.8 10 17:18 09.01.2020
4925 Clouds 20 1027 56 10000 11.8 10 16:42 09.01.2020
4926 Clouds 21 1027 49 10000 11.8 20 16:21 09.01.2020
4927 Clouds 21 1027 49 10000 11.3 20 15:43 09.01.2020
4928 Clouds 21 1027 49 10000 11.3 20 15:23 09.01.2020
4929 Clouds 21 1028 49 10000 10.8 10 14:59 09.01.2020
4930 Clouds 21 1028 49 10000 10.8 10 14:41 09.01.2020
4931 Clouds 20 1028 49 10000 11.3 10 14:19 09.01.2020
4932 Clouds 21 1029 46 10000 11.8 10 13:55 09.01.2020
4933 Clouds 21 1029 49 10000 10.8 10 13:37 09.01.2020
4934 Clouds 20 1029 49 10000 10.8 10 13:19 09.01.2020
4935 Clouds 20 1029 49 10000 9.8 20 12:56 09.01.2020
4936 Clouds 20 1029 49 10000 9.8 20 12:56 09.01.2020
4937 Clouds 20 1029 52 10000 9.8 20 12:38 09.01.2020
4938 Clouds 20 1029 52 10000 9.8 20 12:18 09.01.2020
4939 Clouds 20 1029 60 10000 9.3 10 11:42 09.01.2020
4940 Clouds 20 1029 56 10000 8.7 20 11:24 09.01.2020
4941 Clouds 19 1028 59 10000 9.3 10 10:58 09.01.2020
4942 Clouds 19 1028 55 10000 8.2 10 10:39 09.01.2020
4943 Clouds 18 1028 55 10000 8.2 10 10:21 09.01.2020
4944 Clouds 17 1028 63 10000 7.2 10 09:46 09.01.2020
4945 Clouds 16 1027 67 10000 5.7 360 09:23 09.01.2020
4946 Clouds 16 1027 63 10000 5.7 360 08:57 09.01.2020
4947 Clouds 16 1027 72 10000 5.1 360 08:38 09.01.2020
4948 Clouds 16 1027 72 10000 5.1 360 08:20 09.01.2020
4949 Clouds 16 1027 72 10000 5.1 360 08:20 09.01.2020
4950 Clouds 16 1027 72 10000 5.7 360 07:47 09.01.2020
4951 Clouds 16 1027 72 10000 5.1 350 07:28 09.01.2020
4952 Clouds 16 1027 63 10000 8.7 20 06:40 09.01.2020
4953 Clouds 17 1027 63 10000 8.7 20 06:22 09.01.2020
4954 Clouds 17 1027 68 10000 7.7 20 05:51 09.01.2020
4955 Clouds 17 1027 67 10000 5.1 360 05:18 09.01.2020
4956 Clouds 17 1027 67 10000 4.1 340 04:38 09.01.2020
4957 Clouds 18 1028 63 10000 5.1 10 03:27 09.01.2020
4958 Clouds 17 1028 63 10000 5.7 20 02:46 09.01.2020
4959 Clouds 17 1028 63 10000 7.2 20 01:42 09.01.2020
4960 Clouds 17 1028 68 10000 8.7 20 00:57 09.01.2020
4961 Clouds 17 1028 63 10000 5.1 350 00:37 09.01.2020
4962 Clouds 17 1028 63 10000 5.1 350 00:19 09.01.2020
4963 Clouds 18 1028 63 10000 7.7 20 23:39 08.01.2020
4964 Clouds 17 1028 63 10000 7.7 20 23:20 08.01.2020
4965 Clouds 17 1028 59 10000 8.2 20 22:40 08.01.2020
4966 Clouds 18 1028 59 10000 8.2 20 22:22 08.01.2020
4967 Clouds 18 1028 63 10000 8.2 20 21:59 08.01.2020
4968 Clouds 18 1028 63 10000 8.7 20 21:40 08.01.2020
4969 Clouds 18 1028 63 10000 8.7 20 21:20 08.01.2020
4970 Clouds 18 1027 63 10000 8.2 20 20:59 08.01.2020
4971 Clouds 18 1027 63 10000 8.2 20 20:41 08.01.2020
4972 Clouds 18 1027 63 10000 8.2 20 20:21 08.01.2020
4973 Clouds 19 1027 59 10000 9.3 20 19:58 08.01.2020
4974 Clouds 19 1027 63 10000 8.2 20 19:38 08.01.2020
4975 Clouds 19 1027 63 10000 8.2 20 19:19 08.01.2020
4976 Clouds 19 1027 63 10000 7.7 30 18:57 08.01.2020
4977 Clouds 19 1027 59 10000 8.2 20 18:38 08.01.2020
4978 Clouds 19 1027 59 10000 8.2 20 18:18 08.01.2020
4979 Clouds 20 1026 56 10000 7.7 30 17:56 08.01.2020
4980 Clouds 20 1026 60 10000 7.2 30 17:37 08.01.2020
4981 Clouds 20 1026 60 10000 7.2 30 17:18 08.01.2020
4982 Clouds 20 1026 60 10000 7.2 30 17:18 08.01.2020
4983 Clouds 21 1026 60 10000 7.2 30 16:55 08.01.2020
4984 Clouds 21 1026 56 10000 6.7 40 16:37 08.01.2020
4985 Clouds 21 1026 56 10000 6.7 40 16:18 08.01.2020
4986 Clouds 21 1027 52 10000 6.2 30 15:42 08.01.2020
4987 Clouds 21 1027 52 10000 6.2 30 15:21 08.01.2020
4988 Clouds 21 1027 56 10000 6.2 50 14:57 08.01.2020
4989 Clouds 20 1028 64 10000 6.2 40 14:39 08.01.2020
4990 Clouds 20 1028 64 10000 6.2 40 14:20 08.01.2020
4991 Clouds 19 1029 64 10000 5.7 70 13:40 08.01.2020
4992 Clouds 20 1029 64 10000 5.7 70 13:19 08.01.2020
4993 Clouds 20 1029 60 10000 5.7 50 12:43 08.01.2020
4994 Clouds 19 1029 64 10000 6.2 60 12:20 08.01.2020
4995 Clouds 19 1029 60 10000 6.2 60 11:59 08.01.2020
4996 Clouds 19 1029 60 10000 6.2 60 11:41 08.01.2020
4997 Clouds 19 1028 63 10000 6.2 50 11:19 08.01.2020
4998 Clouds 19 1028 59 10000 6.2 40 10:56 08.01.2020
4999 Clouds 18 1028 63 10000 6.2 40 10:37 08.01.2020
5000 Clouds 18 1028 63 10000 6.2 40 10:19 08.01.2020
5001 Clouds 17 1027 68 10000 5.7 40 09:42 08.01.2020
5002 Clouds 17 1027 63 10000 6.2 40 09:20 08.01.2020
5003 Clouds 17 1027 67 10000 6.2 30 08:57 08.01.2020
5004 Clouds 17 1026 63 10000 7.2 20 08:37 08.01.2020
5005 Clouds 17 1026 63 10000 7.2 20 08:19 08.01.2020
5006 Clouds 17 1026 63 10000 7.7 30 07:49 08.01.2020
5007 Clouds 17 1026 67 10000 6.7 20 07:30 08.01.2020
5008 Clouds 17 1026 63 10000 7.7 30 06:49 08.01.2020
5009 Clouds 17 1026 63 10000 7.7 30 06:25 08.01.2020
5010 Clouds 17 1026 63 10000 7.2 20 05:53 08.01.2020
5011 Clouds 17 1026 63 10000 7.2 20 05:53 08.01.2020
5012 Clouds 17 1027 63 10000 7.7 40 04:59 08.01.2020
5013 Clouds 17 1027 68 10000 7.2 40 04:26 08.01.2020
5014 Clouds 17 1027 68 10000 6.7 30 02:45 08.01.2020
5015 Clouds 17 1027 68 10000 6.7 30 02:45 08.01.2020
5016 Clouds 17 1027 68 10000 7.7 20 02:23 08.01.2020
5017 Clouds 17 1027 68 10000 7.7 20 01:50 08.01.2020
5018 Clouds 17 1027 63 10000 7.2 10 01:23 08.01.2020
5019 Clouds 17 1027 68 10000 8.2 20 00:38 08.01.2020
5020 Clouds 17 1027 68 10000 8.2 20 00:20 08.01.2020
5021 Clouds 18 1027 68 10000 8.2 30 23:43 07.01.2020
5022 Clouds 18 1027 68 10000 8.7 20 23:20 07.01.2020
5023 Clouds 18 1027 68 10000 8.7 20 23:20 07.01.2020
5024 Clouds 18 1027 72 10000 7.7 20 22:40 07.01.2020
5025 Clouds 18 1027 72 10000 7.7 20 22:20 07.01.2020
5026 Clouds 18 1027 72 10000 8.2 20 21:57 07.01.2020
5027 Clouds 18 1026 68 10000 7.7 20 21:38 07.01.2020
5028 Clouds 19 1026 68 10000 7.7 20 21:20 07.01.2020
5029 Clouds 19 1026 68 10000 6.7 30 20:55 07.01.2020
5030 Clouds 19 1026 68 10000 6.2 30 20:37 07.01.2020
5031 Clouds 19 1026 68 10000 6.2 30 20:19 07.01.2020
5032 Clouds 19 1026 68 10000 6.7 20 19:38 07.01.2020
5033 Clouds 19 1026 68 10000 6.7 20 19:20 07.01.2020
5034 Clouds 20 1025 64 10000 5.7 20 18:58 07.01.2020
5035 Clouds 20 1025 60 10000 5.7 20 18:40 07.01.2020
5036 Clouds 20 1025 60 10000 5.7 20 18:19 07.01.2020
5037 Clouds 20 1026 60 10000 6.2 30 17:58 07.01.2020
5038 Clouds 20 1026 56 10000 5.7 10 17:39 07.01.2020
5039 Clouds 20 1026 56 10000 5.7 10 17:39 07.01.2020
5040 Clouds 20 1026 56 10000 5.7 10 17:20 07.01.2020
5041 Clouds 21 1026 56 10000 5.7 30 16:56 07.01.2020
5042 Clouds 21 1026 60 10000 5.7 20 16:37 07.01.2020
5043 Clouds 21 1026 60 10000 5.7 20 16:37 07.01.2020
5044 Clouds 21 1026 60 10000 5.7 20 16:19 07.01.2020
5045 Clouds 21 1026 56 10000 5.7 30 15:57 07.01.2020
5046 Clouds 21 1026 60 10000 5.7 20 15:37 07.01.2020
5047 Clouds 21 1026 60 10000 5.7 20 15:18 07.01.2020
5048 Clouds 20 1026 60 10000 5.1 40 14:42 07.01.2020
5049 Clouds 21 1027 56 10000 5.7 40 14:23 07.01.2020
5050 Clouds 20 1027 56 10000 5.7 50 13:56 07.01.2020
5051 Clouds 20 1027 60 10000 5.7 50 13:38 07.01.2020
5052 Clouds 20 1027 60 10000 5.7 50 13:18 07.01.2020
5053 Clouds 20 1028 56 10000 6.7 50 12:41 07.01.2020
5054 Clouds 19 1028 60 10000 6.2 40 12:19 07.01.2020
5055 Clouds 19 1028 59 10000 6.2 60 11:44 07.01.2020
5056 Clouds 19 1027 59 10000 6.2 50 11:23 07.01.2020
5057 Clouds 19 1027 59 10000 6.2 50 11:23 07.01.2020
5058 Clouds 19 1027 59 10000 6.2 60 10:59 07.01.2020
5059 Clouds 18 1027 63 10000 6.2 60 10:40 07.01.2020
5060 Clouds 18 1027 63 10000 6.2 60 10:22 07.01.2020
5061 Clouds 17 1026 59 10000 6.2 60 09:56 07.01.2020
5062 Clouds 17 1026 67 10000 6.2 50 09:37 07.01.2020
5063 Clouds 17 1026 67 10000 6.2 50 09:19 07.01.2020
5064 Clouds 17 1025 67 10000 6.2 50 08:41 07.01.2020
5065 Clouds 17 1025 67 10000 6.2 50 08:41 07.01.2020
5066 Clouds 17 1025 67 10000 6.7 40 08:21 07.01.2020
5067 Clouds 17 1024 67 10000 6.7 40 07:51 07.01.2020
5068 Clouds 17 1024 63 10000 6.7 50 07:25 07.01.2020
5069 Clouds 18 1024 63 10000 7.2 40 06:52 07.01.2020
5070 Clouds 17 1024 67 10000 6.2 40 06:32 07.01.2020
5071 Clouds 18 1024 68 10000 6.7 30 05:46 07.01.2020
5072 Clouds 17 1024 72 10000 5.1 350 03:52 07.01.2020
5073 Clouds 18 1024 68 10000 6.7 10 03:25 07.01.2020
5074 Clouds 18 1025 68 10000 7.7 10 02:21 07.01.2020
5075 Clouds 18 1025 68 10000 7.2 10 01:45 07.01.2020
5076 Clouds 18 1025 63 10000 8.2 10 01:21 07.01.2020
5077 Clouds 18 1026 68 10000 9.3 30 00:21 07.01.2020
5078 Clouds 18 1025 72 10000 9.8 20 23:58 06.01.2020
5079 Clouds 18 1026 68 10000 10.3 20 23:39 06.01.2020
5080 Clouds 18 1026 68 10000 10.3 20 23:21 06.01.2020
5081 Clouds 18 1025 72 10000 9.8 10 22:56 06.01.2020
5082 Clouds 17 1025 82 10000 8.2 10 22:37 06.01.2020
5083 Clouds 17 1025 82 10000 8.2 10 22:18 06.01.2020
5084 Clouds 18 1025 68 10000 9.3 10 21:54 06.01.2020
5085 Clouds 18 1024 59 10000 6.7 360 21:36 06.01.2020
5086 Clouds 18 1024 59 10000 6.7 360 21:18 06.01.2020
5087 Clouds 18 1024 68 10000 7.7 360 20:54 06.01.2020
5088 Clouds 18 1024 68 10000 6.7 360 20:36 06.01.2020
5089 Clouds 18 1024 68 10000 6.7 360 20:18 06.01.2020
5090 Clouds 18 1024 68 10000 6.7 360 20:18 06.01.2020
5091 Clouds 19 1024 63 10000 8.2 360 19:54 06.01.2020
5092 Clouds 19 1024 59 10000 8.7 360 19:36 06.01.2020
5093 Clouds 19 1024 59 10000 8.7 360 19:18 06.01.2020
5094 Clouds 20 1024 56 10000 8.2 360 18:41 06.01.2020
5095 Clouds 20 1024 56 10000 9.8 360 18:19 06.01.2020
5096 Clouds 20 1024 60 10000 9.8 30 17:39 06.01.2020
5097 Clouds 20 1024 60 10000 9.8 30 17:19 06.01.2020
5098 Clouds 20 1024 60 10000 9.8 20 16:55 06.01.2020
5099 Clouds 21 1024 56 10000 10.3 20 16:37 06.01.2020
5100 Clouds 21 1024 56 10000 10.3 20 16:18 06.01.2020
5101 Clouds 20 1024 52 10000 10.8 30 15:43 06.01.2020
5102 Clouds 20 1024 60 10000 9.8 20 15:21 06.01.2020
5103 Clouds 21 1025 52 10000 10.3 20 14:59 06.01.2020
5104 Clouds 21 1025 52 10000 10.3 20 14:41 06.01.2020
5105 Clouds 21 1025 56 10000 9.8 20 14:21 06.01.2020
5106 Clouds 21 1025 56 10000 9.8 20 14:21 06.01.2020
5107 Clouds 21 1026 52 10000 9.3 360 13:58 06.01.2020
5108 Clouds 20 1026 49 10000 9.8 10 13:38 06.01.2020
5109 Clouds 20 1026 49 10000 9.8 10 13:20 06.01.2020
5110 Clouds 20 1027 49 10000 8.7 10 12:44 06.01.2020
5111 Clouds 20 1027 49 10000 9.8 10 12:21 06.01.2020
5112 Clouds 20 1027 49 10000 10.3 10 11:59 06.01.2020
5113 Clouds 20 1027 49 10000 10.3 10 11:41 06.01.2020
5114 Clouds 20 1027 52 10000 9.3 10 11:23 06.01.2020
5115 Clouds 19 1027 59 10000 8.2 10 10:57 06.01.2020
5116 Clouds 18 1026 55 10000 9.3 10 10:39 06.01.2020
5117 Clouds 18 1026 55 10000 9.3 10 10:20 06.01.2020
5118 Clouds 18 1026 55 10000 9.3 10 10:20 06.01.2020
5119 Clouds 17 1026 59 10000 7.7 360 09:39 06.01.2020
5120 Clouds 17 1026 59 10000 7.7 360 09:20 06.01.2020
5121 Clouds 18 1026 48 10000 6.2 360 08:48 06.01.2020
5122 Clouds 17 1026 52 10000 8.7 10 08:30 06.01.2020
5123 Clouds 17 1026 55 10000 8.7 10 07:53 06.01.2020
5124 Clouds 17 1026 59 10000 8.7 10 07:33 06.01.2020
5125 Drizzle 17 1026 68 10000 4.6 360 06:46 06.01.2020
5126 Clouds 17 1026 68 10000 6.2 10 06:23 06.01.2020
5127 Clouds 17 1025 68 10000 6.2 350 05:45 06.01.2020
5128 Clouds 17 1025 68 10000 4.1 360 04:38 06.01.2020
5129 Clouds 17 1025 68 10000 4.1 360 04:19 06.01.2020
5130 Clouds 15 1026 68 10000 5.7 20 02:46 06.01.2020
5131 Clouds 17 1026 68 10000 5.7 10 02:24 06.01.2020
5132 Clouds 17 1026 72 10000 6.2 20 01:44 06.01.2020
5133 Clouds 17 1026 68 10000 6.7 20 01:26 06.01.2020
5134 Clouds 15 1027 68 10000 6.7 20 00:42 06.01.2020
5135 Clouds 17 1027 72 10000 3.6 360 00:23 06.01.2020
5136 Clouds 15 1027 68 10000 4.6 360 23:42 05.01.2020
5137 Clouds 15 1027 68 10000 4.6 360 23:42 05.01.2020
5138 Drizzle 17 1027 68 10000 4.6 350 23:22 05.01.2020
5139 Clouds 18 1026 68 10000 4.6 360 22:56 05.01.2020
5140 Clouds 18 1026 63 10000 5.7 350 22:38 05.01.2020
5141 Clouds 18 1026 63 10000 5.7 350 22:19 05.01.2020
5142 Clouds 18 1026 63 10000 5.1 360 21:54 05.01.2020
5143 Clouds 18 1026 68 10000 5.1 340 21:36 05.01.2020
5144 Clouds 18 1026 68 10000 5.1 340 21:18 05.01.2020
5145 Clouds 18 1026 68 10000 5.1 360 20:55 05.01.2020
5146 Clouds 18 1026 68 10000 5.1 360 20:55 05.01.2020
5147 Clouds 18 1025 68 10000 5.1 360 20:36 05.01.2020
5148 Clouds 18 1025 68 10000 5.1 360 20:18 05.01.2020
5149 Clouds 19 1025 68 10000 6.2 360 19:54 05.01.2020
5150 Clouds 19 1025 68 10000 6.2 360 19:54 05.01.2020
5151 Clouds 17 1025 68 10000 7.7 20 19:36 05.01.2020
5152 Clouds 19 1025 68 10000 7.7 20 19:18 05.01.2020
5153 Clouds 20 1025 64 10000 7.2 20 18:54 05.01.2020
5154 Clouds 20 1025 64 10000 7.2 20 18:54 05.01.2020
5155 Clouds 18 1025 64 10000 7.2 30 18:36 05.01.2020
5156 Clouds 20 1025 64 10000 7.2 30 18:18 05.01.2020
5157 Clouds 19 1025 60 10000 7.7 30 17:40 05.01.2020
5158 Clouds 19 1025 60 10000 7.7 30 17:21 05.01.2020
5159 Clouds 19 1025 56 10000 7.7 30 16:58 05.01.2020
5160 Clouds 19 1025 52 10000 7.2 30 16:40 05.01.2020
5161 Clouds 19 1025 52 10000 7.2 30 16:20 05.01.2020
5162 Clouds 19 1025 52 10000 7.2 30 15:41 05.01.2020
5163 Clouds 19 1025 52 10000 7.7 30 15:22 05.01.2020
5164 Clouds 19 1025 52 10000 7.7 30 15:22 05.01.2020
5165 Clouds 20 1025 52 10000 6.7 40 14:58 05.01.2020
5166 Clouds 19 1026 60 10000 5.7 40 14:40 05.01.2020
5167 Clouds 19 1026 60 10000 5.7 40 14:22 05.01.2020
5168 Clouds 19 1027 64 10000 7.2 30 13:59 05.01.2020
5169 Clouds 20 1027 60 10000 7.2 10 13:39 05.01.2020
5170 Clouds 20 1027 60 10000 7.2 10 13:20 05.01.2020
5171 Clouds 19 1027 52 10000 6.2 30 12:57 05.01.2020
5172 Clouds 19 1028 56 10000 6.2 30 12:38 05.01.2020
5173 Clouds 18 1028 56 10000 6.2 30 12:20 05.01.2020
5174 Clouds 18 1028 52 10000 5.7 10 11:54 05.01.2020
5175 Clouds 18 1028 55 10000 5.7 350 11:36 05.01.2020
5176 Clouds 19 1028 55 10000 5.7 350 11:18 05.01.2020
5177 Clouds 17 1027 59 10000 6.2 340 10:41 05.01.2020
5178 Clouds 16 1027 59 10000 6.2 340 10:20 05.01.2020
5179 Clouds 16 1027 59 10000 5.1 340 09:55 05.01.2020
5180 Clouds 15 1027 59 10000 5.1 330 09:36 05.01.2020
5181 Clouds 15 1027 59 10000 5.1 330 09:18 05.01.2020
5182 Clouds 15 1026 63 10000 6.7 340 08:44 05.01.2020
5183 Clouds 15 1026 63 10000 6.7 340 08:21 05.01.2020
5184 Clouds 16 1026 59 10000 5.7 340 07:44 05.01.2020
5185 Clouds 16 1026 59 10000 5.7 340 07:44 05.01.2020
5186 Clouds 15 1026 67 10000 4.6 360 07:26 05.01.2020
5187 Clouds 15 1026 63 10000 5.7 360 06:55 05.01.2020
5188 Clouds 15 1027 63 10000 5.7 350 05:43 05.01.2020
5189 Clouds 15 1027 63 10000 6.2 350 04:56 05.01.2020
5190 Clouds 16 1027 67 10000 5.7 340 04:19 05.01.2020
5191 Clouds 15 1027 63 10000 6.2 350 03:38 05.01.2020
5192 Clouds 16 1028 63 10000 5.7 350 02:35 05.01.2020
5193 Clouds 15 1028 67 10000 5.7 350 01:52 05.01.2020
5194 Clouds 16 1028 67 10000 5.7 350 01:20 05.01.2020
5195 Clouds 16 1028 67 10000 5.7 350 00:57 05.01.2020
5196 Clouds 17 1028 63 10000 5.7 350 00:39 05.01.2020
5197 Clouds 16 1028 63 10000 5.7 350 00:20 05.01.2020
5198 Clouds 17 1029 63 10000 5.1 350 23:42 04.01.2020
5199 Clouds 17 1029 63 10000 5.1 350 23:42 04.01.2020
5200 Clouds 17 1028 63 10000 4.6 340 23:21 04.01.2020
5201 Clouds 17 1028 63 10000 4.6 340 22:59 04.01.2020
5202 Clouds 17 1028 63 10000 4.6 330 22:39 04.01.2020
5203 Clouds 16 1028 63 10000 4.6 330 22:20 04.01.2020
5204 Clouds 18 1028 63 10000 4.1 340 21:56 04.01.2020
5205 Clouds 17 1028 67 10000 3.6 330 21:37 04.01.2020
5206 Clouds 17 1028 67 10000 3.6 330 21:19 04.01.2020
5207 Clouds 17 1028 72 10000 3.6 340 20:55 04.01.2020
5208 Clouds 17 1027 68 10000 4.1 360 20:36 04.01.2020
5209 Clouds 17 1027 68 10000 4.1 360 20:36 04.01.2020
5210 Clouds 18 1027 68 10000 4.1 360 20:18 04.01.2020
5211 Clouds 18 1027 68 10000 3.6 20 19:41 04.01.2020
5212 Clouds 18 1027 68 10000 3.6 20 19:41 04.01.2020
5213 Clouds 18 1027 72 10000 2.6 20 19:23 04.01.2020
5214 Clouds 18 1027 68 10000 2.6 50 18:57 04.01.2020
5215 Clouds 18 1027 68 10000 2.1 80 18:38 04.01.2020
5216 Clouds 19 1027 68 10000 2.1 80 18:19 04.01.2020
5217 Clouds 18 1027 63 10000 2.1 0 17:55 04.01.2020
5218 Clouds 18 1027 63 10000 2.6 80 17:37 04.01.2020
5219 Clouds 19 1027 63 10000 2.6 80 17:18 04.01.2020
5220 Clouds 20 1027 64 10000 2.6 80 16:41 04.01.2020
5221 Clouds 18 1027 60 10000 2.1 80 16:23 04.01.2020
5222 Clouds 18 1028 63 10000 2.6 90 15:57 04.01.2020
5223 Clouds 19 1028 60 10000 3.6 80 15:38 04.01.2020
5224 Clouds 20 1028 60 10000 3.6 80 15:19 04.01.2020
5225 Clouds 20 1029 63 10000 2.6 100 14:55 04.01.2020
5226 Clouds 20 1029 63 10000 2.6 100 14:55 04.01.2020
5227 Clouds 19 1029 60 10000 3.1 100 14:36 04.01.2020
5228 Clouds 19 1029 60 10000 3.1 100 14:18 04.01.2020
5229 Clouds 20 1029 60 10000 3.6 90 13:54 04.01.2020
5230 Clouds 19 1030 60 10000 3.1 70 13:36 04.01.2020
5231 Clouds 19 1030 60 10000 3.1 70 13:18 04.01.2020
5232 Clouds 19 1030 60 10000 3.1 60 12:41 04.01.2020
5233 Clouds 18 1030 60 10000 3.1 20 12:19 04.01.2020
5234 Clouds 18 1031 63 10000 3.6 20 11:57 04.01.2020
5235 Clouds 18 1030 63 10000 3.6 350 11:38 04.01.2020
5236 Clouds 18 1030 63 10000 3.6 350 11:19 04.01.2020
5237 Clouds 18 1030 68 10000 3.6 340 10:42 04.01.2020
5238 Clouds 18 1030 63 10000 3.1 320 10:23 04.01.2020
5239 Clouds 16 1030 67 10000 3.1 310 09:57 04.01.2020
5240 Clouds 16 1029 67 10000 3.1 300 09:39 04.01.2020
5241 Clouds 15 1029 67 10000 3.1 300 09:20 04.01.2020
5242 Clear 16 1029 67 10000 3.1 320 08:40 04.01.2020
5243 Clear 16 1029 67 10000 3.1 320 08:20 04.01.2020
5244 Clear 15 1029 62 10000 3.1 310 07:42 04.01.2020
5245 Clear 15 1029 59 10000 3.1 310 07:19 04.01.2020
5246 Clear 15 1029 55 10000 3.1 310 06:33 04.01.2020
5247 Clear 15 1029 51 10000 3.1 300 05:19 04.01.2020
5248 Clear 16 1029 55 10000 3.1 310 04:34 04.01.2020
5249 Clear 16 1029 55 10000 3.6 310 03:52 04.01.2020
5250 Clear 16 1029 58 10000 3.6 320 03:18 04.01.2020
5251 Clear 16 1029 54 10000 3.6 320 02:21 04.01.2020
5252 Clear 16 1029 54 10000 3.6 320 02:21 04.01.2020
5253 Clear 16 1030 54 10000 3.6 330 01:55 04.01.2020
5254 Clear 16 1030 51 10000 3.6 330 01:31 04.01.2020
5255 Clear 17 1030 48 10000 3.1 340 00:43 04.01.2020
5256 Clear 17 1030 48 10000 3.6 340 00:23 04.01.2020
5257 Clear 17 1030 44 10000 4.1 330 23:44 03.01.2020
5258 Clear 17 1029 41 10000 3.6 330 23:25 03.01.2020
5259 Clear 17 1029 39 10000 4.1 320 22:41 03.01.2020
5260 Clear 17 1029 39 10000 4.1 330 22:20 03.01.2020
5261 Clear 17 1029 33 10000 3.6 330 21:59 03.01.2020
5262 Clear 17 1029 33 10000 3.1 330 21:38 03.01.2020
5263 Clear 17 1029 33 10000 3.1 330 21:19 03.01.2020
5264 Clear 17 1029 36 10000 3.1 320 20:58 03.01.2020
5265 Clear 17 1029 48 10000 3.1 320 20:40 03.01.2020
5266 Clear 17 1029 48 10000 3.1 320 20:18 03.01.2020
5267 Clear 18 1029 45 10000 2.1 30 19:56 03.01.2020
5268 Clear 18 1028 45 10000 2.1 50 19:37 03.01.2020
5269 Clear 19 1028 45 10000 2.1 50 19:19 03.01.2020
5270 Clear 19 1028 45 10000 2.1 70 18:43 03.01.2020
5271 Clear 19 1028 45 10000 2.1 80 18:24 03.01.2020
5272 Clear 17 1028 45 10000 1.5 70 17:55 03.01.2020
5273 Clear 18 1028 45 10000 2.1 80 17:37 03.01.2020
5274 Clear 18 1028 45 10000 2.1 80 17:37 03.01.2020
5275 Clear 18 1028 45 10000 2.1 80 17:18 03.01.2020
5276 Clear 19 1028 42 10000 2.1 100 16:42 03.01.2020
5277 Clear 19 1028 42 10000 2.1 100 16:23 03.01.2020
5278 Clear 18 1028 45 10000 3.1 100 15:57 03.01.2020
5279 Clear 18 1029 42 10000 3.6 110 15:38 03.01.2020
5280 Clear 19 1029 42 10000 3.6 110 15:18 03.01.2020
5281 -273 0 0 0 0 0 14:38 03.01.2020
5282 Clear 19 1030 45 10000 4.1 110 14:19 03.01.2020
5283 Clear 18 1031 48 10000 4.6 120 13:44 03.01.2020
5284 Clear 19 1030 42 10000 4.6 120 13:44 03.01.2020
5285 Clear 19 1030 42 10000 4.6 120 13:44 03.01.2020
5286 Clear 19 1031 48 10000 4.6 120 13:24 03.01.2020
5287 Clouds 20 1031 42 10000 4.6 120 12:59 03.01.2020
5288 Clouds 19 1031 42 10000 4.6 130 12:39 03.01.2020
5289 Clouds 19 1031 42 10000 4.6 130 12:21 03.01.2020
5290 Clouds 19 1031 45 10000 4.1 120 11:45 03.01.2020
5291 Clouds 19 1031 42 10000 5.1 120 11:21 03.01.2020
5292 Clouds 17 1030 42 10000 4.6 120 10:45 03.01.2020
5293 Clouds 17 1030 42 10000 4.6 120 10:26 03.01.2020
5294 Clouds 17 1029 42 10000 4.6 120 09:58 03.01.2020
5295 Clouds 17 1029 45 10000 4.1 120 09:39 03.01.2020
5296 Clouds 17 1029 45 10000 4.1 120 09:21 03.01.2020
5297 Clouds 17 1029 42 10000 4.1 110 08:57 03.01.2020
5298 Clouds 17 1029 45 10000 4.6 120 08:38 03.01.2020
5299 Clouds 17 1029 45 10000 4.6 120 08:19 03.01.2020
5300 Clouds 17 1028 48 10000 4.6 120 07:40 03.01.2020
5301 Clouds 17 1028 48 10000 4.6 120 07:18 03.01.2020
5302 Clouds 17 1028 48 10000 4.6 130 06:49 03.01.2020
5303 Clouds 17 1028 48 10000 4.6 130 06:49 03.01.2020
5304 Clouds 17 1028 48 10000 4.6 120 06:30 03.01.2020
5305 Clouds 17 1028 48 10000 5.1 120 05:45 03.01.2020
5306 Clouds 17 1028 55 10000 1.5 0 04:22 03.01.2020
5307 Clouds 16 1028 48 10000 3.1 310 02:56 03.01.2020
5308 Clouds 16 1028 44 10000 3.6 310 02:33 03.01.2020
5309 Clouds 17 1028 44 10000 3.6 320 01:44 03.01.2020
5310 Clouds 17 1028 41 10000 3.1 310 00:50 03.01.2020
5311 Clouds 17 1028 41 10000 3.1 320 00:31 03.01.2020
5312 Clouds 17 1028 38 10000 3.1 310 23:56 02.01.2020
5313 Clouds 17 1028 38 10000 3.1 320 23:38 02.01.2020
5314 Clouds 17 1028 38 10000 3.1 320 23:19 02.01.2020
5315 Clouds 17 1028 38 10000 3.6 300 22:57 02.01.2020
5316 Clouds 16 1028 36 10000 3.1 320 22:38 02.01.2020
5317 Clouds 17 1028 36 10000 3.1 320 22:18 02.01.2020
5318 Clouds 17 1028 38 10000 2.6 300 21:41 02.01.2020
5319 Clouds 16 1028 38 10000 3.1 290 21:23 02.01.2020
5320 Clouds 16 1027 41 10000 2.1 300 20:59 02.01.2020
5321 Clouds 16 1027 41 10000 2.1 300 20:59 02.01.2020
5322 Clouds 16 1027 41 10000 2.1 300 20:59 02.01.2020
5323 Clouds 17 1027 42 10000 1 0 20:39 02.01.2020
5324 Clouds 16 1027 42 10000 1 0 20:21 02.01.2020
5325 Clouds 16 1027 42 10000 1 0 20:21 02.01.2020
5326 Clouds 16 1027 39 10000 2.1 80 19:56 02.01.2020
5327 Clouds 16 1027 42 10000 2.6 80 19:38 02.01.2020
5328 Clouds 16 1027 42 10000 2.6 80 19:19 02.01.2020
5329 Clouds 16 1027 45 10000 3.6 80 18:58 02.01.2020
5330 Clouds 17 1027 42 10000 3.6 80 18:39 02.01.2020
5331 Clouds 17 1027 42 10000 3.6 80 18:21 02.01.2020
5332 Clouds 18 1027 39 10000 3.6 90 17:56 02.01.2020
5333 Clouds 16 1027 39 10000 2.1 80 17:37 02.01.2020
5334 Clouds 19 1027 39 10000 2.1 80 17:19 02.01.2020
5335 Clouds 19 1027 42 10000 2.1 80 16:56 02.01.2020
5336 Clouds 18 1027 36 10000 3.1 110 16:38 02.01.2020
5337 Clouds 17 1027 36 10000 3.1 110 16:20 02.01.2020
5338 Clouds 18 1027 37 10000 3.1 110 15:45 02.01.2020
5339 Clouds 18 1027 42 10000 4.1 130 15:24 02.01.2020
5340 Clouds 19 1028 37 10000 4.6 130 14:58 02.01.2020
5341 Clouds 18 1028 39 10000 5.1 140 14:39 02.01.2020
5342 Clouds 18 1028 39 10000 5.1 140 14:21 02.01.2020
5343 Clouds 19 1028 39 10000 5.7 130 13:58 02.01.2020
5344 Clouds 19 1029 39 10000 6.2 130 13:40 02.01.2020
5345 Clouds 19 1029 39 10000 6.2 130 13:19 02.01.2020
5346 Clouds 19 1029 42 10000 5.7 130 12:43 02.01.2020
5347 Clouds 19 1029 45 10000 5.7 130 12:23 02.01.2020
5348 Clouds 18 1029 42 10000 5.1 120 11:42 02.01.2020
5349 Clouds 18 1029 42 10000 5.1 120 11:23 02.01.2020
5350 Clouds 18 1029 42 10000 5.1 130 10:56 02.01.2020
5351 Clouds 18 1028 45 10000 4.6 120 10:36 02.01.2020
5352 Clouds 18 1028 45 10000 4.6 120 10:18 02.01.2020
5353 Clouds 18 1028 42 10000 4.1 150 09:41 02.01.2020
5354 Clouds 16 1028 41 10000 2.1 200 09:21 02.01.2020
5355 Clouds 16 1028 44 10000 3.1 210 08:41 02.01.2020
5356 Clouds 17 1028 41 10000 2.6 170 08:22 02.01.2020
5357 Clouds 17 1028 36 10000 4.1 160 07:47 02.01.2020
5358 Clouds 17 1027 36 10000 4.6 150 07:27 02.01.2020
5359 Clouds 17 1027 39 10000 4.6 150 06:43 02.01.2020
5360 Clouds 18 1027 45 10000 5.1 140 05:54 02.01.2020
5361 Clouds 18 1027 48 10000 3.1 290 04:38 02.01.2020
5362 Clouds 18 1027 48 10000 3.1 290 04:19 02.01.2020
5363 Clear 18 1027 39 10000 3.1 320 02:21 02.01.2020
5364 Clear 17 1027 38 10000 3.1 340 01:57 02.01.2020
5365 Clear 17 1028 38 10000 3.1 330 01:30 02.01.2020
5366 Clear 17 1028 36 10000 3.1 340 00:52 02.01.2020
5367 Clear 17 1028 41 10000 2.6 330 00:26 02.01.2020
5368 Clear 17 1028 41 10000 2.1 10 23:44 01.01.2020
5369 Clear 17 1028 27 10000 2.1 320 23:23 01.01.2020
5370 Clear 17 1028 41 10000 2.6 300 22:39 01.01.2020
5371 Clear 16 1028 41 10000 2.6 300 22:21 01.01.2020
5372 Clear 16 1028 44 10000 3.1 300 21:59 01.01.2020
5373 Clear 16 1027 48 10000 3.1 300 21:40 01.01.2020
5374 Clear 16 1027 48 10000 3.1 300 21:21 01.01.2020
5375 Clear 16 1027 48 10000 2.6 320 20:58 01.01.2020
5376 Clear 17 1027 45 10000 2.1 10 20:39 01.01.2020
5377 Clear 17 1027 45 10000 2.1 10 20:20 01.01.2020
5378 Clear 17 1027 48 10000 1.5 30 19:57 01.01.2020
5379 Clear 17 1027 48 10000 2.6 70 19:38 01.01.2020
5380 Clear 17 1027 48 10000 2.6 70 19:20 01.01.2020
5381 Clear 17 1027 48 10000 2.6 80 18:57 01.01.2020
5382 Clear 16 1027 45 10000 2.6 90 18:38 01.01.2020
5383 Clear 17 1027 45 10000 2.6 90 18:20 01.01.2020
5384 Clear 17 1026 42 10000 2.6 100 17:57 01.01.2020
5385 Clear 18 1026 45 10000 2.6 0 17:39 01.01.2020
5386 Clear 17 1026 45 10000 2.6 0 17:19 01.01.2020
5387 Clear 18 1027 45 10000 3.6 140 16:57 01.01.2020
5388 Clear 18 1027 42 10000 3.6 150 16:38 01.01.2020
5389 Clear 18 1027 42 10000 3.6 150 16:38 01.01.2020
5390 Clear 19 1027 42 10000 3.6 150 16:19 01.01.2020
5391 Clear 18 1027 39 10000 4.1 160 15:56 01.01.2020
5392 Clear 18 1027 42 10000 5.1 160 15:37 01.01.2020
5393 Clear 19 1027 42 10000 5.1 160 15:19 01.01.2020
5394 Clear 19 1028 45 10000 5.7 160 14:42 01.01.2020
5395 Clear 19 1028 48 10000 6.2 160 14:24 01.01.2020
5396 Clouds 19 1029 45 10000 5.7 150 13:57 01.01.2020
5397 Clouds 20 1029 45 10000 5.7 160 13:38 01.01.2020
5398 Clear 20 1029 45 10000 5.7 160 13:19 01.01.2020
5399 Clear 20 1029 45 10000 6.2 160 12:58 01.01.2020
5400 Clear 19 1030 48 10000 6.2 160 12:40 01.01.2020
5401 Clear 19 1030 48 10000 6.2 160 12:19 01.01.2020
5402 Clear 19 1030 48 10000 6.2 160 12:19 01.01.2020
5403 Clear 19 1029 48 10000 5.7 150 11:56 01.01.2020
5404 Clear 19 1029 48 10000 5.7 140 11:38 01.01.2020
5405 Clouds 19 1029 48 10000 5.7 140 11:19 01.01.2020
5406 Clouds 19 1028 48 10000 5.7 150 10:54 01.01.2020
5407 Clouds 19 1028 42 10000 5.7 150 10:36 01.01.2020
5408 Clouds 19 1028 42 10000 5.7 150 10:18 01.01.2020
5409 Clouds 19 1028 45 10000 4.6 160 09:39 01.01.2020
5410 Clouds 19 1028 45 10000 4.6 160 09:20 01.01.2020
5411 Clouds 16 1027 59 10000 3.1 210 08:56 01.01.2020
5412 Clouds 16 1027 59 10000 2.6 230 08:37 01.01.2020
5413 Clear 16 1027 59 10000 2.6 230 08:19 01.01.2020
5414 Clear 17 1027 59 10000 2.6 240 07:56 01.01.2020
5415 Clear 16 1027 63 10000 2.6 230 07:38 01.01.2020
5416 Clear 16 1027 63 10000 3.1 250 06:46 01.01.2020
5417 Clear 17 1027 63 10000 3.1 250 06:22 01.01.2020
5418 Clear 17 1027 63 10000 2.6 250 05:45 01.01.2020
5419 Clear 17 1026 48 10000 2.1 300 03:48 01.01.2020
5420 Clear 18 1026 45 10000 2.6 300 03:28 01.01.2020
5421 Clear 17 1026 39 10000 2.6 310 02:59 01.01.2020
5422 Clear 16 1026 29 10000 2.6 330 02:41 01.01.2020
5423 Clear 17 1026 29 10000 2.6 330 02:21 01.01.2020
5424 Clear 17 1027 29 10000 2.6 310 01:39 01.01.2020
5425 Clear 17 1027 29 10000 2.6 310 01:21 01.01.2020
5426 Clear 18 1027 27 10000 2.1 300 00:44 01.01.2020
5427 Clear 17 1027 27 10000 1.5 310 00:44 01.01.2020
5428 Clear 17 1027 27 10000 2.1 300 00:26 01.01.2020
5429 Clear 17 1027 25 10000 2.6 300 23:43 31.12.2019
5430 Clear 18 1026 23 10000 2.6 300 23:24 31.12.2019
5431 Clear 18 1026 27 10000 2.6 310 22:59 31.12.2019
5432 Clear 18 1026 45 10000 2.6 320 22:39 31.12.2019
5433 Clear 17 1026 45 10000 2.6 320 22:20 31.12.2019
5434 Clear 18 1025 45 10000 3.1 320 21:59 31.12.2019
5435 Clear 17 1025 45 10000 3.1 320 21:41 31.12.2019
5436 Clear 18 1025 48 10000 1.5 320 21:23 31.12.2019
5437 Clear 18 1025 55 10000 1 0 20:57 31.12.2019
5438 Clear 17 1025 59 10000 0.5 0 20:37 31.12.2019
5439 Clouds 17 1025 59 10000 0.5 0 20:19 31.12.2019
5440 Clouds 18 1024 52 10000 1 0 19:55 31.12.2019
5441 Clouds 18 1024 55 10000 1.5 100 19:37 31.12.2019
5442 Clouds 19 1024 55 10000 1.5 100 19:18 31.12.2019
5443 Clouds 20 1024 52 10000 2.1 110 18:54 31.12.2019
5444 Clouds 19 1024 49 10000 2.1 120 18:36 31.12.2019
5445 Clouds 21 1024 49 10000 2.1 120 18:18 31.12.2019
5446 Clouds 19 1024 49 10000 2.1 130 17:55 31.12.2019
5447 Clouds 20 1024 52 10000 2.6 120 17:36 31.12.2019
5448 Clouds 21 1024 49 10000 3.1 140 17:18 31.12.2019
5449 Clouds 21 1024 49 10000 3.1 140 17:18 31.12.2019
5450 Clouds 20 1024 49 10000 3.1 140 16:55 31.12.2019
5451 Clouds 20 1024 46 10000 3.1 140 16:36 31.12.2019
5452 Clouds 21 1024 46 10000 3.1 140 16:18 31.12.2019
5453 Clouds 21 1024 46 10000 3.6 140 15:55 31.12.2019
5454 Clouds 21 1024 52 10000 3.1 140 15:37 31.12.2019
5455 Clouds 21 1024 52 10000 3.1 140 15:18 31.12.2019
5456 Clouds 21 1024 52 10000 3.1 140 15:18 31.12.2019
5457 Clouds 21 1025 56 10000 3.1 160 14:55 31.12.2019
5458 Clouds 20 1025 64 10000 2.6 140 14:36 31.12.2019
5459 Clouds 20 1025 64 10000 2.6 140 14:18 31.12.2019
5460 Clouds 20 1026 68 10000 2.6 140 13:54 31.12.2019
5461 Clouds 20 1026 68 10000 2.6 110 13:36 31.12.2019
5462 Clouds 21 1026 68 10000 2.6 110 13:18 31.12.2019
5463 Clouds 20 1027 72 10000 1 0 12:40 31.12.2019
5464 Clouds 21 1027 72 10000 1 0 12:40 31.12.2019
5465 Clouds 20 1027 72 10000 1 0 12:21 31.12.2019
5466 Clouds 20 1027 72 10000 1 0 12:21 31.12.2019
5467 Clouds 19 1027 77 10000 2.1 100 11:57 31.12.2019
5468 Clouds 20 1027 72 10000 2.1 100 11:39 31.12.2019
5469 Clouds 19 1027 72 10000 2.1 100 11:21 31.12.2019
5470 Clouds 19 1026 77 10000 1 0 10:58 31.12.2019
5471 Clouds 18 1026 82 10000 2.1 320 10:39 31.12.2019
5472 Clouds 17 1026 82 10000 2.1 320 10:20 31.12.2019
5473 Clouds 16 1025 82 10000 2.6 320 09:59 31.12.2019
5474 Clouds 16 1025 87 10000 3.1 320 09:40 31.12.2019
5475 Clouds 16 1025 87 10000 3.1 320 09:21 31.12.2019
5476 Clouds 16 1025 82 10000 3.1 330 08:58 31.12.2019
5477 Clouds 16 1025 82 10000 3.1 340 08:39 31.12.2019
5478 Clouds 16 1025 82 10000 3.1 340 08:20 31.12.2019
5479 Clouds 16 1024 87 10000 3.6 350 07:43 31.12.2019
5480 Clouds 16 1024 87 10000 3.6 350 07:22 31.12.2019
5481 Clouds 16 1024 87 10000 4.1 350 06:50 31.12.2019
5482 Clouds 16 1024 77 10000 5.1 350 05:58 31.12.2019
5483 Clouds 17 1024 68 10000 5.7 360 04:30 31.12.2019
5484 Clouds 18 1025 42 10000 4.6 360 03:38 31.12.2019
5485 Clouds 18 1025 36 10000 5.7 10 02:56 31.12.2019
5486 Clouds 17 1025 41 10000 4.6 10 02:19 31.12.2019
5487 Clouds 17 1025 36 10000 4.6 20 01:48 31.12.2019
5488 Clouds 18 1025 55 10000 5.7 20 01:27 31.12.2019
5489 Clouds 18 1025 59 10000 6.2 10 00:46 31.12.2019
5490 Clouds 19 1025 63 10000 6.7 20 00:22 31.12.2019
5491 Clouds 18 1025 68 10000 5.7 10 23:56 30.12.2019
5492 Clouds 19 1025 63 10000 6.2 10 23:38 30.12.2019
5493 Clouds 19 1025 63 10000 6.2 10 23:20 30.12.2019
5494 Clouds 18 1025 42 10000 5.7 10 22:58 30.12.2019
5495 Clouds 19 1025 32 10000 5.1 20 22:39 30.12.2019
5496 Clouds 18 1025 32 10000 5.1 20 22:20 30.12.2019
5497 Clouds 20 1024 32 10000 3.6 360 21:57 30.12.2019
5498 Clouds 20 1024 25 10000 3.1 350 21:38 30.12.2019
5499 Clouds 20 1024 25 10000 3.1 350 21:38 30.12.2019
5500 Clouds 20 1024 25 10000 3.1 350 21:38 30.12.2019
5501 Clouds 20 1024 32 10000 3.1 340 21:19 30.12.2019
5502 Clouds 21 1024 32 10000 3.1 340 20:56 30.12.2019
5503 Clouds 20 1024 32 10000 3.1 340 20:56 30.12.2019
5504 Clouds 21 1024 34 10000 3.1 350 20:38 30.12.2019
5505 Clouds 20 1024 34 10000 3.1 350 20:20 30.12.2019
5506 Clouds 20 1024 40 10000 3.1 360 19:57 30.12.2019
5507 Clouds 20 1024 49 10000 3.6 20 19:37 30.12.2019
5508 Clouds 21 1024 49 10000 3.6 20 19:19 30.12.2019
5509 Clouds 22 1024 40 10000 3.1 50 18:56 30.12.2019
5510 Clouds 22 1024 40 10000 2.6 50 18:38 30.12.2019
5511 Clouds 22 1024 40 10000 2.6 50 18:20 30.12.2019
5512 Clouds 22 1023 38 10000 3.1 50 17:55 30.12.2019
5513 Clouds 23 1023 35 10000 2.6 70 17:37 30.12.2019
5514 Clouds 23 1023 35 10000 2.6 70 17:18 30.12.2019
5515 Clouds 23 1023 35 10000 2.6 60 16:57 30.12.2019
5516 Clouds 24 1023 33 10000 2.1 60 16:36 30.12.2019
5517 Clouds 23 1023 33 10000 2.1 60 16:36 30.12.2019
5518 Clouds 23 1023 33 10000 2.1 60 16:18 30.12.2019
5519 Clouds 23 1024 31 10000 2.6 60 15:55 30.12.2019
5520 Clouds 23 1024 33 10000 1.5 0 15:36 30.12.2019
5521 Clouds 23 1024 33 10000 1.5 0 15:18 30.12.2019
5522 Clouds 24 1025 35 10000 1.5 0 14:42 30.12.2019
5523 Clouds 24 1025 35 10000 1.5 0 14:19 30.12.2019
5524 Clouds 23 1025 40 10000 1.5 0 13:56 30.12.2019
5525 Clouds 23 1026 43 10000 1.5 0 13:37 30.12.2019
5526 Clouds 22 1026 43 10000 1.5 0 13:19 30.12.2019
5527 Clouds 23 1026 40 10000 1.5 50 12:43 30.12.2019
5528 Clouds 22 1026 40 10000 1.5 0 12:20 30.12.2019
5529 Clouds 23 1026 40 10000 1.5 0 11:59 30.12.2019
5530 Clouds 22 1025 43 10000 1 0 11:40 30.12.2019
5531 Clouds 21 1025 43 10000 1 0 11:19 30.12.2019
5532 Clouds 20 1025 49 10000 2.6 310 10:44 30.12.2019
5533 Clouds 20 1025 49 10000 2.6 310 10:22 30.12.2019
5534 Clouds 19 1024 55 10000 2.1 320 09:58 30.12.2019
5535 Clouds 18 1024 55 10000 2.1 320 09:40 30.12.2019
5536 Clouds 18 1024 55 10000 2.1 320 09:20 30.12.2019
5537 Clouds 18 1024 48 10000 2.6 330 08:50 30.12.2019
5538 Clouds 18 1024 48 10000 2.6 330 08:50 30.12.2019
5539 Clouds 18 1023 48 10000 1.5 340 08:23 30.12.2019
5540 Clouds 19 1023 45 10000 2.1 310 07:56 30.12.2019
5541 Clouds 18 1023 45 10000 2.1 310 07:37 30.12.2019
5542 Clouds 18 1023 39 10000 2.1 310 06:52 30.12.2019
5543 Clouds 19 1023 39 10000 2.1 290 04:57 30.12.2019
5544 Clouds 21 1023 30 10000 2.6 330 03:57 30.12.2019
5545 Clouds 21 1023 24 10000 2.1 340 02:58 30.12.2019
5546 Clouds 20 1023 21 10000 1.5 0 02:40 30.12.2019
5547 Clouds 20 1023 21 10000 2.1 300 01:50 30.12.2019
5548 Clouds 20 1023 21 10000 2.1 300 01:50 30.12.2019
5549 Clouds 20 1023 22 10000 2.1 310 01:21 30.12.2019
5550 Clouds 21 1023 33 10000 1.5 290 00:44 30.12.2019
5551 Clouds 21 1023 33 10000 1.5 270 00:19 30.12.2019
5552 Clouds 20 1023 25 10000 2.6 290 23:39 29.12.2019
5553 Clouds 20 1023 25 10000 2.6 290 23:39 29.12.2019
5554 Clouds 19 1023 25 10000 2.6 290 23:21 29.12.2019
5555 Clouds 19 1023 37 10000 3.1 300 22:43 29.12.2019
5556 Clouds 19 1022 37 10000 2.6 310 22:24 29.12.2019
5557 Clouds 19 1022 48 10000 1.5 350 21:59 29.12.2019
5558 Clouds 19 1022 48 10000 1.5 350 21:41 29.12.2019
5559 Clouds 18 1022 63 10000 3.1 300 21:20 29.12.2019
5560 Clouds 19 1021 63 10000 2.1 310 20:57 29.12.2019
5561 Clouds 19 1021 63 10000 1 0 20:39 29.12.2019
5562 Clouds 18 1021 63 10000 1 0 20:20 29.12.2019
5563 Clouds 18 1021 63 10000 1 0 20:20 29.12.2019
5564 Clouds 20 1021 64 10000 2.1 70 19:58 29.12.2019
5565 Clouds 19 1020 64 10000 2.1 90 19:40 29.12.2019
5566 Clouds 19 1020 64 10000 2.1 90 19:21 29.12.2019
5567 Clouds 21 1020 64 10000 1.5 90 18:57 29.12.2019
5568 Clouds 22 1020 60 10000 2.1 100 18:38 29.12.2019
5569 Clouds 22 1020 60 10000 2.1 100 18:38 29.12.2019
5570 Clouds 21 1020 60 10000 2.1 100 18:19 29.12.2019
5571 Clouds 22 1020 60 10000 2.6 100 17:57 29.12.2019
5572 Clouds 22 1020 60 10000 2.6 100 17:57 29.12.2019
5573 Clouds 22 1020 56 10000 2.6 100 17:39 29.12.2019
5574 Clouds 22 1020 56 10000 2.6 100 17:20 29.12.2019
5575 Clouds 22 1020 56 10000 2.6 100 16:56 29.12.2019
5576 Clouds 23 1020 56 10000 2.1 90 16:37 29.12.2019
5577 Clouds 22 1020 56 10000 2.1 90 16:19 29.12.2019
5578 Clouds 24 1020 56 10000 2.1 90 15:57 29.12.2019
5579 Clouds 24 1020 56 10000 3.1 100 15:38 29.12.2019
5580 Clouds 23 1020 56 10000 3.1 100 15:19 29.12.2019
5581 Clouds 22 1021 46 10000 2.1 90 14:56 29.12.2019
5582 Clouds 22 1021 53 10000 2.1 100 14:38 29.12.2019
5583 Clouds 22 1021 53 10000 2.1 100 14:18 29.12.2019
5584 Clouds 23 1022 53 10000 2.1 90 13:57 29.12.2019
5585 Clouds 21 1022 46 10000 1.5 0 13:37 29.12.2019
5586 Clouds 21 1022 46 10000 1.5 0 13:37 29.12.2019
5587 Clouds 22 1022 46 10000 1.5 0 13:19 29.12.2019
5588 Clouds 22 1022 53 10000 1.5 60 12:45 29.12.2019
5589 Clouds 22 1023 49 10000 0.5 0 12:26 29.12.2019
5590 Clouds 23 1022 49 10000 1 0 11:57 29.12.2019
5591 Clouds 23 1022 49 10000 1 0 11:38 29.12.2019
5592 Clouds 22 1022 49 10000 1 0 11:20 29.12.2019
5593 Clouds 22 1022 49 10000 0.5 0 10:43 29.12.2019
5594 Clouds 20 1021 45 10000 2.59 155 10:24 29.12.2019
5595 Clouds 20 1021 45 10000 1 0 09:58 29.12.2019
5596 Clouds 19 1021 51 10000 1 0 09:39 29.12.2019
5597 Clouds 18 1021 51 10000 1 0 09:21 29.12.2019
5598 Clouds 19 1020 48 10000 1 0 08:47 29.12.2019
5599 Clouds 18 1020 52 10000 1.5 290 08:27 29.12.2019
5600 Clear 18 1020 48 10000 2.1 310 07:55 29.12.2019
5601 Clear 18 1020 48 10000 1.5 320 07:28 29.12.2019
5602 Clear 18 1020 45 10000 2.1 310 06:56 29.12.2019
5603 Clear 18 1021 45 10000 2.6 320 06:26 29.12.2019
5604 Clear 18 1021 48 10000 2.1 310 05:52 29.12.2019
5605 Clear 19 1021 30 10000 2.1 330 04:36 29.12.2019
5606 Clear 21 1020 37 10000 2.6 320 03:54 29.12.2019
5607 Clear 20 1020 22 10000 2.6 320 03:20 29.12.2019
5608 Clouds 21 1021 24 10000 2.1 300 02:20 29.12.2019
5609 Clouds 20 1021 24 10000 3.1 300 01:31 29.12.2019
5610 Clouds 20 1021 25 10000 2.6 300 00:58 29.12.2019
5611 Clouds 20 1021 24 10000 1 0 00:40 29.12.2019
5612 Clouds 20 1021 24 10000 1 0 00:21 29.12.2019
5613 Clouds 19 1021 33 10000 1 0 23:43 28.12.2019
5614 Clouds 20 1021 24 10000 1 0 23:18 28.12.2019
5615 Clouds 21 1020 35 10000 2.1 300 22:39 28.12.2019
5616 Clouds 20 1020 35 10000 2.1 300 22:21 28.12.2019
5617 Clouds 21 1020 30 10000 2.1 300 21:58 28.12.2019
5618 Clouds 20 1020 42 10000 2.1 300 21:39 28.12.2019
5619 Clouds 20 1020 42 10000 2.1 300 21:21 28.12.2019
5620 Clouds 20 1019 63 10000 2.6 300 20:57 28.12.2019
5621 Clouds 20 1019 60 10000 1.5 320 20:37 28.12.2019
5622 Clouds 20 1019 60 10000 1.5 320 20:19 28.12.2019
5623 Clouds 20 1019 60 10000 1 0 19:56 28.12.2019
5624 Clouds 20 1019 64 10000 1.5 80 19:38 28.12.2019
5625 Clouds 20 1019 64 10000 1.5 80 19:19 28.12.2019
5626 Clouds 21 1019 60 10000 2.1 90 18:56 28.12.2019
5627 Clouds 21 1019 60 10000 2.1 90 18:56 28.12.2019
5628 Clouds 22 1019 56 10000 1.5 120 18:38 28.12.2019
5629 Clouds 22 1019 56 10000 1.5 120 18:18 28.12.2019
5630 Clouds 21 1019 56 10000 2.1 110 17:43 28.12.2019
5631 Clouds 23 1019 53 10000 2.1 140 17:22 28.12.2019
5632 Clouds 23 1019 53 10000 2.6 0 16:59 28.12.2019
5633 Clouds 23 1019 53 10000 3.1 130 16:41 28.12.2019
5634 Clouds 24 1019 53 10000 3.1 130 16:23 28.12.2019
5635 Clouds 24 1019 43 10000 2.1 150 15:43 28.12.2019
5636 Clouds 24 1019 43 10000 2.6 130 15:23 28.12.2019
5637 Clouds 24 1020 43 10000 2.6 150 14:56 28.12.2019
5638 Clouds 24 1020 43 10000 2.1 170 14:37 28.12.2019
5639 Clouds 23 1020 43 10000 2.1 170 14:19 28.12.2019
5640 Clouds 24 1021 43 10000 1.5 0 13:42 28.12.2019
5641 Clouds 24 1021 43 10000 1.5 0 13:21 28.12.2019
5642 Clouds 24 1021 43 10000 1.5 0 13:21 28.12.2019
5643 Clouds 24 1021 43 10000 1.5 0 12:58 28.12.2019
5644 Clouds 23 1021 43 10000 1.5 140 12:40 28.12.2019
5645 Clouds 23 1021 43 10000 1.5 140 12:21 28.12.2019
5646 Clouds 23 1021 46 10000 0.5 0 11:40 28.12.2019
5647 Clouds 23 1021 46 10000 0.5 0 11:22 28.12.2019
5648 Clouds 22 1021 43 10000 1 0 10:59 28.12.2019
5649 Clouds 22 1021 46 10000 1 0 10:41 28.12.2019
5650 Clouds 22 1021 46 10000 1 0 10:20 28.12.2019
5651 Clouds 21 1021 45 10000 2.1 310 09:55 28.12.2019
5652 Clouds 20 1020 45 10000 2.6 310 09:36 28.12.2019
5653 Clouds 20 1020 45 10000 2.6 310 09:18 28.12.2019
5654 Clouds 20 1020 42 10000 2.1 0 08:43 28.12.2019
5655 Clouds 21 1020 42 10000 2.6 330 08:24 28.12.2019
5656 Clear 21 1020 42 10000 2.6 330 07:48 28.12.2019
5657 Clear 20 1020 32 10000 1.5 340 07:23 28.12.2019
5658 Clear 21 1019 26 10000 2.6 310 05:51 28.12.2019
5659 Clear 21 1020 28 10000 2.1 330 03:48 28.12.2019
5660 Clear 21 1020 26 10000 2.6 290 02:51 28.12.2019
5661 Clear 21 1020 26 10000 2.6 300 02:20 28.12.2019
5662 Clear 21 1020 28 10000 3.1 310 01:56 28.12.2019
5663 Clear 21 1020 28 10000 3.1 310 01:23 28.12.2019
5664 Clear 21 1021 26 10000 2.6 310 00:48 28.12.2019
5665 Clear 21 1021 28 10000 2.6 300 00:30 28.12.2019
5666 Clear 21 1021 30 10000 3.6 300 23:58 27.12.2019
5667 Clear 21 1021 30 10000 3.6 320 23:39 27.12.2019
5668 Clear 21 1021 30 10000 3.6 320 23:19 27.12.2019
5669 Clear 21 1020 32 10000 3.1 320 22:56 27.12.2019
5670 Clear 21 1020 32 10000 3.6 330 22:37 27.12.2019
5671 Clear 20 1020 32 10000 3.6 330 22:19 27.12.2019
5672 Clear 20 1020 28 10000 3.6 350 21:43 27.12.2019
5673 Clear 20 1020 34 10000 3.1 340 21:25 27.12.2019
5674 Clear 21 1019 37 10000 3.6 340 20:57 27.12.2019
5675 Clear 21 1019 49 10000 2.1 360 20:38 27.12.2019
5676 Clear 21 1019 49 10000 2.1 360 20:20 27.12.2019
5677 Clear 23 1019 27 10000 2.19 119 19:41 27.12.2019
5678 Clear 24 1019 27 10000 2.19 119 19:20 27.12.2019
5679 Clear 24 1019 27 10000 2.19 119 19:20 27.12.2019
5680 Clear 24 1019 27 10000 0.5 0 18:57 27.12.2019
5681 Clear 24 1019 27 10000 1 0 18:37 27.12.2019
5682 Clear 24 1019 27 10000 1 0 18:19 27.12.2019
5683 Clear 25 1019 31 10000 1.5 60 17:55 27.12.2019
5684 Clear 25 1019 33 10000 1.5 0 17:37 27.12.2019
5685 Clear 24 1019 33 10000 1.5 0 17:18 27.12.2019
5686 Clear 25 1019 36 10000 1 0 16:43 27.12.2019
5687 Clear 24 1019 33 10000 1.5 0 16:23 27.12.2019
5688 Clear 25 1019 33 10000 2.1 60 15:58 27.12.2019
5689 Clear 25 1019 33 10000 2.1 90 15:37 27.12.2019
5690 Clear 25 1019 33 10000 2.1 90 15:19 27.12.2019
5691 Clear 25 1020 33 10000 1.5 0 14:56 27.12.2019
5692 Clear 25 1020 36 10000 1 0 14:38 27.12.2019
5693 Clouds 25 1020 36 10000 1 0 14:20 27.12.2019
5694 Clouds 25 1021 38 10000 1.5 0 13:47 27.12.2019
5695 Clouds 24 1021 40 10000 1.5 0 13:24 27.12.2019
5696 Clouds 24 1021 43 10000 1 0 12:56 27.12.2019
5697 Clouds 23 1021 46 10000 1.5 0 12:37 27.12.2019
5698 Clouds 23 1021 46 10000 1.5 0 12:18 27.12.2019
5699 Clouds 23 1021 46 10000 2.1 0 11:42 27.12.2019
5700 Clear 23 1021 43 10000 2.6 350 11:22 27.12.2019
5701 Clear 22 1021 40 10000 2.1 350 10:54 27.12.2019
5702 Clear 22 1021 40 10000 1 0 10:36 27.12.2019
5703 Clear 21 1021 40 10000 1 0 10:18 27.12.2019
5704 Clear 20 1020 34 10000 2.6 300 09:40 27.12.2019
5705 Clear 20 1020 34 10000 2.6 300 09:21 27.12.2019
5706 Clear 21 1020 35 10000 2.6 300 08:54 27.12.2019
5707 Clear 20 1019 32 10000 2.1 320 08:34 27.12.2019
5708 Clear 20 1019 29 10000 2.1 330 07:49 27.12.2019
5709 Clear 20 1019 32 10000 2.1 310 07:28 27.12.2019
5710 Clear 20 1019 34 10000 3.6 320 06:36 27.12.2019
5711 Clear 20 1019 36 10000 3.1 330 04:58 27.12.2019
5712 Clear 20 1019 32 10000 2.6 310 02:49 27.12.2019
5713 Clear 20 1020 39 10000 4.1 310 01:59 27.12.2019
5714 Clear 19 1020 45 10000 3.6 300 01:24 27.12.2019
5715 Clear 19 1020 48 10000 2.6 310 00:54 27.12.2019
5716 Clear 19 1020 52 10000 2.1 310 00:34 27.12.2019
5717 Clear 18 1020 59 10000 2.6 300 23:59 26.12.2019
5718 Clear 18 1020 52 10000 2.6 320 23:41 26.12.2019
5719 Clear 19 1020 52 10000 2.6 320 23:21 26.12.2019
5720 Clear 18 1020 48 10000 2.6 330 22:45 26.12.2019
5721 Clear 18 1020 59 10000 2.6 320 22:22 26.12.2019
5722 Clear 18 1020 48 10000 1.5 360 21:58 26.12.2019
5723 Clear 19 1019 45 10000 2.6 340 21:38 26.12.2019
5724 Clear 19 1019 45 10000 2.6 340 21:20 26.12.2019
5725 Clear 19 1019 52 10000 2.1 340 20:45 26.12.2019
5726 Clear 19 1019 52 10000 2.1 340 20:45 26.12.2019
5727 Clear 19 1019 63 10000 2.1 330 20:23 26.12.2019
5728 Clear 20 1019 64 10000 1.5 20 19:59 26.12.2019
5729 Clear 21 1018 64 10000 1 0 19:39 26.12.2019
5730 Clear 21 1018 64 10000 1 0 19:20 26.12.2019
5731 Clear 21 1018 60 10000 3.1 100 18:57 26.12.2019
5732 Clear 22 1018 43 10000 2.6 40 18:38 26.12.2019
5733 Clear 23 1018 43 10000 2.6 40 18:19 26.12.2019
5734 Clear 22 1018 46 10000 2.1 50 17:43 26.12.2019
5735 Clouds 23 1018 49 10000 2.1 70 17:22 26.12.2019
5736 Clouds 23 1018 46 10000 2.1 360 16:58 26.12.2019
5737 Clouds 23 1018 46 10000 1.5 30 16:39 26.12.2019
5738 Clouds 23 1018 46 10000 1.5 30 16:20 26.12.2019
5739 Clouds 23 1019 40 10000 2.6 30 15:41 26.12.2019
5740 Clouds 23 1019 40 10000 2.6 30 15:21 26.12.2019
5741 Clouds 23 1019 43 10000 3.1 20 14:58 26.12.2019
5742 Clouds 23 1020 43 10000 3.6 20 14:38 26.12.2019
5743 Clouds 23 1020 43 10000 3.6 20 14:20 26.12.2019
5744 Clouds 23 1020 40 10000 4.6 20 13:43 26.12.2019
5745 Clouds 23 1021 38 10000 5.1 10 13:21 26.12.2019
5746 Clouds 24 1021 31 10000 4.6 20 12:56 26.12.2019
5747 Clouds 24 1021 31 10000 4.6 20 12:56 26.12.2019
5748 Clouds 23 1021 43 10000 5.1 10 12:37 26.12.2019
5749 Clouds 23 1021 43 10000 5.1 10 12:19 26.12.2019
5750 Clouds 23 1021 43 10000 5.7 20 11:56 26.12.2019
5751 Clouds 23 1021 40 10000 4.1 10 11:37 26.12.2019
5752 Clouds 23 1021 40 10000 4.1 10 11:19 26.12.2019
5753 Clouds 22 1021 49 10000 4.6 20 10:41 26.12.2019
5754 Clouds 21 1021 49 10000 3.6 340 10:18 26.12.2019
5755 Clouds 21 1020 46 10000 3.1 350 09:45 26.12.2019
5756 Clouds 21 1020 49 10000 3.1 340 09:26 26.12.2019
5757 Clouds 21 1020 49 10000 2.6 330 08:42 26.12.2019
5758 Clouds 21 1019 49 10000 3.1 330 08:24 26.12.2019
5759 Clouds 21 1019 46 10000 3.1 340 07:53 26.12.2019
5760 Clouds 21 1019 46 10000 2.6 330 07:26 26.12.2019
5761 Clouds 21 1019 46 10000 2.6 350 06:52 26.12.2019
5762 Clouds 21 1019 49 10000 3.1 340 06:31 26.12.2019
5763 Clouds 21 1019 52 10000 3.6 350 05:45 26.12.2019
5764 Clouds 21 1019 56 10000 4.6 340 04:55 26.12.2019
5765 Clouds 21 1019 52 10000 4.1 340 04:29 26.12.2019
5766 Clouds 21 1020 42 10000 5.7 350 02:54 26.12.2019
5767 Clouds 21 1020 49 10000 5.1 350 02:34 26.12.2019
5768 Clouds 21 1020 52 10000 5.7 360 01:46 26.12.2019
5769 Clouds 22 1020 52 10000 5.1 10 01:28 26.12.2019
5770 Clouds 22 1020 52 10000 5.1 360 00:49 26.12.2019
5771 Clouds 22 1020 49 10000 6.2 10 00:25 26.12.2019
5772 Clouds 23 1020 40 10000 4.1 350 23:58 25.12.2019
5773 Clouds 22 1020 49 10000 5.7 360 23:39 25.12.2019
5774 Clouds 22 1020 49 10000 5.7 360 23:21 25.12.2019
5775 Clouds 20 1020 77 10000 6.7 20 22:58 25.12.2019
5776 Clouds 20 1020 77 10000 5.7 30 22:38 25.12.2019
5777 Clouds 20 1020 77 10000 5.7 30 22:20 25.12.2019
5778 Clouds 21 1019 60 10000 5.7 20 21:57 25.12.2019
5779 Clouds 21 1019 64 10000 8.2 30 21:39 25.12.2019
5780 Clouds 20 1019 64 10000 8.2 30 21:19 25.12.2019
5781 Clouds 20 1019 64 10000 4.6 350 20:41 25.12.2019
5782 Clouds 21 1019 68 10000 3.1 10 20:23 25.12.2019
5783 Clouds 21 1019 68 10000 3.1 10 20:22 25.12.2019
5784 Clouds 20 1020 68 10000 4.1 40 19:59 25.12.2019
5785 Clouds 20 1020 68 10000 4.1 40 19:41 25.12.2019
5786 Clouds 20 1020 68 10000 3.6 30 19:22 25.12.2019
5787 Clouds 20 1020 68 10000 3.6 30 19:22 25.12.2019
5788 Clouds 21 1020 64 10000 3.1 50 18:56 25.12.2019
5789 Clouds 21 1020 64 10000 2.6 60 18:36 25.12.2019
5790 Clouds 21 1020 64 10000 2.6 60 18:18 25.12.2019
5791 Clouds 21 1019 64 10000 1.5 90 17:40 25.12.2019
5792 Clouds 21 1019 64 10000 1.5 90 17:40 25.12.2019
5793 Clouds 21 1019 64 10000 1.5 90 17:18 25.12.2019
5794 Clouds 21 1019 68 10000 2.1 130 16:56 25.12.2019
5795 Clouds 21 1019 64 10000 1 0 16:37 25.12.2019
5796 Clouds 22 1019 64 10000 1 0 16:18 25.12.2019
5797 Clouds 23 1019 60 10000 1.5 140 15:56 25.12.2019
5798 Clouds 22 1019 64 10000 1.5 160 15:37 25.12.2019
5799 Clouds 22 1019 64 10000 1.5 160 15:18 25.12.2019
5800 Clouds 22 1019 64 10000 2.1 130 14:56 25.12.2019
5801 Clouds 22 1020 56 10000 2.1 130 14:37 25.12.2019
5802 Clouds 23 1020 56 10000 2.1 130 14:18 25.12.2019
5803 Clouds 24 1020 49 10000 1.5 0 13:42 25.12.2019
5804 Clouds 23 1020 56 10000 2.1 160 13:21 25.12.2019
5805 Clouds 23 1021 49 10000 2.1 0 12:55 25.12.2019
5806 Clouds 24 1021 49 10000 1.5 160 12:36 25.12.2019
5807 Clouds 24 1021 49 10000 1.5 160 12:18 25.12.2019
5808 Clouds 24 1021 53 10000 2.6 140 11:42 25.12.2019
5809 Clouds 22 1021 56 10000 2.6 120 11:22 25.12.2019
5810 Clouds 23 1021 46 10000 0.76 122 10:58 25.12.2019
5811 Clouds 23 1020 46 10000 1 0 10:36 25.12.2019
5812 Clouds 21 1020 46 10000 1 0 10:18 25.12.2019
5813 Clouds 21 1020 52 10000 1 0 09:43 25.12.2019
5814 Clouds 20 1019 52 10000 2.1 310 09:25 25.12.2019
5815 Clouds 20 1019 48 10000 2.1 310 08:45 25.12.2019
5816 Clouds 20 1019 42 10000 2.6 310 08:25 25.12.2019
5817 Clouds 19 1019 45 10000 0.97 316 07:45 25.12.2019
5818 Clouds 20 1019 45 10000 0.97 316 07:23 25.12.2019
5819 Clouds 20 1019 39 10000 1 0 06:41 25.12.2019
5820 Clouds 20 1019 37 10000 1.5 290 06:21 25.12.2019
5821 Clear 20 1019 32 10000 2.6 260 04:47 25.12.2019
5822 Clear 20 1019 32 10000 2.6 250 04:25 25.12.2019
5823 Clear 20 1019 42 10000 2.1 250 03:52 25.12.2019
5824 Clear 20 1019 45 10000 2.1 270 03:32 25.12.2019
5825 Clear 20 1019 39 10000 2.1 220 02:32 25.12.2019
5826 Clear 18 1019 51 10000 0.5 0 01:54 25.12.2019
5827 Clear 20 1019 48 10000 1.5 240 01:24 25.12.2019
5828 Clear 19 1020 72 10000 2.1 290 00:45 25.12.2019
5829 Clear 20 1020 52 10000 1 0 00:26 25.12.2019
5830 Clear 19 1020 39 10000 1.84 171 23:42 24.12.2019
5831 Clear 19 1019 55 10000 1 0 23:21 24.12.2019
5832 Clear 20 1019 45 10000 1 220 22:58 24.12.2019
5833 Clear 20 1019 48 10000 1 0 22:37 24.12.2019
5834 Clear 20 1019 48 10000 1 0 22:19 24.12.2019
5835 Clear 20 1019 52 10000 1.5 180 21:41 24.12.2019
5836 Clear 20 1019 52 10000 2.6 190 21:22 24.12.2019
5837 Clear 20 1018 55 10000 3.1 190 20:43 24.12.2019
5838 Clear 21 1018 49 10000 3.6 200 20:24 24.12.2019
5839 Clouds 22 1018 46 10000 3.6 190 19:57 24.12.2019
5840 Clouds 22 1018 49 10000 3.6 190 19:38 24.12.2019
5841 Clouds 22 1018 49 10000 3.6 190 19:18 24.12.2019
5842 Clouds 22 1018 56 10000 4.6 170 18:42 24.12.2019
5843 Clouds 22 1018 53 10000 5.7 170 18:20 24.12.2019
5844 Clouds 24 1018 44 10000 5.7 160 17:45 24.12.2019
5845 Clouds 24 1018 44 10000 5.7 160 17:24 24.12.2019
5846 Clouds 24 1018 44 10000 6.2 160 16:59 24.12.2019
5847 Clouds 25 1018 38 10000 7.2 160 16:40 24.12.2019
5848 Clouds 25 1018 38 10000 7.2 160 16:22 24.12.2019
5849 Clouds 25 1018 36 10000 7.7 160 15:58 24.12.2019
5850 Clouds 25 1018 36 10000 7.7 160 15:58 24.12.2019
5851 Clouds 26 1018 22 10000 5.7 180 15:38 24.12.2019
5852 Clouds 25 1018 22 10000 5.7 180 15:20 24.12.2019
5853 Clouds 24 1019 47 10000 5.1 160 14:59 24.12.2019
5854 Clouds 24 1019 47 10000 6.2 170 14:40 24.12.2019
5855 Clouds 25 1019 47 10000 6.2 170 14:22 24.12.2019
5856 Clouds 25 1019 50 10000 4.6 170 13:56 24.12.2019
5857 Clouds 23 1020 56 10000 4.1 150 13:38 24.12.2019
5858 Clouds 22 1020 56 10000 4.1 150 13:20 24.12.2019
5859 Clouds 22 1020 64 10000 2.6 160 12:57 24.12.2019
5860 Clouds 24 1021 64 10000 2.1 170 12:38 24.12.2019
5861 Clouds 23 1021 64 10000 2.1 170 12:19 24.12.2019
5862 Clouds 22 1021 73 10000 1.5 150 11:57 24.12.2019
5863 Clouds 22 1021 68 10000 1.5 150 11:38 24.12.2019
5864 Clouds 22 1021 68 10000 1.5 150 11:20 24.12.2019
5865 Clouds 22 1020 64 10000 3.75 188 10:57 24.12.2019
5866 Clouds 21 1020 60 10000 3.75 188 10:38 24.12.2019
5867 Clouds 22 1020 60 10000 3.75 188 10:20 24.12.2019
5868 Clouds 20 1020 63 10000 1 0 09:56 24.12.2019
5869 Clouds 19 1019 63 10000 1.5 290 09:38 24.12.2019
5870 Clouds 19 1019 63 10000 1.5 290 09:20 24.12.2019
5871 Clouds 18 1019 59 10000 2.1 320 08:47 24.12.2019
5872 Clouds 17 1020 63 10000 1 0 08:24 24.12.2019
5873 Clear 19 1019 52 10000 1 0 07:56 24.12.2019
5874 Clear 20 1019 52 10000 3.6 120 07:38 24.12.2019
5875 Clear 21 1019 52 10000 3.6 120 07:20 24.12.2019
5876 Clear 20 1019 49 10000 1.5 250 06:39 24.12.2019
5877 Clear 21 1019 49 10000 1.5 250 06:19 24.12.2019
5878 Clear 21 1019 40 10000 2.6 230 05:50 24.12.2019
5879 Clear 21 1020 40 10000 2.1 240 05:19 24.12.2019
5880 Clear 20 1020 45 10000 2.6 230 04:21 24.12.2019
5881 Clear 18 1020 42 10000 2.6 180 03:45 24.12.2019
5882 Clear 19 1020 36 10000 2.1 240 02:28 24.12.2019
5883 Clear 19 1021 48 10000 1.5 260 01:54 24.12.2019
5884 Clear 17 1021 67 10000 1.5 240 01:25 24.12.2019
5885 Clear 17 1021 82 10000 1 0 00:56 24.12.2019
5886 Clear 17 1021 72 10000 2.92 161 00:37 24.12.2019
5887 Clear 17 1021 72 10000 2.92 161 00:19 24.12.2019
5888 Clear 18 1021 72 10000 1.5 290 23:42 23.12.2019
5889 Clear 19 1021 88 10000 2.92 161 23:23 23.12.2019
5890 Clear 19 1021 82 10000 1.5 290 22:57 23.12.2019
5891 Clear 19 1021 88 10000 2.65 152 22:38 23.12.2019
5892 Clear 18 1021 88 10000 2.65 152 22:19 23.12.2019
5893 Clear 18 1021 88 10000 2.65 152 21:56 23.12.2019
5894 Clear 18 1021 82 10000 1 0 21:36 23.12.2019
5895 Clear 19 1021 82 10000 1 0 21:18 23.12.2019
5896 Clear 19 1021 82 10000 1.5 350 20:57 23.12.2019
5897 Clear 19 1021 88 10000 1 0 20:39 23.12.2019
5898 Clear 19 1021 88 10000 1 0 20:18 23.12.2019
5899 Clear 20 1020 82 10000 1.5 0 19:56 23.12.2019
5900 Clear 20 1020 82 10000 0.5 0 19:38 23.12.2019
5901 Clear 20 1020 82 10000 0.5 0 19:20 23.12.2019
5902 Clear 20 1020 82 10000 1.5 150 18:58 23.12.2019
5903 Clear 20 1020 82 10000 1.5 140 18:39 23.12.2019
5904 Clear 20 1020 82 10000 1.5 140 18:20 23.12.2019
5905 Clear 21 1020 77 10000 1.5 140 17:57 23.12.2019
5906 Clouds 21 1020 77 10000 2.1 120 17:39 23.12.2019
5907 Clouds 21 1020 77 10000 2.1 120 17:19 23.12.2019
5908 Clouds 21 1020 77 10000 2.1 120 16:55 23.12.2019
5909 Clouds 21 1020 77 10000 2.1 120 16:37 23.12.2019
5910 Clouds 21 1020 77 10000 2.1 120 16:18 23.12.2019
5911 Clouds 21 1020 77 10000 3.1 100 15:55 23.12.2019
5912 Clouds 21 1021 77 10000 3.1 100 15:36 23.12.2019
5913 Clouds 21 1021 77 10000 3.1 100 15:18 23.12.2019
5914 Clouds 21 1021 82 10000 2.1 110 14:45 23.12.2019
5915 Clouds 21 1022 77 10000 2.1 120 14:26 23.12.2019
5916 Clouds 21 1022 77 10000 3.1 130 13:59 23.12.2019
5917 Clouds 21 1023 77 10000 3.1 150 13:41 23.12.2019
5918 Clouds 21 1023 77 10000 3.1 150 13:22 23.12.2019
5919 Clouds 21 1023 73 10000 1.5 170 12:59 23.12.2019
5920 Clouds 21 1023 77 10000 1.5 140 12:40 23.12.2019
5921 Clouds 21 1023 77 10000 1.5 140 12:21 23.12.2019
5922 Clouds 21 1023 77 10000 1.5 140 12:21 23.12.2019
5923 Clouds 21 1023 77 10000 2.1 110 11:55 23.12.2019
5924 Clouds 21 1023 77 10000 3.68 164 11:37 23.12.2019
5925 Clouds 21 1023 77 10000 2.48 168 11:18 23.12.2019
5926 Clouds 20 1023 82 10000 0.5 0 10:54 23.12.2019
5927 Clouds 19 1022 88 10000 1.5 250 10:36 23.12.2019
5928 Clouds 19 1022 88 10000 1.5 250 10:18 23.12.2019
5929 Clouds 17 1022 88 10000 2.1 290 09:40 23.12.2019
5930 Clouds 17 1022 88 10000 2.1 290 09:22 23.12.2019
5931 Clouds 17 1022 82 10000 1.5 300 08:59 23.12.2019
5932 Clouds 17 1022 88 10000 0.5 0 08:40 23.12.2019
5933 Clouds 17 1022 88 10000 0.5 0 08:22 23.12.2019
5934 Clouds 17 1021 88 10000 2.6 290 07:48 23.12.2019
5935 Clouds 17 1021 88 10000 2.1 300 07:21 23.12.2019
5936 Clouds 17 1021 88 10000 2.1 300 06:57 23.12.2019
5937 Clouds 17 1021 88 10000 2.6 310 06:30 23.12.2019
5938 Clouds 17 1021 88 10000 2.1 320 05:56 23.12.2019
5939 Clouds 18 1022 82 10000 2.1 310 05:30 23.12.2019
5940 Clouds 18 1022 88 10000 2.1 310 04:39 23.12.2019
5941 Clouds 19 1022 88 10000 3.6 60 03:28 23.12.2019
5942 Clouds 19 1022 82 10000 4.6 40 02:43 23.12.2019
5943 Clouds 19 1022 82 10000 5.7 40 02:19 23.12.2019
5944 Clouds 20 1023 77 10000 7.2 20 01:44 23.12.2019
5945 Clouds 20 1023 77 10000 6.7 20 01:26 23.12.2019
5946 Clouds 21 1023 73 10000 7.2 350 00:44 23.12.2019
5947 Clouds 20 1023 68 10000 7.2 360 00:24 23.12.2019
5948 Clouds 20 1023 77 10000 8.2 350 23:40 22.12.2019
5949 Clouds 20 1023 77 10000 8.2 350 23:22 22.12.2019
5950 Clouds 20 1023 77 10000 8.2 360 22:58 22.12.2019
5951 Clouds 20 1024 77 10000 7.2 350 22:40 22.12.2019
5952 Clouds 18 1024 77 10000 7.2 350 22:22 22.12.2019
5953 Clouds 19 1024 77 10000 7.7 360 21:59 22.12.2019
5954 Clouds 19 1023 77 10000 9.8 340 21:40 22.12.2019
5955 Clouds 18 1023 77 10000 9.8 340 21:21 22.12.2019
5956 Clouds 19 1023 77 10000 8.2 360 20:59 22.12.2019
5957 Clouds 20 1023 77 10000 8.2 360 20:39 22.12.2019
5958 Clouds 20 1023 77 10000 8.2 360 20:19 22.12.2019
5959 Clouds 20 1023 77 10000 9.3 360 19:57 22.12.2019
5960 Clouds 21 1023 73 10000 9.8 10 19:39 22.12.2019
5961 Clouds 20 1023 73 10000 9.8 10 19:19 22.12.2019
5962 Clouds 21 1023 73 10000 8.7 360 18:42 22.12.2019
5963 Clouds 21 1023 68 10000 9.8 10 18:24 22.12.2019
5964 Clouds 22 1023 64 10000 8.7 360 17:56 22.12.2019
5965 Clouds 22 1023 64 10000 8.7 360 17:56 22.12.2019
5966 Clouds 22 1023 64 10000 9.3 360 17:38 22.12.2019
5967 Clouds 21 1023 64 10000 9.3 360 17:19 22.12.2019
5968 Clouds 21 1023 64 10000 9.3 360 17:19 22.12.2019
5969 Clouds 22 1023 64 10000 9.3 10 16:57 22.12.2019
5970 Clouds 22 1023 64 10000 8.7 10 16:39 22.12.2019
5971 Clouds 22 1023 64 10000 8.7 10 16:21 22.12.2019
5972 Clouds 23 1023 60 10000 9.3 360 15:56 22.12.2019
5973 Clouds 22 1023 64 10000 9.8 10 15:38 22.12.2019
5974 Clouds 22 1023 64 10000 9.8 10 15:20 22.12.2019
5975 Clouds 22 1024 60 10000 8.7 360 14:55 22.12.2019
5976 Clouds 23 1024 56 10000 7.2 360 14:37 22.12.2019
5977 Clouds 23 1024 56 10000 7.2 360 14:18 22.12.2019
5978 Clouds 21 1025 60 10000 7.7 350 13:55 22.12.2019
5979 Clouds 21 1025 60 10000 7.2 350 13:36 22.12.2019
5980 Clouds 21 1025 60 10000 7.2 350 13:36 22.12.2019
5981 Clouds 21 1025 60 10000 7.2 350 13:18 22.12.2019
5982 Clouds 21 1025 64 10000 7.7 360 12:55 22.12.2019
5983 Clouds 21 1025 64 10000 7.7 360 12:55 22.12.2019
5984 Clouds 21 1026 68 10000 6.7 360 12:37 22.12.2019
5985 Clouds 21 1026 68 10000 6.7 360 12:18 22.12.2019
5986 Clouds 21 1026 64 10000 6.2 10 11:55 22.12.2019
5987 Clouds 21 1026 64 10000 6.2 10 11:36 22.12.2019
5988 Clouds 21 1026 64 10000 6.2 10 11:18 22.12.2019
5989 Clouds 21 1025 64 10000 5.1 350 10:54 22.12.2019
5990 Clouds 20 1025 68 10000 5.7 10 10:36 22.12.2019
5991 Clouds 20 1025 68 10000 5.7 10 10:18 22.12.2019
5992 Clouds 19 1024 63 10000 4.6 360 09:41 22.12.2019
5993 Clouds 18 1024 63 10000 4.6 360 09:22 22.12.2019
5994 Clouds 18 1024 63 10000 4.6 360 08:59 22.12.2019
5995 Clouds 18 1024 60 10000 6.2 10 08:38 22.12.2019
5996 Clouds 18 1024 60 10000 6.2 10 08:38 22.12.2019
5997 Clouds 19 1024 60 10000 6.2 10 08:20 22.12.2019
5998 Clouds 18 1023 68 10000 6.7 10 07:39 22.12.2019
5999 Clouds 18 1023 68 10000 6.7 10 07:20 22.12.2019
6000 Clouds 19 1024 68 10000 7.2 20 06:41 22.12.2019
6001 Clouds 18 1024 72 10000 6.2 20 05:54 22.12.2019
6002 Clouds 19 1024 77 10000 5.7 20 05:23 22.12.2019
6003 Clouds 19 1024 77 10000 5.7 360 04:30 22.12.2019
6004 Clouds 19 1024 77 10000 5.1 360 03:56 22.12.2019
6005 Clouds 19 1025 82 10000 5.1 10 02:42 22.12.2019
6006 Clouds 19 1025 82 10000 5.1 10 02:42 22.12.2019
6007 Clouds 19 1025 82 10000 7.2 10 01:51 22.12.2019
6008 Clouds 19 1025 77 10000 6.2 10 01:30 22.12.2019
6009 Clouds 19 1025 77 10000 6.2 10 01:30 22.12.2019
6010 Clouds 19 1025 72 10000 6.2 360 00:47 22.12.2019
6011 Clouds 19 1025 72 10000 7.2 360 00:24 22.12.2019
6012 Clouds 19 1025 72 10000 6.7 360 23:57 21.12.2019
6013 Clouds 19 1025 72 10000 6.7 360 23:38 21.12.2019
6014 Clouds 19 1025 72 10000 6.7 360 23:19 21.12.2019
6015 Clouds 19 1025 72 10000 7.2 350 22:41 21.12.2019
6016 Clouds 19 1025 68 10000 6.2 360 22:19 21.12.2019
6017 Clouds 19 1024 68 10000 6.7 10 21:57 21.12.2019
6018 Clouds 19 1024 68 10000 6.7 360 21:38 21.12.2019
6019 Clouds 19 1024 68 10000 6.7 360 21:19 21.12.2019
6020 Clouds 19 1024 68 10000 6.2 10 20:59 21.12.2019
6021 Clouds 20 1024 72 10000 6.2 10 20:39 21.12.2019
6022 Clouds 20 1024 72 10000 6.2 10 20:21 21.12.2019
6023 Clouds 20 1024 72 10000 5.7 10 19:58 21.12.2019
6024 Clouds 20 1024 72 10000 6.7 10 19:40 21.12.2019
6025 Clouds 20 1024 72 10000 6.7 10 19:19 21.12.2019
6026 Clouds 20 1024 73 10000 6.7 20 18:45 21.12.2019
6027 Clouds 20 1024 73 10000 7.2 30 18:24 21.12.2019
6028 Clouds 21 1023 68 10000 7.2 30 17:57 21.12.2019
6029 Clouds 21 1023 68 10000 7.2 30 17:57 21.12.2019
6030 Clouds 21 1023 68 10000 7.2 30 17:39 21.12.2019
6031 Clouds 21 1023 68 10000 7.2 30 17:21 21.12.2019
6032 Clouds 21 1023 68 10000 7.2 30 16:59 21.12.2019
6033 Clouds 21 1023 68 10000 7.2 30 16:41 21.12.2019
6034 Clouds 21 1023 68 10000 6.7 30 16:19 21.12.2019
6035 Clouds 21 1023 68 10000 6.2 30 15:57 21.12.2019
6036 Clouds 22 1024 64 10000 6.2 30 15:38 21.12.2019
6037 Clouds 22 1024 64 10000 6.2 30 15:19 21.12.2019
6038 Clouds 21 1024 64 10000 6.2 40 14:56 21.12.2019
6039 Clouds 22 1024 60 10000 6.2 40 14:37 21.12.2019
6040 Clouds 22 1024 60 10000 6.2 40 14:18 21.12.2019
6041 Clouds 22 1025 60 10000 6.7 40 13:55 21.12.2019
6042 Clouds 21 1025 64 10000 5.7 40 13:37 21.12.2019
6043 Clouds 21 1025 64 10000 5.7 40 13:18 21.12.2019
6044 Clouds 21 1025 64 10000 5.7 40 12:54 21.12.2019
6045 Clouds 21 1025 68 10000 5.7 40 12:36 21.12.2019
6046 Clouds 21 1025 68 10000 5.7 40 12:18 21.12.2019
6047 Clouds 21 1025 64 10000 4.1 20 11:41 21.12.2019
6048 Clouds 20 1025 68 10000 4.1 10 11:23 21.12.2019
6049 Clouds 20 1025 68 10000 3.1 360 10:54 21.12.2019
6050 Clouds 19 1025 72 10000 1 0 10:36 21.12.2019
6051 Clouds 18 1025 72 10000 1 0 10:18 21.12.2019
6052 Clouds 15 1024 82 10000 2.79 335 09:42 21.12.2019
6053 Clouds 16 1024 72 10000 2.1 310 09:21 21.12.2019
6054 Clouds 16 1024 77 10000 1.5 320 08:57 21.12.2019
6055 Clouds 16 1023 82 10000 2.6 330 08:37 21.12.2019
6056 Clouds 15 1023 82 10000 2.6 330 08:18 21.12.2019
6057 Clouds 16 1023 82 10000 1.5 290 07:41 21.12.2019
6058 Clouds 15 1023 82 10000 1.5 290 07:22 21.12.2019
6059 Clouds 15 1023 82 10000 2.1 310 06:44 21.12.2019
6060 Clouds 16 1023 82 10000 2.6 330 06:25 21.12.2019
6061 Clouds 15 1023 82 10000 2.6 340 05:47 21.12.2019
6062 Clouds 16 1023 87 10000 2.6 320 04:58 21.12.2019
6063 Clouds 16 1023 82 10000 3.1 330 03:57 21.12.2019
6064 Clouds 15 1023 82 10000 2.6 320 02:51 21.12.2019
6065 Clouds 17 1023 77 10000 2.1 310 01:57 21.12.2019
6066 Clouds 16 1024 82 10000 1.5 310 01:27 21.12.2019
6067 Clouds 17 1024 82 10000 1 0 00:52 21.12.2019
6068 Clouds 17 1024 82 10000 1 0 00:32 21.12.2019
6069 Clouds 17 1024 88 10000 2.6 340 23:57 20.12.2019
6070 Clouds 17 1024 82 10000 2.6 320 23:37 20.12.2019
6071 Clouds 17 1024 82 10000 2.6 320 23:18 20.12.2019
6072 Clouds 17 1024 82 10000 1.5 320 22:40 20.12.2019
6073 Clouds 18 1024 82 10000 1.5 320 22:21 20.12.2019
6074 Clouds 18 1023 82 10000 0.98 5 21:57 20.12.2019
6075 Clouds 18 1023 82 10000 1.5 0 21:39 20.12.2019
6076 Clouds 18 1023 82 10000 1.5 0 21:19 20.12.2019
6077 Clouds 19 1023 77 10000 2.1 180 20:39 20.12.2019
6078 Clouds 19 1023 77 10000 2.1 180 20:19 20.12.2019
6079 Clouds 19 1022 77 10000 2.1 150 19:58 20.12.2019
6080 Clouds 19 1022 77 10000 2.1 150 19:40 20.12.2019
6081 Clouds 19 1022 77 10000 2.1 150 19:40 20.12.2019
6082 Clouds 19 1022 77 10000 2.1 150 19:19 20.12.2019
6083 Clouds 20 1022 77 10000 2.1 160 18:42 20.12.2019
6084 Clouds 20 1022 77 10000 2.6 160 18:24 20.12.2019
6085 Clouds 20 1022 77 10000 3.6 160 17:59 20.12.2019
6086 Clouds 20 1022 77 10000 3.6 160 17:41 20.12.2019
6087 Clouds 20 1022 77 10000 4.6 160 17:21 20.12.2019
6088 Clouds 21 1021 73 10000 4.6 160 16:59 20.12.2019
6089 Clouds 20 1021 73 10000 4.6 160 16:39 20.12.2019
6090 Clouds 20 1022 77 10000 4.1 160 16:20 20.12.2019
6091 Clouds 20 1022 77 10000 3.6 160 15:56 20.12.2019
6092 Clouds 20 1022 77 10000 3.6 160 15:38 20.12.2019
6093 Clouds 20 1022 77 10000 3.1 160 15:19 20.12.2019
6094 Clouds 20 1022 77 10000 3.1 160 15:19 20.12.2019
6095 Clouds 20 1023 77 10000 3.1 160 14:54 20.12.2019
6096 Clouds 20 1023 77 10000 3.1 160 14:36 20.12.2019
6097 Clouds 20 1023 73 10000 3.1 160 14:18 20.12.2019
6098 Clouds 20 1024 73 10000 2.6 140 13:41 20.12.2019
6099 Clouds 20 1024 73 10000 2.6 140 13:20 20.12.2019
6100 Clouds 21 1024 73 10000 2.6 130 12:57 20.12.2019
6101 Clouds 21 1024 73 10000 2.6 130 12:38 20.12.2019
6102 Clouds 20 1025 77 10000 2.1 120 12:19 20.12.2019
6103 Clouds 20 1025 77 10000 1.5 110 11:58 20.12.2019
6104 Clouds 20 1025 77 10000 1.5 110 11:39 20.12.2019
6105 Clouds 20 1024 77 10000 0.5 0 11:19 20.12.2019
6106 Clouds 19 1024 77 10000 2.1 360 10:57 20.12.2019
6107 Clouds 19 1024 77 10000 2.1 360 10:39 20.12.2019
6108 Clouds 18 1024 82 10000 2.1 330 10:20 20.12.2019
6109 Clouds 17 1023 77 10000 2.1 330 09:44 20.12.2019
6110 Clouds 17 1023 77 10000 2.1 330 09:44 20.12.2019
6111 Clouds 17 1023 77 10000 2.1 310 09:22 20.12.2019
6112 Clouds 16 1023 82 10000 2.6 310 08:59 20.12.2019
6113 Clouds 16 1023 82 10000 2.6 310 08:41 20.12.2019
6114 Clouds 16 1023 77 10000 2.1 300 08:22 20.12.2019
6115 Clouds 16 1023 82 10000 3.1 300 07:58 20.12.2019
6116 Clouds 15 1023 82 10000 3.1 300 07:39 20.12.2019
6117 Clouds 15 1022 82 10000 2.6 300 07:18 20.12.2019
6118 Clouds 15 1022 77 10000 2.1 300 06:48 20.12.2019
6119 Clouds 15 1022 77 10000 2.1 300 06:48 20.12.2019
6120 Clouds 16 1023 72 10000 3.1 310 06:30 20.12.2019
6121 Clouds 16 1022 77 10000 2.6 280 05:49 20.12.2019
6122 Clouds 16 1023 77 10000 2.6 270 05:21 20.12.2019
6123 Clouds 16 1023 82 10000 2.6 270 03:50 20.12.2019
6124 Clear 16 1023 77 10000 1.5 260 03:28 20.12.2019
6125 Clear 17 1023 77 10000 3.1 250 02:33 20.12.2019
6126 Clear 17 1023 77 10000 2.6 250 01:36 20.12.2019
6127 Clouds 18 1024 77 10000 2.1 300 00:58 20.12.2019
6128 Clouds 18 1024 77 10000 2.1 300 00:39 20.12.2019
6129 Clouds 18 1024 82 10000 1.5 300 23:59 19.12.2019
6130 Clouds 18 1024 82 10000 1.5 300 23:40 19.12.2019
6131 Clouds 18 1024 82 10000 2.1 20 23:22 19.12.2019
6132 Clouds 18 1024 77 10000 3.6 40 22:41 19.12.2019
6133 Clouds 19 1023 77 10000 3.6 50 22:23 19.12.2019
6134 Clouds 19 1023 72 10000 5.1 30 21:59 19.12.2019
6135 Clouds 19 1023 72 10000 5.1 30 21:59 19.12.2019
6136 Clouds 19 1023 72 10000 5.1 30 21:41 19.12.2019
6137 Clouds 19 1023 77 10000 4.6 30 21:20 19.12.2019
6138 Clouds 19 1022 77 10000 5.1 20 20:58 19.12.2019
6139 Clouds 19 1022 77 10000 5.1 20 20:38 19.12.2019
6140 Clouds 19 1022 72 10000 3.6 360 20:20 19.12.2019
6141 Clouds 19 1021 72 10000 0.5 0 19:59 19.12.2019
6142 Clouds 19 1021 72 10000 0.5 0 19:59 19.12.2019
6143 Clouds 19 1021 72 10000 0.5 0 19:40 19.12.2019
6144 Clouds 19 1021 72 10000 4.1 200 19:20 19.12.2019
6145 Clouds 20 1021 72 10000 5.1 180 18:59 19.12.2019
6146 Clouds 20 1021 72 10000 5.1 180 18:40 19.12.2019
6147 Clouds 20 1021 68 10000 5.7 190 18:20 19.12.2019
6148 Clouds 21 1020 68 10000 7.2 180 17:56 19.12.2019
6149 Clouds 20 1020 68 10000 7.2 180 17:38 19.12.2019
6150 Clouds 20 1021 68 10000 7.7 190 17:18 19.12.2019
6151 Clouds 20 1021 68 10000 6.7 160 16:56 19.12.2019
6152 Clouds 20 1021 68 10000 6.7 160 16:56 19.12.2019
6153 Clouds 20 1021 68 10000 6.7 160 16:56 19.12.2019
6154 Clouds 21 1021 73 10000 6.2 160 16:38 19.12.2019
6155 Clouds 21 1021 73 10000 6.2 160 16:19 19.12.2019
6156 Clouds 21 1021 73 10000 6.2 160 16:19 19.12.2019
6157 Clouds 21 1021 68 10000 6.2 160 15:58 19.12.2019
6158 Clouds 21 1021 68 10000 6.2 160 15:38 19.12.2019
6159 Clouds 21 1021 68 10000 5.1 150 15:19 19.12.2019
6160 Clouds 20 1022 73 10000 5.1 150 14:57 19.12.2019
6161 Clouds 20 1022 73 10000 5.1 150 14:39 19.12.2019
6162 Clouds 20 1022 73 10000 5.7 160 14:18 19.12.2019
6163 Clouds 21 1023 73 10000 5.1 160 13:39 19.12.2019
6164 Clouds 21 1023 73 10000 5.1 160 13:20 19.12.2019
6165 Clouds 21 1023 73 10000 5.1 160 13:20 19.12.2019
6166 Clouds 20 1023 77 10000 5.7 160 12:58 19.12.2019
6167 Clouds 20 1023 77 10000 5.7 160 12:40 19.12.2019
6168 Clouds 20 1023 68 10000 2.6 0 12:19 19.12.2019
6169 Clouds 20 1023 64 10000 1.5 130 11:59 19.12.2019
6170 Clouds 19 1023 64 10000 1.5 130 11:41 19.12.2019
6171 Clouds 19 1023 68 10000 1.5 0 11:19 19.12.2019
6172 Clouds 19 1023 68 10000 0.5 0 10:59 19.12.2019
6173 Clouds 19 1023 68 10000 0.5 0 10:38 19.12.2019
6174 Clouds 17 1023 77 10000 1 0 10:20 19.12.2019
6175 Clouds 16 1023 77 10000 0.5 0 09:56 19.12.2019
6176 Clouds 16 1023 77 10000 0.5 0 09:37 19.12.2019
6177 Clouds 15 1022 82 10000 1.5 220 09:37 19.12.2019
6178 Clouds 15 1022 82 10000 1.5 220 09:19 19.12.2019
6179 Clouds 15 1022 77 10000 1.5 280 08:55 19.12.2019
6180 Clouds 15 1022 77 10000 1.5 280 08:36 19.12.2019
6181 Clouds 15 1022 77 10000 3.6 210 08:18 19.12.2019
6182 Clouds 15 1021 82 10000 1 0 07:40 19.12.2019
6183 Clouds 16 1021 82 10000 1 0 07:22 19.12.2019
6184 Clouds 15 1021 82 10000 1 240 06:54 19.12.2019
6185 Clouds 15 1021 82 10000 1 240 06:36 19.12.2019
6186 Clouds 15 1021 82 10000 1 190 06:18 19.12.2019
6187 Clouds 15 1021 82 10000 0.45 309 05:42 19.12.2019
6188 Clouds 16 1022 77 10000 1.5 260 05:18 19.12.2019
6189 Clouds 16 1022 82 10000 2.1 290 03:51 19.12.2019
6190 Clouds 17 1022 77 10000 1.5 300 02:25 19.12.2019
6191 Clouds 17 1023 82 10000 2.1 300 01:24 19.12.2019
6192 Clouds 17 1023 82 10000 2.1 300 00:55 19.12.2019
6193 Clouds 17 1023 82 10000 2.1 300 00:36 19.12.2019
6194 Clouds 17 1023 77 10000 1 0 00:18 19.12.2019
6195 Clouds 17 1023 82 10000 1.5 310 23:43 18.12.2019
6196 Clouds 17 1023 82 10000 1.5 310 23:43 18.12.2019
6197 Clouds 17 1022 77 10000 1 0 23:19 18.12.2019
6198 Clouds 18 1023 72 10000 1 0 22:56 18.12.2019
6199 Clouds 18 1023 72 10000 1 0 22:38 18.12.2019
6200 Clouds 18 1023 77 10000 1.5 90 22:20 18.12.2019
6201 Clouds 19 1023 72 10000 1.5 60 21:57 18.12.2019
6202 Clouds 19 1023 72 10000 1.5 60 21:39 18.12.2019
6203 Clouds 19 1023 72 10000 1.5 60 21:39 18.12.2019
6204 Clouds 19 1022 68 10000 0.5 180 21:20 18.12.2019
6205 Clouds 19 1022 68 10000 2.1 180 20:55 18.12.2019
6206 Clouds 19 1022 68 10000 2.1 180 20:37 18.12.2019
6207 Clouds 19 1022 68 10000 2.1 180 20:37 18.12.2019
6208 Clouds 19 1021 72 10000 3.6 180 20:19 18.12.2019
6209 Clouds 19 1021 72 10000 2.6 160 19:55 18.12.2019
6210 Clouds 19 1021 72 10000 2.6 160 19:37 18.12.2019
6211 Clouds 19 1021 77 10000 2.1 140 19:18 18.12.2019
6212 Clouds 20 1021 72 10000 1.5 120 18:45 18.12.2019
6213 Clouds 19 1021 77 10000 1.5 140 18:25 18.12.2019
6214 Clouds 20 1021 72 10000 2.1 160 17:57 18.12.2019
6215 Clouds 20 1021 72 10000 2.1 160 17:39 18.12.2019
6216 Clouds 20 1020 72 10000 2.6 160 17:20 18.12.2019
6217 Clouds 20 1020 72 10000 3.1 170 16:57 18.12.2019
6218 Clouds 20 1020 72 10000 3.1 170 16:57 18.12.2019
6219 Clouds 20 1020 72 10000 3.6 150 16:38 18.12.2019
6220 Clouds 20 1020 72 10000 3.6 150 16:20 18.12.2019
6221 Clouds 20 1020 68 10000 3.6 160 15:55 18.12.2019
6222 Clouds 20 1020 68 10000 4.1 160 15:37 18.12.2019
6223 Clouds 20 1020 68 10000 4.1 160 15:37 18.12.2019
6224 Clouds 20 1020 68 10000 4.1 160 15:19 18.12.2019
6225 Clouds 20 1021 64 10000 4.1 160 14:42 18.12.2019
6226 Clouds 20 1021 64 10000 4.6 160 14:22 18.12.2019
6227 Clouds 20 1022 64 10000 4.1 160 13:57 18.12.2019
6228 Clouds 20 1022 64 10000 3.6 160 13:39 18.12.2019
6229 Clouds 20 1022 64 10000 3.6 160 13:20 18.12.2019
6230 Clouds 20 1023 60 10000 3.1 140 12:58 18.12.2019
6231 Clouds 20 1023 64 10000 2.6 130 12:38 18.12.2019
6232 Clouds 20 1023 64 10000 2.6 130 12:38 18.12.2019
6233 Clouds 20 1023 64 10000 2.6 130 12:20 18.12.2019
6234 Clouds 20 1023 64 10000 2.6 130 11:56 18.12.2019
6235 Clouds 20 1023 64 10000 0.5 0 11:38 18.12.2019
6236 Clouds 20 1023 64 10000 0.5 0 11:19 18.12.2019
6237 Clouds 19 1022 63 10000 1.5 0 10:55 18.12.2019
6238 Clouds 19 1022 63 10000 2.6 260 10:37 18.12.2019
6239 Clouds 18 1022 63 10000 2.6 260 10:19 18.12.2019
6240 Clouds 16 1022 67 10000 3.1 260 09:50 18.12.2019
6241 Clouds 15 1022 77 10000 2.6 270 09:18 18.12.2019
6242 Clouds 15 1021 77 10000 3.1 270 08:41 18.12.2019
6243 Clouds 15 1021 77 10000 3.1 270 08:22 18.12.2019
6244 Clouds 16 1021 72 10000 2.6 280 07:45 18.12.2019
6245 Clouds 16 1021 72 10000 2.6 280 07:24 18.12.2019
6246 Clouds 16 1020 72 10000 2.6 280 06:57 18.12.2019
6247 Clouds 16 1020 72 10000 2.6 280 06:28 18.12.2019
6248 Clouds 16 1020 72 10000 3.1 290 05:57 18.12.2019
6249 Clear 16 1020 72 10000 2.6 290 04:59 18.12.2019
6250 Clear 16 1020 77 10000 3.1 270 02:55 18.12.2019
6251 Clear 16 1020 72 10000 2.6 270 02:37 18.12.2019
6252 Clear 16 1020 72 10000 2.6 270 02:18 18.12.2019
6253 Clear 17 1021 72 10000 2.1 310 01:41 18.12.2019
6254 Clear 17 1021 72 10000 2.1 310 01:22 18.12.2019
6255 Clear 17 1021 72 10000 2.1 310 01:22 18.12.2019
6256 Clear 17 1021 72 10000 2.1 260 00:41 18.12.2019
6257 Clear 17 1021 72 10000 2.1 260 00:23 18.12.2019
6258 Clear 17 1021 72 10000 1 0 23:57 17.12.2019
6259 Clear 17 1021 72 10000 2.6 300 23:38 17.12.2019
6260 Clear 17 1021 72 10000 2.6 300 23:19 17.12.2019
6261 Clear 17 1021 72 10000 2.1 280 22:56 17.12.2019
6262 Clouds 17 1020 67 10000 2.1 300 22:38 17.12.2019
6263 Clouds 17 1020 67 10000 2.1 300 22:19 17.12.2019
6264 Clouds 18 1020 63 10000 2.6 330 21:55 17.12.2019
6265 Clouds 18 1020 68 10000 3.6 360 21:37 17.12.2019
6266 Clouds 18 1020 68 10000 3.6 360 21:37 17.12.2019
6267 Clouds 18 1020 68 10000 3.6 360 21:19 17.12.2019
6268 Clouds 18 1020 68 10000 5.1 350 20:56 17.12.2019
6269 Clouds 18 1020 68 10000 4.6 360 20:38 17.12.2019
6270 Clouds 19 1020 68 10000 4.6 360 20:18 17.12.2019
6271 Clouds 19 1019 68 10000 5.1 350 19:55 17.12.2019
6272 Clouds 19 1019 60 10000 7.7 10 19:37 17.12.2019
6273 Clouds 20 1019 60 10000 7.7 10 19:18 17.12.2019
6274 Clouds 20 1018 60 10000 9.3 360 18:42 17.12.2019
6275 Clouds 20 1018 60 10000 9.3 360 18:42 17.12.2019
6276 Clouds 20 1018 56 10000 9.8 10 18:22 17.12.2019
6277 Clouds 21 1018 60 10000 10.8 20 17:59 17.12.2019
6278 Clouds 21 1018 56 10000 10.3 30 17:41 17.12.2019
6279 Clouds 21 1018 56 10000 10.3 30 17:19 17.12.2019
6280 Clouds 21 1018 53 10000 9.3 20 16:56 17.12.2019
6281 -273 0 0 0 0 0 16:37 17.12.2019
6282 Clouds 21 1018 49 10000 9.3 10 16:19 17.12.2019
6283 Clouds 22 1019 43 10000 8.2 360 15:56 17.12.2019
6284 Clouds 22 1019 43 10000 7.7 360 15:37 17.12.2019
6285 Clouds 22 1019 43 10000 7.7 360 15:19 17.12.2019
6286 Clouds 22 1019 43 10000 7.7 10 14:55 17.12.2019
6287 Clouds 22 1020 40 10000 8.2 360 14:37 17.12.2019
6288 Clouds 22 1020 40 10000 8.2 360 14:18 17.12.2019
6289 Clouds 21 1020 46 10000 7.7 350 13:55 17.12.2019
6290 Clouds 21 1020 49 10000 7.7 350 13:37 17.12.2019
6291 Clouds 21 1020 49 10000 7.7 350 13:18 17.12.2019
6292 Clouds 21 1021 52 10000 7.2 340 12:41 17.12.2019
6293 Clouds 20 1021 52 10000 7.2 340 12:19 17.12.2019
6294 Clouds 20 1021 56 10000 6.2 360 11:59 17.12.2019
6295 Clouds 20 1021 56 10000 6.2 360 11:59 17.12.2019
6296 Clouds 20 1020 56 10000 5.7 350 11:38 17.12.2019
6297 Clouds 20 1020 56 10000 5.7 350 11:19 17.12.2019
6298 Clouds 19 1020 59 10000 5.1 350 10:59 17.12.2019
6299 Clouds 19 1019 63 10000 4.1 350 10:41 17.12.2019
6300 Clouds 19 1019 63 10000 4.1 350 10:41 17.12.2019
6301 Clouds 18 1019 63 10000 4.1 350 10:22 17.12.2019
6302 Clouds 18 1019 63 10000 4.6 350 09:59 17.12.2019
6303 Clouds 17 1019 72 10000 3.6 340 09:41 17.12.2019
6304 Clouds 16 1019 72 10000 3.6 340 09:20 17.12.2019
6305 Clouds 16 1018 72 10000 4.1 350 08:56 17.12.2019
6306 Clouds 16 1018 72 10000 4.1 340 08:38 17.12.2019
6307 Clouds 16 1018 72 10000 4.1 340 08:19 17.12.2019
6308 Clouds 16 1017 72 10000 3.6 340 07:47 17.12.2019
6309 Clouds 16 1017 67 10000 3.6 330 07:27 17.12.2019
6310 Clouds 16 1017 63 10000 4.1 330 06:59 17.12.2019
6311 Clouds 17 1017 67 10000 5.1 340 06:35 17.12.2019
6312 Clouds 16 1018 72 10000 5.1 340 05:53 17.12.2019
6313 Clouds 16 1018 77 10000 3.1 360 05:35 17.12.2019
6314 Clouds 16 1018 77 10000 3.6 360 04:31 17.12.2019
6315 Clouds 16 1017 82 10000 3.1 20 02:34 17.12.2019
6316 Clouds 16 1017 72 10000 2.6 330 01:55 17.12.2019
6317 Rain 17 1018 67 10000 5.7 340 00:59 17.12.2019
6318 Clouds 17 1017 63 10000 6.2 340 00:38 17.12.2019
6319 Clouds 17 1017 63 10000 6.2 340 00:19 17.12.2019
6320 Clouds 17 1017 63 10000 10.3 340 23:41 16.12.2019
6321 Clouds 17 1017 63 10000 10.3 340 23:19 16.12.2019
6322 Clouds 17 1017 63 10000 10.3 340 23:19 16.12.2019
6323 Clouds 17 1017 63 10000 10.3 340 23:19 16.12.2019
6324 Rain 17 1017 72 10000 12.3 350 22:56 16.12.2019
6325 Clouds 17 1016 72 10000 10.8 340 22:37 16.12.2019
6326 Clouds 17 1016 72 10000 10.8 340 22:19 16.12.2019
6327 Clouds 17 1016 72 10000 10.8 340 22:19 16.12.2019
6328 Clouds 18 1016 59 10000 9.8 350 21:55 16.12.2019
6329 Clouds 18 1016 59 10000 9.8 350 21:55 16.12.2019
6330 Clouds 18 1016 59 10000 6.2 340 21:37 16.12.2019
6331 Clouds 18 1016 59 10000 6.2 340 21:19 16.12.2019
6332 Clouds 18 1016 63 10000 8.2 340 20:57 16.12.2019
6333 Rain 18 1016 77 10000 6.7 340 20:37 16.12.2019
6334 Rain 18 1016 77 10000 6.7 340 20:19 16.12.2019
6335 Rain 19 1015 55 9000 10.8 340 19:56 16.12.2019
6336 Rain 19 1015 55 9000 10.8 340 19:56 16.12.2019
6337 Clouds 19 1014 63 10000 11.3 340 19:37 16.12.2019
6338 Clouds 19 1014 63 10000 11.3 340 19:37 16.12.2019
6339 Clouds 19 1014 63 10000 11.3 340 19:18 16.12.2019
6340 Clouds 20 1014 45 10000 8.7 330 18:56 16.12.2019
6341 Clouds 21 1014 43 10000 10.3 330 18:37 16.12.2019
6342 Clouds 21 1014 43 10000 10.3 330 18:19 16.12.2019
6343 Clouds 20 1013 60 10000 8.7 10 17:57 16.12.2019
6344 Clouds 20 1013 60 10000 11.8 360 17:38 16.12.2019
6345 Clouds 20 1013 60 10000 11.8 360 17:38 16.12.2019
6346 Clouds 20 1013 60 10000 11.8 360 17:19 16.12.2019
6347 Clouds 22 1013 37 10000 6.7 320 16:55 16.12.2019
6348 Clouds 22 1013 37 10000 9.3 340 16:37 16.12.2019
6349 Clouds 22 1013 37 10000 9.3 340 16:18 16.12.2019
6350 Clouds 22 1013 35 10000 7.2 340 15:57 16.12.2019
6351 Clouds 22 1013 35 10000 8.2 320 15:38 16.12.2019
6352 Clouds 22 1013 35 10000 8.2 320 15:19 16.12.2019
6353 Clouds 21 1013 60 10000 2.1 0 14:54 16.12.2019
6354 Clouds 22 1013 53 10000 4.1 190 14:36 16.12.2019
6355 Clouds 22 1013 53 10000 4.1 190 14:18 16.12.2019
6356 Clouds 22 1013 53 10000 4.1 190 14:18 16.12.2019
6357 Clouds 21 1014 43 10000 7.2 330 13:55 16.12.2019
6358 Clouds 22 1014 46 10000 7.2 330 13:36 16.12.2019
6359 Clouds 21 1014 46 10000 7.2 330 13:18 16.12.2019
6360 Clouds 21 1014 46 10000 7.2 330 13:18 16.12.2019
6361 Clouds 21 1014 49 10000 10.3 330 12:54 16.12.2019
6362 Clouds 21 1014 52 10000 8.7 340 12:36 16.12.2019
6363 Clouds 21 1014 52 10000 8.7 340 12:18 16.12.2019
6364 Clouds 21 1014 46 10000 7.7 310 11:55 16.12.2019
6365 Clouds 21 1014 49 10000 7.7 330 11:37 16.12.2019
6366 Clouds 21 1014 49 10000 7.7 330 11:19 16.12.2019
6367 Clouds 18 1013 63 10000 2.1 250 10:40 16.12.2019
6368 Clouds 18 1013 63 10000 2.1 250 10:40 16.12.2019
6369 Clouds 18 1013 63 10000 2.1 250 10:21 16.12.2019
6370 Clouds 17 1013 67 10000 2.6 300 09:59 16.12.2019
6371 Clouds 16 1013 63 10000 3.6 350 09:41 16.12.2019
6372 Clouds 16 1013 63 10000 3.6 350 09:23 16.12.2019
6373 Clouds 16 1012 63 10000 2.1 290 08:40 16.12.2019
6374 Clouds 16 1012 63 10000 2.1 290 08:19 16.12.2019
6375 Clouds 16 1012 72 10000 2.1 300 07:53 16.12.2019
6376 Clouds 16 1012 72 10000 2.1 290 07:31 16.12.2019
6377 Clouds 16 1012 72 10000 2.6 290 06:57 16.12.2019
6378 Clouds 16 1012 77 10000 2.1 270 06:39 16.12.2019
6379 Clouds 16 1012 77 10000 2.1 270 06:18 16.12.2019
6380 Clouds 16 1012 77 10000 2.6 270 05:41 16.12.2019
6381 Clouds 16 1012 77 10000 2.6 270 05:22 16.12.2019
6382 Clouds 16 1012 72 10000 3.1 270 03:28 16.12.2019
6383 Clouds 15 1013 72 10000 2.1 260 01:46 16.12.2019
6384 Clouds 16 1014 77 10000 1 0 01:21 16.12.2019
6385 Clouds 16 1014 77 10000 1 0 00:39 16.12.2019
6386 Clouds 17 1014 77 10000 1 0 00:19 16.12.2019
6387 Clouds 17 1014 77 10000 1.5 220 23:44 15.12.2019
6388 Clouds 17 1014 72 10000 2.1 250 23:25 15.12.2019
6389 Clouds 18 1014 72 10000 2.1 230 22:57 15.12.2019
6390 Clouds 18 1014 72 10000 2.1 260 22:39 15.12.2019
6391 Clouds 18 1014 72 10000 2.1 260 22:19 15.12.2019
6392 Clouds 18 1014 72 10000 1.5 260 21:58 15.12.2019
6393 Clouds 18 1014 72 10000 1.5 280 21:39 15.12.2019
6394 Clouds 18 1014 72 10000 1.5 280 21:20 15.12.2019
6395 Clouds 18 1014 72 10000 1.5 280 21:20 15.12.2019
6396 Clouds 18 1014 72 10000 1.5 280 20:58 15.12.2019
6397 Clouds 18 1014 72 10000 1.5 280 20:58 15.12.2019
6398 Clouds 18 1014 72 10000 1.5 350 20:40 15.12.2019
6399 Clouds 18 1014 72 10000 1.5 350 20:40 15.12.2019
6400 Clouds 18 1014 72 10000 1.5 350 20:22 15.12.2019
6401 Clouds 18 1014 72 10000 1.5 50 19:58 15.12.2019
6402 Clouds 19 1014 68 10000 1.5 100 19:40 15.12.2019
6403 Clouds 19 1014 68 10000 1.5 100 19:20 15.12.2019
6404 Clouds 19 1014 68 10000 1 0 18:58 15.12.2019
6405 Clouds 19 1014 68 10000 1.5 120 18:39 15.12.2019
6406 Clouds 20 1014 68 10000 2.6 130 18:19 15.12.2019
6407 Clouds 20 1014 68 10000 2.6 130 17:57 15.12.2019
6408 Clouds 20 1014 64 10000 2.6 140 17:38 15.12.2019
6409 Clouds 20 1015 68 10000 2.6 130 17:19 15.12.2019
6410 Clouds 20 1015 68 10000 2.6 130 16:59 15.12.2019
6411 Clouds 20 1015 64 10000 2.6 150 16:41 15.12.2019
6412 Clouds 20 1015 64 10000 2.6 150 16:21 15.12.2019
6413 Clouds 20 1015 64 10000 3.1 140 15:56 15.12.2019
6414 Clouds 20 1015 64 10000 3.1 140 15:56 15.12.2019
6415 Clouds 20 1016 64 10000 3.6 130 15:38 15.12.2019
6416 Clouds 20 1016 64 10000 3.1 140 15:19 15.12.2019
6417 Clouds 20 1016 64 10000 3.1 140 14:56 15.12.2019
6418 Clouds 20 1017 68 10000 3.1 130 14:37 15.12.2019
6419 Clouds 20 1017 68 10000 3.1 130 14:18 15.12.2019
6420 Clouds 20 1017 68 10000 3.1 130 14:18 15.12.2019
6421 Clouds 20 1017 68 10000 2.6 140 13:58 15.12.2019
6422 Clouds 19 1018 72 10000 2.1 130 13:37 15.12.2019
6423 Clouds 19 1018 72 10000 2.1 130 13:19 15.12.2019
6424 Clouds 19 1018 72 10000 2.1 130 12:56 15.12.2019
6425 Clouds 19 1019 72 10000 1 0 12:38 15.12.2019
6426 Clouds 19 1019 72 10000 1 0 12:20 15.12.2019
6427 Clouds 19 1019 72 10000 1 0 11:55 15.12.2019
6428 Clouds 19 1019 72 10000 1.66 117 11:36 15.12.2019
6429 Clouds 19 1019 72 10000 0.37 217 11:18 15.12.2019
6430 Clouds 18 1019 72 10000 1 0 10:55 15.12.2019
6431 Clouds 17 1018 72 10000 2.1 280 10:36 15.12.2019
6432 Clouds 17 1018 72 10000 2.1 280 10:18 15.12.2019
6433 Clouds 16 1018 82 10000 2.1 300 09:39 15.12.2019
6434 Clouds 16 1018 82 10000 2.1 300 09:20 15.12.2019
6435 Clouds 15 1017 77 10000 2.6 300 08:57 15.12.2019
6436 Clouds 16 1017 77 10000 2.6 300 08:39 15.12.2019
6437 Clouds 15 1017 77 10000 2.6 300 08:20 15.12.2019
6438 Clouds 16 1017 82 10000 2.1 290 07:55 15.12.2019
6439 Clouds 16 1018 82 10000 2.6 290 07:34 15.12.2019
6440 Clouds 16 1018 77 10000 2.6 290 06:39 15.12.2019
6441 Clouds 16 1018 77 10000 2.6 290 06:19 15.12.2019
6442 Clouds 17 1019 77 10000 2.1 290 05:25 15.12.2019
6443 Clouds 17 1019 77 10000 2.1 290 05:25 15.12.2019
6444 Clouds 17 1019 72 10000 2.1 300 04:24 15.12.2019
6445 Clouds 17 1020 72 10000 2.1 320 03:22 15.12.2019
6446 Clouds 17 1020 77 10000 2.1 360 02:33 15.12.2019
6447 Clouds 17 1020 77 10000 3.1 30 01:44 15.12.2019
6448 Clouds 17 1020 77 10000 4.1 30 01:25 15.12.2019
6449 Clouds 18 1020 77 10000 4.1 40 00:54 15.12.2019
6450 Clouds 18 1020 77 10000 3.1 30 00:35 15.12.2019
6451 Clouds 18 1020 77 10000 2.6 30 23:58 14.12.2019
6452 Clouds 18 1020 77 10000 2.6 30 23:58 14.12.2019
6453 Clouds 18 1020 77 10000 4.6 20 23:39 14.12.2019
6454 Clouds 18 1020 77 10000 4.6 20 23:19 14.12.2019
6455 Clouds 18 1020 77 10000 4.6 10 22:57 14.12.2019
6456 Clouds 19 1020 72 10000 5.1 10 22:39 14.12.2019
6457 Clouds 19 1020 72 10000 5.1 10 22:39 14.12.2019
6458 Clouds 20 1020 72 10000 5.1 10 22:20 14.12.2019
6459 Clouds 19 1020 68 10000 5.1 20 21:55 14.12.2019
6460 Clouds 19 1020 72 10000 4.1 350 21:37 14.12.2019
6461 Clouds 19 1020 72 10000 4.1 350 21:18 14.12.2019
6462 Clouds 19 1020 72 10000 4.1 10 20:54 14.12.2019
6463 Clouds 19 1020 72 10000 4.6 20 20:36 14.12.2019
6464 Clouds 19 1020 72 10000 4.6 20 20:18 14.12.2019
6465 Clouds 19 1020 72 10000 4.6 20 20:18 14.12.2019
6466 Clouds 19 1020 72 10000 3.6 30 19:40 14.12.2019
6467 Clouds 19 1020 72 10000 3.1 30 19:21 14.12.2019
6468 Clouds 19 1020 72 10000 3.6 30 19:21 14.12.2019
6469 Clouds 19 1020 72 10000 3.1 30 18:57 14.12.2019
6470 Clouds 19 1020 72 10000 3.1 30 18:39 14.12.2019
6471 Clouds 19 1020 72 10000 3.1 30 18:21 14.12.2019
6472 Clouds 19 1020 72 10000 3.1 50 17:58 14.12.2019
6473 Clouds 20 1020 72 10000 3.6 50 17:40 14.12.2019
6474 Clouds 20 1020 72 10000 3.6 50 17:21 14.12.2019
6475 Clouds 20 1020 73 10000 4.6 50 16:41 14.12.2019
6476 Clouds 20 1020 73 10000 4.6 50 16:19 14.12.2019
6477 Clouds 20 1020 68 10000 5.1 30 15:56 14.12.2019
6478 Clouds 21 1020 64 10000 5.1 40 15:38 14.12.2019
6479 Clouds 21 1020 64 10000 5.1 40 15:19 14.12.2019
6480 Clouds 21 1021 68 10000 4.6 60 14:56 14.12.2019
6481 Clouds 21 1021 64 10000 5.1 50 14:37 14.12.2019
6482 Clouds 21 1021 64 10000 5.1 50 14:37 14.12.2019
6483 Clouds 21 1021 64 10000 5.1 50 14:18 14.12.2019
6484 Clouds 21 1021 60 10000 5.1 30 13:44 14.12.2019
6485 Clouds 22 1022 64 10000 6.7 30 13:19 14.12.2019
6486 Clouds 22 1022 64 10000 6.2 30 12:57 14.12.2019
6487 Clouds 21 1022 68 10000 5.7 30 12:38 14.12.2019
6488 Clouds 21 1022 68 10000 5.7 30 12:38 14.12.2019
6489 Clouds 21 1022 64 10000 5.1 30 12:20 14.12.2019
6490 Clouds 21 1022 64 10000 5.1 30 11:56 14.12.2019
6491 Clouds 20 1022 68 10000 5.7 20 11:38 14.12.2019
6492 Clouds 20 1022 68 10000 5.7 20 11:19 14.12.2019
6493 Clouds 19 1022 63 10000 3.6 10 10:56 14.12.2019
6494 Clouds 19 1022 63 10000 3.6 10 10:38 14.12.2019
6495 Clouds 19 1022 63 10000 3.6 10 10:19 14.12.2019
6496 Clouds 18 1022 63 10000 3.6 340 09:43 14.12.2019
6497 Clouds 17 1022 68 10000 4.1 330 09:23 14.12.2019
6498 Clouds 18 1022 72 10000 4.1 340 08:57 14.12.2019
6499 Clouds 18 1022 72 10000 4.1 340 08:57 14.12.2019
6500 Clouds 18 1022 72 10000 4.1 340 08:57 14.12.2019
6501 Clouds 17 1021 77 10000 4.1 350 08:38 14.12.2019
6502 Clouds 17 1021 77 10000 4.1 350 08:19 14.12.2019
6503 Clouds 17 1021 77 10000 4.6 350 07:40 14.12.2019
6504 Clouds 17 1021 77 10000 4.6 350 07:21 14.12.2019
6505 Clouds 17 1021 77 10000 4.1 10 06:55 14.12.2019
6506 Clouds 17 1021 72 10000 5.7 30 06:36 14.12.2019
6507 Clouds 18 1021 72 10000 6.7 30 05:52 14.12.2019
6508 Clouds 17 1022 72 10000 5.7 350 04:29 14.12.2019
6509 Clouds 18 1023 68 10000 5.7 10 02:24 14.12.2019
6510 Clouds 18 1023 63 10000 4.1 360 01:44 14.12.2019
6511 Clouds 18 1023 59 10000 6.2 360 01:20 14.12.2019
6512 Clouds 17 1024 63 10000 5.1 360 00:43 14.12.2019
6513 Clouds 17 1024 63 10000 6.2 10 00:22 14.12.2019
6514 Clouds 18 1024 59 10000 6.2 360 23:42 13.12.2019
6515 Clouds 18 1024 63 10000 7.2 350 23:20 13.12.2019
6516 Clouds 18 1024 63 10000 6.7 360 22:59 13.12.2019
6517 Clouds 18 1024 63 10000 9.8 20 22:40 13.12.2019
6518 Clouds 18 1024 63 10000 9.8 20 22:18 13.12.2019
6519 Clouds 18 1023 68 10000 8.2 10 21:46 13.12.2019
6520 Clouds 18 1023 63 10000 7.2 350 21:22 13.12.2019
6521 Clouds 18 1023 68 10000 7.2 360 20:59 13.12.2019
6522 Clouds 18 1023 68 10000 8.2 10 20:40 13.12.2019
6523 Clouds 19 1023 68 10000 8.2 10 20:21 13.12.2019
6524 Clouds 19 1023 59 10000 7.7 10 19:57 13.12.2019
6525 Clouds 19 1023 59 10000 7.7 10 19:39 13.12.2019
6526 Clouds 19 1023 63 10000 9.8 10 19:20 13.12.2019
6527 Clouds 19 1023 60 10000 9.3 10 18:56 13.12.2019
6528 Clouds 20 1023 60 10000 9.3 10 18:38 13.12.2019
6529 Clouds 20 1023 56 10000 9.3 360 18:18 13.12.2019
6530 Clouds 20 1023 60 10000 11.3 10 17:40 13.12.2019
6531 Clouds 20 1023 60 10000 11.3 10 17:19 13.12.2019
6532 Clouds 20 1023 60 10000 11.3 10 17:19 13.12.2019
6533 Clouds 21 1023 60 10000 10.3 360 16:58 13.12.2019
6534 Clouds 21 1023 56 10000 10.8 10 16:39 13.12.2019
6535 Clouds 21 1023 56 10000 10.8 10 16:20 13.12.2019
6536 Clouds 21 1024 52 10000 11.3 10 15:43 13.12.2019
6537 Clouds 21 1024 52 10000 11.3 10 15:22 13.12.2019
6538 Clouds 21 1025 52 10000 10.8 10 14:57 13.12.2019
6539 Clouds 21 1025 52 10000 10.8 10 14:39 13.12.2019
6540 Clouds 21 1025 53 10000 8.7 10 14:20 13.12.2019
6541 Clouds 20 1026 56 10000 8.7 10 13:45 13.12.2019
6542 Clouds 20 1027 56 10000 9.8 10 13:27 13.12.2019
6543 Clouds 20 1027 56 10000 9.3 20 12:59 13.12.2019
6544 Clouds 20 1027 56 10000 9.3 20 12:41 13.12.2019
6545 Clouds 19 1027 55 10000 10.8 20 12:19 13.12.2019
6546 Clouds 19 1027 55 10000 10.8 20 11:45 13.12.2019
6547 Clouds 19 1027 55 10000 9.8 10 11:27 13.12.2019
6548 Clouds 18 1027 59 10000 10.3 20 10:58 13.12.2019
6549 Clouds 18 1027 59 10000 10.3 20 10:40 13.12.2019
6550 Clouds 18 1027 59 10000 11.3 20 10:21 13.12.2019
6551 Clouds 17 1027 55 10000 9.3 10 09:43 13.12.2019
6552 Clouds 17 1026 59 10000 10.3 10 09:22 13.12.2019
6553 Clouds 17 1026 63 10000 9.8 10 08:55 13.12.2019
6554 Clouds 17 1026 59 10000 10.8 20 08:37 13.12.2019
6555 Clouds 17 1026 59 10000 10.8 20 08:19 13.12.2019
6556 Clouds 17 1026 59 10000 9.3 10 07:43 13.12.2019
6557 Clouds 17 1026 59 10000 10.3 20 07:19 13.12.2019
6558 Clouds 17 1026 55 10000 10.3 360 06:46 13.12.2019
6559 Clouds 17 1026 59 10000 11.3 20 06:27 13.12.2019
6560 Clouds 17 1026 63 10000 10.3 10 05:41 13.12.2019
6561 Clouds 17 1026 63 10000 9.3 10 05:20 13.12.2019
6562 Clouds 17 1026 59 10000 12.3 20 04:29 13.12.2019
6563 Clouds 18 1027 63 10000 11.3 10 02:57 13.12.2019
6564 Rain 18 1027 68 10000 10.8 10 02:30 13.12.2019
6565 Clouds 18 1027 59 10000 9.3 360 01:38 13.12.2019
6566 Clouds 18 1028 55 10000 12.9 20 00:51 13.12.2019
6567 Clouds 19 1028 55 10000 9.8 360 00:28 13.12.2019
6568 Clouds 19 1028 59 10000 9.3 10 23:44 12.12.2019
6569 Clouds 18 1028 59 10000 11.3 20 23:26 12.12.2019
6570 Clouds 19 1027 63 10000 8.2 360 22:57 12.12.2019
6571 Clouds 19 1027 63 10000 8.2 360 22:39 12.12.2019
6572 Rain 19 1027 63 10000 10.3 10 22:21 12.12.2019
6573 Rain 19 1027 59 10000 10.8 10 21:56 12.12.2019
6574 Clouds 19 1027 63 10000 11.3 20 21:37 12.12.2019
6575 Clouds 19 1027 63 10000 11.3 20 21:19 12.12.2019
6576 Clouds 19 1027 63 10000 11.3 20 21:19 12.12.2019
6577 Clouds 19 1026 63 10000 11.8 20 20:59 12.12.2019
6578 Clouds 19 1026 63 10000 11.8 20 20:40 12.12.2019
6579 Clouds 19 1026 68 10000 11.3 20 20:22 12.12.2019
6580 Clouds 19 1026 68 10000 11.8 20 19:56 12.12.2019
6581 Clouds 19 1026 68 10000 11.8 20 19:37 12.12.2019
6582 Clouds 19 1026 68 10000 12.3 20 19:19 12.12.2019
6583 Clouds 20 1026 68 10000 11.8 20 18:56 12.12.2019
6584 Clouds 20 1026 68 10000 11.8 20 18:38 12.12.2019
6585 Clouds 20 1026 72 10000 10.8 20 18:19 12.12.2019
6586 Clouds 21 1026 68 10000 10.8 20 17:57 12.12.2019
6587 Clouds 21 1026 68 10000 10.8 20 17:38 12.12.2019
6588 Clouds 21 1026 68 10000 9.8 30 17:19 12.12.2019
6589 Clouds 21 1026 64 10000 10.8 30 16:55 12.12.2019
6590 Clouds 21 1026 68 10000 10.8 30 16:36 12.12.2019
6591 Clouds 21 1026 68 10000 10.8 30 16:18 12.12.2019
6592 Clouds 21 1026 68 10000 10.8 30 15:42 12.12.2019
6593 Clouds 21 1026 72 10000 11.3 20 15:20 12.12.2019
6594 Rain 22 1026 68 10000 8.2 10 14:59 12.12.2019
6595 Clouds 22 1027 64 10000 8.7 10 14:38 12.12.2019
6596 Clouds 22 1027 64 10000 8.7 10 14:19 12.12.2019
6597 Clouds 21 1028 68 10000 10.3 20 13:56 12.12.2019
6598 Clouds 21 1028 64 10000 9.8 20 13:38 12.12.2019
6599 Clouds 21 1028 64 10000 9.8 20 13:20 12.12.2019
6600 Clouds 21 1028 64 10000 9.3 20 12:56 12.12.2019
6601 Clouds 21 1028 64 10000 8.7 10 12:38 12.12.2019
6602 Clouds 21 1028 64 10000 8.7 10 12:18 12.12.2019
6603 Clouds 21 1028 64 10000 10.3 20 11:43 12.12.2019
6604 Clouds 21 1028 64 10000 9.3 10 11:22 12.12.2019
6605 Clouds 19 1028 68 10000 8.7 10 10:59 12.12.2019
6606 Clouds 19 1028 68 10000 8.7 10 10:41 12.12.2019
6607 Clouds 19 1027 68 10000 8.7 20 10:23 12.12.2019
6608 Clouds 18 1027 72 10000 7.7 360 09:58 12.12.2019
6609 Clouds 18 1027 72 10000 7.7 360 09:40 12.12.2019
6610 Clouds 17 1026 72 10000 7.7 360 09:21 12.12.2019
6611 Clouds 17 1027 72 10000 7.7 360 08:54 12.12.2019
6612 Clouds 17 1027 72 10000 7.7 360 08:36 12.12.2019
6613 Clouds 17 1026 72 10000 8.2 350 08:18 12.12.2019
6614 Clouds 17 1026 72 10000 8.7 360 07:41 12.12.2019
6615 Clouds 17 1026 72 10000 8.7 360 07:21 12.12.2019
6616 Clouds 17 1026 72 10000 8.7 360 06:44 12.12.2019
6617 Clouds 17 1026 72 10000 8.7 360 06:44 12.12.2019
6618 Clouds 17 1026 72 10000 7.7 350 06:23 12.12.2019
6619 Clouds 17 1026 72 10000 8.2 360 05:35 12.12.2019
6620 Clouds 17 1026 72 10000 7.7 360 04:49 12.12.2019
6621 Clouds 16 1027 72 10000 9.3 10 02:44 12.12.2019
6622 Clouds 16 1027 72 10000 8.2 10 02:26 12.12.2019
6623 Clouds 17 1027 68 10000 8.2 360 01:59 12.12.2019
6624 Clouds 17 1027 68 10000 8.2 360 01:36 12.12.2019
6625 Clouds 18 1027 63 10000 9.8 10 00:50 12.12.2019
6626 Clouds 17 1027 63 10000 8.2 360 00:22 12.12.2019
6627 Clouds 17 1027 68 10000 9.3 10 23:58 11.12.2019
6628 Clouds 18 1027 68 10000 9.3 10 23:39 11.12.2019
6629 Clouds 18 1027 63 10000 8.7 360 23:19 11.12.2019
6630 Clouds 18 1027 63 10000 9.8 10 22:57 11.12.2019
6631 Clouds 18 1027 63 10000 9.8 10 22:38 11.12.2019
6632 Clouds 19 1027 68 10000 8.7 10 22:19 11.12.2019
6633 Clouds 19 1026 63 10000 10.3 10 21:55 11.12.2019
6634 Clouds 19 1026 63 10000 9.3 10 21:36 11.12.2019
6635 Clouds 18 1026 63 10000 9.3 10 21:18 11.12.2019
6636 Clouds 19 1026 63 10000 9.3 10 21:18 11.12.2019
6637 Clouds 19 1026 63 10000 10.3 20 20:55 11.12.2019
6638 Clouds 18 1026 63 10000 10.3 20 20:36 11.12.2019
6639 Clouds 19 1026 68 10000 9.3 20 20:18 11.12.2019
6640 Clouds 18 1026 68 10000 9.8 20 19:42 11.12.2019
6641 Clouds 18 1026 68 10000 10.3 20 19:23 11.12.2019
6642 Clouds 19 1025 68 10000 10.3 20 18:59 11.12.2019
6643 Clouds 20 1025 68 10000 10.3 20 18:40 11.12.2019
6644 Clouds 19 1025 68 10000 10.3 20 18:20 11.12.2019
6645 Clouds 20 1025 72 10000 10.8 20 17:56 11.12.2019
6646 Clouds 21 1025 72 10000 10.8 20 17:38 11.12.2019
6647 Clouds 21 1025 64 10000 10.8 20 17:18 11.12.2019
6648 Clouds 21 1025 64 10000 10.8 20 16:56 11.12.2019
6649 Clouds 23 1025 64 10000 10.8 20 16:37 11.12.2019
6650 Clouds 23 1025 64 10000 10.8 20 16:18 11.12.2019
6651 Clouds 22 1026 68 10000 10.3 20 15:56 11.12.2019
6652 Clouds 21 1026 68 10000 10.3 20 15:37 11.12.2019
6653 Clouds 21 1026 60 10000 10.8 30 15:19 11.12.2019
6654 Clouds 23 1026 64 10000 10.3 30 14:55 11.12.2019
6655 Clouds 23 1027 64 10000 9.8 20 14:36 11.12.2019
6656 Clouds 21 1027 64 10000 9.8 20 14:18 11.12.2019
6657 Clouds 21 1027 64 10000 9.3 30 13:43 11.12.2019
6658 Clouds 20 1028 68 10000 8.7 30 13:23 11.12.2019
6659 Clouds 21 1028 68 10000 8.7 30 12:58 11.12.2019
6660 Clouds 21 1028 68 10000 8.7 30 12:39 11.12.2019
6661 Clouds 21 1028 68 10000 8.2 30 12:21 11.12.2019
6662 Clouds 21 1028 68 10000 8.2 20 11:58 11.12.2019
6663 Clouds 20 1028 72 10000 8.2 10 11:39 11.12.2019
6664 Clouds 20 1028 72 10000 8.2 10 11:19 11.12.2019
6665 Clouds 20 1028 72 10000 8.2 10 11:19 11.12.2019
6666 Clouds 20 1028 72 10000 7.2 10 10:59 11.12.2019
6667 Clouds 18 1027 72 10000 7.7 30 10:39 11.12.2019
6668 Clouds 18 1027 72 10000 7.7 30 10:21 11.12.2019
6669 Clouds 17 1027 72 10000 6.7 350 09:55 11.12.2019
6670 Clouds 17 1027 72 10000 6.7 350 09:37 11.12.2019